<?xml version='1.0' encoding='UTF-8'?><gpx version="1.1" creator="JPX - https://github.com/jenetics/jpx" xmlns="http://www.topografix.com/GPX/1/1"><trk><trkseg><trkpt lat="43.846898245917785" lon="10.516134571724994"><ele>19.0</ele><time>2026-04-15T11:58:18.999Z</time></trkpt><trkpt lat="43.846865854597525" lon="10.516040798497073"><ele>19.0</ele><time>2026-04-15T11:58:21.999Z</time></trkpt><trkpt lat="43.84686086375557" lon="10.515942524898454"><ele>19.0</ele><time>2026-04-15T11:58:23.999Z</time></trkpt><trkpt lat="43.8467994192412" lon="10.51582451133507"><ele>19.0</ele><time>2026-04-15T11:58:38.999Z</time></trkpt><trkpt lat="43.846721071045266" lon="10.515835933801739"><ele>19.0</ele><time>2026-04-15T11:58:39.999Z</time></trkpt><trkpt lat="43.84662134724676" lon="10.51587257795536"><ele>19.0</ele><time>2026-04-15T11:58:40.999Z</time></trkpt><trkpt lat="43.84650454641618" lon="10.515901244534465"><ele>18.5</ele><time>2026-04-15T11:58:41.999Z</time></trkpt><trkpt lat="43.8463729390875" lon="10.515939655638386"><ele>18.0</ele><time>2026-04-15T11:58:42.999Z</time></trkpt><trkpt lat="43.846230631273734" lon="10.51598164931814"><ele>17.5</ele><time>2026-04-15T11:58:43.999Z</time></trkpt><trkpt lat="43.846082706018045" lon="10.516021639376758"><ele>17.0</ele><time>2026-04-15T11:58:44.999Z</time></trkpt><trkpt lat="43.84594988478872" lon="10.51605577392153"><ele>17.0</ele><time>2026-04-15T11:58:45.999Z</time></trkpt><trkpt lat="43.84583310335102" lon="10.51608895613767"><ele>17.0</ele><time>2026-04-15T11:58:46.999Z</time></trkpt><trkpt lat="43.845726656949225" lon="10.516119986972923"><ele>17.0</ele><time>2026-04-15T11:58:47.999Z</time></trkpt><trkpt lat="43.84561794353733" lon="10.516151913951271"><ele>17.0</ele><time>2026-04-15T11:58:48.999Z</time></trkpt><trkpt lat="43.84551028206137" lon="10.516180621234115"><ele>17.0</ele><time>2026-04-15T11:58:49.999Z</time></trkpt><trkpt lat="43.84539875037735" lon="10.51620904222327"><ele>17.0</ele><time>2026-04-15T11:58:50.999Z</time></trkpt><trkpt lat="43.845291824942365" lon="10.516234363349838"><ele>17.0</ele><time>2026-04-15T11:58:51.999Z</time></trkpt><trkpt lat="43.84518916369779" lon="10.51625345978097"><ele>17.0</ele><time>2026-04-15T11:58:52.999Z</time></trkpt><trkpt lat="43.84508187578461" lon="10.516264273296565"><ele>17.0</ele><time>2026-04-15T11:58:53.999Z</time></trkpt><trkpt lat="43.84497457334072" lon="10.516266719123063"><ele>17.0</ele><time>2026-04-15T11:58:55Z</time></trkpt><trkpt lat="43.844863846155555" lon="10.516260113696214"><ele>17.0</ele><time>2026-04-15T11:58:56Z</time></trkpt><trkpt lat="43.84475558191632" lon="10.516248141915764"><ele>17.0</ele><time>2026-04-15T11:58:57Z</time></trkpt><trkpt lat="43.84464919285636" lon="10.516226339960967"><ele>17.0</ele><time>2026-04-15T11:58:58Z</time></trkpt><trkpt lat="43.844544938519746" lon="10.516197929066532"><ele>17.0</ele><time>2026-04-15T11:58:59Z</time></trkpt><trkpt lat="43.84444008915127" lon="10.516167641704882"><ele>17.0</ele><time>2026-04-15T11:59:00Z</time></trkpt><trkpt lat="43.84433306827871" lon="10.51613342670175"><ele>16.8</ele><time>2026-04-15T11:59:01Z</time></trkpt><trkpt lat="43.84422663968791" lon="10.51609512587505"><ele>16.6</ele><time>2026-04-15T11:59:02Z</time></trkpt><trkpt lat="43.844122398447844" lon="10.516054190110356"><ele>16.400000000000002</ele><time>2026-04-15T11:59:03Z</time></trkpt><trkpt lat="43.84402537880533" lon="10.516019600287176"><ele>16.2</ele><time>2026-04-15T11:59:04Z</time></trkpt><trkpt lat="43.843938048515206" lon="10.515990663890287"><ele>16.0</ele><time>2026-04-15T11:59:05Z</time></trkpt><trkpt lat="43.84385859527312" lon="10.515967702922518"><ele>15.999999999999998</ele><time>2026-04-15T11:59:06Z</time></trkpt><trkpt lat="43.84378636135166" lon="10.515943283878215"><ele>16.0</ele><time>2026-04-15T11:59:07Z</time></trkpt><trkpt lat="43.84372227924715" lon="10.515918218167853"><ele>16.0</ele><time>2026-04-15T11:59:08Z</time></trkpt><trkpt lat="43.84362887973134" lon="10.515879224772995"><ele>16.0</ele><time>2026-04-15T11:59:10Z</time></trkpt><trkpt lat="43.84353557301919" lon="10.515819471346841"><ele>15.999999999999998</ele><time>2026-04-15T11:59:12Z</time></trkpt><trkpt lat="43.843479465208006" lon="10.515778872139908"><ele>16.0</ele><time>2026-04-15T11:59:13Z</time></trkpt><trkpt lat="43.84341747399994" lon="10.515726181749462"><ele>16.333333333333332</ele><time>2026-04-15T11:59:14Z</time></trkpt><trkpt lat="43.843323206405756" lon="10.515630987809109"><ele>16.666666666666664</ele><time>2026-04-15T11:59:16Z</time></trkpt><trkpt lat="43.843271020737575" lon="10.515572123694122"><ele>17.0</ele><time>2026-04-15T11:59:18Z</time></trkpt><trkpt lat="43.84322315758511" lon="10.515507467895363"><ele>17.333333333333332</ele><time>2026-04-15T11:59:21Z</time></trkpt><trkpt lat="43.84317404707674" lon="10.515426922996575"><ele>17.666666666666668</ele><time>2026-04-15T11:59:26Z</time></trkpt><trkpt lat="43.84312731828826" lon="10.5153220842296"><ele>18.0</ele><time>2026-04-15T11:59:29Z</time></trkpt><trkpt lat="43.8430578610692" lon="10.515226246165513"><ele>18.0</ele><time>2026-04-15T11:59:31Z</time></trkpt><trkpt lat="43.842969285974036" lon="10.515131901754279"><ele>18.0</ele><time>2026-04-15T11:59:33Z</time></trkpt><trkpt lat="43.842871695363506" lon="10.515089780912168"><ele>18.0</ele><time>2026-04-15T11:59:35Z</time></trkpt><trkpt lat="43.84279509816021" lon="10.515096172821321"><ele>18.0</ele><time>2026-04-15T11:59:39Z</time></trkpt><trkpt lat="43.842729283183004" lon="10.515112817992735"><ele>18.0</ele><time>2026-04-15T11:59:41Z</time></trkpt><trkpt lat="43.842675272661026" lon="10.515158351306232"><ele>18.0</ele><time>2026-04-15T11:59:45Z</time></trkpt><trkpt lat="43.8426163734786" lon="10.5152100157336"><ele>17.833333333333332</ele><time>2026-04-15T11:59:49Z</time></trkpt><trkpt lat="43.842531095880496" lon="10.515244924070391"><ele>17.666666666666668</ele><time>2026-04-15T11:59:52Z</time></trkpt><trkpt lat="43.842420030921794" lon="10.515281156579379"><ele>17.5</ele><time>2026-04-15T11:59:54Z</time></trkpt><trkpt lat="43.8423561042022" lon="10.515296127397654"><ele>17.333333333333336</ele><time>2026-04-15T11:59:55Z</time></trkpt><trkpt lat="43.842279977836085" lon="10.515304917883956"><ele>17.166666666666668</ele><time>2026-04-15T11:59:56Z</time></trkpt><trkpt lat="43.84219316820863" lon="10.515294651537415"><ele>17.0</ele><time>2026-04-15T11:59:57Z</time></trkpt><trkpt lat="43.842100576358746" lon="10.515284634954167"><ele>17.0</ele><time>2026-04-15T11:59:58Z</time></trkpt><trkpt lat="43.842008072884454" lon="10.515271579161764"><ele>17.0</ele><time>2026-04-15T11:59:59Z</time></trkpt><trkpt lat="43.84191305078965" lon="10.515253084763266"><ele>17.0</ele><time>2026-04-15T12:00:00Z</time></trkpt><trkpt lat="43.841810863177315" lon="10.515230455956859"><ele>17.0</ele><time>2026-04-15T12:00:01Z</time></trkpt><trkpt lat="43.84169634514777" lon="10.515203419651025"><ele>17.0</ele><time>2026-04-15T12:00:02Z</time></trkpt><trkpt lat="43.84159516108695" lon="10.515178180711878"><ele>17.333333333333336</ele><time>2026-04-15T12:00:03Z</time></trkpt><trkpt lat="43.841516331271265" lon="10.515149318011662"><ele>17.666666666666668</ele><time>2026-04-15T12:00:04Z</time></trkpt><trkpt lat="43.84141661797032" lon="10.515119266463302"><ele>18.0</ele><time>2026-04-15T12:00:05.999Z</time></trkpt><trkpt lat="43.84135549559611" lon="10.515078221977952"><ele>18.333333333333332</ele><time>2026-04-15T12:00:07.999Z</time></trkpt><trkpt lat="43.84129196521735" lon="10.515063957071263"><ele>18.666666666666664</ele><time>2026-04-15T12:00:23Z</time></trkpt><trkpt lat="43.84119263627239" lon="10.515064939162949"><ele>19.0</ele><time>2026-04-15T12:01:24Z</time></trkpt><trkpt lat="43.84112377633871" lon="10.515049278765444"><ele>19.0</ele><time>2026-04-15T12:01:25Z</time></trkpt><trkpt lat="43.841038222250845" lon="10.515017571837468"><ele>19.0</ele><time>2026-04-15T12:01:26Z</time></trkpt><trkpt lat="43.84094457573329" lon="10.514981629166725"><ele>19.0</ele><time>2026-04-15T12:01:27Z</time></trkpt><trkpt lat="43.84084672492314" lon="10.514953064310784"><ele>19.0</ele><time>2026-04-15T12:01:28Z</time></trkpt><trkpt lat="43.84073307930953" lon="10.514921114220071"><ele>19.0</ele><time>2026-04-15T12:01:29Z</time></trkpt><trkpt lat="43.84064019737502" lon="10.514868611041685"><ele>18.833333333333332</ele><time>2026-04-15T12:01:30Z</time></trkpt><trkpt lat="43.84057181905604" lon="10.514810947537075"><ele>18.666666666666664</ele><time>2026-04-15T12:01:31Z</time></trkpt><trkpt lat="43.840491782837695" lon="10.514797880419012"><ele>18.5</ele><time>2026-04-15T12:01:33Z</time></trkpt><trkpt lat="43.840450701220284" lon="10.514872137713274"><ele>18.333333333333332</ele><time>2026-04-15T12:01:36Z</time></trkpt><trkpt lat="43.84044936147605" lon="10.51496792111221"><ele>18.166666666666668</ele><time>2026-04-15T12:01:38Z</time></trkpt><trkpt lat="43.84051490973167" lon="10.515031235372465"><ele>18.0</ele><time>2026-04-15T12:01:40Z</time></trkpt><trkpt lat="43.840611389835566" lon="10.515031865060358"><ele>18.0</ele><time>2026-04-15T12:01:42Z</time></trkpt><trkpt lat="43.84072206847306" lon="10.514995533305648"><ele>18.0</ele><time>2026-04-15T12:01:44Z</time></trkpt><trkpt lat="43.8408371494997" lon="10.515014246691095"><ele>18.0</ele><time>2026-04-15T12:01:46Z</time></trkpt><trkpt lat="43.84093366619454" lon="10.515058337910697"><ele>18.0</ele><time>2026-04-15T12:01:48Z</time></trkpt><trkpt lat="43.84105658821497" lon="10.515076536894282"><ele>18.25</ele><time>2026-04-15T12:01:50Z</time></trkpt><trkpt lat="43.841155033718216" lon="10.515096339334638"><ele>18.5</ele><time>2026-04-15T12:01:51Z</time></trkpt><trkpt lat="43.84126819416685" lon="10.51513232697019"><ele>18.75</ele><time>2026-04-15T12:01:52Z</time></trkpt><trkpt lat="43.84138630203487" lon="10.515175412807357"><ele>19.0</ele><time>2026-04-15T12:01:53Z</time></trkpt><trkpt lat="43.84151381977763" lon="10.515221291870093"><ele>19.0</ele><time>2026-04-15T12:01:54Z</time></trkpt><trkpt lat="43.841629713340936" lon="10.515259337740384"><ele>19.0</ele><time>2026-04-15T12:01:55Z</time></trkpt><trkpt lat="43.84172505208838" lon="10.51528591337533"><ele>19.0</ele><time>2026-04-15T12:01:56Z</time></trkpt><trkpt lat="43.841802248480256" lon="10.515308375836607"><ele>19.0</ele><time>2026-04-15T12:01:57Z</time></trkpt><trkpt lat="43.84187682530715" lon="10.515325824702439"><ele>19.0</ele><time>2026-04-15T12:01:59Z</time></trkpt><trkpt lat="43.841956029327676" lon="10.515342938157572"><ele>19.0</ele><time>2026-04-15T12:02:03Z</time></trkpt><trkpt lat="43.842040778241035" lon="10.515349144801455"><ele>19.0</ele><time>2026-04-15T12:02:07Z</time></trkpt><trkpt lat="43.84211730969681" lon="10.515359898294204"><ele>19.0</ele><time>2026-04-15T12:02:11.999Z</time></trkpt><trkpt lat="43.84218510499753" lon="10.515393074784415"><ele>19.0</ele><time>2026-04-15T12:02:16.999Z</time></trkpt><trkpt lat="43.84227166304464" lon="10.515447644693575"><ele>19.0</ele><time>2026-04-15T12:02:20Z</time></trkpt><trkpt lat="43.84234055573721" lon="10.515457415816888"><ele>19.0</ele><time>2026-04-15T12:02:23Z</time></trkpt><trkpt lat="43.842416062106736" lon="10.515476375974316"><ele>19.0</ele><time>2026-04-15T12:02:25Z</time></trkpt><trkpt lat="43.84251139080702" lon="10.515503862283511"><ele>19.0</ele><time>2026-04-15T12:02:27Z</time></trkpt><trkpt lat="43.84258899434068" lon="10.515528930980821"><ele>19.0</ele><time>2026-04-15T12:02:29Z</time></trkpt><trkpt lat="43.842665542027646" lon="10.515599502700475"><ele>19.0</ele><time>2026-04-15T12:02:31Z</time></trkpt><trkpt lat="43.84274040453929" lon="10.515707450581171"><ele>19.0</ele><time>2026-04-15T12:02:33Z</time></trkpt><trkpt lat="43.84280350064053" lon="10.515746319800181"><ele>19.0</ele><time>2026-04-15T12:02:35Z</time></trkpt><trkpt lat="43.842743378996204" lon="10.515919372610364"><ele>19.0</ele><time>2026-04-15T12:02:36Z</time></trkpt><trkpt lat="43.8427292141063" lon="10.516019765321028"><ele>19.0</ele><time>2026-04-15T12:02:37Z</time></trkpt><trkpt lat="43.8427134465819" lon="10.516126502495315"><ele>19.0</ele><time>2026-04-15T12:02:38Z</time></trkpt><trkpt lat="43.842698783563485" lon="10.516245899149993"><ele>19.0</ele><time>2026-04-15T12:02:39Z</time></trkpt><trkpt lat="43.84268260336736" lon="10.516364643635029"><ele>19.0</ele><time>2026-04-15T12:02:40Z</time></trkpt><trkpt lat="43.84265937334825" lon="10.516484902460183"><ele>19.0</ele><time>2026-04-15T12:02:41Z</time></trkpt><trkpt lat="43.84263976589553" lon="10.51660402282932"><ele>19.0</ele><time>2026-04-15T12:02:42Z</time></trkpt><trkpt lat="43.84261921732696" lon="10.516732134714958"><ele>19.0</ele><time>2026-04-15T12:02:43Z</time></trkpt><trkpt lat="43.84259731780925" lon="10.516865055742377"><ele>19.0</ele><time>2026-04-15T12:02:44Z</time></trkpt><trkpt lat="43.84257206687798" lon="10.516999762557322"><ele>19.0</ele><time>2026-04-15T12:02:45Z</time></trkpt><trkpt lat="43.84254568447988" lon="10.517145304892017"><ele>19.0</ele><time>2026-04-15T12:02:46Z</time></trkpt><trkpt lat="43.84252093009135" lon="10.517294672239887"><ele>18.8</ele><time>2026-04-15T12:02:47Z</time></trkpt><trkpt lat="43.84249310254908" lon="10.517437630549624"><ele>18.599999999999998</ele><time>2026-04-15T12:02:48Z</time></trkpt><trkpt lat="43.84246674600759" lon="10.517567150339227"><ele>18.4</ele><time>2026-04-15T12:02:49Z</time></trkpt><trkpt lat="43.84244197558768" lon="10.51769227668683"><ele>18.2</ele><time>2026-04-15T12:02:50Z</time></trkpt><trkpt lat="43.842417429693036" lon="10.517825200175164"><ele>18.0</ele><time>2026-04-15T12:02:51Z</time></trkpt><trkpt lat="43.842393147555185" lon="10.517951585643658"><ele>18.333333333333332</ele><time>2026-04-15T12:02:52Z</time></trkpt><trkpt lat="43.842370097481336" lon="10.518058624175852"><ele>18.666666666666668</ele><time>2026-04-15T12:02:53Z</time></trkpt><trkpt lat="43.84235121826217" lon="10.518145164497973"><ele>19.0</ele><time>2026-04-15T12:02:54Z</time></trkpt><trkpt lat="43.84232817261209" lon="10.518250353105605"><ele>19.333333333333336</ele><time>2026-04-15T12:02:56Z</time></trkpt><trkpt lat="43.842304591640016" lon="10.518345792888118"><ele>19.666666666666668</ele><time>2026-04-15T12:02:58Z</time></trkpt><trkpt lat="43.84224308558259" lon="10.518477248270795"><ele>20.0</ele><time>2026-04-15T12:03:00Z</time></trkpt><trkpt lat="43.842169040754044" lon="10.518515475317606"><ele>20.0</ele><time>2026-04-15T12:03:01Z</time></trkpt><trkpt lat="43.84208629919832" lon="10.518519781340242"><ele>20.0</ele><time>2026-04-15T12:03:02Z</time></trkpt><trkpt lat="43.84200610447584" lon="10.518509365857119"><ele>20.0</ele><time>2026-04-15T12:03:03Z</time></trkpt><trkpt lat="43.841922158797736" lon="10.51850268316685"><ele>20.0</ele><time>2026-04-15T12:03:04Z</time></trkpt><trkpt lat="43.84184428046418" lon="10.518508400204505"><ele>20.0</ele><time>2026-04-15T12:03:05Z</time></trkpt><trkpt lat="43.84177637669259" lon="10.518532773945182"><ele>20.0</ele><time>2026-04-15T12:03:06Z</time></trkpt><trkpt lat="43.84172207894405" lon="10.518579485631278"><ele>19.5</ele><time>2026-04-15T12:03:07Z</time></trkpt><trkpt lat="43.84165632353161" lon="10.518701323708605"><ele>19.0</ele><time>2026-04-15T12:03:09Z</time></trkpt><trkpt lat="43.84164256521441" lon="10.518814357548095"><ele>18.5</ele><time>2026-04-15T12:03:11Z</time></trkpt><trkpt lat="43.841629306306075" lon="10.518915023099083"><ele>18.0</ele><time>2026-04-15T12:03:13Z</time></trkpt><trkpt lat="43.841614536489004" lon="10.519008357060432"><ele>17.5</ele><time>2026-04-15T12:03:14Z</time></trkpt><trkpt lat="43.84160666851417" lon="10.519141338415986"><ele>17.0</ele><time>2026-04-15T12:03:15Z</time></trkpt><trkpt lat="43.841600219872774" lon="10.519299162368393"><ele>17.0</ele><time>2026-04-15T12:03:16Z</time></trkpt><trkpt lat="43.84158562733191" lon="10.519482987990148"><ele>17.0</ele><time>2026-04-15T12:03:17Z</time></trkpt><trkpt lat="43.84156551395827" lon="10.519680518215656"><ele>17.0</ele><time>2026-04-15T12:03:18Z</time></trkpt><trkpt lat="43.84154063690651" lon="10.519842208024086"><ele>17.0</ele><time>2026-04-15T12:03:19Z</time></trkpt><trkpt lat="43.84149589850701" lon="10.519977740312466"><ele>17.0</ele><time>2026-04-15T12:03:20Z</time></trkpt><trkpt lat="43.84145351536403" lon="10.520094124862302"><ele>17.0</ele><time>2026-04-15T12:03:21Z</time></trkpt><trkpt lat="43.841423001096814" lon="10.520208071770897"><ele>17.0</ele><time>2026-04-15T12:03:22Z</time></trkpt><trkpt lat="43.841402321294375" lon="10.520300526467041"><ele>17.0</ele><time>2026-04-15T12:03:23Z</time></trkpt><trkpt lat="43.841371539607316" lon="10.520416967510021"><ele>17.0</ele><time>2026-04-15T12:03:25Z</time></trkpt><trkpt lat="43.84134526854929" lon="10.520524871361868"><ele>17.0</ele><time>2026-04-15T12:03:26Z</time></trkpt><trkpt lat="43.841325137769154" lon="10.520651964225234"><ele>17.0</ele><time>2026-04-15T12:03:27Z</time></trkpt><trkpt lat="43.841304838205396" lon="10.520789135437191"><ele>17.0</ele><time>2026-04-15T12:03:28Z</time></trkpt><trkpt lat="43.84127931807598" lon="10.52093268055923"><ele>17.0</ele><time>2026-04-15T12:03:29Z</time></trkpt><trkpt lat="43.841247813688014" lon="10.521086562715393"><ele>17.0</ele><time>2026-04-15T12:03:30Z</time></trkpt><trkpt lat="43.84121006065393" lon="10.521247642176274"><ele>17.0</ele><time>2026-04-15T12:03:31Z</time></trkpt><trkpt lat="43.84117169323734" lon="10.521415910528011"><ele>17.0</ele><time>2026-04-15T12:03:32Z</time></trkpt><trkpt lat="43.841131600582735" lon="10.521581235089974"><ele>17.0</ele><time>2026-04-15T12:03:33Z</time></trkpt><trkpt lat="43.84108659871631" lon="10.521756464228334"><ele>17.0</ele><time>2026-04-15T12:03:34Z</time></trkpt><trkpt lat="43.84104214102723" lon="10.521943224638534"><ele>17.0</ele><time>2026-04-15T12:03:35Z</time></trkpt><trkpt lat="43.84099856507041" lon="10.522135926643577"><ele>16.333333333333336</ele><time>2026-04-15T12:03:36Z</time></trkpt><trkpt lat="43.84095214644426" lon="10.5223412246295"><ele>15.666666666666668</ele><time>2026-04-15T12:03:37Z</time></trkpt><trkpt lat="43.840907608781905" lon="10.522552959795469"><ele>15.0</ele><time>2026-04-15T12:03:38Z</time></trkpt><trkpt lat="43.84086282156284" lon="10.522766590157595"><ele>15.25</ele><time>2026-04-15T12:03:39Z</time></trkpt><trkpt lat="43.84082494689801" lon="10.522980386471984"><ele>15.5</ele><time>2026-04-15T12:03:40Z</time></trkpt><trkpt lat="43.840797533706926" lon="10.523183466578773"><ele>15.75</ele><time>2026-04-15T12:03:41Z</time></trkpt><trkpt lat="43.840775790598045" lon="10.523370321520986"><ele>16.0</ele><time>2026-04-15T12:03:42Z</time></trkpt><trkpt lat="43.84076091473223" lon="10.52354726057414"><ele>16.0</ele><time>2026-04-15T12:03:43Z</time></trkpt><trkpt lat="43.840751237696246" lon="10.523722785718832"><ele>16.0</ele><time>2026-04-15T12:03:44Z</time></trkpt><trkpt lat="43.840744455650004" lon="10.523899657727338"><ele>16.0</ele><time>2026-04-15T12:03:45Z</time></trkpt><trkpt lat="43.84073607726431" lon="10.524074904574817"><ele>16.0</ele><time>2026-04-15T12:03:46Z</time></trkpt><trkpt lat="43.84072765385885" lon="10.524245544952999"><ele>15.75</ele><time>2026-04-15T12:03:47Z</time></trkpt><trkpt lat="43.84071450826452" lon="10.524418345906955"><ele>15.5</ele><time>2026-04-15T12:03:48Z</time></trkpt><trkpt lat="43.8407063378517" lon="10.524591875388298"><ele>15.25</ele><time>2026-04-15T12:03:49Z</time></trkpt><trkpt lat="43.8406954693219" lon="10.524774084394583"><ele>15.0</ele><time>2026-04-15T12:03:50Z</time></trkpt><trkpt lat="43.84067802830131" lon="10.524958337135354"><ele>15.0</ele><time>2026-04-15T12:03:51Z</time></trkpt><trkpt lat="43.84065638095706" lon="10.525148853057406"><ele>15.0</ele><time>2026-04-15T12:03:52Z</time></trkpt><trkpt lat="43.84062592722342" lon="10.525322396860243"><ele>15.0</ele><time>2026-04-15T12:03:53Z</time></trkpt><trkpt lat="43.84057151431468" lon="10.525470043625733"><ele>15.0</ele><time>2026-04-15T12:03:54Z</time></trkpt><trkpt lat="43.840529602408424" lon="10.525611929769456"><ele>15.0</ele><time>2026-04-15T12:03:55Z</time></trkpt><trkpt lat="43.84050196161009" lon="10.525763100839225"><ele>15.0</ele><time>2026-04-15T12:03:56Z</time></trkpt><trkpt lat="43.84045481119052" lon="10.525903971157048"><ele>15.0</ele><time>2026-04-15T12:03:57Z</time></trkpt><trkpt lat="43.840416061334366" lon="10.526038924481867"><ele>15.0</ele><time>2026-04-15T12:03:58Z</time></trkpt><trkpt lat="43.840386100582855" lon="10.526164557177127"><ele>15.0</ele><time>2026-04-15T12:03:59Z</time></trkpt><trkpt lat="43.84036337476978" lon="10.526283906724197"><ele>15.2</ele><time>2026-04-15T12:04:00Z</time></trkpt><trkpt lat="43.840347268779595" lon="10.526406726821847"><ele>15.4</ele><time>2026-04-15T12:04:01Z</time></trkpt><trkpt lat="43.84033736719277" lon="10.526526345271554"><ele>15.600000000000001</ele><time>2026-04-15T12:04:02Z</time></trkpt><trkpt lat="43.84032797874029" lon="10.526655859772696"><ele>15.8</ele><time>2026-04-15T12:04:03Z</time></trkpt><trkpt lat="43.84031871635515" lon="10.526785294945661"><ele>16.0</ele><time>2026-04-15T12:04:04Z</time></trkpt><trkpt lat="43.840312216057185" lon="10.526919808957604"><ele>16.0</ele><time>2026-04-15T12:04:05Z</time></trkpt><trkpt lat="43.8403070507019" lon="10.527034789642533"><ele>15.999999999999998</ele><time>2026-04-15T12:04:06Z</time></trkpt><trkpt lat="43.840300659247156" lon="10.527139210819918"><ele>16.0</ele><time>2026-04-15T12:04:07Z</time></trkpt><trkpt lat="43.840295421236824" lon="10.527232322478781"><ele>16.0</ele><time>2026-04-15T12:04:08Z</time></trkpt><trkpt lat="43.84028783869479" lon="10.527324574516898"><ele>15.999999999999998</ele><time>2026-04-15T12:04:09Z</time></trkpt><trkpt lat="43.84028064300041" lon="10.527423374284336"><ele>16.0</ele><time>2026-04-15T12:04:10Z</time></trkpt><trkpt lat="43.84027596557785" lon="10.527531223536393"><ele>16.0</ele><time>2026-04-15T12:04:11Z</time></trkpt><trkpt lat="43.84027311744372" lon="10.527645021518932"><ele>15.999999999999998</ele><time>2026-04-15T12:04:12Z</time></trkpt><trkpt lat="43.840267954025386" lon="10.527759386564709"><ele>16.0</ele><time>2026-04-15T12:04:13Z</time></trkpt><trkpt lat="43.84026349819806" lon="10.527865821114712"><ele>16.0</ele><time>2026-04-15T12:04:14Z</time></trkpt><trkpt lat="43.84025950958966" lon="10.527967359941474"><ele>16.0</ele><time>2026-04-15T12:04:15Z</time></trkpt><trkpt lat="43.840265672952675" lon="10.528123404703727"><ele>15.999999999999998</ele><time>2026-04-15T12:04:16.999Z</time></trkpt><trkpt lat="43.84027004802504" lon="10.528264602641705"><ele>16.0</ele><time>2026-04-15T12:04:18.999Z</time></trkpt><trkpt lat="43.84023994271849" lon="10.528505939439055"><ele>16.0</ele><time>2026-04-15T12:04:20.999Z</time></trkpt><trkpt lat="43.84021767367689" lon="10.528651694862535"><ele>16.0</ele><time>2026-04-15T12:04:21.999Z</time></trkpt><trkpt lat="43.84019242035234" lon="10.528812055399067"><ele>16.0</ele><time>2026-04-15T12:04:22.999Z</time></trkpt><trkpt lat="43.84017160978117" lon="10.528977019438296"><ele>16.0</ele><time>2026-04-15T12:04:23.999Z</time></trkpt><trkpt lat="43.84015767263639" lon="10.529147610619738"><ele>15.75</ele><time>2026-04-15T12:04:24.999Z</time></trkpt><trkpt lat="43.840139551655724" lon="10.529329378069678"><ele>15.5</ele><time>2026-04-15T12:04:25.999Z</time></trkpt><trkpt lat="43.8401193469348" lon="10.52952012968702"><ele>15.25</ele><time>2026-04-15T12:04:26.999Z</time></trkpt><trkpt lat="43.84009892295641" lon="10.529710322494623"><ele>15.0</ele><time>2026-04-15T12:04:27.999Z</time></trkpt><trkpt lat="43.84007956088974" lon="10.529899009536784"><ele>15.0</ele><time>2026-04-15T12:04:28.999Z</time></trkpt><trkpt lat="43.84006002806287" lon="10.530090659263958"><ele>15.0</ele><time>2026-04-15T12:04:29.999Z</time></trkpt><trkpt lat="43.8400398092672" lon="10.530275627027605"><ele>15.0</ele><time>2026-04-15T12:04:30.999Z</time></trkpt><trkpt lat="43.84001735076296" lon="10.530463486704399"><ele>15.0</ele><time>2026-04-15T12:04:31.999Z</time></trkpt><trkpt lat="43.839991694492866" lon="10.530654032789112"><ele>15.25</ele><time>2026-04-15T12:04:32.999Z</time></trkpt><trkpt lat="43.8399605606588" lon="10.530844681710166"><ele>15.5</ele><time>2026-04-15T12:04:33.999Z</time></trkpt><trkpt lat="43.83992409370208" lon="10.53103727617676"><ele>15.75</ele><time>2026-04-15T12:04:35Z</time></trkpt><trkpt lat="43.83988463823249" lon="10.531231545026266"><ele>16.0</ele><time>2026-04-15T12:04:36Z</time></trkpt><trkpt lat="43.839844800663066" lon="10.531423751488564"><ele>16.0</ele><time>2026-04-15T12:04:37Z</time></trkpt><trkpt lat="43.83980909992011" lon="10.531608286059177"><ele>16.0</ele><time>2026-04-15T12:04:38Z</time></trkpt><trkpt lat="43.83977391995593" lon="10.531784832799767"><ele>16.0</ele><time>2026-04-15T12:04:39Z</time></trkpt><trkpt lat="43.839739219989674" lon="10.531956638892177"><ele>16.0</ele><time>2026-04-15T12:04:40Z</time></trkpt><trkpt lat="43.8397032110499" lon="10.532130104096305"><ele>15.5</ele><time>2026-04-15T12:04:41Z</time></trkpt><trkpt lat="43.83967236527326" lon="10.532304587100585"><ele>15.0</ele><time>2026-04-15T12:04:42Z</time></trkpt><trkpt lat="43.83964356455465" lon="10.53247492512093"><ele>14.5</ele><time>2026-04-15T12:04:43Z</time></trkpt><trkpt lat="43.83961506102711" lon="10.5326413787641"><ele>14.0</ele><time>2026-04-15T12:04:44Z</time></trkpt><trkpt lat="43.83958167049638" lon="10.532808540650922"><ele>14.25</ele><time>2026-04-15T12:04:45Z</time></trkpt><trkpt lat="43.83954208613444" lon="10.532977020234519"><ele>14.5</ele><time>2026-04-15T12:04:46Z</time></trkpt><trkpt lat="43.8394885825852" lon="10.533133684010043"><ele>14.75</ele><time>2026-04-15T12:04:47Z</time></trkpt><trkpt lat="43.839420945635084" lon="10.533292271883987"><ele>15.0</ele><time>2026-04-15T12:04:48Z</time></trkpt><trkpt lat="43.83934411118137" lon="10.53344698439744"><ele>14.75</ele><time>2026-04-15T12:04:49Z</time></trkpt><trkpt lat="43.83927241711694" lon="10.533606901189431"><ele>14.5</ele><time>2026-04-15T12:04:50Z</time></trkpt><trkpt lat="43.83920549057532" lon="10.53377882825808"><ele>14.25</ele><time>2026-04-15T12:04:51Z</time></trkpt><trkpt lat="43.839144247006544" lon="10.533962804615506"><ele>14.0</ele><time>2026-04-15T12:04:52Z</time></trkpt><trkpt lat="43.839083232725734" lon="10.534144923542526"><ele>14.25</ele><time>2026-04-15T12:04:53Z</time></trkpt><trkpt lat="43.83902008670401" lon="10.534322686776825"><ele>14.5</ele><time>2026-04-15T12:04:54Z</time></trkpt><trkpt lat="43.83894981168816" lon="10.534502621233946"><ele>14.75</ele><time>2026-04-15T12:04:55Z</time></trkpt><trkpt lat="43.83887506385851" lon="10.534675984058724"><ele>15.0</ele><time>2026-04-15T12:04:56Z</time></trkpt><trkpt lat="43.83879159169665" lon="10.534848114588788"><ele>15.0</ele><time>2026-04-15T12:04:57Z</time></trkpt><trkpt lat="43.838711218661196" lon="10.53501967935064"><ele>15.0</ele><time>2026-04-15T12:04:58Z</time></trkpt><trkpt lat="43.838625448798496" lon="10.535191751394661"><ele>15.0</ele><time>2026-04-15T12:04:59Z</time></trkpt><trkpt lat="43.83854462154324" lon="10.53536651143882"><ele>15.0</ele><time>2026-04-15T12:05:00Z</time></trkpt><trkpt lat="43.83846722810061" lon="10.535545443886457"><ele>14.666666666666668</ele><time>2026-04-15T12:05:01Z</time></trkpt><trkpt lat="43.83839465557634" lon="10.535728439739094"><ele>14.333333333333334</ele><time>2026-04-15T12:05:02Z</time></trkpt><trkpt lat="43.83832644691003" lon="10.535914117056244"><ele>14.0</ele><time>2026-04-15T12:05:03Z</time></trkpt><trkpt lat="43.838250114347524" lon="10.536098250995563"><ele>14.333333333333334</ele><time>2026-04-15T12:05:04Z</time></trkpt><trkpt lat="43.838176506870305" lon="10.536282762525824"><ele>14.666666666666668</ele><time>2026-04-15T12:05:05Z</time></trkpt><trkpt lat="43.838103686777835" lon="10.536463781919348"><ele>15.0</ele><time>2026-04-15T12:05:06Z</time></trkpt><trkpt lat="43.83802303437135" lon="10.536648293420932"><ele>15.0</ele><time>2026-04-15T12:05:07Z</time></trkpt><trkpt lat="43.8379447407958" lon="10.536825534372745"><ele>15.0</ele><time>2026-04-15T12:05:08Z</time></trkpt><trkpt lat="43.837865170814894" lon="10.536992612313785"><ele>15.0</ele><time>2026-04-15T12:05:09Z</time></trkpt><trkpt lat="43.83777773036192" lon="10.53715203392747"><ele>15.0</ele><time>2026-04-15T12:05:10Z</time></trkpt><trkpt lat="43.837687386044266" lon="10.537298806920983"><ele>15.0</ele><time>2026-04-15T12:05:11Z</time></trkpt><trkpt lat="43.83758211092433" lon="10.5374362562049"><ele>15.0</ele><time>2026-04-15T12:05:12Z</time></trkpt><trkpt lat="43.83746260804795" lon="10.537557342190834"><ele>15.0</ele><time>2026-04-15T12:05:13Z</time></trkpt><trkpt lat="43.83734074833215" lon="10.537660352266542"><ele>15.0</ele><time>2026-04-15T12:05:14Z</time></trkpt><trkpt lat="43.83722162727156" lon="10.537744262739851"><ele>15.0</ele><time>2026-04-15T12:05:15Z</time></trkpt><trkpt lat="43.83711296268405" lon="10.537823474600316"><ele>15.0</ele><time>2026-04-15T12:05:16Z</time></trkpt><trkpt lat="43.83701030712565" lon="10.537897023724083"><ele>15.0</ele><time>2026-04-15T12:05:17Z</time></trkpt><trkpt lat="43.83690970003056" lon="10.537975525045997"><ele>15.0</ele><time>2026-04-15T12:05:18Z</time></trkpt><trkpt lat="43.836805430734856" lon="10.538066259321582"><ele>14.75</ele><time>2026-04-15T12:05:19Z</time></trkpt><trkpt lat="43.836704862821655" lon="10.538157055474654"><ele>14.5</ele><time>2026-04-15T12:05:20Z</time></trkpt><trkpt lat="43.83660858625121" lon="10.538252905915972"><ele>14.25</ele><time>2026-04-15T12:05:21Z</time></trkpt><trkpt lat="43.8365105063684" lon="10.538351289984735"><ele>14.0</ele><time>2026-04-15T12:05:22Z</time></trkpt><trkpt lat="43.83641326321711" lon="10.538443100977947"><ele>14.0</ele><time>2026-04-15T12:05:23Z</time></trkpt><trkpt lat="43.83631300311589" lon="10.53852917566194"><ele>14.0</ele><time>2026-04-15T12:05:24Z</time></trkpt><trkpt lat="43.83621209509304" lon="10.538611342352254"><ele>14.0</ele><time>2026-04-15T12:05:25Z</time></trkpt><trkpt lat="43.83611071317158" lon="10.538687053699585"><ele>14.0</ele><time>2026-04-15T12:05:26Z</time></trkpt><trkpt lat="43.836013407826975" lon="10.53875843544622"><ele>14.399999999999999</ele><time>2026-04-15T12:05:27Z</time></trkpt><trkpt lat="43.83592534008798" lon="10.538826675204024"><ele>14.799999999999999</ele><time>2026-04-15T12:05:28Z</time></trkpt><trkpt lat="43.835834707580204" lon="10.538897308917734"><ele>15.200000000000001</ele><time>2026-04-15T12:05:29Z</time></trkpt><trkpt lat="43.835752901825444" lon="10.538963370954756"><ele>15.600000000000001</ele><time>2026-04-15T12:05:30Z</time></trkpt><trkpt lat="43.83567812564275" lon="10.539029160209974"><ele>16.0</ele><time>2026-04-15T12:05:31Z</time></trkpt><trkpt lat="43.835604266002086" lon="10.539093861412944"><ele>16.0</ele><time>2026-04-15T12:05:32Z</time></trkpt><trkpt lat="43.83552147039451" lon="10.5391726114444"><ele>16.0</ele><time>2026-04-15T12:05:33Z</time></trkpt><trkpt lat="43.83543644816937" lon="10.539261307423104"><ele>16.0</ele><time>2026-04-15T12:05:34Z</time></trkpt><trkpt lat="43.83533832099052" lon="10.539367669548337"><ele>16.0</ele><time>2026-04-15T12:05:35Z</time></trkpt><trkpt lat="43.83523827907199" lon="10.539488111608273"><ele>16.0</ele><time>2026-04-15T12:05:36Z</time></trkpt><trkpt lat="43.835139703719655" lon="10.539618545021032"><ele>16.0</ele><time>2026-04-15T12:05:37Z</time></trkpt><trkpt lat="43.835045969129354" lon="10.539752347141581"><ele>16.0</ele><time>2026-04-15T12:05:38Z</time></trkpt><trkpt lat="43.834952082051416" lon="10.539893704026637"><ele>16.0</ele><time>2026-04-15T12:05:39Z</time></trkpt><trkpt lat="43.83485908483345" lon="10.540045533227142"><ele>15.75</ele><time>2026-04-15T12:05:40Z</time></trkpt><trkpt lat="43.834767870621725" lon="10.540206023644128"><ele>15.5</ele><time>2026-04-15T12:05:41Z</time></trkpt><trkpt lat="43.8346832154283" lon="10.540376591479998"><ele>15.25</ele><time>2026-04-15T12:05:42Z</time></trkpt><trkpt lat="43.834607322942524" lon="10.540549127203484"><ele>15.0</ele><time>2026-04-15T12:05:43Z</time></trkpt><trkpt lat="43.83453243506446" lon="10.540725395457303"><ele>15.0</ele><time>2026-04-15T12:05:44Z</time></trkpt><trkpt lat="43.83445774004246" lon="10.540903375607032"><ele>15.0</ele><time>2026-04-15T12:05:45Z</time></trkpt><trkpt lat="43.83438421706234" lon="10.541072859751218"><ele>15.0</ele><time>2026-04-15T12:05:46Z</time></trkpt><trkpt lat="43.83431285985734" lon="10.54122824730175"><ele>15.0</ele><time>2026-04-15T12:05:47Z</time></trkpt><trkpt lat="43.83424182042337" lon="10.541386380540967"><ele>14.75</ele><time>2026-04-15T12:05:48Z</time></trkpt><trkpt lat="43.83417545206083" lon="10.541543816071158"><ele>14.5</ele><time>2026-04-15T12:05:49Z</time></trkpt><trkpt lat="43.83411878166431" lon="10.54170643180169"><ele>14.25</ele><time>2026-04-15T12:05:50Z</time></trkpt><trkpt lat="43.83407278432225" lon="10.541875758737211"><ele>14.0</ele><time>2026-04-15T12:05:51Z</time></trkpt><trkpt lat="43.83403790410045" lon="10.54205033377039"><ele>13.5</ele><time>2026-04-15T12:05:52Z</time></trkpt><trkpt lat="43.8340160911117" lon="10.542235793465174"><ele>13.0</ele><time>2026-04-15T12:05:53Z</time></trkpt><trkpt lat="43.83400418370203" lon="10.542424148799366"><ele>12.5</ele><time>2026-04-15T12:05:54Z</time></trkpt><trkpt lat="43.83399510430126" lon="10.5426134031019"><ele>12.0</ele><time>2026-04-15T12:05:55Z</time></trkpt><trkpt lat="43.83398084383491" lon="10.542807637885602"><ele>12.5</ele><time>2026-04-15T12:05:56Z</time></trkpt><trkpt lat="43.83396243163439" lon="10.542989763859918"><ele>13.0</ele><time>2026-04-15T12:05:57Z</time></trkpt><trkpt lat="43.833938562669985" lon="10.543176096041782"><ele>13.5</ele><time>2026-04-15T12:05:58Z</time></trkpt><trkpt lat="43.83391263514143" lon="10.54335925224661"><ele>14.0</ele><time>2026-04-15T12:05:59Z</time></trkpt><trkpt lat="43.83389080923639" lon="10.543530854891975"><ele>14.0</ele><time>2026-04-15T12:06:00Z</time></trkpt><trkpt lat="43.83387034996313" lon="10.543707229476228"><ele>14.0</ele><time>2026-04-15T12:06:01Z</time></trkpt><trkpt lat="43.833850820978824" lon="10.543882089965827"><ele>14.0</ele><time>2026-04-15T12:06:02Z</time></trkpt><trkpt lat="43.83382726881592" lon="10.544064516470472"><ele>14.0</ele><time>2026-04-15T12:06:03Z</time></trkpt><trkpt lat="43.83380237851656" lon="10.544243785192458"><ele>14.25</ele><time>2026-04-15T12:06:04Z</time></trkpt><trkpt lat="43.83377841412882" lon="10.544421320481453"><ele>14.5</ele><time>2026-04-15T12:06:05Z</time></trkpt><trkpt lat="43.83375700091461" lon="10.544589939338469"><ele>14.75</ele><time>2026-04-15T12:06:06Z</time></trkpt><trkpt lat="43.83373497728822" lon="10.544755333207334"><ele>15.0</ele><time>2026-04-15T12:06:07Z</time></trkpt><trkpt lat="43.833715704703884" lon="10.544916472235915"><ele>15.0</ele><time>2026-04-15T12:06:08Z</time></trkpt><trkpt lat="43.833695716659754" lon="10.545077346024506"><ele>15.0</ele><time>2026-04-15T12:06:09Z</time></trkpt><trkpt lat="43.83367526917707" lon="10.545234443341034"><ele>15.0</ele><time>2026-04-15T12:06:10Z</time></trkpt><trkpt lat="43.83365873380217" lon="10.545389169132626"><ele>15.0</ele><time>2026-04-15T12:06:11Z</time></trkpt><trkpt lat="43.83364469293639" lon="10.545536009964586"><ele>15.2</ele><time>2026-04-15T12:06:12Z</time></trkpt><trkpt lat="43.83362949215582" lon="10.545686591914436"><ele>15.4</ele><time>2026-04-15T12:06:13Z</time></trkpt><trkpt lat="43.83361313990983" lon="10.54583209010767"><ele>15.600000000000001</ele><time>2026-04-15T12:06:14Z</time></trkpt><trkpt lat="43.833598500321116" lon="10.54596503464497"><ele>15.8</ele><time>2026-04-15T12:06:15Z</time></trkpt><trkpt lat="43.833584202496716" lon="10.546096995948275"><ele>16.0</ele><time>2026-04-15T12:06:16Z</time></trkpt><trkpt lat="43.83356599378166" lon="10.54622148522204"><ele>16.0</ele><time>2026-04-15T12:06:17Z</time></trkpt><trkpt lat="43.83354738372395" lon="10.546345060131248"><ele>16.0</ele><time>2026-04-15T12:06:18Z</time></trkpt><trkpt lat="43.83352687345763" lon="10.546470623311873"><ele>16.0</ele><time>2026-04-15T12:06:19Z</time></trkpt><trkpt lat="43.833507782020014" lon="10.546598130066629"><ele>16.0</ele><time>2026-04-15T12:06:20Z</time></trkpt><trkpt lat="43.833485029358854" lon="10.546729685717704"><ele>16.0</ele><time>2026-04-15T12:06:21Z</time></trkpt><trkpt lat="43.83344104666279" lon="10.546851787617458"><ele>16.2</ele><time>2026-04-15T12:06:22Z</time></trkpt><trkpt lat="43.8334179544168" lon="10.546993041071033"><ele>16.400000000000002</ele><time>2026-04-15T12:06:23Z</time></trkpt><trkpt lat="43.833367974955344" lon="10.54712885309856"><ele>16.6</ele><time>2026-04-15T12:06:24Z</time></trkpt><trkpt lat="43.8333190558907" lon="10.547266079111441"><ele>16.8</ele><time>2026-04-15T12:06:25Z</time></trkpt><trkpt lat="43.833265088157525" lon="10.547401877092769"><ele>17.0</ele><time>2026-04-15T12:06:26Z</time></trkpt><trkpt lat="43.83320755888163" lon="10.54754085712575"><ele>17.0</ele><time>2026-04-15T12:06:27Z</time></trkpt><trkpt lat="43.83314737712156" lon="10.547672585473272"><ele>17.0</ele><time>2026-04-15T12:06:28Z</time></trkpt><trkpt lat="43.83308731431244" lon="10.54780650900553"><ele>17.0</ele><time>2026-04-15T12:06:29Z</time></trkpt><trkpt lat="43.83303281258123" lon="10.547934593370698"><ele>17.0</ele><time>2026-04-15T12:06:30Z</time></trkpt><trkpt lat="43.83298109106753" lon="10.548065239687642"><ele>17.0</ele><time>2026-04-15T12:06:31Z</time></trkpt><trkpt lat="43.83293163511641" lon="10.548202779024715"><ele>17.0</ele><time>2026-04-15T12:06:32Z</time></trkpt><trkpt lat="43.83287979098491" lon="10.548345481687093"><ele>17.0</ele><time>2026-04-15T12:06:33Z</time></trkpt><trkpt lat="43.83283502412036" lon="10.54848026721061"><ele>17.0</ele><time>2026-04-15T12:06:34Z</time></trkpt><trkpt lat="43.83278360365703" lon="10.548628706905893"><ele>17.0</ele><time>2026-04-15T12:06:35Z</time></trkpt><trkpt lat="43.83273482285979" lon="10.548768557107207"><ele>16.75</ele><time>2026-04-15T12:06:36Z</time></trkpt><trkpt lat="43.83268395519996" lon="10.548912793042913"><ele>16.5</ele><time>2026-04-15T12:06:37Z</time></trkpt><trkpt lat="43.83262580496965" lon="10.549054564889325"><ele>16.25</ele><time>2026-04-15T12:06:38Z</time></trkpt><trkpt lat="43.83256304603737" lon="10.549190194733267"><ele>16.0</ele><time>2026-04-15T12:06:39Z</time></trkpt><trkpt lat="43.832501703670275" lon="10.549327962082506"><ele>16.0</ele><time>2026-04-15T12:06:40Z</time></trkpt><trkpt lat="43.832438861434724" lon="10.549463289423802"><ele>16.0</ele><time>2026-04-15T12:06:41Z</time></trkpt><trkpt lat="43.83237137305035" lon="10.549600311799962"><ele>16.0</ele><time>2026-04-15T12:06:42Z</time></trkpt><trkpt lat="43.832295828710954" lon="10.549734691426924"><ele>16.0</ele><time>2026-04-15T12:06:43Z</time></trkpt><trkpt lat="43.83222175642603" lon="10.549869889959835"><ele>15.75</ele><time>2026-04-15T12:06:44Z</time></trkpt><trkpt lat="43.83215248737868" lon="10.549999985709862"><ele>15.5</ele><time>2026-04-15T12:06:45Z</time></trkpt><trkpt lat="43.83208177608764" lon="10.550121649235438"><ele>15.25</ele><time>2026-04-15T12:06:46Z</time></trkpt><trkpt lat="43.83201165858962" lon="10.550239507831167"><ele>15.0</ele><time>2026-04-15T12:06:47Z</time></trkpt><trkpt lat="43.831940331977485" lon="10.550358383165527"><ele>14.8</ele><time>2026-04-15T12:06:48Z</time></trkpt><trkpt lat="43.83187199821826" lon="10.550470239415567"><ele>14.6</ele><time>2026-04-15T12:06:49Z</time></trkpt><trkpt lat="43.831802935308694" lon="10.550585768205664"><ele>14.399999999999999</ele><time>2026-04-15T12:06:50Z</time></trkpt><trkpt lat="43.8317352703399" lon="10.550702848843816"><ele>14.2</ele><time>2026-04-15T12:06:51Z</time></trkpt><trkpt lat="43.83166985143438" lon="10.550827115017903"><ele>14.0</ele><time>2026-04-15T12:06:52Z</time></trkpt><trkpt lat="43.83159902424076" lon="10.550945639305295"><ele>14.0</ele><time>2026-04-15T12:06:53Z</time></trkpt><trkpt lat="43.83152438987175" lon="10.551068972434013"><ele>14.0</ele><time>2026-04-15T12:06:54Z</time></trkpt><trkpt lat="43.83145436617858" lon="10.55119210625775"><ele>14.0</ele><time>2026-04-15T12:06:55Z</time></trkpt><trkpt lat="43.83138620282" lon="10.55131997529719"><ele>14.0</ele><time>2026-04-15T12:06:56Z</time></trkpt><trkpt lat="43.83131890395037" lon="10.551453028862024"><ele>15.0</ele><time>2026-04-15T12:06:57Z</time></trkpt><trkpt lat="43.83125357093252" lon="10.551585774514782"><ele>16.0</ele><time>2026-04-15T12:06:58Z</time></trkpt><trkpt lat="43.83119056555499" lon="10.551724254816383"><ele>17.0</ele><time>2026-04-15T12:06:59Z</time></trkpt><trkpt lat="43.831130947017" lon="10.551863798020083"><ele>18.0</ele><time>2026-04-15T12:07:00Z</time></trkpt><trkpt lat="43.83107267407076" lon="10.552005168565074"><ele>18.0</ele><time>2026-04-15T12:07:01Z</time></trkpt><trkpt lat="43.831017495384536" lon="10.552151603223086"><ele>18.0</ele><time>2026-04-15T12:07:02Z</time></trkpt><trkpt lat="43.83097010421837" lon="10.552303083603114"><ele>18.0</ele><time>2026-04-15T12:07:03Z</time></trkpt><trkpt lat="43.83093229928128" lon="10.55245743036755"><ele>18.0</ele><time>2026-04-15T12:07:04Z</time></trkpt><trkpt lat="43.83090430782706" lon="10.552616337506349"><ele>17.25</ele><time>2026-04-15T12:07:05Z</time></trkpt><trkpt lat="43.830883896581526" lon="10.552776591225557"><ele>16.5</ele><time>2026-04-15T12:07:06Z</time></trkpt><trkpt lat="43.8308604325112" lon="10.552932584886463"><ele>15.75</ele><time>2026-04-15T12:07:07Z</time></trkpt><trkpt lat="43.830834203739016" lon="10.553087964150079"><ele>15.0</ele><time>2026-04-15T12:07:08Z</time></trkpt><trkpt lat="43.83081061971936" lon="10.553243469128276"><ele>15.0</ele><time>2026-04-15T12:07:09Z</time></trkpt><trkpt lat="43.83079172715528" lon="10.553398420692067"><ele>15.0</ele><time>2026-04-15T12:07:10Z</time></trkpt><trkpt lat="43.83077280588835" lon="10.553552363824226"><ele>15.0</ele><time>2026-04-15T12:07:11Z</time></trkpt><trkpt lat="43.830754221582055" lon="10.55370388090978"><ele>15.0</ele><time>2026-04-15T12:07:12Z</time></trkpt><trkpt lat="43.83073891369715" lon="10.553861343392363"><ele>14.5</ele><time>2026-04-15T12:07:13Z</time></trkpt><trkpt lat="43.83072578096113" lon="10.55401814346934"><ele>14.0</ele><time>2026-04-15T12:07:14Z</time></trkpt><trkpt lat="43.83071577603285" lon="10.55417844133659"><ele>13.5</ele><time>2026-04-15T12:07:15Z</time></trkpt><trkpt lat="43.83070395450386" lon="10.55434053191632"><ele>13.0</ele><time>2026-04-15T12:07:16Z</time></trkpt><trkpt lat="43.830688793079055" lon="10.554505749910605"><ele>13.0</ele><time>2026-04-15T12:07:17Z</time></trkpt><trkpt lat="43.83067472037146" lon="10.554670851452702"><ele>13.0</ele><time>2026-04-15T12:07:18Z</time></trkpt><trkpt lat="43.83065601725517" lon="10.554835807436671"><ele>13.0</ele><time>2026-04-15T12:07:19Z</time></trkpt><trkpt lat="43.830643762096415" lon="10.554991204531712"><ele>13.0</ele><time>2026-04-15T12:07:20Z</time></trkpt><trkpt lat="43.83063595202378" lon="10.555135923365356"><ele>12.999999999999998</ele><time>2026-04-15T12:07:21Z</time></trkpt><trkpt lat="43.83062705564537" lon="10.555267621669417"><ele>13.0</ele><time>2026-04-15T12:07:22Z</time></trkpt><trkpt lat="43.830615020439964" lon="10.555390118786873"><ele>13.0</ele><time>2026-04-15T12:07:23Z</time></trkpt><trkpt lat="43.830606556568256" lon="10.555500882353764"><ele>13.0</ele><time>2026-04-15T12:07:24Z</time></trkpt><trkpt lat="43.83059475341188" lon="10.555590623621557"><ele>12.999999999999998</ele><time>2026-04-15T12:07:25Z</time></trkpt><trkpt lat="43.83057616428501" lon="10.555689374615973"><ele>13.0</ele><time>2026-04-15T12:07:27Z</time></trkpt><trkpt lat="43.83054512402758" lon="10.55579493376805"><ele>13.2</ele><time>2026-04-15T12:07:31Z</time></trkpt><trkpt lat="43.830448684025775" lon="10.555810600110458"><ele>13.4</ele><time>2026-04-15T12:07:32Z</time></trkpt><trkpt lat="43.830346159580294" lon="10.55578711668276"><ele>13.599999999999998</ele><time>2026-04-15T12:07:33Z</time></trkpt><trkpt lat="43.83024233480887" lon="10.555785190808978"><ele>13.799999999999999</ele><time>2026-04-15T12:07:34Z</time></trkpt><trkpt lat="43.83012810877253" lon="10.555783929243704"><ele>14.0</ele><time>2026-04-15T12:07:35Z</time></trkpt><trkpt lat="43.829987335995554" lon="10.55578077483163"><ele>14.0</ele><time>2026-04-15T12:07:36Z</time></trkpt><trkpt lat="43.829832167017216" lon="10.555775349757493"><ele>14.0</ele><time>2026-04-15T12:07:37Z</time></trkpt><trkpt lat="43.8296784349594" lon="10.555774718870088"><ele>14.0</ele><time>2026-04-15T12:07:38Z</time></trkpt><trkpt lat="43.829511098530546" lon="10.555771953401994"><ele>14.0</ele><time>2026-04-15T12:07:39Z</time></trkpt><trkpt lat="43.829356275753874" lon="10.555744747498848"><ele>14.0</ele><time>2026-04-15T12:07:40Z</time></trkpt><trkpt lat="43.82922563061278" lon="10.555669336904192"><ele>14.0</ele><time>2026-04-15T12:07:41Z</time></trkpt><trkpt lat="43.82911270385046" lon="10.555555125309876"><ele>14.0</ele><time>2026-04-15T12:07:42Z</time></trkpt><trkpt lat="43.829003071501404" lon="10.555420148907881"><ele>13.333333333333334</ele><time>2026-04-15T12:07:43Z</time></trkpt><trkpt lat="43.82888908205608" lon="10.555261903394255"><ele>12.666666666666668</ele><time>2026-04-15T12:07:44Z</time></trkpt><trkpt lat="43.828772476981534" lon="10.55509511500699"><ele>12.0</ele><time>2026-04-15T12:07:45Z</time></trkpt><trkpt lat="43.82864923366482" lon="10.554926230809523"><ele>12.0</ele><time>2026-04-15T12:07:46Z</time></trkpt><trkpt lat="43.82851822892423" lon="10.55476438332193"><ele>12.0</ele><time>2026-04-15T12:07:47Z</time></trkpt><trkpt lat="43.828356742365976" lon="10.554621505447097"><ele>12.0</ele><time>2026-04-15T12:07:48Z</time></trkpt><trkpt lat="43.82817505611706" lon="10.554517925207469"><ele>12.666666666666668</ele><time>2026-04-15T12:07:49Z</time></trkpt><trkpt lat="43.827991852788124" lon="10.554468349854307"><ele>13.333333333333334</ele><time>2026-04-15T12:07:50Z</time></trkpt><trkpt lat="43.82782223982761" lon="10.554445934701002"><ele>14.0</ele><time>2026-04-15T12:07:51Z</time></trkpt><trkpt lat="43.82767104954432" lon="10.554430348267084"><ele>13.5</ele><time>2026-04-15T12:07:52Z</time></trkpt><trkpt lat="43.8275277421661" lon="10.554405921248273"><ele>13.0</ele><time>2026-04-15T12:07:53Z</time></trkpt><trkpt lat="43.827396219901445" lon="10.554383793437415"><ele>12.5</ele><time>2026-04-15T12:07:54Z</time></trkpt><trkpt lat="43.8272712801265" lon="10.554361353314217"><ele>12.0</ele><time>2026-04-15T12:07:55Z</time></trkpt><trkpt lat="43.8271472070718" lon="10.554337735255954"><ele>12.0</ele><time>2026-04-15T12:07:56Z</time></trkpt><trkpt lat="43.82701786447997" lon="10.554316781440859"><ele>12.0</ele><time>2026-04-15T12:07:57Z</time></trkpt><trkpt lat="43.82688503546378" lon="10.554307939100662"><ele>12.0</ele><time>2026-04-15T12:07:58Z</time></trkpt><trkpt lat="43.82674952744549" lon="10.554336541971134"><ele>12.0</ele><time>2026-04-15T12:07:59Z</time></trkpt><trkpt lat="43.82662045557367" lon="10.55440367624992"><ele>12.25</ele><time>2026-04-15T12:08:00Z</time></trkpt><trkpt lat="43.82650309137369" lon="10.554520995253803"><ele>12.5</ele><time>2026-04-15T12:08:01Z</time></trkpt><trkpt lat="43.82639226869884" lon="10.554657476928293"><ele>12.75</ele><time>2026-04-15T12:08:02Z</time></trkpt><trkpt lat="43.82628630501451" lon="10.554800102278193"><ele>13.0</ele><time>2026-04-15T12:08:03Z</time></trkpt><trkpt lat="43.826177351738025" lon="10.554943113877135"><ele>13.25</ele><time>2026-04-15T12:08:04Z</time></trkpt><trkpt lat="43.82607602264319" lon="10.55506839628857"><ele>13.5</ele><time>2026-04-15T12:08:05Z</time></trkpt><trkpt lat="43.82598026241453" lon="10.555175483484213"><ele>13.75</ele><time>2026-04-15T12:08:06Z</time></trkpt><trkpt lat="43.82588072655029" lon="10.55525361188727"><ele>14.0</ele><time>2026-04-15T12:08:07Z</time></trkpt><trkpt lat="43.82576792877413" lon="10.555271386242127"><ele>14.0</ele><time>2026-04-15T12:08:08Z</time></trkpt><trkpt lat="43.82565347815794" lon="10.55526319206734"><ele>14.0</ele><time>2026-04-15T12:08:09Z</time></trkpt><trkpt lat="43.82553576109936" lon="10.555267311859028"><ele>14.0</ele><time>2026-04-15T12:08:10Z</time></trkpt><trkpt lat="43.82542766052777" lon="10.555252294127577"><ele>14.0</ele><time>2026-04-15T12:08:11Z</time></trkpt><trkpt lat="43.82531658227081" lon="10.555253186667882"><ele>14.0</ele><time>2026-04-15T12:08:12Z</time></trkpt><trkpt lat="43.825200204001874" lon="10.555258318507178"><ele>14.0</ele><time>2026-04-15T12:08:13Z</time></trkpt><trkpt lat="43.82508507660994" lon="10.555262869436776"><ele>14.0</ele><time>2026-04-15T12:08:14Z</time></trkpt><trkpt lat="43.8249739994879" lon="10.555262360253806"><ele>14.0</ele><time>2026-04-15T12:08:15Z</time></trkpt><trkpt lat="43.824861433914506" lon="10.555266353447307"><ele>14.0</ele><time>2026-04-15T12:08:16Z</time></trkpt><trkpt lat="43.82474267901402" lon="10.555269947602968"><ele>14.0</ele><time>2026-04-15T12:08:17Z</time></trkpt><trkpt lat="43.82462724472314" lon="10.555290313133302"><ele>14.0</ele><time>2026-04-15T12:08:18Z</time></trkpt><trkpt lat="43.82450897280989" lon="10.555316981317935"><ele>14.0</ele><time>2026-04-15T12:08:19Z</time></trkpt><trkpt lat="43.82440437899842" lon="10.555342666021138"><ele>14.000000000000002</ele><time>2026-04-15T12:08:20Z</time></trkpt><trkpt lat="43.824322524823486" lon="10.555368517180826"><ele>14.0</ele><time>2026-04-15T12:08:21Z</time></trkpt><trkpt lat="43.82425549110089" lon="10.555392764744113"><ele>14.0</ele><time>2026-04-15T12:08:22Z</time></trkpt><trkpt lat="43.82418405035774" lon="10.555428128951908"><ele>14.0</ele><time>2026-04-15T12:08:23Z</time></trkpt><trkpt lat="43.82409517579065" lon="10.555469879792577"><ele>14.000000000000002</ele><time>2026-04-15T12:08:24Z</time></trkpt><trkpt lat="43.82398108150576" lon="10.555526053674923"><ele>14.0</ele><time>2026-04-15T12:08:25.001Z</time></trkpt><trkpt lat="43.82386454322174" lon="10.555585169006433"><ele>14.0</ele><time>2026-04-15T12:08:26.001Z</time></trkpt><trkpt lat="43.823747232441356" lon="10.555653502057673"><ele>14.0</ele><time>2026-04-15T12:08:27.001Z</time></trkpt><trkpt lat="43.82362636763289" lon="10.555731948648457"><ele>14.0</ele><time>2026-04-15T12:08:28Z</time></trkpt><trkpt lat="43.82350015337734" lon="10.555803898945236"><ele>14.0</ele><time>2026-04-15T12:08:29Z</time></trkpt><trkpt lat="43.823376696256375" lon="10.555875291932916"><ele>13.75</ele><time>2026-04-15T12:08:30Z</time></trkpt><trkpt lat="43.82325441626047" lon="10.555946733988014"><ele>13.5</ele><time>2026-04-15T12:08:31Z</time></trkpt><trkpt lat="43.82313995690621" lon="10.5560083912119"><ele>13.25</ele><time>2026-04-15T12:08:32Z</time></trkpt><trkpt lat="43.823028156902396" lon="10.556074366449703"><ele>13.0</ele><time>2026-04-15T12:08:33Z</time></trkpt><trkpt lat="43.82292520056687" lon="10.556165090613302"><ele>13.0</ele><time>2026-04-15T12:08:34Z</time></trkpt><trkpt lat="43.82282968154162" lon="10.556287307020678"><ele>13.0</ele><time>2026-04-15T12:08:35Z</time></trkpt><trkpt lat="43.82274145978634" lon="10.556425687847355"><ele>13.0</ele><time>2026-04-15T12:08:36Z</time></trkpt><trkpt lat="43.82265653779922" lon="10.556569802330355"><ele>13.0</ele><time>2026-04-15T12:08:37Z</time></trkpt><trkpt lat="43.82256861284058" lon="10.556719037040114"><ele>12.75</ele><time>2026-04-15T12:08:38Z</time></trkpt><trkpt lat="43.822477464680475" lon="10.556862878967792"><ele>12.5</ele><time>2026-04-15T12:08:39Z</time></trkpt><trkpt lat="43.82237519653292" lon="10.55699471681767"><ele>12.25</ele><time>2026-04-15T12:08:40Z</time></trkpt><trkpt lat="43.822263902139355" lon="10.557113566792038"><ele>12.0</ele><time>2026-04-15T12:08:41Z</time></trkpt><trkpt lat="43.822145249420174" lon="10.55721620341693"><ele>12.0</ele><time>2026-04-15T12:08:42Z</time></trkpt><trkpt lat="43.82201967953532" lon="10.557309291294084"><ele>12.0</ele><time>2026-04-15T12:08:43Z</time></trkpt><trkpt lat="43.82189505630177" lon="10.557399571236653"><ele>12.0</ele><time>2026-04-15T12:08:44Z</time></trkpt><trkpt lat="43.821769644379046" lon="10.55749091863112"><ele>12.0</ele><time>2026-04-15T12:08:45Z</time></trkpt><trkpt lat="43.82164443088043" lon="10.557579959022162"><ele>12.0</ele><time>2026-04-15T12:08:46Z</time></trkpt><trkpt lat="43.821516258458196" lon="10.557670745870826"><ele>12.0</ele><time>2026-04-15T12:08:47Z</time></trkpt><trkpt lat="43.821386197944435" lon="10.557764558236142"><ele>12.0</ele><time>2026-04-15T12:08:48Z</time></trkpt><trkpt lat="43.821253538487646" lon="10.557862622513667"><ele>12.0</ele><time>2026-04-15T12:08:49Z</time></trkpt><trkpt lat="43.821122931958215" lon="10.557966457973775"><ele>12.0</ele><time>2026-04-15T12:08:50Z</time></trkpt><trkpt lat="43.820992426477986" lon="10.558076807479816"><ele>12.0</ele><time>2026-04-15T12:08:51Z</time></trkpt><trkpt lat="43.820865632060304" lon="10.55819146046938"><ele>12.0</ele><time>2026-04-15T12:08:52Z</time></trkpt><trkpt lat="43.82073144794918" lon="10.558305214944632"><ele>11.666666666666666</ele><time>2026-04-15T12:08:53Z</time></trkpt><trkpt lat="43.820595665603456" lon="10.558412190204947"><ele>11.333333333333332</ele><time>2026-04-15T12:08:54Z</time></trkpt><trkpt lat="43.82046113640651" lon="10.558516601478523"><ele>11.0</ele><time>2026-04-15T12:08:55Z</time></trkpt><trkpt lat="43.82033017761237" lon="10.558617470390267"><ele>11.0</ele><time>2026-04-15T12:08:56Z</time></trkpt><trkpt lat="43.82020462744289" lon="10.55871108500594"><ele>11.0</ele><time>2026-04-15T12:08:57Z</time></trkpt><trkpt lat="43.8200822720907" lon="10.55880353450166"><ele>11.0</ele><time>2026-04-15T12:08:58Z</time></trkpt><trkpt lat="43.819958649326544" lon="10.558898320047836"><ele>11.0</ele><time>2026-04-15T12:08:59Z</time></trkpt><trkpt lat="43.81983657587444" lon="10.558990242978108"><ele>11.0</ele><time>2026-04-15T12:09:00Z</time></trkpt><trkpt lat="43.81971596723663" lon="10.559071083118626"><ele>11.0</ele><time>2026-04-15T12:09:01Z</time></trkpt><trkpt lat="43.81959901636602" lon="10.559130331131348"><ele>11.0</ele><time>2026-04-15T12:09:02Z</time></trkpt><trkpt lat="43.81949063089689" lon="10.559156233219772"><ele>11.0</ele><time>2026-04-15T12:09:03Z</time></trkpt><trkpt lat="43.819392634730065" lon="10.55917103653313"><ele>11.0</ele><time>2026-04-15T12:09:04Z</time></trkpt><trkpt lat="43.819306460398366" lon="10.559181799815082"><ele>11.0</ele><time>2026-04-15T12:09:05Z</time></trkpt><trkpt lat="43.81922653965592" lon="10.559200830829457"><ele>11.0</ele><time>2026-04-15T12:09:06Z</time></trkpt><trkpt lat="43.819141357899646" lon="10.5592326560759"><ele>11.0</ele><time>2026-04-15T12:09:07Z</time></trkpt><trkpt lat="43.81905902023565" lon="10.559281267767972"><ele>11.0</ele><time>2026-04-15T12:09:08Z</time></trkpt><trkpt lat="43.81897461299122" lon="10.559354187962674"><ele>11.0</ele><time>2026-04-15T12:09:09Z</time></trkpt><trkpt lat="43.81889309779652" lon="10.559450855808503"><ele>11.0</ele><time>2026-04-15T12:09:10Z</time></trkpt><trkpt lat="43.81881642332488" lon="10.559565725889724"><ele>11.0</ele><time>2026-04-15T12:09:11Z</time></trkpt><trkpt lat="43.81874276992791" lon="10.559693463567209"><ele>11.0</ele><time>2026-04-15T12:09:12Z</time></trkpt><trkpt lat="43.81865884771308" lon="10.559830204026772"><ele>11.0</ele><time>2026-04-15T12:09:13Z</time></trkpt><trkpt lat="43.81855561237358" lon="10.55995792346259"><ele>10.666666666666666</ele><time>2026-04-15T12:09:14.001Z</time></trkpt><trkpt lat="43.818431559972765" lon="10.560071500938465"><ele>10.333333333333334</ele><time>2026-04-15T12:09:15.001Z</time></trkpt><trkpt lat="43.8182969474906" lon="10.560167923708455"><ele>10.0</ele><time>2026-04-15T12:09:16.001Z</time></trkpt><trkpt lat="43.81814881063668" lon="10.560255599718444"><ele>10.0</ele><time>2026-04-15T12:09:17.001Z</time></trkpt><trkpt lat="43.81799637053394" lon="10.560338947273625"><ele>10.0</ele><time>2026-04-15T12:09:18.001Z</time></trkpt><trkpt lat="43.8178289467169" lon="10.560409670188564"><ele>10.0</ele><time>2026-04-15T12:09:19.001Z</time></trkpt><trkpt lat="43.81765620786912" lon="10.560461219742319"><ele>10.666666666666668</ele><time>2026-04-15T12:09:20.001Z</time></trkpt><trkpt lat="43.81747907815637" lon="10.560505903472404"><ele>11.333333333333334</ele><time>2026-04-15T12:09:21.001Z</time></trkpt><trkpt lat="43.81729496099884" lon="10.560559049459219"><ele>12.0</ele><time>2026-04-15T12:09:22.001Z</time></trkpt><trkpt lat="43.817106219109164" lon="10.5606255069503"><ele>12.0</ele><time>2026-04-15T12:09:23.001Z</time></trkpt><trkpt lat="43.81692303723233" lon="10.560694060636877"><ele>12.0</ele><time>2026-04-15T12:09:24.001Z</time></trkpt><trkpt lat="43.81673868046525" lon="10.560763968640545"><ele>12.0</ele><time>2026-04-15T12:09:25.001Z</time></trkpt><trkpt lat="43.8165698508159" lon="10.560828789657503"><ele>11.666666666666666</ele><time>2026-04-15T12:09:26.001Z</time></trkpt><trkpt lat="43.81641607682337" lon="10.560900794565196"><ele>11.333333333333332</ele><time>2026-04-15T12:09:27.001Z</time></trkpt><trkpt lat="43.816268691317696" lon="10.56098815909225"><ele>11.0</ele><time>2026-04-15T12:09:28.001Z</time></trkpt><trkpt lat="43.816132577176255" lon="10.561088625904954"><ele>11.0</ele><time>2026-04-15T12:09:29.001Z</time></trkpt><trkpt lat="43.81599643267528" lon="10.561195419430979"><ele>11.0</ele><time>2026-04-15T12:09:30.001Z</time></trkpt><trkpt lat="43.81586541514669" lon="10.561298286182517"><ele>11.0</ele><time>2026-04-15T12:09:31.001Z</time></trkpt><trkpt lat="43.81573456985416" lon="10.561392759197576"><ele>11.600000000000001</ele><time>2026-04-15T12:09:32.001Z</time></trkpt><trkpt lat="43.81561189611388" lon="10.561479739253228"><ele>12.2</ele><time>2026-04-15T12:09:33.001Z</time></trkpt><trkpt lat="43.815513487515375" lon="10.561553305407122"><ele>12.799999999999999</ele><time>2026-04-15T12:09:34.001Z</time></trkpt><trkpt lat="43.815439397046134" lon="10.561615155261032"><ele>13.399999999999999</ele><time>2026-04-15T12:09:35.001Z</time></trkpt><trkpt lat="43.81535298232643" lon="10.561685805420694"><ele>14.0</ele><time>2026-04-15T12:09:37.001Z</time></trkpt><trkpt lat="43.815292619783534" lon="10.56172319313457"><ele>14.0</ele><time>2026-04-15T12:09:44.001Z</time></trkpt><trkpt lat="43.81517830926334" lon="10.561797067990446"><ele>14.0</ele><time>2026-04-15T12:09:47.001Z</time></trkpt><trkpt lat="43.81509105507177" lon="10.56187209318282"><ele>14.0</ele><time>2026-04-15T12:09:48.001Z</time></trkpt><trkpt lat="43.814977663289774" lon="10.561964554528444"><ele>14.0</ele><time>2026-04-15T12:09:49.001Z</time></trkpt><trkpt lat="43.81484972466617" lon="10.56208845903777"><ele>13.333333333333334</ele><time>2026-04-15T12:09:50.001Z</time></trkpt><trkpt lat="43.81471678554493" lon="10.562230244598052"><ele>12.666666666666668</ele><time>2026-04-15T12:09:51.001Z</time></trkpt><trkpt lat="43.814569848413434" lon="10.562391245425731"><ele>12.0</ele><time>2026-04-15T12:09:52.001Z</time></trkpt><trkpt lat="43.81442185289353" lon="10.562555836689608"><ele>12.0</ele><time>2026-04-15T12:09:53.001Z</time></trkpt><trkpt lat="43.8142622902126" lon="10.56273837676866"><ele>12.0</ele><time>2026-04-15T12:09:54.001Z</time></trkpt><trkpt lat="43.814103544677145" lon="10.56291316139113"><ele>12.0</ele><time>2026-04-15T12:09:55.001Z</time></trkpt><trkpt lat="43.813958058633034" lon="10.563070724400118"><ele>12.0</ele><time>2026-04-15T12:09:56.001Z</time></trkpt><trkpt lat="43.81384117416554" lon="10.563227519194912"><ele>12.0</ele><time>2026-04-15T12:09:57.001Z</time></trkpt><trkpt lat="43.81375054456505" lon="10.563393048307098"><ele>12.0</ele><time>2026-04-15T12:09:58.001Z</time></trkpt><trkpt lat="43.813673548342265" lon="10.563557162560366"><ele>13.25</ele><time>2026-04-15T12:09:59.001Z</time></trkpt><trkpt lat="43.81360099612178" lon="10.56370691719929"><ele>14.5</ele><time>2026-04-15T12:10:00.001Z</time></trkpt><trkpt lat="43.8135262752969" lon="10.563831664530646"><ele>15.75</ele><time>2026-04-15T12:10:01.001Z</time></trkpt><trkpt lat="43.81343007262621" lon="10.563920935000901"><ele>17.0</ele><time>2026-04-15T12:10:02.001Z</time></trkpt><trkpt lat="43.81329632619803" lon="10.563941822064631"><ele>17.25</ele><time>2026-04-15T12:10:03.001Z</time></trkpt><trkpt lat="43.81315031069945" lon="10.563967870560237"><ele>17.5</ele><time>2026-04-15T12:10:04.001Z</time></trkpt><trkpt lat="43.813007053407055" lon="10.564002421951326"><ele>17.75</ele><time>2026-04-15T12:10:05.001Z</time></trkpt><trkpt lat="43.8128549371512" lon="10.564002137894226"><ele>18.0</ele><time>2026-04-15T12:10:06.001Z</time></trkpt><trkpt lat="43.8126993419" lon="10.564010247371701"><ele>18.666666666666668</ele><time>2026-04-15T12:10:07.001Z</time></trkpt><trkpt lat="43.81254307633928" lon="10.564036618658166"><ele>19.333333333333336</ele><time>2026-04-15T12:10:08.001Z</time></trkpt><trkpt lat="43.812388286113055" lon="10.56408211733295"><ele>20.0</ele><time>2026-04-15T12:10:09.001Z</time></trkpt><trkpt lat="43.81223362006066" lon="10.564155070791916"><ele>20.0</ele><time>2026-04-15T12:10:10.001Z</time></trkpt><trkpt lat="43.812083665362024" lon="10.564242672891583"><ele>20.0</ele><time>2026-04-15T12:10:11.001Z</time></trkpt><trkpt lat="43.81193562222308" lon="10.564339674337512"><ele>20.0</ele><time>2026-04-15T12:10:12.001Z</time></trkpt><trkpt lat="43.8117730189244" lon="10.564422227898921"><ele>19.0</ele><time>2026-04-15T12:10:13.001Z</time></trkpt><trkpt lat="43.81160723390304" lon="10.564463912580615"><ele>18.0</ele><time>2026-04-15T12:10:14.001Z</time></trkpt><trkpt lat="43.81144182956331" lon="10.564464827331493"><ele>17.0</ele><time>2026-04-15T12:10:15.001Z</time></trkpt><trkpt lat="43.81129949660199" lon="10.564477419940241"><ele>17.666666666666668</ele><time>2026-04-15T12:10:16.001Z</time></trkpt><trkpt lat="43.811160200415074" lon="10.564534532543515"><ele>18.333333333333332</ele><time>2026-04-15T12:10:17.001Z</time></trkpt><trkpt lat="43.81101202681632" lon="10.564621011413031"><ele>19.0</ele><time>2026-04-15T12:10:18.001Z</time></trkpt><trkpt lat="43.81085079854179" lon="10.564667685267807"><ele>19.0</ele><time>2026-04-15T12:10:19.001Z</time></trkpt><trkpt lat="43.81067435983359" lon="10.564697644680786"><ele>19.0</ele><time>2026-04-15T12:10:20.001Z</time></trkpt><trkpt lat="43.81049058063374" lon="10.564741731238458"><ele>19.0</ele><time>2026-04-15T12:10:21.001Z</time></trkpt><trkpt lat="43.810307338142735" lon="10.56478559930738"><ele>17.333333333333332</ele><time>2026-04-15T12:10:22.001Z</time></trkpt><trkpt lat="43.81013407316387" lon="10.564826270171523"><ele>15.666666666666668</ele><time>2026-04-15T12:10:23.001Z</time></trkpt><trkpt lat="43.80997391446851" lon="10.564869577025126"><ele>14.0</ele><time>2026-04-15T12:10:24.001Z</time></trkpt><trkpt lat="43.80982608940648" lon="10.56491604408559"><ele>14.0</ele><time>2026-04-15T12:10:25.001Z</time></trkpt><trkpt lat="43.80967956800423" lon="10.564969495093989"><ele>14.0</ele><time>2026-04-15T12:10:26.001Z</time></trkpt><trkpt lat="43.8095362285902" lon="10.565038336998978"><ele>14.0</ele><time>2026-04-15T12:10:27.001Z</time></trkpt><trkpt lat="43.809401587599744" lon="10.565122411869703"><ele>14.0</ele><time>2026-04-15T12:10:28.001Z</time></trkpt><trkpt lat="43.80927038838569" lon="10.565227828863566"><ele>14.0</ele><time>2026-04-15T12:10:29.001Z</time></trkpt><trkpt lat="43.8091464185077" lon="10.565349077281406"><ele>14.0</ele><time>2026-04-15T12:10:30.001Z</time></trkpt><trkpt lat="43.80902303986809" lon="10.565473964451478"><ele>14.5</ele><time>2026-04-15T12:10:31.001Z</time></trkpt><trkpt lat="43.808908759587844" lon="10.565588705309615"><ele>15.0</ele><time>2026-04-15T12:10:32.001Z</time></trkpt><trkpt lat="43.80879060605076" lon="10.565696592601926"><ele>15.5</ele><time>2026-04-15T12:10:33.001Z</time></trkpt><trkpt lat="43.808675632772115" lon="10.565801244742556"><ele>16.0</ele><time>2026-04-15T12:10:34.001Z</time></trkpt><trkpt lat="43.8085631649008" lon="10.56590114225859"><ele>16.0</ele><time>2026-04-15T12:10:35.001Z</time></trkpt><trkpt lat="43.808448584251494" lon="10.565994708884563"><ele>16.0</ele><time>2026-04-15T12:10:36.001Z</time></trkpt><trkpt lat="43.80832646305619" lon="10.56607481092451"><ele>16.0</ele><time>2026-04-15T12:10:37.001Z</time></trkpt><trkpt lat="43.80820362379191" lon="10.566128548974493"><ele>16.0</ele><time>2026-04-15T12:10:38.001Z</time></trkpt><trkpt lat="43.80807638611407" lon="10.56614307612859"><ele>16.0</ele><time>2026-04-15T12:10:39.001Z</time></trkpt><trkpt lat="43.80794861470681" lon="10.566112122834552"><ele>16.0</ele><time>2026-04-15T12:10:40.001Z</time></trkpt><trkpt lat="43.80782816509585" lon="10.566042933039695"><ele>16.0</ele><time>2026-04-15T12:10:41.001Z</time></trkpt><trkpt lat="43.807720473876834" lon="10.565956210048563"><ele>16.0</ele><time>2026-04-15T12:10:42.001Z</time></trkpt><trkpt lat="43.807627916035955" lon="10.565872650063511"><ele>16.2</ele><time>2026-04-15T12:10:43.001Z</time></trkpt><trkpt lat="43.807531783637344" lon="10.565816236721108"><ele>16.400000000000002</ele><time>2026-04-15T12:10:44.001Z</time></trkpt><trkpt lat="43.80742378839857" lon="10.565791662280875"><ele>16.6</ele><time>2026-04-15T12:10:45.001Z</time></trkpt><trkpt lat="43.80731120162318" lon="10.565799187452008"><ele>16.8</ele><time>2026-04-15T12:10:46.001Z</time></trkpt><trkpt lat="43.80720456269585" lon="10.56582738183789"><ele>17.0</ele><time>2026-04-15T12:10:47.001Z</time></trkpt><trkpt lat="43.807095827746146" lon="10.56586344746531"><ele>17.0</ele><time>2026-04-15T12:10:48.001Z</time></trkpt><trkpt lat="43.80698486381428" lon="10.56589759154312"><ele>17.0</ele><time>2026-04-15T12:10:49.001Z</time></trkpt><trkpt lat="43.80686863028213" lon="10.565935299522605"><ele>17.0</ele><time>2026-04-15T12:10:50.001Z</time></trkpt><trkpt lat="43.80675796097679" lon="10.565976274617853"><ele>17.0</ele><time>2026-04-15T12:10:51.001Z</time></trkpt><trkpt lat="43.806646360680574" lon="10.566017854534692"><ele>17.25</ele><time>2026-04-15T12:10:52.001Z</time></trkpt><trkpt lat="43.80653585595364" lon="10.566040755173574"><ele>17.5</ele><time>2026-04-15T12:10:53.001Z</time></trkpt><trkpt lat="43.806421371134824" lon="10.56603933203882"><ele>17.75</ele><time>2026-04-15T12:10:54.001Z</time></trkpt><trkpt lat="43.80630854706209" lon="10.566001617560948"><ele>18.0</ele><time>2026-04-15T12:10:55.001Z</time></trkpt><trkpt lat="43.806193602717244" lon="10.565942436046472"><ele>18.0</ele><time>2026-04-15T12:10:56.001Z</time></trkpt><trkpt lat="43.8060741919627" lon="10.565887760217858"><ele>18.0</ele><time>2026-04-15T12:10:57.001Z</time></trkpt><trkpt lat="43.80595159586812" lon="10.56584650783804"><ele>18.0</ele><time>2026-04-15T12:10:58.001Z</time></trkpt><trkpt lat="43.805826679550094" lon="10.565817807615215"><ele>18.0</ele><time>2026-04-15T12:10:59.001Z</time></trkpt><trkpt lat="43.80570335942094" lon="10.565801515399874"><ele>18.25</ele><time>2026-04-15T12:11:00.001Z</time></trkpt><trkpt lat="43.805581934701486" lon="10.565809644088304"><ele>18.5</ele><time>2026-04-15T12:11:01.001Z</time></trkpt><trkpt lat="43.80545746004566" lon="10.565835472119081"><ele>18.75</ele><time>2026-04-15T12:11:02.001Z</time></trkpt><trkpt lat="43.805335979127854" lon="10.565877155421383"><ele>19.0</ele><time>2026-04-15T12:11:03.001Z</time></trkpt><trkpt lat="43.80521530848091" lon="10.565935249045756"><ele>18.75</ele><time>2026-04-15T12:11:04.001Z</time></trkpt><trkpt lat="43.805094175694926" lon="10.566007240829094"><ele>18.5</ele><time>2026-04-15T12:11:05.001Z</time></trkpt><trkpt lat="43.80497359119088" lon="10.566087389344343"><ele>18.25</ele><time>2026-04-15T12:11:06.001Z</time></trkpt><trkpt lat="43.80485172602753" lon="10.566161561940037"><ele>18.0</ele><time>2026-04-15T12:11:07.001Z</time></trkpt><trkpt lat="43.804725951299034" lon="10.566225171908709"><ele>18.5</ele><time>2026-04-15T12:11:08.001Z</time></trkpt><trkpt lat="43.80459653885369" lon="10.566277081675706"><ele>19.0</ele><time>2026-04-15T12:11:09.001Z</time></trkpt><trkpt lat="43.80446654194663" lon="10.56632617317969"><ele>19.5</ele><time>2026-04-15T12:11:10.001Z</time></trkpt><trkpt lat="43.80433283601472" lon="10.566375558707026"><ele>20.0</ele><time>2026-04-15T12:11:11.001Z</time></trkpt><trkpt lat="43.804193874465334" lon="10.566429189782212"><ele>20.0</ele><time>2026-04-15T12:11:12.001Z</time></trkpt><trkpt lat="43.804061927753764" lon="10.56648204904381"><ele>20.0</ele><time>2026-04-15T12:11:13.001Z</time></trkpt><trkpt lat="43.80392453174655" lon="10.566538360229433"><ele>20.0</ele><time>2026-04-15T12:11:14.001Z</time></trkpt><trkpt lat="43.803784893678916" lon="10.566593730350387"><ele>20.0</ele><time>2026-04-15T12:11:15.001Z</time></trkpt><trkpt lat="43.80365062415031" lon="10.566646372350348"><ele>20.0</ele><time>2026-04-15T12:11:16.001Z</time></trkpt><trkpt lat="43.803524750306416" lon="10.566694618706594"><ele>20.0</ele><time>2026-04-15T12:11:17.001Z</time></trkpt><trkpt lat="43.80341091602656" lon="10.56673429659901"><ele>20.0</ele><time>2026-04-15T12:11:18.001Z</time></trkpt><trkpt lat="43.803298158463505" lon="10.566755219619104"><ele>20.0</ele><time>2026-04-15T12:11:19.001Z</time></trkpt><trkpt lat="43.8031822398597" lon="10.5667543961455"><ele>20.25</ele><time>2026-04-15T12:11:20.001Z</time></trkpt><trkpt lat="43.80305738457143" lon="10.566730064501266"><ele>20.5</ele><time>2026-04-15T12:11:21.001Z</time></trkpt><trkpt lat="43.80293676814152" lon="10.566662931712573"><ele>20.75</ele><time>2026-04-15T12:11:22.001Z</time></trkpt><trkpt lat="43.802821366114486" lon="10.56657347651294"><ele>21.0</ele><time>2026-04-15T12:11:23.001Z</time></trkpt><trkpt lat="43.80269832345971" lon="10.56647025609032"><ele>20.75</ele><time>2026-04-15T12:11:24.001Z</time></trkpt><trkpt lat="43.802566646798354" lon="10.566361338219515"><ele>20.5</ele><time>2026-04-15T12:11:25.001Z</time></trkpt><trkpt lat="43.80243467379786" lon="10.5662695775988"><ele>20.25</ele><time>2026-04-15T12:11:26.001Z</time></trkpt><trkpt lat="43.802305456594304" lon="10.56625009052675"><ele>20.0</ele><time>2026-04-15T12:11:27.001Z</time></trkpt><trkpt lat="43.80217068706008" lon="10.566269216856753"><ele>20.0</ele><time>2026-04-15T12:11:28.001Z</time></trkpt><trkpt lat="43.80203500621283" lon="10.56631128654333"><ele>20.0</ele><time>2026-04-15T12:11:29.001Z</time></trkpt><trkpt lat="43.80190656740071" lon="10.56633772375643"><ele>20.0</ele><time>2026-04-15T12:11:30.001Z</time></trkpt><trkpt lat="43.801789628362876" lon="10.56635564215538"><ele>20.0</ele><time>2026-04-15T12:11:31.001Z</time></trkpt><trkpt lat="43.80168374056505" lon="10.566371912055903"><ele>20.166666666666668</ele><time>2026-04-15T12:11:32.001Z</time></trkpt><trkpt lat="43.80159266977763" lon="10.566390779087058"><ele>20.333333333333336</ele><time>2026-04-15T12:11:33.001Z</time></trkpt><trkpt lat="43.80151164124503" lon="10.566404904721365"><ele>20.5</ele><time>2026-04-15T12:11:34.001Z</time></trkpt><trkpt lat="43.80143422075367" lon="10.566420687800331"><ele>20.666666666666668</ele><time>2026-04-15T12:11:35.001Z</time></trkpt><trkpt lat="43.80134495220485" lon="10.566431790757505"><ele>20.833333333333332</ele><time>2026-04-15T12:11:36.001Z</time></trkpt><trkpt lat="43.801245291702976" lon="10.566443074113476"><ele>21.0</ele><time>2026-04-15T12:11:37.001Z</time></trkpt><trkpt lat="43.80113539890829" lon="10.566451209489996"><ele>21.0</ele><time>2026-04-15T12:11:38.001Z</time></trkpt><trkpt lat="43.801023688535935" lon="10.566460213670421"><ele>21.0</ele><time>2026-04-15T12:11:39.001Z</time></trkpt><trkpt lat="43.800917161489885" lon="10.566472240223082"><ele>21.0</ele><time>2026-04-15T12:11:40.001Z</time></trkpt><trkpt lat="43.800819026786826" lon="10.566490921487583"><ele>21.0</ele><time>2026-04-15T12:11:41.001Z</time></trkpt><trkpt lat="43.80071999002562" lon="10.566519527127246"><ele>21.0</ele><time>2026-04-15T12:11:42.001Z</time></trkpt><trkpt lat="43.80062606579737" lon="10.566573872189199"><ele>21.4</ele><time>2026-04-15T12:11:43.001Z</time></trkpt><trkpt lat="43.800547483345575" lon="10.566665121437197"><ele>21.8</ele><time>2026-04-15T12:11:44.001Z</time></trkpt><trkpt lat="43.80049304390035" lon="10.566790761031353"><ele>22.2</ele><time>2026-04-15T12:11:45.001Z</time></trkpt><trkpt lat="43.80046048098619" lon="10.566929734098224"><ele>22.599999999999998</ele><time>2026-04-15T12:11:46.001Z</time></trkpt><trkpt lat="43.800428877161124" lon="10.567071758318384"><ele>23.0</ele><time>2026-04-15T12:11:47.001Z</time></trkpt><trkpt lat="43.80038902772766" lon="10.56721143014332"><ele>23.0</ele><time>2026-04-15T12:11:48.001Z</time></trkpt><trkpt lat="43.80034487431813" lon="10.567354046690154"><ele>23.0</ele><time>2026-04-15T12:11:49.001Z</time></trkpt><trkpt lat="43.80029994671549" lon="10.567502361138946"><ele>23.0</ele><time>2026-04-15T12:11:50.001Z</time></trkpt><trkpt lat="43.800249849362324" lon="10.567648752454518"><ele>23.0</ele><time>2026-04-15T12:11:51.001Z</time></trkpt><trkpt lat="43.80018375973302" lon="10.567788417545893"><ele>23.75</ele><time>2026-04-15T12:11:52.001Z</time></trkpt><trkpt lat="43.800106124855205" lon="10.567919559358025"><ele>24.5</ele><time>2026-04-15T12:11:53.001Z</time></trkpt><trkpt lat="43.80002480129732" lon="10.568057703431673"><ele>25.25</ele><time>2026-04-15T12:11:54.001Z</time></trkpt><trkpt lat="43.79994361911797" lon="10.56819851539972"><ele>26.0</ele><time>2026-04-15T12:11:55.001Z</time></trkpt><trkpt lat="43.799861354728435" lon="10.56833859313194"><ele>26.0</ele><time>2026-04-15T12:11:56.001Z</time></trkpt><trkpt lat="43.79977540471688" lon="10.568477833462516"><ele>26.0</ele><time>2026-04-15T12:11:57.001Z</time></trkpt><trkpt lat="43.799692310055555" lon="10.568596945315985"><ele>26.0</ele><time>2026-04-15T12:11:58.001Z</time></trkpt><trkpt lat="43.79961028003996" lon="10.568692530736195"><ele>26.0</ele><time>2026-04-15T12:11:59.001Z</time></trkpt><trkpt lat="43.79951940175468" lon="10.568773682512363"><ele>26.0</ele><time>2026-04-15T12:12:00.001Z</time></trkpt><trkpt lat="43.79942106644694" lon="10.568843226131435"><ele>26.0</ele><time>2026-04-15T12:12:01.001Z</time></trkpt><trkpt lat="43.799314845648276" lon="10.568902377029401"><ele>26.0</ele><time>2026-04-15T12:12:02.001Z</time></trkpt><trkpt lat="43.79921149722372" lon="10.568946126348614"><ele>26.0</ele><time>2026-04-15T12:12:03.001Z</time></trkpt><trkpt lat="43.79912525317085" lon="10.568977069786486"><ele>26.0</ele><time>2026-04-15T12:12:04.001Z</time></trkpt><trkpt lat="43.799043421103725" lon="10.568995475051569"><ele>26.333333333333332</ele><time>2026-04-15T12:12:06.001Z</time></trkpt><trkpt lat="43.798966900804075" lon="10.569013626644542"><ele>26.666666666666664</ele><time>2026-04-15T12:12:09.001Z</time></trkpt><trkpt lat="43.79889794874939" lon="10.569025114590403"><ele>27.0</ele><time>2026-04-15T12:12:12.001Z</time></trkpt><trkpt lat="43.798824969677234" lon="10.56903858815875"><ele>27.333333333333336</ele><time>2026-04-15T12:12:30.001Z</time></trkpt><trkpt lat="43.79873182382127" lon="10.569061740541366"><ele>27.666666666666668</ele><time>2026-04-15T12:12:33.001Z</time></trkpt><trkpt lat="43.79865530023025" lon="10.569082869014768"><ele>28.0</ele><time>2026-04-15T12:12:35.001Z</time></trkpt><trkpt lat="43.798567135029245" lon="10.56910277574165"><ele>28.599999999999998</ele><time>2026-04-15T12:12:37.001Z</time></trkpt><trkpt lat="43.79846380900911" lon="10.569132205157533"><ele>29.199999999999996</ele><time>2026-04-15T12:12:39.001Z</time></trkpt><trkpt lat="43.79838143270485" lon="10.569171719709194"><ele>29.8</ele><time>2026-04-15T12:12:41.001Z</time></trkpt><trkpt lat="43.79832109482416" lon="10.56919964401894"><ele>30.4</ele><time>2026-04-15T12:12:44.001Z</time></trkpt><trkpt lat="43.7982306127112" lon="10.569246416356043"><ele>31.0</ele><time>2026-04-15T12:12:46.001Z</time></trkpt><trkpt lat="43.79814991693322" lon="10.569352506006746"><ele>31.0</ele><time>2026-04-15T12:12:48.001Z</time></trkpt><trkpt lat="43.79807934075608" lon="10.56949740024827"><ele>31.0</ele><time>2026-04-15T12:12:50.001Z</time></trkpt><trkpt lat="43.798027549376584" lon="10.569630073515976"><ele>31.0</ele><time>2026-04-15T12:12:52.001Z</time></trkpt><trkpt lat="43.79799929441191" lon="10.56973956602292"><ele>31.0</ele><time>2026-04-15T12:12:53.001Z</time></trkpt><trkpt lat="43.79796855891446" lon="10.569831051922733"><ele>31.0</ele><time>2026-04-15T12:12:54.001Z</time></trkpt><trkpt lat="43.797931990006035" lon="10.569929996228876"><ele>30.8</ele><time>2026-04-15T12:12:55.001Z</time></trkpt><trkpt lat="43.79789254951638" lon="10.570041248324928"><ele>30.6</ele><time>2026-04-15T12:12:56.001Z</time></trkpt><trkpt lat="43.79785238782901" lon="10.570155226449982"><ele>30.4</ele><time>2026-04-15T12:12:57.001Z</time></trkpt><trkpt lat="43.79780941702212" lon="10.570271328122612"><ele>30.2</ele><time>2026-04-15T12:12:58.001Z</time></trkpt><trkpt lat="43.797777846894434" lon="10.570393240062112"><ele>30.0</ele><time>2026-04-15T12:12:59.001Z</time></trkpt><trkpt lat="43.79775786280321" lon="10.570529371603302"><ele>30.0</ele><time>2026-04-15T12:13:00.001Z</time></trkpt><trkpt lat="43.79774912720667" lon="10.570670126952562"><ele>30.0</ele><time>2026-04-15T12:13:01.001Z</time></trkpt><trkpt lat="43.797753680806295" lon="10.570821762180179"><ele>30.0</ele><time>2026-04-15T12:13:02.001Z</time></trkpt><trkpt lat="43.797760039232855" lon="10.570983040777897"><ele>30.0</ele><time>2026-04-15T12:13:03.001Z</time></trkpt><trkpt lat="43.797756820278224" lon="10.571134340510497"><ele>30.0</ele><time>2026-04-15T12:13:04.001Z</time></trkpt><trkpt lat="43.79774469123279" lon="10.571284209858508"><ele>30.0</ele><time>2026-04-15T12:13:05.001Z</time></trkpt><trkpt lat="43.79772006759394" lon="10.571420548067364"><ele>30.0</ele><time>2026-04-15T12:13:06.001Z</time></trkpt><trkpt lat="43.79767781407488" lon="10.571539458101507"><ele>30.0</ele><time>2026-04-15T12:13:07.001Z</time></trkpt><trkpt lat="43.797624540679315" lon="10.571602715703001"><ele>30.0</ele><time>2026-04-15T12:13:08.001Z</time></trkpt><trkpt lat="43.797568455920896" lon="10.571702706048393"><ele>30.0</ele><time>2026-04-15T12:13:10.001Z</time></trkpt><trkpt lat="43.79749186194668" lon="10.571807023278916"><ele>30.166666666666668</ele><time>2026-04-15T12:13:12.001Z</time></trkpt><trkpt lat="43.79744078572818" lon="10.571878232926236"><ele>30.333333333333336</ele><time>2026-04-15T12:13:13.001Z</time></trkpt><trkpt lat="43.79738808946874" lon="10.57195305610943"><ele>30.5</ele><time>2026-04-15T12:13:14.001Z</time></trkpt><trkpt lat="43.79732962625617" lon="10.572036379234344"><ele>30.666666666666668</ele><time>2026-04-15T12:13:15.001Z</time></trkpt><trkpt lat="43.79726224270578" lon="10.572123477040376"><ele>30.833333333333336</ele><time>2026-04-15T12:13:16.001Z</time></trkpt><trkpt lat="43.79718633076166" lon="10.57221974897153"><ele>31.0</ele><time>2026-04-15T12:13:17.001Z</time></trkpt><trkpt lat="43.79710724383412" lon="10.5723126888659"><ele>31.0</ele><time>2026-04-15T12:13:18.001Z</time></trkpt><trkpt lat="43.79702976674721" lon="10.572406741987798"><ele>31.0</ele><time>2026-04-15T12:13:19.001Z</time></trkpt><trkpt lat="43.79695345004923" lon="10.57248958416188"><ele>31.0</ele><time>2026-04-15T12:13:20.001Z</time></trkpt><trkpt lat="43.796865521637095" lon="10.572568960000542"><ele>31.0</ele><time>2026-04-15T12:13:21.001Z</time></trkpt><trkpt lat="43.79677172699862" lon="10.572641422034406"><ele>31.0</ele><time>2026-04-15T12:13:22.001Z</time></trkpt><trkpt lat="43.79666256247061" lon="10.572711566702441"><ele>31.0</ele><time>2026-04-15T12:13:23.001Z</time></trkpt><trkpt lat="43.79654777412089" lon="10.572778537081565"><ele>31.0</ele><time>2026-04-15T12:13:24.001Z</time></trkpt><trkpt lat="43.79641427326606" lon="10.572839358468299"><ele>31.0</ele><time>2026-04-15T12:13:25.001Z</time></trkpt><trkpt lat="43.7962720477799" lon="10.5729066627719"><ele>31.0</ele><time>2026-04-15T12:13:26.001Z</time></trkpt><trkpt lat="43.79612497825007" lon="10.572976215875526"><ele>32.0</ele><time>2026-04-15T12:13:27.001Z</time></trkpt><trkpt lat="43.79596910578247" lon="10.573057072014985"><ele>33.0</ele><time>2026-04-15T12:13:28.001Z</time></trkpt><trkpt lat="43.79583417972112" lon="10.573148565132804"><ele>34.0</ele><time>2026-04-15T12:13:29.001Z</time></trkpt><trkpt lat="43.79571610610359" lon="10.573251111680568"><ele>34.0</ele><time>2026-04-15T12:13:30.001Z</time></trkpt><trkpt lat="43.79561344637859" lon="10.573366304915563"><ele>34.0</ele><time>2026-04-15T12:13:31.001Z</time></trkpt><trkpt lat="43.79552123686169" lon="10.573481791707684"><ele>34.0</ele><time>2026-04-15T12:13:32.001Z</time></trkpt><trkpt lat="43.79544054488181" lon="10.57360966639897"><ele>34.0</ele><time>2026-04-15T12:13:33.001Z</time></trkpt><trkpt lat="43.79537082651782" lon="10.57375568511218"><ele>33.0</ele><time>2026-04-15T12:13:34.001Z</time></trkpt><trkpt lat="43.79531566323213" lon="10.573921712977763"><ele>32.0</ele><time>2026-04-15T12:13:35.001Z</time></trkpt><trkpt lat="43.79525317703633" lon="10.574094879737999"><ele>31.0</ele><time>2026-04-15T12:13:36.001Z</time></trkpt><trkpt lat="43.79519048427387" lon="10.574275828923263"><ele>30.0</ele><time>2026-04-15T12:13:37.001Z</time></trkpt><trkpt lat="43.79512570900038" lon="10.574461557829439"><ele>30.75</ele><time>2026-04-15T12:13:38.001Z</time></trkpt><trkpt lat="43.79506394971344" lon="10.574648712783553"><ele>31.5</ele><time>2026-04-15T12:13:39.001Z</time></trkpt><trkpt lat="43.79500550151905" lon="10.574836473581927"><ele>32.25</ele><time>2026-04-15T12:13:40.001Z</time></trkpt><trkpt lat="43.79495128840897" lon="10.575012704578189"><ele>33.0</ele><time>2026-04-15T12:13:41.001Z</time></trkpt><trkpt lat="43.79490081263876" lon="10.575179845300639"><ele>33.0</ele><time>2026-04-15T12:13:42.001Z</time></trkpt><trkpt lat="43.79484978497157" lon="10.575345493381965"><ele>33.0</ele><time>2026-04-15T12:13:43.001Z</time></trkpt><trkpt lat="43.794798224388366" lon="10.575517663970135"><ele>33.0</ele><time>2026-04-15T12:13:44.001Z</time></trkpt><trkpt lat="43.79474452982427" lon="10.575691723076838"><ele>33.0</ele><time>2026-04-15T12:13:45.001Z</time></trkpt><trkpt lat="43.79469053479568" lon="10.575863586398652"><ele>31.25</ele><time>2026-04-15T12:13:46.001Z</time></trkpt><trkpt lat="43.79463450419498" lon="10.576033048762858"><ele>29.5</ele><time>2026-04-15T12:13:47.001Z</time></trkpt><trkpt lat="43.7945793075265" lon="10.576206755663494"><ele>27.75</ele><time>2026-04-15T12:13:48.001Z</time></trkpt><trkpt lat="43.79452750189762" lon="10.57637167983295"><ele>26.0</ele><time>2026-04-15T12:13:49.001Z</time></trkpt><trkpt lat="43.794471100659734" lon="10.576529335025612"><ele>25.25</ele><time>2026-04-15T12:13:50.001Z</time></trkpt><trkpt lat="43.794402076874135" lon="10.576672136362884"><ele>24.5</ele><time>2026-04-15T12:13:51.001Z</time></trkpt><trkpt lat="43.79430045814946" lon="10.576787620066801"><ele>23.75</ele><time>2026-04-15T12:13:52.001Z</time></trkpt><trkpt lat="43.79420065995185" lon="10.576915197564105"><ele>23.0</ele><time>2026-04-15T12:13:53.001Z</time></trkpt><trkpt lat="43.79410562618639" lon="10.57704936782731"><ele>22.75</ele><time>2026-04-15T12:13:54.001Z</time></trkpt><trkpt lat="43.793988674133374" lon="10.57715709713066"><ele>22.5</ele><time>2026-04-15T12:13:55.001Z</time></trkpt><trkpt lat="43.793867808145464" lon="10.577273560803805"><ele>22.25</ele><time>2026-04-15T12:13:56.001Z</time></trkpt><trkpt lat="43.79374899388869" lon="10.577396368449666"><ele>22.0</ele><time>2026-04-15T12:13:57.001Z</time></trkpt><trkpt lat="43.7936360802276" lon="10.577510661063753"><ele>22.0</ele><time>2026-04-15T12:13:58.001Z</time></trkpt><trkpt lat="43.79353090151009" lon="10.57761309949924"><ele>22.0</ele><time>2026-04-15T12:13:59.001Z</time></trkpt><trkpt lat="43.793436006676934" lon="10.57770578201459"><ele>22.0</ele><time>2026-04-15T12:14:00.001Z</time></trkpt><trkpt lat="43.793343865792934" lon="10.577788409600782"><ele>22.0</ele><time>2026-04-15T12:14:01.001Z</time></trkpt><trkpt lat="43.79325403079312" lon="10.577846601488563"><ele>22.0</ele><time>2026-04-15T12:14:02.001Z</time></trkpt><trkpt lat="43.79315450402189" lon="10.577845643504707"><ele>22.0</ele><time>2026-04-15T12:14:03.001Z</time></trkpt><trkpt lat="43.793066118900626" lon="10.577886761652259"><ele>22.0</ele><time>2026-04-15T12:14:04.001Z</time></trkpt><trkpt lat="43.79297591931899" lon="10.577907125733"><ele>22.0</ele><time>2026-04-15T12:14:05.001Z</time></trkpt><trkpt lat="43.79290066550883" lon="10.577957654640816"><ele>22.0</ele><time>2026-04-15T12:14:06.001Z</time></trkpt><trkpt lat="43.792841986509174" lon="10.578031421963585"><ele>22.0</ele><time>2026-04-15T12:14:07.001Z</time></trkpt><trkpt lat="43.792790524754636" lon="10.57812595963778"><ele>22.0</ele><time>2026-04-15T12:14:08.001Z</time></trkpt><trkpt lat="43.79273903495788" lon="10.578238161920458"><ele>22.0</ele><time>2026-04-15T12:14:09.001Z</time></trkpt><trkpt lat="43.792678834994675" lon="10.578371979913392"><ele>22.0</ele><time>2026-04-15T12:14:10.001Z</time></trkpt><trkpt lat="43.79261065159748" lon="10.578502924422562"><ele>22.0</ele><time>2026-04-15T12:14:11.001Z</time></trkpt><trkpt lat="43.79251544593437" lon="10.57862305299648"><ele>22.5</ele><time>2026-04-15T12:14:12.001Z</time></trkpt><trkpt lat="43.792419408723255" lon="10.578741654698948"><ele>23.0</ele><time>2026-04-15T12:14:13.001Z</time></trkpt><trkpt lat="43.79230284023536" lon="10.57883488333539"><ele>23.5</ele><time>2026-04-15T12:14:14.001Z</time></trkpt><trkpt lat="43.79217293991613" lon="10.578936417330853"><ele>24.0</ele><time>2026-04-15T12:14:15.001Z</time></trkpt><trkpt lat="43.792035796655576" lon="10.579055029723666"><ele>24.0</ele><time>2026-04-15T12:14:16.001Z</time></trkpt><trkpt lat="43.79189574389875" lon="10.579163180345608"><ele>24.0</ele><time>2026-04-15T12:14:17.001Z</time></trkpt><trkpt lat="43.791760955264905" lon="10.579267926747368"><ele>24.0</ele><time>2026-04-15T12:14:18.001Z</time></trkpt><trkpt lat="43.7916346851821" lon="10.579368100212585"><ele>25.0</ele><time>2026-04-15T12:14:19.001Z</time></trkpt><trkpt lat="43.791519868377975" lon="10.579474963281516"><ele>26.0</ele><time>2026-04-15T12:14:20.001Z</time></trkpt><trkpt lat="43.79142454699827" lon="10.57959915372893"><ele>27.0</ele><time>2026-04-15T12:14:21.001Z</time></trkpt><trkpt lat="43.79135468140872" lon="10.579747338253206"><ele>28.0</ele><time>2026-04-15T12:14:22.001Z</time></trkpt><trkpt lat="43.79130227316244" lon="10.57992044153145"><ele>25.5</ele><time>2026-04-15T12:14:23.001Z</time></trkpt><trkpt lat="43.79126889599096" lon="10.580122215545908"><ele>23.0</ele><time>2026-04-15T12:14:24.001Z</time></trkpt><trkpt lat="43.79125251381284" lon="10.5803310385599"><ele>20.5</ele><time>2026-04-15T12:14:25.001Z</time></trkpt><trkpt lat="43.79123171315674" lon="10.580524529946809"><ele>18.0</ele><time>2026-04-15T12:14:26.001Z</time></trkpt><trkpt lat="43.791189339368245" lon="10.580707758859768"><ele>18.0</ele><time>2026-04-15T12:14:27.001Z</time></trkpt><trkpt lat="43.79112759821424" lon="10.58087354642952"><ele>18.0</ele><time>2026-04-15T12:14:28.001Z</time></trkpt><trkpt lat="43.79105406708045" lon="10.581025617695692"><ele>18.0</ele><time>2026-04-15T12:14:29.001Z</time></trkpt><trkpt lat="43.790978019525745" lon="10.581169146934371"><ele>18.0</ele><time>2026-04-15T12:14:30.001Z</time></trkpt><trkpt lat="43.79089884493204" lon="10.5813148339932"><ele>18.0</ele><time>2026-04-15T12:14:31.001Z</time></trkpt><trkpt lat="43.790808274767095" lon="10.581458401758292"><ele>18.0</ele><time>2026-04-15T12:14:32.001Z</time></trkpt><trkpt lat="43.7907138061279" lon="10.581596683956388"><ele>18.0</ele><time>2026-04-15T12:14:33.001Z</time></trkpt><trkpt lat="43.79061080610081" lon="10.581733705132406"><ele>18.0</ele><time>2026-04-15T12:14:34.001Z</time></trkpt><trkpt lat="43.79050432500856" lon="10.581874463328395"><ele>17.75</ele><time>2026-04-15T12:14:35.001Z</time></trkpt><trkpt lat="43.790400569500804" lon="10.582016863260959"><ele>17.5</ele><time>2026-04-15T12:14:36.001Z</time></trkpt><trkpt lat="43.79029682757653" lon="10.582167185628533"><ele>17.25</ele><time>2026-04-15T12:14:37.001Z</time></trkpt><trkpt lat="43.79020074024471" lon="10.582305798604855"><ele>17.0</ele><time>2026-04-15T12:14:38.001Z</time></trkpt><trkpt lat="43.790107038318475" lon="10.58243845256371"><ele>17.0</ele><time>2026-04-15T12:14:39.001Z</time></trkpt><trkpt lat="43.790014504337556" lon="10.582564216419192"><ele>17.0</ele><time>2026-04-15T12:14:40.001Z</time></trkpt><trkpt lat="43.789915564966535" lon="10.582676584307656"><ele>17.0</ele><time>2026-04-15T12:14:41.001Z</time></trkpt><trkpt lat="43.78980318710954" lon="10.582775985272928"><ele>17.0</ele><time>2026-04-15T12:14:42.001Z</time></trkpt><trkpt lat="43.78967632048716" lon="10.582858511302781"><ele>17.0</ele><time>2026-04-15T12:14:43.001Z</time></trkpt><trkpt lat="43.78955005854161" lon="10.582937113505002"><ele>17.0</ele><time>2026-04-15T12:14:44.001Z</time></trkpt><trkpt lat="43.789421268871756" lon="10.58302602847027"><ele>17.0</ele><time>2026-04-15T12:14:45.001Z</time></trkpt><trkpt lat="43.789301660402835" lon="10.583132010825818"><ele>17.0</ele><time>2026-04-15T12:14:46.001Z</time></trkpt><trkpt lat="43.78918807240014" lon="10.583254646798292"><ele>17.0</ele><time>2026-04-15T12:14:47.001Z</time></trkpt><trkpt lat="43.78908699747319" lon="10.583392710551816"><ele>17.0</ele><time>2026-04-15T12:14:48.001Z</time></trkpt><trkpt lat="43.78900000602588" lon="10.583542774938108"><ele>17.0</ele><time>2026-04-15T12:14:49.001Z</time></trkpt><trkpt lat="43.78891433894619" lon="10.58370209485034"><ele>17.0</ele><time>2026-04-15T12:14:50.001Z</time></trkpt><trkpt lat="43.788828010179266" lon="10.583863447590206"><ele>17.0</ele><time>2026-04-15T12:14:51.001Z</time></trkpt><trkpt lat="43.78874123520905" lon="10.584020688557667"><ele>17.0</ele><time>2026-04-15T12:14:52.001Z</time></trkpt><trkpt lat="43.78865089870473" lon="10.584178035875993"><ele>17.0</ele><time>2026-04-15T12:14:53.001Z</time></trkpt><trkpt lat="43.78856217096919" lon="10.584335259032908"><ele>17.0</ele><time>2026-04-15T12:14:54.001Z</time></trkpt><trkpt lat="43.788477004801756" lon="10.58449336642478"><ele>17.5</ele><time>2026-04-15T12:14:55.001Z</time></trkpt><trkpt lat="43.78838898900002" lon="10.584650732610514"><ele>18.0</ele><time>2026-04-15T12:14:56.001Z</time></trkpt><trkpt lat="43.78829919073213" lon="10.58480918327114"><ele>18.5</ele><time>2026-04-15T12:14:57.001Z</time></trkpt><trkpt lat="43.78820678894855" lon="10.584975636882382"><ele>19.0</ele><time>2026-04-15T12:14:58.001Z</time></trkpt><trkpt lat="43.78810751502907" lon="10.58516367963159"><ele>18.333333333333332</ele><time>2026-04-15T12:14:59.001Z</time></trkpt><trkpt lat="43.78799300258999" lon="10.585356851979936"><ele>17.666666666666668</ele><time>2026-04-15T12:15:00.001Z</time></trkpt><trkpt lat="43.78784510662386" lon="10.585544370333158"><ele>17.0</ele><time>2026-04-15T12:15:01.001Z</time></trkpt><trkpt lat="43.78768755700326" lon="10.585684866565607"><ele>16.75</ele><time>2026-04-15T12:15:02.001Z</time></trkpt><trkpt lat="43.78754900227926" lon="10.58579240657496"><ele>16.5</ele><time>2026-04-15T12:15:03.001Z</time></trkpt><trkpt lat="43.78742844757307" lon="10.585908023315438"><ele>16.25</ele><time>2026-04-15T12:15:04.001Z</time></trkpt><trkpt lat="43.78733886249866" lon="10.586048725184822"><ele>16.0</ele><time>2026-04-15T12:15:05.001Z</time></trkpt><trkpt lat="43.787255080624185" lon="10.586203674323338"><ele>16.0</ele><time>2026-04-15T12:15:06.001Z</time></trkpt><trkpt lat="43.7871772651928" lon="10.586367550441258"><ele>16.0</ele><time>2026-04-15T12:15:07.001Z</time></trkpt><trkpt lat="43.78709708020244" lon="10.586541322321171"><ele>16.0</ele><time>2026-04-15T12:15:08.001Z</time></trkpt><trkpt lat="43.78701620686764" lon="10.58671109586068"><ele>16.0</ele><time>2026-04-15T12:15:09.001Z</time></trkpt><trkpt lat="43.786932006173146" lon="10.586858698410962"><ele>16.0</ele><time>2026-04-15T12:15:10.001Z</time></trkpt><trkpt lat="43.7868463261876" lon="10.586984289546221"><ele>16.0</ele><time>2026-04-15T12:15:11.001Z</time></trkpt><trkpt lat="43.786756681014495" lon="10.587096409213686"><ele>16.0</ele><time>2026-04-15T12:15:12.001Z</time></trkpt><trkpt lat="43.786659087669285" lon="10.587215662548605"><ele>16.0</ele><time>2026-04-15T12:15:13.001Z</time></trkpt><trkpt lat="43.786557323894755" lon="10.58734192367554"><ele>17.25</ele><time>2026-04-15T12:15:14.001Z</time></trkpt><trkpt lat="43.786455219613345" lon="10.587479251442566"><ele>18.5</ele><time>2026-04-15T12:15:15.001Z</time></trkpt><trkpt lat="43.786353708288644" lon="10.587623384336268"><ele>19.75</ele><time>2026-04-15T12:15:16.001Z</time></trkpt><trkpt lat="43.78625299676023" lon="10.587771460250304"><ele>21.0</ele><time>2026-04-15T12:15:17.001Z</time></trkpt><trkpt lat="43.786151479552885" lon="10.587925536727322"><ele>21.0</ele><time>2026-04-15T12:15:18.001Z</time></trkpt><trkpt lat="43.78605356950855" lon="10.588077180764882"><ele>21.0</ele><time>2026-04-15T12:15:19.001Z</time></trkpt><trkpt lat="43.78596359469224" lon="10.588211789210206"><ele>21.0</ele><time>2026-04-15T12:15:20.001Z</time></trkpt><trkpt lat="43.785876992261784" lon="10.58833816804339"><ele>21.0</ele><time>2026-04-15T12:15:21.001Z</time></trkpt><trkpt lat="43.78578711892768" lon="10.588434724874773"><ele>21.6</ele><time>2026-04-15T12:15:22.001Z</time></trkpt><trkpt lat="43.78569464693199" lon="10.588495293861039"><ele>22.200000000000003</ele><time>2026-04-15T12:15:23.001Z</time></trkpt><trkpt lat="43.785596516130695" lon="10.588496203844887"><ele>22.799999999999997</ele><time>2026-04-15T12:15:24.001Z</time></trkpt><trkpt lat="43.78550994521784" lon="10.588446885372663"><ele>23.4</ele><time>2026-04-15T12:15:25.001Z</time></trkpt><trkpt lat="43.78541999053164" lon="10.588393998255437"><ele>24.0</ele><time>2026-04-15T12:15:26.001Z</time></trkpt><trkpt lat="43.78532375784767" lon="10.58834627487395"><ele>24.0</ele><time>2026-04-15T12:15:27.001Z</time></trkpt><trkpt lat="43.78522435797517" lon="10.588306901549675"><ele>24.0</ele><time>2026-04-15T12:15:28.001Z</time></trkpt><trkpt lat="43.78512427978544" lon="10.588300310804037"><ele>24.0</ele><time>2026-04-15T12:15:29.001Z</time></trkpt><trkpt lat="43.785027596109934" lon="10.588341258577962"><ele>24.0</ele><time>2026-04-15T12:15:30.001Z</time></trkpt><trkpt lat="43.78493925171102" lon="10.588430771503088"><ele>24.0</ele><time>2026-04-15T12:15:31.001Z</time></trkpt><trkpt lat="43.784860519023454" lon="10.588532919824145"><ele>24.0</ele><time>2026-04-15T12:15:32.001Z</time></trkpt><trkpt lat="43.78478006063473" lon="10.588631928763148"><ele>24.0</ele><time>2026-04-15T12:15:33.001Z</time></trkpt><trkpt lat="43.78469801337281" lon="10.58872698148484"><ele>24.0</ele><time>2026-04-15T12:15:34.001Z</time></trkpt><trkpt lat="43.784613146668285" lon="10.588826577338052"><ele>24.0</ele><time>2026-04-15T12:15:35.001Z</time></trkpt><trkpt lat="43.78453045788452" lon="10.588924215549385"><ele>24.0</ele><time>2026-04-15T12:15:36.001Z</time></trkpt><trkpt lat="43.78443808750734" lon="10.589033025983278"><ele>25.25</ele><time>2026-04-15T12:15:37.001Z</time></trkpt><trkpt lat="43.78434400233462" lon="10.589140225153388"><ele>26.5</ele><time>2026-04-15T12:15:38.001Z</time></trkpt><trkpt lat="43.784249712963216" lon="10.589249189295176"><ele>27.75</ele><time>2026-04-15T12:15:39.001Z</time></trkpt><trkpt lat="43.784149586078186" lon="10.589362312430083"><ele>29.0</ele><time>2026-04-15T12:15:40.001Z</time></trkpt><trkpt lat="43.784048660303625" lon="10.589480105815825"><ele>28.25</ele><time>2026-04-15T12:15:41.001Z</time></trkpt><trkpt lat="43.78394639398353" lon="10.589602641563634"><ele>27.5</ele><time>2026-04-15T12:15:42.001Z</time></trkpt><trkpt lat="43.783848502960446" lon="10.589718924944414"><ele>26.75</ele><time>2026-04-15T12:15:43.001Z</time></trkpt><trkpt lat="43.7837478823413" lon="10.589825279015063"><ele>26.0</ele><time>2026-04-15T12:15:44.001Z</time></trkpt><trkpt lat="43.7836428106327" lon="10.589953030367843"><ele>26.0</ele><time>2026-04-15T12:15:45.001Z</time></trkpt><trkpt lat="43.783543337547776" lon="10.590068426052648"><ele>26.0</ele><time>2026-04-15T12:15:46.001Z</time></trkpt><trkpt lat="43.78345007834123" lon="10.590175625688197"><ele>26.0</ele><time>2026-04-15T12:15:47.001Z</time></trkpt><trkpt lat="43.783361658318235" lon="10.590279186148958"><ele>26.0</ele><time>2026-04-15T12:15:48.001Z</time></trkpt><trkpt lat="43.78328010707123" lon="10.590374123638924"><ele>25.8</ele><time>2026-04-15T12:15:49.001Z</time></trkpt><trkpt lat="43.783202901075356" lon="10.590463128096228"><ele>25.6</ele><time>2026-04-15T12:15:50.001Z</time></trkpt><trkpt lat="43.783126011516664" lon="10.590552464919313"><ele>25.4</ele><time>2026-04-15T12:15:51.001Z</time></trkpt><trkpt lat="43.78305730702859" lon="10.590634886251646"><ele>25.2</ele><time>2026-04-15T12:15:52.001Z</time></trkpt><trkpt lat="43.78299428139706" lon="10.590710861053374"><ele>25.0</ele><time>2026-04-15T12:15:53.001Z</time></trkpt><trkpt lat="43.782935564137716" lon="10.590789053101338"><ele>25.0</ele><time>2026-04-15T12:15:54.001Z</time></trkpt><trkpt lat="43.78286335210839" lon="10.590871289160464"><ele>25.0</ele><time>2026-04-15T12:15:55.001Z</time></trkpt><trkpt lat="43.782777852702715" lon="10.59095940836861"><ele>25.0</ele><time>2026-04-15T12:15:56.001Z</time></trkpt><trkpt lat="43.782681414760766" lon="10.591059421007323"><ele>25.0</ele><time>2026-04-15T12:15:57.001Z</time></trkpt><trkpt lat="43.7825758094227" lon="10.591165259424368"><ele>25.0</ele><time>2026-04-15T12:15:58.001Z</time></trkpt><trkpt lat="43.78246120654929" lon="10.591280229685216"><ele>25.0</ele><time>2026-04-15T12:15:59.001Z</time></trkpt><trkpt lat="43.78233520625667" lon="10.591395576313161"><ele>25.0</ele><time>2026-04-15T12:16:00.001Z</time></trkpt><trkpt lat="43.782220048743106" lon="10.591497170457911"><ele>25.0</ele><time>2026-04-15T12:16:01.001Z</time></trkpt><trkpt lat="43.782130452116164" lon="10.591579270362024"><ele>25.0</ele><time>2026-04-15T12:16:02.001Z</time></trkpt><trkpt lat="43.78204597629524" lon="10.591656380905272"><ele>25.0</ele><time>2026-04-15T12:16:03.001Z</time></trkpt><trkpt lat="43.781956049413594" lon="10.591736426143342"><ele>25.0</ele><time>2026-04-15T12:16:04.001Z</time></trkpt><trkpt lat="43.781859334868244" lon="10.591822667360479"><ele>25.0</ele><time>2026-04-15T12:16:05.001Z</time></trkpt><trkpt lat="43.78176110217616" lon="10.591911075998768"><ele>25.0</ele><time>2026-04-15T12:16:06.001Z</time></trkpt><trkpt lat="43.78166153866854" lon="10.592003045144198"><ele>24.5</ele><time>2026-04-15T12:16:07.001Z</time></trkpt><trkpt lat="43.78155590838604" lon="10.592099121393478"><ele>24.0</ele><time>2026-04-15T12:16:08.001Z</time></trkpt><trkpt lat="43.78144381637369" lon="10.592198840720211"><ele>23.5</ele><time>2026-04-15T12:16:09.001Z</time></trkpt><trkpt lat="43.78132975513739" lon="10.592301272750069"><ele>23.0</ele><time>2026-04-15T12:16:10.001Z</time></trkpt><trkpt lat="43.78121231367243" lon="10.592405419062867"><ele>23.0</ele><time>2026-04-15T12:16:11.001Z</time></trkpt><trkpt lat="43.78109212591077" lon="10.592512673687768"><ele>23.0</ele><time>2026-04-15T12:16:12.001Z</time></trkpt><trkpt lat="43.780970670270825" lon="10.59262110140482"><ele>23.0</ele><time>2026-04-15T12:16:13.001Z</time></trkpt><trkpt lat="43.780843319803516" lon="10.592733384971005"><ele>23.0</ele><time>2026-04-15T12:16:14.001Z</time></trkpt><trkpt lat="43.78072137702036" lon="10.592850525374184"><ele>23.0</ele><time>2026-04-15T12:16:15.001Z</time></trkpt><trkpt lat="43.78060459128725" lon="10.592990032701652"><ele>23.0</ele><time>2026-04-15T12:16:16.001Z</time></trkpt><trkpt lat="43.78050713943771" lon="10.59316624105909"><ele>23.0</ele><time>2026-04-15T12:16:17.001Z</time></trkpt><trkpt lat="43.78043618091317" lon="10.59338574036128"><ele>23.0</ele><time>2026-04-15T12:16:18.001Z</time></trkpt><trkpt lat="43.78037890625528" lon="10.593621711434468"><ele>23.0</ele><time>2026-04-15T12:16:19.001Z</time></trkpt><trkpt lat="43.78031449219154" lon="10.593869736653257"><ele>23.0</ele><time>2026-04-15T12:16:20.001Z</time></trkpt><trkpt lat="43.780243672456066" lon="10.59410154025703"><ele>25.333333333333336</ele><time>2026-04-15T12:16:21.001Z</time></trkpt><trkpt lat="43.78016475834012" lon="10.5942995482286"><ele>27.666666666666668</ele><time>2026-04-15T12:16:22.001Z</time></trkpt><trkpt lat="43.78006234344335" lon="10.594458000202705"><ele>30.0</ele><time>2026-04-15T12:16:23.001Z</time></trkpt><trkpt lat="43.77994052255188" lon="10.594607197103965"><ele>30.25</ele><time>2026-04-15T12:16:24.001Z</time></trkpt><trkpt lat="43.77981674919174" lon="10.594717700559723"><ele>30.5</ele><time>2026-04-15T12:16:25.001Z</time></trkpt><trkpt lat="43.77969124634673" lon="10.594809871796386"><ele>30.75</ele><time>2026-04-15T12:16:26.001Z</time></trkpt><trkpt lat="43.779546673602404" lon="10.594891468350799"><ele>31.0</ele><time>2026-04-15T12:16:27.001Z</time></trkpt><trkpt lat="43.77939129845137" lon="10.59497262817872"><ele>30.333333333333336</ele><time>2026-04-15T12:16:28.001Z</time></trkpt><trkpt lat="43.77923092079443" lon="10.595062026115087"><ele>29.666666666666664</ele><time>2026-04-15T12:16:29.001Z</time></trkpt><trkpt lat="43.779087793723825" lon="10.595160075569046"><ele>29.0</ele><time>2026-04-15T12:16:30.001Z</time></trkpt><trkpt lat="43.7789547898664" lon="10.595277144216821"><ele>27.666666666666664</ele><time>2026-04-15T12:16:31.001Z</time></trkpt><trkpt lat="43.77884463633191" lon="10.595424257151741"><ele>26.333333333333336</ele><time>2026-04-15T12:16:32.001Z</time></trkpt><trkpt lat="43.77873223548421" lon="10.595590984128608"><ele>25.0</ele><time>2026-04-15T12:16:33.001Z</time></trkpt><trkpt lat="43.77864199550005" lon="10.595748146813245"><ele>25.0</ele><time>2026-04-15T12:16:34.001Z</time></trkpt><trkpt lat="43.77856534216999" lon="10.59592994952744"><ele>25.0</ele><time>2026-04-15T12:16:35.001Z</time></trkpt><trkpt lat="43.77851388297743" lon="10.596141377621263"><ele>25.0</ele><time>2026-04-15T12:16:36.001Z</time></trkpt><trkpt lat="43.778479571429905" lon="10.596370079621941"><ele>24.666666666666668</ele><time>2026-04-15T12:16:37.001Z</time></trkpt><trkpt lat="43.778472503967535" lon="10.596601509577974"><ele>24.333333333333336</ele><time>2026-04-15T12:16:38.001Z</time></trkpt><trkpt lat="43.778403232801715" lon="10.5968415909191"><ele>24.0</ele><time>2026-04-15T12:16:39.001Z</time></trkpt><trkpt lat="43.778528876442714" lon="10.597068530661653"><ele>24.0</ele><time>2026-04-15T12:16:40.001Z</time></trkpt><trkpt lat="43.77856975767077" lon="10.597292895609554"><ele>24.0</ele><time>2026-04-15T12:16:41.001Z</time></trkpt><trkpt lat="43.77860165055912" lon="10.597508394891097"><ele>24.0</ele><time>2026-04-15T12:16:42.001Z</time></trkpt><trkpt lat="43.77862739241385" lon="10.597711948299338"><ele>23.25</ele><time>2026-04-15T12:16:43.001Z</time></trkpt><trkpt lat="43.77864218610878" lon="10.59790051155713"><ele>22.5</ele><time>2026-04-15T12:16:44.001Z</time></trkpt><trkpt lat="43.778622737847705" lon="10.598074244438068"><ele>21.75</ele><time>2026-04-15T12:16:45.001Z</time></trkpt><trkpt lat="43.77856105839516" lon="10.5982280732563"><ele>21.0</ele><time>2026-04-15T12:16:46.001Z</time></trkpt><trkpt lat="43.77847289157416" lon="10.598360873385515"><ele>23.0</ele><time>2026-04-15T12:16:47.001Z</time></trkpt><trkpt lat="43.77836201524362" lon="10.598494868337223"><ele>25.0</ele><time>2026-04-15T12:16:48.001Z</time></trkpt><trkpt lat="43.77823534852087" lon="10.598611318153921"><ele>27.0</ele><time>2026-04-15T12:16:49.001Z</time></trkpt><trkpt lat="43.77809381274292" lon="10.598698125439448"><ele>27.0</ele><time>2026-04-15T12:16:50.001Z</time></trkpt><trkpt lat="43.77795442490854" lon="10.598749868344845"><ele>27.0</ele><time>2026-04-15T12:16:51.001Z</time></trkpt><trkpt lat="43.77782593325972" lon="10.598809301323081"><ele>27.0</ele><time>2026-04-15T12:16:52.001Z</time></trkpt><trkpt lat="43.77771234194141" lon="10.598937413366167"><ele>27.0</ele><time>2026-04-15T12:16:53.001Z</time></trkpt><trkpt lat="43.777606707042445" lon="10.599104555954558"><ele>28.666666666666664</ele><time>2026-04-15T12:16:54.001Z</time></trkpt><trkpt lat="43.777492811575215" lon="10.599276245032266"><ele>30.333333333333332</ele><time>2026-04-15T12:16:55.001Z</time></trkpt><trkpt lat="43.77737183593578" lon="10.599441768514515"><ele>32.0</ele><time>2026-04-15T12:16:56.001Z</time></trkpt><trkpt lat="43.777255495630655" lon="10.599572426817257"><ele>32.0</ele><time>2026-04-15T12:16:57.001Z</time></trkpt><trkpt lat="43.77714669321291" lon="10.599667317010796"><ele>32.0</ele><time>2026-04-15T12:16:58.001Z</time></trkpt><trkpt lat="43.7770420268101" lon="10.599731499802788"><ele>32.0</ele><time>2026-04-15T12:16:59.001Z</time></trkpt><trkpt lat="43.77693421899356" lon="10.599780253210678"><ele>32.0</ele><time>2026-04-15T12:17:00.001Z</time></trkpt><trkpt lat="43.77681049125961" lon="10.599822963548881"><ele>33.0</ele><time>2026-04-15T12:17:01.001Z</time></trkpt><trkpt lat="43.77671312143827" lon="10.599865282239639"><ele>34.0</ele><time>2026-04-15T12:17:02.001Z</time></trkpt><trkpt lat="43.77663019116118" lon="10.599952086557357"><ele>35.0</ele><time>2026-04-15T12:17:03.001Z</time></trkpt><trkpt lat="43.77657359396037" lon="10.600088281943053"><ele>36.0</ele><time>2026-04-15T12:17:04.001Z</time></trkpt><trkpt lat="43.77653189166502" lon="10.600269380154865"><ele>36.0</ele><time>2026-04-15T12:17:05.001Z</time></trkpt><trkpt lat="43.776489440488646" lon="10.600435654790495"><ele>36.0</ele><time>2026-04-15T12:17:06.001Z</time></trkpt><trkpt lat="43.77642227583047" lon="10.600557882104768"><ele>36.0</ele><time>2026-04-15T12:17:07.001Z</time></trkpt><trkpt lat="43.77632080329272" lon="10.600602703028477"><ele>36.0</ele><time>2026-04-15T12:17:08.001Z</time></trkpt><trkpt lat="43.77621445281155" lon="10.60057620787947"><ele>36.0</ele><time>2026-04-15T12:17:09.001Z</time></trkpt><trkpt lat="43.776126004906054" lon="10.600472577646546"><ele>36.0</ele><time>2026-04-15T12:17:10.001Z</time></trkpt><trkpt lat="43.776011273156016" lon="10.600395031800076"><ele>36.0</ele><time>2026-04-15T12:17:11.001Z</time></trkpt><trkpt lat="43.77589409631569" lon="10.600300461811095"><ele>36.0</ele><time>2026-04-15T12:17:12.001Z</time></trkpt><trkpt lat="43.77576216491274" lon="10.600196064090332"><ele>36.666666666666664</ele><time>2026-04-15T12:17:13.001Z</time></trkpt><trkpt lat="43.7756190910638" lon="10.600079526981247"><ele>37.33333333333333</ele><time>2026-04-15T12:17:14.001Z</time></trkpt><trkpt lat="43.77547116602966" lon="10.599957242725353"><ele>38.0</ele><time>2026-04-15T12:17:15.001Z</time></trkpt><trkpt lat="43.77534664005759" lon="10.599849369137344"><ele>38.0</ele><time>2026-04-15T12:17:16.001Z</time></trkpt><trkpt lat="43.775252553173615" lon="10.599745044414496"><ele>38.0</ele><time>2026-04-15T12:17:17.001Z</time></trkpt><trkpt lat="43.77517940592963" lon="10.59964995532109"><ele>38.0</ele><time>2026-04-15T12:17:18.001Z</time></trkpt><trkpt lat="43.77511579871765" lon="10.59959985321845"><ele>38.0</ele><time>2026-04-15T12:17:19.001Z</time></trkpt><trkpt lat="43.77504791325902" lon="10.599634438584022"><ele>38.0</ele><time>2026-04-15T12:17:20.001Z</time></trkpt><trkpt lat="43.77500909491205" lon="10.599734485287197"><ele>38.0</ele><time>2026-04-15T12:17:21.001Z</time></trkpt><trkpt lat="43.77502398154061" lon="10.59986496755793"><ele>40.25</ele><time>2026-04-15T12:17:22.001Z</time></trkpt><trkpt lat="43.775081721315004" lon="10.59998972846814"><ele>42.5</ele><time>2026-04-15T12:17:23.001Z</time></trkpt><trkpt lat="43.77514790715552" lon="10.600137190146064"><ele>44.75</ele><time>2026-04-15T12:17:24.001Z</time></trkpt><trkpt lat="43.77514530162142" lon="10.600302049931255"><ele>47.0</ele><time>2026-04-15T12:17:25.001Z</time></trkpt><trkpt lat="43.77512209191533" lon="10.6004535019417"><ele>47.75</ele><time>2026-04-15T12:17:26.001Z</time></trkpt><trkpt lat="43.77509072388523" lon="10.600598119799985"><ele>48.5</ele><time>2026-04-15T12:17:27.001Z</time></trkpt><trkpt lat="43.77500080839502" lon="10.600709868310101"><ele>49.25</ele><time>2026-04-15T12:17:28.001Z</time></trkpt><trkpt lat="43.77490151430162" lon="10.600790402527876"><ele>50.0</ele><time>2026-04-15T12:17:29.001Z</time></trkpt><trkpt lat="43.774779174486234" lon="10.600803773068582"><ele>50.0</ele><time>2026-04-15T12:17:30.001Z</time></trkpt><trkpt lat="43.77464062031804" lon="10.600797308670275"><ele>50.0</ele><time>2026-04-15T12:17:31.001Z</time></trkpt><trkpt lat="43.77449833714689" lon="10.600807014464172"><ele>50.0</ele><time>2026-04-15T12:17:32.001Z</time></trkpt><trkpt lat="43.77434633754694" lon="10.600791023043639"><ele>50.0</ele><time>2026-04-15T12:17:33.001Z</time></trkpt><trkpt lat="43.7741833282703" lon="10.600766939373209"><ele>50.66666666666667</ele><time>2026-04-15T12:17:34.001Z</time></trkpt><trkpt lat="43.77401211863796" lon="10.600737578138896"><ele>51.33333333333333</ele><time>2026-04-15T12:17:35.001Z</time></trkpt><trkpt lat="43.773840134609394" lon="10.60071168489077"><ele>52.0</ele><time>2026-04-15T12:17:36.001Z</time></trkpt><trkpt lat="43.77366062036957" lon="10.600702813921387"><ele>52.666666666666664</ele><time>2026-04-15T12:17:37.001Z</time></trkpt><trkpt lat="43.77348156375824" lon="10.6007125437802"><ele>53.33333333333333</ele><time>2026-04-15T12:17:38.001Z</time></trkpt><trkpt lat="43.773317023671424" lon="10.600736227532787"><ele>54.0</ele><time>2026-04-15T12:17:39.001Z</time></trkpt><trkpt lat="43.7731610045883" lon="10.600767695271802"><ele>54.0</ele><time>2026-04-15T12:17:40.001Z</time></trkpt><trkpt lat="43.77299558786146" lon="10.600802119139537"><ele>54.0</ele><time>2026-04-15T12:17:41.001Z</time></trkpt><trkpt lat="43.77283119298872" lon="10.600835975320608"><ele>54.0</ele><time>2026-04-15T12:17:42.001Z</time></trkpt><trkpt lat="43.77268588492667" lon="10.600871252940674"><ele>54.25</ele><time>2026-04-15T12:17:43.001Z</time></trkpt><trkpt lat="43.77257363389608" lon="10.60090550896643"><ele>54.5</ele><time>2026-04-15T12:17:44.001Z</time></trkpt><trkpt lat="43.7724845319919" lon="10.600997336809815"><ele>54.75</ele><time>2026-04-15T12:17:45.001Z</time></trkpt><trkpt lat="43.77243325222919" lon="10.60113558965342"><ele>55.0</ele><time>2026-04-15T12:17:46.001Z</time></trkpt><trkpt lat="43.772430738895444" lon="10.60132010753816"><ele>54.25</ele><time>2026-04-15T12:17:47.001Z</time></trkpt><trkpt lat="43.77246306043142" lon="10.601507526262656"><ele>53.5</ele><time>2026-04-15T12:17:48.001Z</time></trkpt><trkpt lat="43.77250659183348" lon="10.60168387298654"><ele>52.75</ele><time>2026-04-15T12:17:49.001Z</time></trkpt><trkpt lat="43.772513752888415" lon="10.60183324026535"><ele>52.0</ele><time>2026-04-15T12:17:50.001Z</time></trkpt><trkpt lat="43.772464449890194" lon="10.601960429109374"><ele>52.0</ele><time>2026-04-15T12:17:51.001Z</time></trkpt><trkpt lat="43.772387679363796" lon="10.602075016334936"><ele>52.0</ele><time>2026-04-15T12:17:52.001Z</time></trkpt><trkpt lat="43.77228818303802" lon="10.602164877437824"><ele>52.0</ele><time>2026-04-15T12:17:53.001Z</time></trkpt><trkpt lat="43.77217683771583" lon="10.602244916634229"><ele>52.0</ele><time>2026-04-15T12:17:54.001Z</time></trkpt><trkpt lat="43.77204501330703" lon="10.602326903683494"><ele>52.0</ele><time>2026-04-15T12:17:55.001Z</time></trkpt><trkpt lat="43.77191504486255" lon="10.602413579950987"><ele>52.0</ele><time>2026-04-15T12:17:56.001Z</time></trkpt><trkpt lat="43.77177955018056" lon="10.602517320320038"><ele>52.0</ele><time>2026-04-15T12:17:57.001Z</time></trkpt><trkpt lat="43.77165660761103" lon="10.602647167821221"><ele>53.5</ele><time>2026-04-15T12:17:58.001Z</time></trkpt><trkpt lat="43.77155744006645" lon="10.602797392214914"><ele>55.0</ele><time>2026-04-15T12:17:59.001Z</time></trkpt><trkpt lat="43.77146688222567" lon="10.602942672062014"><ele>56.5</ele><time>2026-04-15T12:18:00.001Z</time></trkpt><trkpt lat="43.77136699536766" lon="10.60307979793009"><ele>58.0</ele><time>2026-04-15T12:18:01.001Z</time></trkpt><trkpt lat="43.77126020060013" lon="10.603207160958492"><ele>58.0</ele><time>2026-04-15T12:18:02.001Z</time></trkpt><trkpt lat="43.771143123397884" lon="10.603334890181024"><ele>58.0</ele><time>2026-04-15T12:18:03.001Z</time></trkpt><trkpt lat="43.77102045250561" lon="10.603474663673682"><ele>58.0</ele><time>2026-04-15T12:18:04.001Z</time></trkpt><trkpt lat="43.770893977493124" lon="10.603628649369988"><ele>56.666666666666664</ele><time>2026-04-15T12:18:05.001Z</time></trkpt><trkpt lat="43.77075785530506" lon="10.603796720333916"><ele>55.33333333333333</ele><time>2026-04-15T12:18:06.001Z</time></trkpt><trkpt lat="43.77061393475544" lon="10.603971881247494"><ele>54.0</ele><time>2026-04-15T12:18:07.001Z</time></trkpt><trkpt lat="43.77047626532834" lon="10.604141532690786"><ele>54.0</ele><time>2026-04-15T12:18:08.001Z</time></trkpt><trkpt lat="43.77034781131872" lon="10.604299757043366"><ele>54.0</ele><time>2026-04-15T12:18:09.001Z</time></trkpt><trkpt lat="43.770219754486504" lon="10.604437925304437"><ele>54.0</ele><time>2026-04-15T12:18:10.001Z</time></trkpt><trkpt lat="43.770089536208935" lon="10.6045473187148"><ele>53.75</ele><time>2026-04-15T12:18:11.001Z</time></trkpt><trkpt lat="43.76995678908283" lon="10.604631789815015"><ele>53.5</ele><time>2026-04-15T12:18:12.001Z</time></trkpt><trkpt lat="43.76984633537054" lon="10.604713598573646"><ele>53.25</ele><time>2026-04-15T12:18:13.001Z</time></trkpt><trkpt lat="43.76975937803128" lon="10.604835254739612"><ele>53.0</ele><time>2026-04-15T12:18:14.001Z</time></trkpt><trkpt lat="43.76971177171616" lon="10.605000241001907"><ele>53.0</ele><time>2026-04-15T12:18:15.001Z</time></trkpt><trkpt lat="43.769709099127965" lon="10.605181339371585"><ele>53.0</ele><time>2026-04-15T12:18:16.001Z</time></trkpt><trkpt lat="43.76968512985219" lon="10.605343448521182"><ele>53.0</ele><time>2026-04-15T12:18:17.001Z</time></trkpt><trkpt lat="43.76958311146288" lon="10.605429867701368"><ele>53.0</ele><time>2026-04-15T12:18:18.001Z</time></trkpt><trkpt lat="43.76948317841251" lon="10.605567566068423"><ele>52.25</ele><time>2026-04-15T12:18:19.001Z</time></trkpt><trkpt lat="43.76936492770719" lon="10.60568777630327"><ele>51.5</ele><time>2026-04-15T12:18:20.001Z</time></trkpt><trkpt lat="43.76925919437864" lon="10.605826766297128"><ele>50.75</ele><time>2026-04-15T12:18:21.001Z</time></trkpt><trkpt lat="43.76916312328639" lon="10.605973288699628"><ele>50.0</ele><time>2026-04-15T12:18:22.001Z</time></trkpt><trkpt lat="43.769079176043455" lon="10.606127400306116"><ele>48.75</ele><time>2026-04-15T12:18:23.001Z</time></trkpt><trkpt lat="43.769011736271196" lon="10.60629381604803"><ele>47.5</ele><time>2026-04-15T12:18:24.001Z</time></trkpt><trkpt lat="43.76895173709741" lon="10.606467192365416"><ele>46.25</ele><time>2026-04-15T12:18:25.001Z</time></trkpt><trkpt lat="43.76889155934979" lon="10.606641223647419"><ele>45.0</ele><time>2026-04-15T12:18:26.001Z</time></trkpt><trkpt lat="43.7688326111568" lon="10.606808890002668"><ele>45.0</ele><time>2026-04-15T12:18:27.001Z</time></trkpt><trkpt lat="43.76877188403756" lon="10.606968014216168"><ele>45.0</ele><time>2026-04-15T12:18:28.001Z</time></trkpt><trkpt lat="43.76870516681551" lon="10.607115869767203"><ele>45.0</ele><time>2026-04-15T12:18:29.001Z</time></trkpt><trkpt lat="43.768628746084204" lon="10.607250317912056"><ele>45.0</ele><time>2026-04-15T12:18:30.001Z</time></trkpt><trkpt lat="43.76851408981207" lon="10.607328590221863"><ele>44.5</ele><time>2026-04-15T12:18:31.001Z</time></trkpt><trkpt lat="43.768401002703726" lon="10.607383322616037"><ele>44.0</ele><time>2026-04-15T12:18:32.001Z</time></trkpt><trkpt lat="43.768283466168356" lon="10.607449795830886"><ele>43.5</ele><time>2026-04-15T12:18:33.001Z</time></trkpt><trkpt lat="43.7681557868966" lon="10.607487720799833"><ele>43.0</ele><time>2026-04-15T12:18:34.001Z</time></trkpt><trkpt lat="43.7680284928765" lon="10.607528824328293"><ele>43.0</ele><time>2026-04-15T12:18:35.001Z</time></trkpt><trkpt lat="43.76789229100035" lon="10.607579014609188"><ele>43.0</ele><time>2026-04-15T12:18:36.001Z</time></trkpt><trkpt lat="43.76775481386245" lon="10.607635645922262"><ele>43.0</ele><time>2026-04-15T12:18:37.001Z</time></trkpt><trkpt lat="43.76761955025345" lon="10.607696365985618"><ele>43.0</ele><time>2026-04-15T12:18:38.001Z</time></trkpt><trkpt lat="43.76749627744718" lon="10.60775569068489"><ele>42.75</ele><time>2026-04-15T12:18:39.001Z</time></trkpt><trkpt lat="43.76738164069486" lon="10.607823016372487"><ele>42.5</ele><time>2026-04-15T12:18:40.001Z</time></trkpt><trkpt lat="43.767288295380006" lon="10.607919846057449"><ele>42.25</ele><time>2026-04-15T12:18:41.001Z</time></trkpt><trkpt lat="43.767212058430026" lon="10.608050193454199"><ele>42.0</ele><time>2026-04-15T12:18:42.001Z</time></trkpt><trkpt lat="43.767137802618166" lon="10.608204449812845"><ele>42.0</ele><time>2026-04-15T12:18:43.001Z</time></trkpt><trkpt lat="43.76705616084757" lon="10.608356454082061"><ele>42.0</ele><time>2026-04-15T12:18:44.001Z</time></trkpt><trkpt lat="43.76696542223036" lon="10.608507982777695"><ele>42.0</ele><time>2026-04-15T12:18:45.001Z</time></trkpt><trkpt lat="43.76687327682962" lon="10.608657678542311"><ele>42.0</ele><time>2026-04-15T12:18:46.001Z</time></trkpt><trkpt lat="43.766780442140956" lon="10.608803846162303"><ele>42.5</ele><time>2026-04-15T12:18:47.001Z</time></trkpt><trkpt lat="43.766687984050336" lon="10.608957664220117"><ele>43.0</ele><time>2026-04-15T12:18:48.001Z</time></trkpt><trkpt lat="43.76661045271537" lon="10.609118662561169"><ele>43.5</ele><time>2026-04-15T12:18:49.001Z</time></trkpt><trkpt lat="43.7665683800665" lon="10.609311336868386"><ele>44.0</ele><time>2026-04-15T12:18:50.001Z</time></trkpt><trkpt lat="43.766555263280395" lon="10.609521855543699"><ele>42.33333333333333</ele><time>2026-04-15T12:18:51.001Z</time></trkpt><trkpt lat="43.76656101288779" lon="10.609748158086187"><ele>40.666666666666664</ele><time>2026-04-15T12:18:52.001Z</time></trkpt><trkpt lat="43.76657015322126" lon="10.609990244104827"><ele>39.0</ele><time>2026-04-15T12:18:53.001Z</time></trkpt><trkpt lat="43.76656937730319" lon="10.61023639224543"><ele>38.0</ele><time>2026-04-15T12:18:54.001Z</time></trkpt><trkpt lat="43.766539271979696" lon="10.610470956989586"><ele>37.0</ele><time>2026-04-15T12:18:55.001Z</time></trkpt><trkpt lat="43.76650373398842" lon="10.610699243870753"><ele>36.0</ele><time>2026-04-15T12:18:56.001Z</time></trkpt><trkpt lat="43.766477253762" lon="10.610922484013031"><ele>36.0</ele><time>2026-04-15T12:18:57.001Z</time></trkpt><trkpt lat="43.76642919911361" lon="10.611144118845948"><ele>36.0</ele><time>2026-04-15T12:18:58.001Z</time></trkpt><trkpt lat="43.76638312116312" lon="10.611371539572579"><ele>36.0</ele><time>2026-04-15T12:18:59.001Z</time></trkpt><trkpt lat="43.766326005797325" lon="10.611587144859275"><ele>35.0</ele><time>2026-04-15T12:19:00.001Z</time></trkpt><trkpt lat="43.76624153590784" lon="10.61179650270651"><ele>34.0</ele><time>2026-04-15T12:19:01.001Z</time></trkpt><trkpt lat="43.76616391450951" lon="10.612024716613885"><ele>33.0</ele><time>2026-04-15T12:19:02.001Z</time></trkpt><trkpt lat="43.7660660016204" lon="10.61222271022933"><ele>34.0</ele><time>2026-04-15T12:19:03.001Z</time></trkpt><trkpt lat="43.76597069885387" lon="10.61240430949286"><ele>35.0</ele><time>2026-04-15T12:19:04.001Z</time></trkpt><trkpt lat="43.76586624170995" lon="10.612563437823827"><ele>36.0</ele><time>2026-04-15T12:19:05.001Z</time></trkpt><trkpt lat="43.76573610610371" lon="10.612682845495101"><ele>33.0</ele><time>2026-04-15T12:19:06.001Z</time></trkpt><trkpt lat="43.76561628465827" lon="10.612824503250806"><ele>30.0</ele><time>2026-04-15T12:19:07.001Z</time></trkpt><trkpt lat="43.76547720780682" lon="10.6129506045865"><ele>27.0</ele><time>2026-04-15T12:19:08.001Z</time></trkpt><trkpt lat="43.76532884107684" lon="10.613071806984715"><ele>29.0</ele><time>2026-04-15T12:19:09.001Z</time></trkpt><trkpt lat="43.765175668645874" lon="10.613186759757182"><ele>31.0</ele><time>2026-04-15T12:19:10.001Z</time></trkpt><trkpt lat="43.765018685013246" lon="10.613296089102034"><ele>33.0</ele><time>2026-04-15T12:19:11.001Z</time></trkpt><trkpt lat="43.76486079239809" lon="10.613403415370282"><ele>33.0</ele><time>2026-04-15T12:19:12.001Z</time></trkpt><trkpt lat="43.76470592968934" lon="10.613504396637897"><ele>33.0</ele><time>2026-04-15T12:19:13.001Z</time></trkpt><trkpt lat="43.76454639659602" lon="10.613611615223201"><ele>33.0</ele><time>2026-04-15T12:19:14.001Z</time></trkpt><trkpt lat="43.76439196887864" lon="10.613724093699748"><ele>32.0</ele><time>2026-04-15T12:19:15.001Z</time></trkpt><trkpt lat="43.76423872526483" lon="10.613842146560515"><ele>31.0</ele><time>2026-04-15T12:19:16.001Z</time></trkpt><trkpt lat="43.7640927079682" lon="10.613946048651687"><ele>30.0</ele><time>2026-04-15T12:19:17.001Z</time></trkpt><trkpt lat="43.763939202795335" lon="10.614030282397039"><ele>30.0</ele><time>2026-04-15T12:19:18.001Z</time></trkpt><trkpt lat="43.76379773771957" lon="10.614103899626986"><ele>30.0</ele><time>2026-04-15T12:19:19.001Z</time></trkpt><trkpt lat="43.763680949727004" lon="10.614222217535088"><ele>30.0</ele><time>2026-04-15T12:19:20.001Z</time></trkpt><trkpt lat="43.76359722429537" lon="10.61439695743877"><ele>30.0</ele><time>2026-04-15T12:19:21.001Z</time></trkpt><trkpt lat="43.76350552161999" lon="10.614576479264853"><ele>28.0</ele><time>2026-04-15T12:19:22.001Z</time></trkpt><trkpt lat="43.76337759756626" lon="10.614700852584724"><ele>26.0</ele><time>2026-04-15T12:19:23.001Z</time></trkpt><trkpt lat="43.76322037514321" lon="10.614799020773004"><ele>24.0</ele><time>2026-04-15T12:19:24.001Z</time></trkpt><trkpt lat="43.76306049074429" lon="10.614903438999978"><ele>24.0</ele><time>2026-04-15T12:19:25.001Z</time></trkpt><trkpt lat="43.76289654462541" lon="10.615031054517805"><ele>24.0</ele><time>2026-04-15T12:19:26.001Z</time></trkpt><trkpt lat="43.7627316188724" lon="10.61517548058376"><ele>24.0</ele><time>2026-04-15T12:19:27.001Z</time></trkpt><trkpt lat="43.762566545836606" lon="10.615316291579866"><ele>23.333333333333332</ele><time>2026-04-15T12:19:28.001Z</time></trkpt><trkpt lat="43.7624009465557" lon="10.615458375352157"><ele>22.666666666666664</ele><time>2026-04-15T12:19:29.001Z</time></trkpt><trkpt lat="43.762232437235596" lon="10.615602523652196"><ele>22.0</ele><time>2026-04-15T12:19:30.001Z</time></trkpt><trkpt lat="43.76207278868894" lon="10.615734787117875"><ele>22.0</ele><time>2026-04-15T12:19:31.001Z</time></trkpt><trkpt lat="43.76192024316831" lon="10.615862701464607"><ele>22.0</ele><time>2026-04-15T12:19:32.001Z</time></trkpt><trkpt lat="43.76177105499526" lon="10.615994473485884"><ele>22.0</ele><time>2026-04-15T12:19:33.001Z</time></trkpt><trkpt lat="43.761630461875825" lon="10.61613749172186"><ele>21.666666666666664</ele><time>2026-04-15T12:19:34.001Z</time></trkpt><trkpt lat="43.76149462611739" lon="10.616290427944532"><ele>21.333333333333332</ele><time>2026-04-15T12:19:35.001Z</time></trkpt><trkpt lat="43.76136482798671" lon="10.616449243148805"><ele>21.0</ele><time>2026-04-15T12:19:36.001Z</time></trkpt><trkpt lat="43.761240225824686" lon="10.61659622118089"><ele>21.0</ele><time>2026-04-15T12:19:37.001Z</time></trkpt><trkpt lat="43.761123962029096" lon="10.61673612067734"><ele>21.0</ele><time>2026-04-15T12:19:38.001Z</time></trkpt><trkpt lat="43.76102141118341" lon="10.616859766637154"><ele>21.0</ele><time>2026-04-15T12:19:39.001Z</time></trkpt><trkpt lat="43.76091412633566" lon="10.616959128746807"><ele>21.0</ele><time>2026-04-15T12:19:40.001Z</time></trkpt><trkpt lat="43.76078933079428" lon="10.617000297151895"><ele>20.333333333333332</ele><time>2026-04-15T12:19:41.001Z</time></trkpt><trkpt lat="43.76065204257094" lon="10.617077016328581"><ele>19.666666666666664</ele><time>2026-04-15T12:19:42.001Z</time></trkpt><trkpt lat="43.76049958499299" lon="10.617134270829672"><ele>19.0</ele><time>2026-04-15T12:19:43.001Z</time></trkpt><trkpt lat="43.7603436133457" lon="10.617193276920839"><ele>20.0</ele><time>2026-04-15T12:19:44.001Z</time></trkpt><trkpt lat="43.76018353283725" lon="10.61725255614027"><ele>21.0</ele><time>2026-04-15T12:19:45.001Z</time></trkpt><trkpt lat="43.760008285483174" lon="10.617310970196192"><ele>22.0</ele><time>2026-04-15T12:19:46.001Z</time></trkpt><trkpt lat="43.759820109450864" lon="10.617371129302892"><ele>22.0</ele><time>2026-04-15T12:19:47.001Z</time></trkpt><trkpt lat="43.759634003616824" lon="10.617432924844303"><ele>22.0</ele><time>2026-04-15T12:19:48.001Z</time></trkpt><trkpt lat="43.75944688958185" lon="10.617493942614622"><ele>22.0</ele><time>2026-04-15T12:19:49.001Z</time></trkpt><trkpt lat="43.759259807641925" lon="10.617556756178752"><ele>22.0</ele><time>2026-04-15T12:19:50.001Z</time></trkpt><trkpt lat="43.759063299279184" lon="10.617617210817725"><ele>22.0</ele><time>2026-04-15T12:19:51.001Z</time></trkpt><trkpt lat="43.75887269826655" lon="10.6176699085793"><ele>22.0</ele><time>2026-04-15T12:19:52.001Z</time></trkpt><trkpt lat="43.75868989444304" lon="10.61772014700751"><ele>22.333333333333332</ele><time>2026-04-15T12:19:53.001Z</time></trkpt><trkpt lat="43.75851676757228" lon="10.617768509199212"><ele>22.666666666666668</ele><time>2026-04-15T12:19:54.001Z</time></trkpt><trkpt lat="43.75835193303978" lon="10.617839924379338"><ele>23.0</ele><time>2026-04-15T12:19:55.001Z</time></trkpt><trkpt lat="43.75819084265668" lon="10.61794895169886"><ele>20.666666666666668</ele><time>2026-04-15T12:19:56.001Z</time></trkpt><trkpt lat="43.75802981562805" lon="10.61807524090163"><ele>18.333333333333332</ele><time>2026-04-15T12:19:57.001Z</time></trkpt><trkpt lat="43.75786897129106" lon="10.618204194238189"><ele>16.0</ele><time>2026-04-15T12:19:58.001Z</time></trkpt><trkpt lat="43.757699876726015" lon="10.618298732561131"><ele>15.666666666666666</ele><time>2026-04-15T12:19:59.001Z</time></trkpt><trkpt lat="43.757527688003066" lon="10.618359224063742"><ele>15.333333333333332</ele><time>2026-04-15T12:20:00.001Z</time></trkpt><trkpt lat="43.75735442862626" lon="10.618409825857565"><ele>15.0</ele><time>2026-04-15T12:20:01.001Z</time></trkpt><trkpt lat="43.757185097617445" lon="10.618457812313169"><ele>15.0</ele><time>2026-04-15T12:20:02.001Z</time></trkpt><trkpt lat="43.75701685839004" lon="10.618510155556521"><ele>15.0</ele><time>2026-04-15T12:20:03.001Z</time></trkpt><trkpt lat="43.75684461219214" lon="10.618563647528449"><ele>15.0</ele><time>2026-04-15T12:20:04.001Z</time></trkpt><trkpt lat="43.75667159778298" lon="10.618616195205872"><ele>14.0</ele><time>2026-04-15T12:20:05.001Z</time></trkpt><trkpt lat="43.75649203568781" lon="10.618671395689816"><ele>13.0</ele><time>2026-04-15T12:20:06.001Z</time></trkpt><trkpt lat="43.75631267320994" lon="10.618729990963685"><ele>12.0</ele><time>2026-04-15T12:20:07.001Z</time></trkpt><trkpt lat="43.75612631698646" lon="10.618790198990876"><ele>13.0</ele><time>2026-04-15T12:20:08.001Z</time></trkpt><trkpt lat="43.75594486874815" lon="10.618838475438285"><ele>14.0</ele><time>2026-04-15T12:20:09.001Z</time></trkpt><trkpt lat="43.75575618949049" lon="10.618869718155171"><ele>15.0</ele><time>2026-04-15T12:20:10.001Z</time></trkpt><trkpt lat="43.75557853404546" lon="10.61888981908352"><ele>15.0</ele><time>2026-04-15T12:20:11.001Z</time></trkpt><trkpt lat="43.755408330470274" lon="10.618914763330471"><ele>15.0</ele><time>2026-04-15T12:20:12.001Z</time></trkpt><trkpt lat="43.75523495251523" lon="10.61894157977626"><ele>15.0</ele><time>2026-04-15T12:20:13.001Z</time></trkpt><trkpt lat="43.75506262578238" lon="10.618946596137379"><ele>15.666666666666668</ele><time>2026-04-15T12:20:14.001Z</time></trkpt><trkpt lat="43.754889001087655" lon="10.618964326407886"><ele>16.333333333333336</ele><time>2026-04-15T12:20:15.001Z</time></trkpt><trkpt lat="43.75471840072078" lon="10.618977020263396"><ele>17.0</ele><time>2026-04-15T12:20:16.001Z</time></trkpt><trkpt lat="43.75455349564089" lon="10.618992623308548"><ele>17.0</ele><time>2026-04-15T12:20:17.001Z</time></trkpt><trkpt lat="43.75439288119027" lon="10.619000594873636"><ele>17.0</ele><time>2026-04-15T12:20:18.001Z</time></trkpt><trkpt lat="43.754228889532996" lon="10.619005137831966"><ele>17.0</ele><time>2026-04-15T12:20:19.001Z</time></trkpt><trkpt lat="43.754064465232936" lon="10.619008752412809"><ele>17.333333333333336</ele><time>2026-04-15T12:20:20.001Z</time></trkpt><trkpt lat="43.75389853654587" lon="10.619013756017234"><ele>17.666666666666668</ele><time>2026-04-15T12:20:21.001Z</time></trkpt><trkpt lat="43.75372553238641" lon="10.619021247133558"><ele>18.0</ele><time>2026-04-15T12:20:22.001Z</time></trkpt><trkpt lat="43.753560661187095" lon="10.619033930688879"><ele>17.666666666666668</ele><time>2026-04-15T12:20:23.001Z</time></trkpt><trkpt lat="43.753384519277496" lon="10.619043292506715"><ele>17.333333333333336</ele><time>2026-04-15T12:20:24.001Z</time></trkpt><trkpt lat="43.753206373517926" lon="10.619053218430123"><ele>17.0</ele><time>2026-04-15T12:20:25.001Z</time></trkpt><trkpt lat="43.75302869573358" lon="10.619065912372186"><ele>17.0</ele><time>2026-04-15T12:20:26.001Z</time></trkpt><trkpt lat="43.75284413931879" lon="10.619078129053952"><ele>17.0</ele><time>2026-04-15T12:20:27.001Z</time></trkpt><trkpt lat="43.752655827603235" lon="10.61909010186601"><ele>17.0</ele><time>2026-04-15T12:20:28.001Z</time></trkpt><trkpt lat="43.752466132639626" lon="10.6191019843043"><ele>16.666666666666668</ele><time>2026-04-15T12:20:29.001Z</time></trkpt><trkpt lat="43.7522744905561" lon="10.619115462482284"><ele>16.333333333333332</ele><time>2026-04-15T12:20:30.001Z</time></trkpt><trkpt lat="43.75207625680579" lon="10.619130034977799"><ele>16.0</ele><time>2026-04-15T12:20:31.001Z</time></trkpt><trkpt lat="43.75188484718097" lon="10.619149113801239"><ele>16.666666666666664</ele><time>2026-04-15T12:20:32.001Z</time></trkpt><trkpt lat="43.75169257066294" lon="10.619163039726844"><ele>17.333333333333332</ele><time>2026-04-15T12:20:33.001Z</time></trkpt><trkpt lat="43.751513314172584" lon="10.619163622949486"><ele>18.0</ele><time>2026-04-15T12:20:34.001Z</time></trkpt><trkpt lat="43.75133588629515" lon="10.619146216776677"><ele>18.0</ele><time>2026-04-15T12:20:35.001Z</time></trkpt><trkpt lat="43.7511567867719" lon="10.61909659058663"><ele>18.0</ele><time>2026-04-15T12:20:36Z</time></trkpt><trkpt lat="43.750978668969346" lon="10.61902477203545"><ele>18.0</ele><time>2026-04-15T12:20:37Z</time></trkpt><trkpt lat="43.750801527561514" lon="10.618951169838995"><ele>16.333333333333332</ele><time>2026-04-15T12:20:38Z</time></trkpt><trkpt lat="43.75061409032166" lon="10.618875086788192"><ele>14.666666666666666</ele><time>2026-04-15T12:20:39Z</time></trkpt><trkpt lat="43.75042445711697" lon="10.61879970224272"><ele>13.0</ele><time>2026-04-15T12:20:40Z</time></trkpt><trkpt lat="43.75023540754046" lon="10.618726270438378"><ele>16.333333333333332</ele><time>2026-04-15T12:20:41Z</time></trkpt><trkpt lat="43.75004367385093" lon="10.61864768686914"><ele>19.666666666666668</ele><time>2026-04-15T12:20:42Z</time></trkpt><trkpt lat="43.74985067383208" lon="10.618564946187652"><ele>23.0</ele><time>2026-04-15T12:20:43Z</time></trkpt><trkpt lat="43.74966222906518" lon="10.618485540262895"><ele>23.0</ele><time>2026-04-15T12:20:44Z</time></trkpt><trkpt lat="43.7494769616364" lon="10.618410531145978"><ele>23.0</ele><time>2026-04-15T12:20:45Z</time></trkpt><trkpt lat="43.74929643601079" lon="10.618343399682866"><ele>23.0</ele><time>2026-04-15T12:20:46Z</time></trkpt><trkpt lat="43.74911374722682" lon="10.618278958609585"><ele>20.666666666666668</ele><time>2026-04-15T12:20:47Z</time></trkpt><trkpt lat="43.748934627344916" lon="10.61821158784011"><ele>18.333333333333332</ele><time>2026-04-15T12:20:48Z</time></trkpt><trkpt lat="43.748754852841955" lon="10.618141412082215"><ele>16.0</ele><time>2026-04-15T12:20:49Z</time></trkpt><trkpt lat="43.748577661135734" lon="10.618071509845503"><ele>16.666666666666664</ele><time>2026-04-15T12:20:50Z</time></trkpt><trkpt lat="43.74840217889345" lon="10.618007218914515"><ele>17.333333333333332</ele><time>2026-04-15T12:20:51Z</time></trkpt><trkpt lat="43.74822750102121" lon="10.617953851646796"><ele>18.0</ele><time>2026-04-15T12:20:52Z</time></trkpt><trkpt lat="43.74805152528148" lon="10.617912892189368"><ele>18.0</ele><time>2026-04-15T12:20:53Z</time></trkpt><trkpt lat="43.74787517546425" lon="10.617889520486287"><ele>18.0</ele><time>2026-04-15T12:20:54Z</time></trkpt><trkpt lat="43.74770118434388" lon="10.61788437474119"><ele>18.0</ele><time>2026-04-15T12:20:55Z</time></trkpt><trkpt lat="43.74753896928491" lon="10.6178889893563"><ele>19.0</ele><time>2026-04-15T12:20:56Z</time></trkpt><trkpt lat="43.747371424790366" lon="10.617900080985617"><ele>20.0</ele><time>2026-04-15T12:20:57Z</time></trkpt><trkpt lat="43.747218263287884" lon="10.617904751028062"><ele>21.0</ele><time>2026-04-15T12:20:58Z</time></trkpt><trkpt lat="43.7470682149943" lon="10.617913237499058"><ele>21.0</ele><time>2026-04-15T12:20:59Z</time></trkpt><trkpt lat="43.7469158014432" lon="10.61792260755289"><ele>21.0</ele><time>2026-04-15T12:21:00Z</time></trkpt><trkpt lat="43.74676662772211" lon="10.617936268201538"><ele>21.0</ele><time>2026-04-15T12:21:01Z</time></trkpt><trkpt lat="43.74661891726511" lon="10.617960736428483"><ele>21.0</ele><time>2026-04-15T12:21:02Z</time></trkpt><trkpt lat="43.74646951151185" lon="10.618001876994702"><ele>21.0</ele><time>2026-04-15T12:21:03Z</time></trkpt><trkpt lat="43.74632433035055" lon="10.618067912953101"><ele>21.0</ele><time>2026-04-15T12:21:04Z</time></trkpt><trkpt lat="43.74618308245513" lon="10.618150552444837"><ele>21.333333333333332</ele><time>2026-04-15T12:21:05Z</time></trkpt><trkpt lat="43.74603723986729" lon="10.618231923618524"><ele>21.666666666666664</ele><time>2026-04-15T12:21:06Z</time></trkpt><trkpt lat="43.745892216758016" lon="10.618308856899016"><ele>22.0</ele><time>2026-04-15T12:21:07Z</time></trkpt><trkpt lat="43.745746612499964" lon="10.61838637867918"><ele>22.0</ele><time>2026-04-15T12:21:08Z</time></trkpt><trkpt lat="43.74560200967503" lon="10.618466388543576"><ele>22.0</ele><time>2026-04-15T12:21:09Z</time></trkpt><trkpt lat="43.745457898267766" lon="10.618548624251213"><ele>22.0</ele><time>2026-04-15T12:21:10Z</time></trkpt><trkpt lat="43.74532046037693" lon="10.618626980476975"><ele>21.25</ele><time>2026-04-15T12:21:11Z</time></trkpt><trkpt lat="43.74517975034144" lon="10.61870843259117"><ele>20.5</ele><time>2026-04-15T12:21:12Z</time></trkpt><trkpt lat="43.74504114680052" lon="10.618788324108158"><ele>19.75</ele><time>2026-04-15T12:21:13Z</time></trkpt><trkpt lat="43.74490603825417" lon="10.618867326102729"><ele>19.0</ele><time>2026-04-15T12:21:14Z</time></trkpt><trkpt lat="43.744767887583734" lon="10.618946969132194"><ele>19.0</ele><time>2026-04-15T12:21:15Z</time></trkpt><trkpt lat="43.74463115632376" lon="10.619024498174788"><ele>19.0</ele><time>2026-04-15T12:21:16Z</time></trkpt><trkpt lat="43.744496452003915" lon="10.619109308013199"><ele>19.0</ele><time>2026-04-15T12:21:17Z</time></trkpt><trkpt lat="43.74436756797155" lon="10.619208048034414"><ele>19.0</ele><time>2026-04-15T12:21:18Z</time></trkpt><trkpt lat="43.74424759277324" lon="10.619322619796714"><ele>18.25</ele><time>2026-04-15T12:21:19Z</time></trkpt><trkpt lat="43.74413082259756" lon="10.619454400392264"><ele>17.5</ele><time>2026-04-15T12:21:20Z</time></trkpt><trkpt lat="43.744024414399526" lon="10.619588535031935"><ele>16.75</ele><time>2026-04-15T12:21:21Z</time></trkpt><trkpt lat="43.74392069118221" lon="10.619714988131022"><ele>16.0</ele><time>2026-04-15T12:21:22Z</time></trkpt><trkpt lat="43.7438171470563" lon="10.619835360869638"><ele>16.0</ele><time>2026-04-15T12:21:23Z</time></trkpt><trkpt lat="43.743716298723285" lon="10.619950433514052"><ele>16.0</ele><time>2026-04-15T12:21:24Z</time></trkpt><trkpt lat="43.743611933049515" lon="10.62007181982351"><ele>16.0</ele><time>2026-04-15T12:21:25Z</time></trkpt><trkpt lat="43.74350456247147" lon="10.620194018992756"><ele>16.0</ele><time>2026-04-15T12:21:26Z</time></trkpt><trkpt lat="43.74338955338771" lon="10.620316957407455"><ele>15.666666666666666</ele><time>2026-04-15T12:21:27Z</time></trkpt><trkpt lat="43.7432748671814" lon="10.620442857141935"><ele>15.333333333333332</ele><time>2026-04-15T12:21:28Z</time></trkpt><trkpt lat="43.743159193406115" lon="10.620580948876237"><ele>15.0</ele><time>2026-04-15T12:21:29Z</time></trkpt><trkpt lat="43.743038299198595" lon="10.620717764528345"><ele>15.0</ele><time>2026-04-15T12:21:30Z</time></trkpt><trkpt lat="43.7429090254896" lon="10.620849027861215"><ele>15.0</ele><time>2026-04-15T12:21:31Z</time></trkpt><trkpt lat="43.742768487705334" lon="10.620969216122976"><ele>15.0</ele><time>2026-04-15T12:21:32Z</time></trkpt><trkpt lat="43.7426129623166" lon="10.621061214475786"><ele>14.0</ele><time>2026-04-15T12:21:33Z</time></trkpt><trkpt lat="43.74243276893888" lon="10.621131079067558"><ele>13.0</ele><time>2026-04-15T12:21:34Z</time></trkpt><trkpt lat="43.74224441642786" lon="10.62118388234815"><ele>12.0</ele><time>2026-04-15T12:21:35Z</time></trkpt><trkpt lat="43.74207008438271" lon="10.62123677404409"><ele>12.0</ele><time>2026-04-15T12:21:36Z</time></trkpt><trkpt lat="43.74190955200044" lon="10.621277859615502"><ele>12.0</ele><time>2026-04-15T12:21:37Z</time></trkpt><trkpt lat="43.74175269233415" lon="10.621307289456624"><ele>12.0</ele><time>2026-04-15T12:21:38Z</time></trkpt><trkpt lat="43.74160625057929" lon="10.62130359262005"><ele>12.25</ele><time>2026-04-15T12:21:39Z</time></trkpt><trkpt lat="43.741466191323" lon="10.621265377183844"><ele>12.5</ele><time>2026-04-15T12:21:40Z</time></trkpt><trkpt lat="43.741335984885716" lon="10.621223254606816"><ele>12.75</ele><time>2026-04-15T12:21:41Z</time></trkpt><trkpt lat="43.741211113897855" lon="10.621195128760258"><ele>13.0</ele><time>2026-04-15T12:21:42Z</time></trkpt><trkpt lat="43.741093684112386" lon="10.62116871429066"><ele>16.5</ele><time>2026-04-15T12:21:43Z</time></trkpt><trkpt lat="43.74097654625013" lon="10.62114221134297"><ele>20.0</ele><time>2026-04-15T12:21:44Z</time></trkpt><trkpt lat="43.74085203730175" lon="10.621115931400462"><ele>23.5</ele><time>2026-04-15T12:21:45Z</time></trkpt><trkpt lat="43.740721881867515" lon="10.621090909122053"><ele>27.0</ele><time>2026-04-15T12:21:46Z</time></trkpt><trkpt lat="43.74058435600935" lon="10.621062078730882"><ele>27.0</ele><time>2026-04-15T12:21:47Z</time></trkpt><trkpt lat="43.740439581935064" lon="10.621031512857101"><ele>27.0</ele><time>2026-04-15T12:21:48Z</time></trkpt><trkpt lat="43.74028689674071" lon="10.62099710078718"><ele>27.0</ele><time>2026-04-15T12:21:49Z</time></trkpt><trkpt lat="43.740129505038745" lon="10.620959073870317"><ele>26.666666666666664</ele><time>2026-04-15T12:21:50Z</time></trkpt><trkpt lat="43.739974277412514" lon="10.620928926072434"><ele>26.333333333333332</ele><time>2026-04-15T12:21:51Z</time></trkpt><trkpt lat="43.73982607652388" lon="10.620893705497101"><ele>26.0</ele><time>2026-04-15T12:21:52Z</time></trkpt><trkpt lat="43.73966775214388" lon="10.620866286351651"><ele>26.0</ele><time>2026-04-15T12:21:53Z</time></trkpt><trkpt lat="43.739512865599856" lon="10.620873378040107"><ele>26.0</ele><time>2026-04-15T12:21:54Z</time></trkpt><trkpt lat="43.73935954747142" lon="10.620912590159586"><ele>26.0</ele><time>2026-04-15T12:21:55Z</time></trkpt><trkpt lat="43.7392087048156" lon="10.620971221348025"><ele>27.333333333333332</ele><time>2026-04-15T12:21:56Z</time></trkpt><trkpt lat="43.73905887003781" lon="10.621031295213179"><ele>28.666666666666664</ele><time>2026-04-15T12:21:57Z</time></trkpt><trkpt lat="43.738910789326034" lon="10.621088767684629"><ele>30.0</ele><time>2026-04-15T12:21:58Z</time></trkpt><trkpt lat="43.73877018898659" lon="10.621139426720037"><ele>26.25</ele><time>2026-04-15T12:21:59Z</time></trkpt><trkpt lat="43.73862467491896" lon="10.62117940746075"><ele>22.5</ele><time>2026-04-15T12:22:00Z</time></trkpt><trkpt lat="43.73847905312883" lon="10.621203947597104"><ele>18.75</ele><time>2026-04-15T12:22:01Z</time></trkpt><trkpt lat="43.73832930223386" lon="10.621222363285993"><ele>15.0</ele><time>2026-04-15T12:22:02Z</time></trkpt><trkpt lat="43.73818366833691" lon="10.621249544560385"><ele>15.0</ele><time>2026-04-15T12:22:03Z</time></trkpt><trkpt lat="43.73802977387131" lon="10.621281894556857"><ele>15.0</ele><time>2026-04-15T12:22:04Z</time></trkpt><trkpt lat="43.737880011372205" lon="10.621314299759048"><ele>15.0</ele><time>2026-04-15T12:22:05Z</time></trkpt><trkpt lat="43.73772766249731" lon="10.621340398730336"><ele>15.666666666666668</ele><time>2026-04-15T12:22:06Z</time></trkpt><trkpt lat="43.7375766134129" lon="10.621356873754843"><ele>16.333333333333336</ele><time>2026-04-15T12:22:07Z</time></trkpt><trkpt lat="43.73742539403723" lon="10.621366699145108"><ele>17.0</ele><time>2026-04-15T12:22:08Z</time></trkpt><trkpt lat="43.737271075867746" lon="10.621378637073269"><ele>17.0</ele><time>2026-04-15T12:22:09Z</time></trkpt><trkpt lat="43.73712656893908" lon="10.621388541214923"><ele>17.0</ele><time>2026-04-15T12:22:10Z</time></trkpt><trkpt lat="43.73698846894748" lon="10.621396454528014"><ele>17.0</ele><time>2026-04-15T12:22:11Z</time></trkpt><trkpt lat="43.73685138662123" lon="10.62140638685741"><ele>17.0</ele><time>2026-04-15T12:22:12Z</time></trkpt><trkpt lat="43.73671998561863" lon="10.6214188106099"><ele>17.75</ele><time>2026-04-15T12:22:13Z</time></trkpt><trkpt lat="43.73658764585857" lon="10.621430982467656"><ele>18.5</ele><time>2026-04-15T12:22:14Z</time></trkpt><trkpt lat="43.736452367934774" lon="10.621443426170986"><ele>19.25</ele><time>2026-04-15T12:22:15Z</time></trkpt><trkpt lat="43.736317488979644" lon="10.621454652528243"><ele>20.0</ele><time>2026-04-15T12:22:16Z</time></trkpt><trkpt lat="43.736177398491314" lon="10.621458731273764"><ele>20.25</ele><time>2026-04-15T12:22:17Z</time></trkpt><trkpt lat="43.736034489973235" lon="10.621461549141383"><ele>20.5</ele><time>2026-04-15T12:22:18Z</time></trkpt><trkpt lat="43.73589005842067" lon="10.621457957558757"><ele>20.75</ele><time>2026-04-15T12:22:19Z</time></trkpt><trkpt lat="43.73574679037187" lon="10.621451662567038"><ele>21.0</ele><time>2026-04-15T12:22:20Z</time></trkpt><trkpt lat="43.735609935906226" lon="10.621444347976722"><ele>21.0</ele><time>2026-04-15T12:22:21Z</time></trkpt><trkpt lat="43.73548404758686" lon="10.621438930210097"><ele>21.0</ele><time>2026-04-15T12:22:22Z</time></trkpt><trkpt lat="43.73536752738924" lon="10.62143175138447"><ele>21.0</ele><time>2026-04-15T12:22:23Z</time></trkpt><trkpt lat="43.73525563099359" lon="10.621418643838204"><ele>21.0</ele><time>2026-04-15T12:22:24Z</time></trkpt><trkpt lat="43.73514543865581" lon="10.62139354833579"><ele>22.25</ele><time>2026-04-15T12:22:25Z</time></trkpt><trkpt lat="43.735040257779744" lon="10.6213550005902"><ele>23.5</ele><time>2026-04-15T12:22:26Z</time></trkpt><trkpt lat="43.734933031230156" lon="10.621295843250794"><ele>24.75</ele><time>2026-04-15T12:22:27Z</time></trkpt><trkpt lat="43.73482834303475" lon="10.621216678075895"><ele>26.0</ele><time>2026-04-15T12:22:28Z</time></trkpt><trkpt lat="43.734727593634695" lon="10.621120161797137"><ele>26.0</ele><time>2026-04-15T12:22:29Z</time></trkpt><trkpt lat="43.73462340910238" lon="10.621017574091546"><ele>26.0</ele><time>2026-04-15T12:22:30Z</time></trkpt><trkpt lat="43.73451021782219" lon="10.620910064174144"><ele>26.0</ele><time>2026-04-15T12:22:31Z</time></trkpt><trkpt lat="43.734394741880145" lon="10.620803830418732"><ele>26.0</ele><time>2026-04-15T12:22:32Z</time></trkpt><trkpt lat="43.73428808806652" lon="10.620708429973426"><ele>23.8</ele><time>2026-04-15T12:22:33Z</time></trkpt><trkpt lat="43.7341897336639" lon="10.620618920050513"><ele>21.6</ele><time>2026-04-15T12:22:34Z</time></trkpt><trkpt lat="43.73409536486717" lon="10.620533216960093"><ele>19.4</ele><time>2026-04-15T12:22:35Z</time></trkpt><trkpt lat="43.734008572339896" lon="10.62045227482979"><ele>17.2</ele><time>2026-04-15T12:22:36Z</time></trkpt><trkpt lat="43.73392883872556" lon="10.620379840446756"><ele>15.0</ele><time>2026-04-15T12:22:37Z</time></trkpt><trkpt lat="43.733863963634946" lon="10.620319542911892"><ele>15.166666666666666</ele><time>2026-04-15T12:22:38Z</time></trkpt><trkpt lat="43.73381128057945" lon="10.620269011942224"><ele>15.333333333333332</ele><time>2026-04-15T12:22:39Z</time></trkpt><trkpt lat="43.733735748162005" lon="10.620194861297469"><ele>15.5</ele><time>2026-04-15T12:22:41Z</time></trkpt><trkpt lat="43.733639265040395" lon="10.620113457207797"><ele>15.666666666666666</ele><time>2026-04-15T12:23:05Z</time></trkpt><trkpt lat="43.73358516010995" lon="10.62006770215281"><ele>15.833333333333332</ele><time>2026-04-15T12:23:06Z</time></trkpt><trkpt lat="43.733530086966944" lon="10.620020253451084"><ele>16.0</ele><time>2026-04-15T12:23:07Z</time></trkpt><trkpt lat="43.733476912999286" lon="10.61997249987208"><ele>15.999999999999998</ele><time>2026-04-15T12:23:08Z</time></trkpt><trkpt lat="43.73341637195937" lon="10.61991896326602"><ele>16.0</ele><time>2026-04-15T12:23:09Z</time></trkpt><trkpt lat="43.733354150951804" lon="10.61986658305745"><ele>16.0</ele><time>2026-04-15T12:23:10Z</time></trkpt><trkpt lat="43.73328921670554" lon="10.619810703244521"><ele>16.0</ele><time>2026-04-15T12:23:11Z</time></trkpt><trkpt lat="43.733217783734794" lon="10.619745390803597"><ele>15.999999999999998</ele><time>2026-04-15T12:23:12Z</time></trkpt><trkpt lat="43.73313791665318" lon="10.619672142212995"><ele>16.0</ele><time>2026-04-15T12:23:13Z</time></trkpt><trkpt lat="43.73305680203234" lon="10.619601271778638"><ele>16.0</ele><time>2026-04-15T12:23:14Z</time></trkpt><trkpt lat="43.73296794713511" lon="10.619527480785338"><ele>16.0</ele><time>2026-04-15T12:23:15Z</time></trkpt><trkpt lat="43.73287845038669" lon="10.61945250704354"><ele>16.0</ele><time>2026-04-15T12:23:16Z</time></trkpt><trkpt lat="43.73279506530351" lon="10.619379347379503"><ele>16.0</ele><time>2026-04-15T12:23:17Z</time></trkpt><trkpt lat="43.73271380480324" lon="10.619306249245934"><ele>16.0</ele><time>2026-04-15T12:23:18Z</time></trkpt><trkpt lat="43.73263357992131" lon="10.619234243270782"><ele>15.8</ele><time>2026-04-15T12:23:19Z</time></trkpt><trkpt lat="43.732551558492275" lon="10.619157192062993"><ele>15.600000000000001</ele><time>2026-04-15T12:23:20Z</time></trkpt><trkpt lat="43.73246894762754" lon="10.619078421346865"><ele>15.4</ele><time>2026-04-15T12:23:21Z</time></trkpt><trkpt lat="43.73238436830075" lon="10.619001393098207"><ele>15.2</ele><time>2026-04-15T12:23:22Z</time></trkpt><trkpt lat="43.732298888865515" lon="10.618927337696125"><ele>15.0</ele><time>2026-04-15T12:23:23Z</time></trkpt><trkpt lat="43.73221498981656" lon="10.618853242871664"><ele>15.0</ele><time>2026-04-15T12:23:24Z</time></trkpt><trkpt lat="43.732127346226136" lon="10.618771876493508"><ele>15.0</ele><time>2026-04-15T12:23:25Z</time></trkpt><trkpt lat="43.732045277793034" lon="10.618693834581027"><ele>15.0</ele><time>2026-04-15T12:23:26Z</time></trkpt><trkpt lat="43.7319650675738" lon="10.618619228632296"><ele>15.0</ele><time>2026-04-15T12:23:27Z</time></trkpt><trkpt lat="43.731885530952866" lon="10.618548468070042"><ele>15.0</ele><time>2026-04-15T12:23:28Z</time></trkpt><trkpt lat="43.73180599562082" lon="10.618478217412871"><ele>15.0</ele><time>2026-04-15T12:23:29Z</time></trkpt><trkpt lat="43.73172478207409" lon="10.61840568884847"><ele>15.0</ele><time>2026-04-15T12:23:30Z</time></trkpt><trkpt lat="43.73163802869075" lon="10.61832717174993"><ele>15.0</ele><time>2026-04-15T12:23:31Z</time></trkpt><trkpt lat="43.73154493728116" lon="10.618239941691007"><ele>15.0</ele><time>2026-04-15T12:23:32Z</time></trkpt><trkpt lat="43.731452947291366" lon="10.61815904433177"><ele>15.0</ele><time>2026-04-15T12:23:33Z</time></trkpt><trkpt lat="43.73136532687016" lon="10.61807271947722"><ele>15.0</ele><time>2026-04-15T12:23:34Z</time></trkpt><trkpt lat="43.73128450643956" lon="10.617993980046789"><ele>15.0</ele><time>2026-04-15T12:23:35Z</time></trkpt><trkpt lat="43.73116126755044" lon="10.617888764642846"><ele>15.0</ele><time>2026-04-15T12:23:36Z</time></trkpt><trkpt lat="43.73105938917497" lon="10.617799350319398"><ele>15.0</ele><time>2026-04-15T12:23:37Z</time></trkpt><trkpt lat="43.730953560793" lon="10.617707569215183"><ele>15.0</ele><time>2026-04-15T12:23:38Z</time></trkpt><trkpt lat="43.73084948082959" lon="10.617616785935441"><ele>15.0</ele><time>2026-04-15T12:23:39Z</time></trkpt><trkpt lat="43.73074195596479" lon="10.617522167238171"><ele>15.0</ele><time>2026-04-15T12:23:40Z</time></trkpt><trkpt lat="43.73063125057497" lon="10.617428520553192"><ele>15.0</ele><time>2026-04-15T12:23:41Z</time></trkpt><trkpt lat="43.73051522950946" lon="10.617343513996753"><ele>15.0</ele><time>2026-04-15T12:23:42Z</time></trkpt><trkpt lat="43.73039258598836" lon="10.617280800732054"><ele>15.0</ele><time>2026-04-15T12:23:43Z</time></trkpt><trkpt lat="43.730270053200535" lon="10.617252327947574"><ele>15.0</ele><time>2026-04-15T12:23:44Z</time></trkpt><trkpt lat="43.730153732627215" lon="10.617245050563886"><ele>15.0</ele><time>2026-04-15T12:23:45Z</time></trkpt><trkpt lat="43.73003820796303" lon="10.617242884009173"><ele>15.0</ele><time>2026-04-15T12:23:46Z</time></trkpt><trkpt lat="43.72992540343669" lon="10.6172407656696"><ele>15.0</ele><time>2026-04-15T12:23:47Z</time></trkpt><trkpt lat="43.72981686237374" lon="10.617235256717827"><ele>15.0</ele><time>2026-04-15T12:23:48Z</time></trkpt><trkpt lat="43.729704321978744" lon="10.617229483883579"><ele>15.0</ele><time>2026-04-15T12:23:49Z</time></trkpt><trkpt lat="43.72959655417008" lon="10.6172248989552"><ele>15.0</ele><time>2026-04-15T12:23:50Z</time></trkpt><trkpt lat="43.72947982512025" lon="10.617219748357952"><ele>15.5</ele><time>2026-04-15T12:23:51Z</time></trkpt><trkpt lat="43.72936765959723" lon="10.617218331947958"><ele>16.0</ele><time>2026-04-15T12:23:52Z</time></trkpt><trkpt lat="43.729254485470086" lon="10.617210855289148"><ele>16.5</ele><time>2026-04-15T12:23:53Z</time></trkpt><trkpt lat="43.7291397148425" lon="10.617205187475788"><ele>17.0</ele><time>2026-04-15T12:23:54Z</time></trkpt><trkpt lat="43.729023593190455" lon="10.617203044718718"><ele>17.0</ele><time>2026-04-15T12:23:55Z</time></trkpt><trkpt lat="43.72890891220837" lon="10.617201392572486"><ele>17.0</ele><time>2026-04-15T12:23:56Z</time></trkpt><trkpt lat="43.72879348076393" lon="10.61719900300476"><ele>17.0</ele><time>2026-04-15T12:23:57Z</time></trkpt><trkpt lat="43.728677744909824" lon="10.617191792087146"><ele>17.0</ele><time>2026-04-15T12:23:58Z</time></trkpt><trkpt lat="43.728564732079334" lon="10.61718722524089"><ele>15.0</ele><time>2026-04-15T12:23:59Z</time></trkpt><trkpt lat="43.73037743112761" lon="10.617192729511308"><ele>15.0</ele><time>2026-04-15T12:24:00Z</time></trkpt><trkpt lat="43.7305574771125" lon="10.617059748234404"><ele>15.0</ele><time>2026-04-15T12:24:01Z</time></trkpt><trkpt lat="43.73067778493383" lon="10.616930255883686"><ele>15.0</ele><time>2026-04-15T12:24:02Z</time></trkpt><trkpt lat="43.72786313983904" lon="10.617155906793968"><ele>16.0</ele><time>2026-04-15T12:24:03Z</time></trkpt><trkpt lat="43.727996283310105" lon="10.617158962959483"><ele>17.0</ele><time>2026-04-15T12:24:04Z</time></trkpt><trkpt lat="43.72788284173643" lon="10.61715737966862"><ele>18.0</ele><time>2026-04-15T12:24:05Z</time></trkpt><trkpt lat="43.727774342898954" lon="10.617153199173382"><ele>19.0</ele><time>2026-04-15T12:24:06Z</time></trkpt><trkpt lat="43.727672061757424" lon="10.617146168867057"><ele>19.0</ele><time>2026-04-15T12:24:07Z</time></trkpt><trkpt lat="43.72757425943209" lon="10.617143230391578"><ele>19.0</ele><time>2026-04-15T12:24:08Z</time></trkpt><trkpt lat="43.72748095274002" lon="10.617138778015105"><ele>19.0</ele><time>2026-04-15T12:24:09Z</time></trkpt><trkpt lat="43.727391851588315" lon="10.617137094011346"><ele>19.0</ele><time>2026-04-15T12:24:10Z</time></trkpt><trkpt lat="43.727325015731495" lon="10.617126378993115"><ele>19.0</ele><time>2026-04-15T12:24:11Z</time></trkpt><trkpt lat="43.72721393479674" lon="10.617122020053992"><ele>19.0</ele><time>2026-04-15T12:24:13Z</time></trkpt><trkpt lat="43.727139580237626" lon="10.61713020832366"><ele>19.0</ele><time>2026-04-15T12:24:15Z</time></trkpt><trkpt lat="43.72700508275765" lon="10.617118583941549"><ele>19.0</ele><time>2026-04-15T12:24:17Z</time></trkpt><trkpt lat="43.72688612161123" lon="10.617111956564912"><ele>19.0</ele><time>2026-04-15T12:24:18Z</time></trkpt><trkpt lat="43.72677589069997" lon="10.61710670149261"><ele>19.0</ele><time>2026-04-15T12:24:19Z</time></trkpt><trkpt lat="43.726667736119346" lon="10.617103971083067"><ele>18.5</ele><time>2026-04-15T12:24:20Z</time></trkpt><trkpt lat="43.726546955854744" lon="10.617098673834292"><ele>18.0</ele><time>2026-04-15T12:24:21Z</time></trkpt><trkpt lat="43.72642800901155" lon="10.617092394666157"><ele>17.5</ele><time>2026-04-15T12:24:22Z</time></trkpt><trkpt lat="43.726311242761234" lon="10.617088603260779"><ele>17.0</ele><time>2026-04-15T12:24:23Z</time></trkpt><trkpt lat="43.72619823890089" lon="10.617087025857117"><ele>17.0</ele><time>2026-04-15T12:24:24Z</time></trkpt><trkpt lat="43.72608429332272" lon="10.617083287013571"><ele>17.0</ele><time>2026-04-15T12:24:25Z</time></trkpt><trkpt lat="43.7259715678213" lon="10.61707986277898"><ele>17.0</ele><time>2026-04-15T12:24:26Z</time></trkpt><trkpt lat="43.72585912389219" lon="10.617072891377347"><ele>17.0</ele><time>2026-04-15T12:24:27Z</time></trkpt><trkpt lat="43.72574540023439" lon="10.617068008308948"><ele>17.0</ele><time>2026-04-15T12:24:28Z</time></trkpt><trkpt lat="43.725630788115105" lon="10.617062941940144"><ele>17.0</ele><time>2026-04-15T12:24:29Z</time></trkpt><trkpt lat="43.72551579459715" lon="10.617060038710607"><ele>17.0</ele><time>2026-04-15T12:24:30Z</time></trkpt><trkpt lat="43.725395765392605" lon="10.617051078184902"><ele>17.0</ele><time>2026-04-15T12:24:31Z</time></trkpt><trkpt lat="43.72526699379503" lon="10.617052165324372"><ele>18.25</ele><time>2026-04-15T12:24:32Z</time></trkpt><trkpt lat="43.725146202566" lon="10.617045712444863"><ele>19.5</ele><time>2026-04-15T12:24:33Z</time></trkpt><trkpt lat="43.725026538533584" lon="10.617044352123042"><ele>20.75</ele><time>2026-04-15T12:24:34Z</time></trkpt><trkpt lat="43.72490468959262" lon="10.617046735656043"><ele>22.0</ele><time>2026-04-15T12:24:35Z</time></trkpt><trkpt lat="43.72478384853817" lon="10.617058813385494"><ele>22.0</ele><time>2026-04-15T12:24:36Z</time></trkpt><trkpt lat="43.724667391004054" lon="10.617074762188983"><ele>22.0</ele><time>2026-04-15T12:24:37Z</time></trkpt><trkpt lat="43.72454799112206" lon="10.617100370612008"><ele>22.0</ele><time>2026-04-15T12:24:38Z</time></trkpt><trkpt lat="43.72442878257451" lon="10.617136950894878"><ele>22.0</ele><time>2026-04-15T12:24:39Z</time></trkpt><trkpt lat="43.724311160022005" lon="10.617176918499617"><ele>22.0</ele><time>2026-04-15T12:24:40Z</time></trkpt><trkpt lat="43.724188632239226" lon="10.617229487067364"><ele>22.0</ele><time>2026-04-15T12:24:41Z</time></trkpt><trkpt lat="43.72406227064375" lon="10.617279836297945"><ele>22.0</ele><time>2026-04-15T12:24:42Z</time></trkpt><trkpt lat="43.723935037822336" lon="10.617334246687603"><ele>22.0</ele><time>2026-04-15T12:24:43Z</time></trkpt><trkpt lat="43.72380497980478" lon="10.61738668262301"><ele>22.0</ele><time>2026-04-15T12:24:44Z</time></trkpt><trkpt lat="43.72366958747104" lon="10.617436937075475"><ele>22.0</ele><time>2026-04-15T12:24:45Z</time></trkpt><trkpt lat="43.723530761013706" lon="10.617480473179572"><ele>22.0</ele><time>2026-04-15T12:24:46Z</time></trkpt><trkpt lat="43.723390743954575" lon="10.617501006672708"><ele>22.0</ele><time>2026-04-15T12:24:47Z</time></trkpt><trkpt lat="43.72325522680015" lon="10.617486171499344"><ele>20.5</ele><time>2026-04-15T12:24:48Z</time></trkpt><trkpt lat="43.72311866968668" lon="10.617434008246747"><ele>19.0</ele><time>2026-04-15T12:24:49Z</time></trkpt><trkpt lat="43.723000851744565" lon="10.61732959875644"><ele>17.5</ele><time>2026-04-15T12:24:50Z</time></trkpt><trkpt lat="43.72291175706054" lon="10.617177513254175"><ele>16.0</ele><time>2026-04-15T12:24:51Z</time></trkpt><trkpt lat="43.72282026601326" lon="10.61702707520526"><ele>16.400000000000002</ele><time>2026-04-15T12:24:52Z</time></trkpt><trkpt lat="43.72273915187659" lon="10.616891155180037"><ele>16.8</ele><time>2026-04-15T12:24:53Z</time></trkpt><trkpt lat="43.72266442267792" lon="10.6167874194933"><ele>17.200000000000003</ele><time>2026-04-15T12:24:54Z</time></trkpt><trkpt lat="43.72261739301265" lon="10.616705538406443"><ele>17.6</ele><time>2026-04-15T12:24:55Z</time></trkpt><trkpt lat="43.72251574523365" lon="10.616619461400226"><ele>18.0</ele><time>2026-04-15T12:24:57Z</time></trkpt><trkpt lat="43.72244743114606" lon="10.616634510623966"><ele>17.166666666666668</ele><time>2026-04-15T12:24:58Z</time></trkpt><trkpt lat="43.722382289084905" lon="10.61667626799756"><ele>16.333333333333332</ele><time>2026-04-15T12:24:59Z</time></trkpt><trkpt lat="43.722318837424474" lon="10.616706459709492"><ele>15.5</ele><time>2026-04-15T12:25:00Z</time></trkpt><trkpt lat="43.7222545579485" lon="10.616727695356236"><ele>14.666666666666666</ele><time>2026-04-15T12:25:01Z</time></trkpt><trkpt lat="43.72218445885505" lon="10.616755962355358"><ele>13.833333333333332</ele><time>2026-04-15T12:25:02Z</time></trkpt><trkpt lat="43.722096787477454" lon="10.61679182722064"><ele>13.0</ele><time>2026-04-15T12:25:03Z</time></trkpt><trkpt lat="43.72199470874279" lon="10.616827671605487"><ele>12.25</ele><time>2026-04-15T12:25:04Z</time></trkpt><trkpt lat="43.72187637171537" lon="10.61686837575494"><ele>11.5</ele><time>2026-04-15T12:25:05Z</time></trkpt><trkpt lat="43.72174877136313" lon="10.616911933463173"><ele>10.75</ele><time>2026-04-15T12:25:06Z</time></trkpt><trkpt lat="43.72161958467171" lon="10.616964591759745"><ele>10.0</ele><time>2026-04-15T12:25:07Z</time></trkpt><trkpt lat="43.721486631616365" lon="10.617019479348157"><ele>10.0</ele><time>2026-04-15T12:25:08Z</time></trkpt><trkpt lat="43.72134959282744" lon="10.617072714200344"><ele>10.0</ele><time>2026-04-15T12:25:09Z</time></trkpt><trkpt lat="43.721199982246354" lon="10.617125910718217"><ele>10.0</ele><time>2026-04-15T12:25:10Z</time></trkpt><trkpt lat="43.72104537765233" lon="10.617180343339482"><ele>10.0</ele><time>2026-04-15T12:25:11Z</time></trkpt><trkpt lat="43.72088082632841" lon="10.617241973462262"><ele>10.0</ele><time>2026-04-15T12:25:12Z</time></trkpt><trkpt lat="43.72071350091041" lon="10.617307403032841"><ele>10.0</ele><time>2026-04-15T12:25:13Z</time></trkpt><trkpt lat="43.72053913616721" lon="10.617376339765823"><ele>10.0</ele><time>2026-04-15T12:25:14Z</time></trkpt><trkpt lat="43.72037012717825" lon="10.617444428525767"><ele>10.0</ele><time>2026-04-15T12:25:15Z</time></trkpt><trkpt lat="43.72020683232694" lon="10.617505975236252"><ele>10.0</ele><time>2026-04-15T12:25:16Z</time></trkpt><trkpt lat="43.720056015110934" lon="10.617560898160951"><ele>10.25</ele><time>2026-04-15T12:25:17Z</time></trkpt><trkpt lat="43.719911388940076" lon="10.617616356029083"><ele>10.5</ele><time>2026-04-15T12:25:18Z</time></trkpt><trkpt lat="43.71977702438315" lon="10.61767041344049"><ele>10.75</ele><time>2026-04-15T12:25:19Z</time></trkpt><trkpt lat="43.71964663721438" lon="10.61772474045771"><ele>11.0</ele><time>2026-04-15T12:25:20Z</time></trkpt><trkpt lat="43.71952426105701" lon="10.617773484795228"><ele>10.5</ele><time>2026-04-15T12:25:21Z</time></trkpt><trkpt lat="43.719407449407576" lon="10.617818823484859"><ele>10.0</ele><time>2026-04-15T12:25:22Z</time></trkpt><trkpt lat="43.71929384767423" lon="10.617861692161743"><ele>9.5</ele><time>2026-04-15T12:25:23Z</time></trkpt><trkpt lat="43.71916973774468" lon="10.617910425700867"><ele>9.0</ele><time>2026-04-15T12:25:24Z</time></trkpt><trkpt lat="43.71905064038456" lon="10.617965055663394"><ele>9.0</ele><time>2026-04-15T12:25:25Z</time></trkpt><trkpt lat="43.71893276947772" lon="10.618001398611199"><ele>9.0</ele><time>2026-04-15T12:25:26Z</time></trkpt><trkpt lat="43.7188082377785" lon="10.61804730731016"><ele>9.0</ele><time>2026-04-15T12:25:27Z</time></trkpt><trkpt lat="43.71868444444087" lon="10.618092985044756"><ele>9.0</ele><time>2026-04-15T12:25:28Z</time></trkpt><trkpt lat="43.71855740652804" lon="10.618143230021793"><ele>9.75</ele><time>2026-04-15T12:25:29Z</time></trkpt><trkpt lat="43.718426214378844" lon="10.618193937891391"><ele>10.5</ele><time>2026-04-15T12:25:30Z</time></trkpt><trkpt lat="43.71829238624732" lon="10.618245825421349"><ele>11.25</ele><time>2026-04-15T12:25:31Z</time></trkpt><trkpt lat="43.718158014838586" lon="10.618294716457557"><ele>12.0</ele><time>2026-04-15T12:25:32Z</time></trkpt><trkpt lat="43.71802117618644" lon="10.618342521760399"><ele>12.0</ele><time>2026-04-15T12:25:33Z</time></trkpt><trkpt lat="43.71788603849508" lon="10.61838489850369"><ele>12.0</ele><time>2026-04-15T12:25:34Z</time></trkpt><trkpt lat="43.71774447998608" lon="10.618389670554865"><ele>12.0</ele><time>2026-04-15T12:25:35Z</time></trkpt><trkpt lat="43.71760368529046" lon="10.618430428547112"><ele>12.0</ele><time>2026-04-15T12:25:36Z</time></trkpt><trkpt lat="43.71745699446054" lon="10.61843560489015"><ele>11.666666666666666</ele><time>2026-04-15T12:25:37Z</time></trkpt><trkpt lat="43.717304643561086" lon="10.618449072959415"><ele>11.333333333333332</ele><time>2026-04-15T12:25:38Z</time></trkpt><trkpt lat="43.71715145372255" lon="10.618474681518359"><ele>11.0</ele><time>2026-04-15T12:25:39Z</time></trkpt><trkpt lat="43.716995180762574" lon="10.618499961747716"><ele>10.333333333333332</ele><time>2026-04-15T12:25:40Z</time></trkpt><trkpt lat="43.716841184937365" lon="10.618523440217137"><ele>9.666666666666666</ele><time>2026-04-15T12:25:41Z</time></trkpt><trkpt lat="43.7166851220767" lon="10.618547305539176"><ele>9.0</ele><time>2026-04-15T12:25:42Z</time></trkpt><trkpt lat="43.71654633999909" lon="10.618569159965443"><ele>9.0</ele><time>2026-04-15T12:25:43Z</time></trkpt><trkpt lat="43.7164145320872" lon="10.618588050320952"><ele>9.0</ele><time>2026-04-15T12:25:44Z</time></trkpt><trkpt lat="43.716298400262275" lon="10.618604971845986"><ele>9.0</ele><time>2026-04-15T12:25:45Z</time></trkpt><trkpt lat="43.71618578121701" lon="10.618622318328686"><ele>9.0</ele><time>2026-04-15T12:25:46Z</time></trkpt><trkpt lat="43.716083899153105" lon="10.618635758803437"><ele>9.166666666666666</ele><time>2026-04-15T12:25:47Z</time></trkpt><trkpt lat="43.7159929889228" lon="10.618648559272794"><ele>9.333333333333334</ele><time>2026-04-15T12:25:48Z</time></trkpt><trkpt lat="43.71591557550719" lon="10.618663832445282"><ele>9.5</ele><time>2026-04-15T12:25:49Z</time></trkpt><trkpt lat="43.71584555107208" lon="10.618683029127638"><ele>9.666666666666668</ele><time>2026-04-15T12:25:50Z</time></trkpt><trkpt lat="43.71577387086777" lon="10.618702503755314"><ele>9.833333333333334</ele><time>2026-04-15T12:25:51Z</time></trkpt><trkpt lat="43.715687599111675" lon="10.618716590332246"><ele>10.0</ele><time>2026-04-15T12:25:52Z</time></trkpt><trkpt lat="43.715592571143056" lon="10.618731666574268"><ele>10.2</ele><time>2026-04-15T12:25:53Z</time></trkpt><trkpt lat="43.71549615438785" lon="10.61874036021154"><ele>10.4</ele><time>2026-04-15T12:25:54Z</time></trkpt><trkpt lat="43.71539334145973" lon="10.61875275419136"><ele>10.600000000000001</ele><time>2026-04-15T12:25:55Z</time></trkpt><trkpt lat="43.71528574185096" lon="10.618772378972427"><ele>10.8</ele><time>2026-04-15T12:25:56Z</time></trkpt><trkpt lat="43.71517314375467" lon="10.61879260241861"><ele>11.0</ele><time>2026-04-15T12:25:57Z</time></trkpt><trkpt lat="43.71505139353703" lon="10.61881083046814"><ele>11.0</ele><time>2026-04-15T12:25:58Z</time></trkpt><trkpt lat="43.71492568444879" lon="10.61882563969075"><ele>11.0</ele><time>2026-04-15T12:25:59Z</time></trkpt><trkpt lat="43.7147982358452" lon="10.618844681983857"><ele>11.0</ele><time>2026-04-15T12:26:00Z</time></trkpt><trkpt lat="43.71466887192121" lon="10.618865443055057"><ele>11.0</ele><time>2026-04-15T12:26:01Z</time></trkpt><trkpt lat="43.714535646648095" lon="10.618889323643119"><ele>11.0</ele><time>2026-04-15T12:26:02Z</time></trkpt><trkpt lat="43.71439463809409" lon="10.618914088161182"><ele>11.0</ele><time>2026-04-15T12:26:03Z</time></trkpt><trkpt lat="43.71425243048783" lon="10.618938149933424"><ele>11.0</ele><time>2026-04-15T12:26:04Z</time></trkpt><trkpt lat="43.71410528093752" lon="10.618959902313572"><ele>11.0</ele><time>2026-04-15T12:26:05Z</time></trkpt><trkpt lat="43.7139531159661" lon="10.618981973614101"><ele>11.0</ele><time>2026-04-15T12:26:06Z</time></trkpt><trkpt lat="43.713800600723964" lon="10.619005072059961"><ele>11.0</ele><time>2026-04-15T12:26:07Z</time></trkpt><trkpt lat="43.71365554262871" lon="10.61902589272465"><ele>11.0</ele><time>2026-04-15T12:26:08Z</time></trkpt><trkpt lat="43.713516494629246" lon="10.619044779838902"><ele>11.0</ele><time>2026-04-15T12:26:09Z</time></trkpt><trkpt lat="43.71338145730667" lon="10.619059590669355"><ele>11.75</ele><time>2026-04-15T12:26:10Z</time></trkpt><trkpt lat="43.71325631396072" lon="10.619078745112635"><ele>12.5</ele><time>2026-04-15T12:26:11Z</time></trkpt><trkpt lat="43.71313705347265" lon="10.619098733599289"><ele>13.25</ele><time>2026-04-15T12:26:12Z</time></trkpt><trkpt lat="43.71302370422866" lon="10.619118167690775"><ele>14.0</ele><time>2026-04-15T12:26:13Z</time></trkpt><trkpt lat="43.71291227557468" lon="10.619138191815868"><ele>14.0</ele><time>2026-04-15T12:26:14Z</time></trkpt><trkpt lat="43.71281027888511" lon="10.619152904032255"><ele>13.999999999999998</ele><time>2026-04-15T12:26:15Z</time></trkpt><trkpt lat="43.712709015568564" lon="10.619163445483505"><ele>13.999999999999998</ele><time>2026-04-15T12:26:16Z</time></trkpt><trkpt lat="43.71260262631033" lon="10.619174125541855"><ele>14.0</ele><time>2026-04-15T12:26:17Z</time></trkpt><trkpt lat="43.712495119311434" lon="10.619188536648824"><ele>14.0</ele><time>2026-04-15T12:26:18Z</time></trkpt><trkpt lat="43.71238470747024" lon="10.619208455160319"><ele>13.75</ele><time>2026-04-15T12:26:19Z</time></trkpt><trkpt lat="43.712270972951806" lon="10.619230921762533"><ele>13.5</ele><time>2026-04-15T12:26:20Z</time></trkpt><trkpt lat="43.71215412608543" lon="10.619250429566982"><ele>13.25</ele><time>2026-04-15T12:26:21Z</time></trkpt><trkpt lat="43.712037468684656" lon="10.619268646282682"><ele>13.0</ele><time>2026-04-15T12:26:22Z</time></trkpt><trkpt lat="43.711918853564434" lon="10.619288610664546"><ele>13.0</ele><time>2026-04-15T12:26:23Z</time></trkpt><trkpt lat="43.711796996732446" lon="10.61930091891498"><ele>13.0</ele><time>2026-04-15T12:26:24Z</time></trkpt><trkpt lat="43.71168010504099" lon="10.619314956186724"><ele>13.0</ele><time>2026-04-15T12:26:25Z</time></trkpt><trkpt lat="43.71157123246933" lon="10.619332306889554"><ele>13.0</ele><time>2026-04-15T12:26:26Z</time></trkpt><trkpt lat="43.71147418547224" lon="10.619346917115807"><ele>13.0</ele><time>2026-04-15T12:26:27Z</time></trkpt><trkpt lat="43.71138681650967" lon="10.619361035370842"><ele>12.999999999999998</ele><time>2026-04-15T12:26:28Z</time></trkpt><trkpt lat="43.71130534507251" lon="10.61937283546673"><ele>13.0</ele><time>2026-04-15T12:26:29Z</time></trkpt><trkpt lat="43.71122874317493" lon="10.61938426739217"><ele>13.0</ele><time>2026-04-15T12:26:30Z</time></trkpt><trkpt lat="43.71116205214802" lon="10.619390743322207"><ele>13.0</ele><time>2026-04-15T12:26:31Z</time></trkpt><trkpt lat="43.71104556437895" lon="10.619383353851463"><ele>12.999999999999998</ele><time>2026-04-15T12:26:33Z</time></trkpt><trkpt lat="43.71094921084811" lon="10.619327471909878"><ele>13.0</ele><time>2026-04-15T12:26:35Z</time></trkpt><trkpt lat="43.71086748711196" lon="10.61926841134518"><ele>13.0</ele><time>2026-04-15T12:26:37Z</time></trkpt><trkpt lat="43.710800353776335" lon="10.619199536554676"><ele>13.0</ele><time>2026-04-15T12:26:39Z</time></trkpt><trkpt lat="43.71069843844065" lon="10.619121020554944"><ele>13.0</ele><time>2026-04-15T12:26:41Z</time></trkpt><trkpt lat="43.71057723105869" lon="10.619055292954414"><ele>13.0</ele><time>2026-04-15T12:26:43Z</time></trkpt><trkpt lat="43.71051114314457" lon="10.619037369143706"><ele>13.0</ele><time>2026-04-15T12:26:44Z</time></trkpt><trkpt lat="43.71044430426247" lon="10.619021339650317"><ele>13.0</ele><time>2026-04-15T12:26:45Z</time></trkpt><trkpt lat="43.710376717449414" lon="10.619020205688686"><ele>13.0</ele><time>2026-04-15T12:26:46Z</time></trkpt><trkpt lat="43.71030299086594" lon="10.619038970737112"><ele>13.0</ele><time>2026-04-15T12:26:47Z</time></trkpt><trkpt lat="43.71022959960778" lon="10.61907291872626"><ele>13.0</ele><time>2026-04-15T12:26:48Z</time></trkpt><trkpt lat="43.71015851919885" lon="10.619116305428314"><ele>13.0</ele><time>2026-04-15T12:26:49Z</time></trkpt><trkpt lat="43.71009179199028" lon="10.619156483833784"><ele>13.0</ele><time>2026-04-15T12:26:50Z</time></trkpt><trkpt lat="43.71001789390761" lon="10.619193535526641"><ele>13.0</ele><time>2026-04-15T12:26:51Z</time></trkpt><trkpt lat="43.70994181613287" lon="10.619233315828323"><ele>12.999999999999998</ele><time>2026-04-15T12:26:52Z</time></trkpt><trkpt lat="43.709866158353805" lon="10.619280429952093"><ele>13.0</ele><time>2026-04-15T12:26:53Z</time></trkpt><trkpt lat="43.70980182434668" lon="10.61934041506414"><ele>13.0</ele><time>2026-04-15T12:26:54Z</time></trkpt><trkpt lat="43.70974142045332" lon="10.619410038309578"><ele>13.0</ele><time>2026-04-15T12:26:55Z</time></trkpt><trkpt lat="43.70969623032666" lon="10.619470810680076"><ele>12.999999999999998</ele><time>2026-04-15T12:26:56Z</time></trkpt><trkpt lat="43.709629090555076" lon="10.61956911954978"><ele>13.0</ele><time>2026-04-15T12:26:58Z</time></trkpt><trkpt lat="43.70955931871232" lon="10.619652219387826"><ele>13.0</ele><time>2026-04-15T12:27:00Z</time></trkpt><trkpt lat="43.709421877375384" lon="10.619573176959227"><ele>13.0</ele><time>2026-04-15T12:27:02Z</time></trkpt><trkpt lat="43.70934500901439" lon="10.619521084417226"><ele>13.0</ele><time>2026-04-15T12:27:03Z</time></trkpt><trkpt lat="43.709255713021484" lon="10.619483935357096"><ele>13.0</ele><time>2026-04-15T12:27:04Z</time></trkpt><trkpt lat="43.7091568668814" lon="10.61945521127025"><ele>13.0</ele><time>2026-04-15T12:27:05Z</time></trkpt><trkpt lat="43.70906074826891" lon="10.61943573147941"><ele>13.0</ele><time>2026-04-15T12:27:06Z</time></trkpt><trkpt lat="43.708976315998676" lon="10.619386252931537"><ele>13.0</ele><time>2026-04-15T12:27:07Z</time></trkpt><trkpt lat="43.70888201962508" lon="10.619345299784031"><ele>13.0</ele><time>2026-04-15T12:27:08Z</time></trkpt><trkpt lat="43.70878193197026" lon="10.61930614644606"><ele>13.0</ele><time>2026-04-15T12:27:09Z</time></trkpt><trkpt lat="43.708671965211394" lon="10.619261950771358"><ele>13.0</ele><time>2026-04-15T12:27:10Z</time></trkpt><trkpt lat="43.70855292127366" lon="10.619214300425423"><ele>13.0</ele><time>2026-04-15T12:27:11Z</time></trkpt><trkpt lat="43.7084312492992" lon="10.619162580717436"><ele>13.0</ele><time>2026-04-15T12:27:12Z</time></trkpt><trkpt lat="43.70830075102031" lon="10.619108621464601"><ele>13.0</ele><time>2026-04-15T12:27:13Z</time></trkpt><trkpt lat="43.708157324678986" lon="10.619054007352538"><ele>13.0</ele><time>2026-04-15T12:27:14Z</time></trkpt><trkpt lat="43.70801204737347" lon="10.618998557333743"><ele>13.0</ele><time>2026-04-15T12:27:15Z</time></trkpt><trkpt lat="43.707864061441406" lon="10.61894064185447"><ele>13.0</ele><time>2026-04-15T12:27:16Z</time></trkpt><trkpt lat="43.70772541942844" lon="10.618885978004831"><ele>13.0</ele><time>2026-04-15T12:27:17Z</time></trkpt><trkpt lat="43.70759707164504" lon="10.618835558561347"><ele>13.0</ele><time>2026-04-15T12:27:18Z</time></trkpt><trkpt lat="43.70747608423075" lon="10.61878848931368"><ele>12.75</ele><time>2026-04-15T12:27:19Z</time></trkpt><trkpt lat="43.707355788354036" lon="10.618743437523896"><ele>12.5</ele><time>2026-04-15T12:27:20Z</time></trkpt><trkpt lat="43.70724022256129" lon="10.618700117333951"><ele>12.25</ele><time>2026-04-15T12:27:21Z</time></trkpt><trkpt lat="43.70712715838886" lon="10.618661132070821"><ele>12.0</ele><time>2026-04-15T12:27:22Z</time></trkpt><trkpt lat="43.70701718444754" lon="10.618617230121705"><ele>12.0</ele><time>2026-04-15T12:27:23Z</time></trkpt><trkpt lat="43.706904565856334" lon="10.618573389195777"><ele>12.0</ele><time>2026-04-15T12:27:24Z</time></trkpt><trkpt lat="43.706786435913884" lon="10.618525644261917"><ele>12.0</ele><time>2026-04-15T12:27:25Z</time></trkpt><trkpt lat="43.70666300611297" lon="10.618473375201287"><ele>12.0</ele><time>2026-04-15T12:27:26Z</time></trkpt><trkpt lat="43.70653667287989" lon="10.618421463485237"><ele>12.0</ele><time>2026-04-15T12:27:27Z</time></trkpt><trkpt lat="43.706400992821116" lon="10.618368094718797"><ele>12.0</ele><time>2026-04-15T12:27:28Z</time></trkpt><trkpt lat="43.70625707060508" lon="10.618310467480336"><ele>12.0</ele><time>2026-04-15T12:27:29Z</time></trkpt><trkpt lat="43.70611182562054" lon="10.61825145007716"><ele>12.0</ele><time>2026-04-15T12:27:30Z</time></trkpt><trkpt lat="43.705966445220376" lon="10.618192822089972"><ele>11.75</ele><time>2026-04-15T12:27:31Z</time></trkpt><trkpt lat="43.70582215724228" lon="10.618139976354193"><ele>11.5</ele><time>2026-04-15T12:27:32Z</time></trkpt><trkpt lat="43.705691954246845" lon="10.618097115751741"><ele>11.25</ele><time>2026-04-15T12:27:33Z</time></trkpt><trkpt lat="43.705579073386986" lon="10.618066603775889"><ele>11.0</ele><time>2026-04-15T12:27:34Z</time></trkpt><trkpt lat="43.70547093572058" lon="10.61805630844314"><ele>11.0</ele><time>2026-04-15T12:27:35Z</time></trkpt><trkpt lat="43.705361770486135" lon="10.618073658849948"><ele>11.0</ele><time>2026-04-15T12:27:36Z</time></trkpt><trkpt lat="43.70524917438636" lon="10.618117010206978"><ele>11.0</ele><time>2026-04-15T12:27:37Z</time></trkpt><trkpt lat="43.705138827222925" lon="10.61817038752757"><ele>11.0</ele><time>2026-04-15T12:27:38Z</time></trkpt><trkpt lat="43.70503150130875" lon="10.618230911832526"><ele>11.25</ele><time>2026-04-15T12:27:39Z</time></trkpt><trkpt lat="43.70492151295212" lon="10.618295036520603"><ele>11.5</ele><time>2026-04-15T12:27:40Z</time></trkpt><trkpt lat="43.70480820983703" lon="10.61836171454384"><ele>11.75</ele><time>2026-04-15T12:27:41Z</time></trkpt><trkpt lat="43.70468983101348" lon="10.618430703848672"><ele>12.0</ele><time>2026-04-15T12:27:42Z</time></trkpt><trkpt lat="43.70456882487174" lon="10.618498017473673"><ele>12.0</ele><time>2026-04-15T12:27:43Z</time></trkpt><trkpt lat="43.704445830433485" lon="10.618565216539308"><ele>12.0</ele><time>2026-04-15T12:27:44Z</time></trkpt><trkpt lat="43.70432037898729" lon="10.618634955516356"><ele>12.0</ele><time>2026-04-15T12:27:45Z</time></trkpt><trkpt lat="43.70418863519972" lon="10.618706479765814"><ele>12.0</ele><time>2026-04-15T12:27:46Z</time></trkpt><trkpt lat="43.704056346776284" lon="10.618779865909238"><ele>12.0</ele><time>2026-04-15T12:27:47Z</time></trkpt><trkpt lat="43.70392853987312" lon="10.618850106026638"><ele>12.0</ele><time>2026-04-15T12:27:48Z</time></trkpt><trkpt lat="43.703800309114825" lon="10.6189185693858"><ele>12.0</ele><time>2026-04-15T12:27:49Z</time></trkpt><trkpt lat="43.70367748917789" lon="10.618984733408842"><ele>12.0</ele><time>2026-04-15T12:27:50Z</time></trkpt><trkpt lat="43.70356225080561" lon="10.619044851487672"><ele>12.25</ele><time>2026-04-15T12:27:51Z</time></trkpt><trkpt lat="43.703449317469286" lon="10.619107063036811"><ele>12.5</ele><time>2026-04-15T12:27:52Z</time></trkpt><trkpt lat="43.70333762956833" lon="10.61916744084483"><ele>12.75</ele><time>2026-04-15T12:27:53Z</time></trkpt><trkpt lat="43.70322154759693" lon="10.619227459929347"><ele>13.0</ele><time>2026-04-15T12:27:54Z</time></trkpt><trkpt lat="43.70310031666275" lon="10.619285796175486"><ele>13.0</ele><time>2026-04-15T12:27:55Z</time></trkpt><trkpt lat="43.70297765051497" lon="10.619341156064964"><ele>13.0</ele><time>2026-04-15T12:27:56Z</time></trkpt><trkpt lat="43.70284780930263" lon="10.61939995590132"><ele>13.0</ele><time>2026-04-15T12:27:57Z</time></trkpt><trkpt lat="43.70271665921895" lon="10.619460792266722"><ele>13.0</ele><time>2026-04-15T12:27:58Z</time></trkpt><trkpt lat="43.70258257415097" lon="10.619525167755116"><ele>12.25</ele><time>2026-04-15T12:27:59Z</time></trkpt><trkpt lat="43.702447795094244" lon="10.619589637028662"><ele>11.5</ele><time>2026-04-15T12:28:00Z</time></trkpt><trkpt lat="43.702314237072834" lon="10.619650596424595"><ele>10.75</ele><time>2026-04-15T12:28:01Z</time></trkpt><trkpt lat="43.702181206969605" lon="10.619709725192104"><ele>10.0</ele><time>2026-04-15T12:28:02Z</time></trkpt><trkpt lat="43.70205616287382" lon="10.61976299219336"><ele>10.0</ele><time>2026-04-15T12:28:03Z</time></trkpt><trkpt lat="43.70192637726196" lon="10.619817191126865"><ele>10.0</ele><time>2026-04-15T12:28:04Z</time></trkpt><trkpt lat="43.70180438135059" lon="10.6198687617051"><ele>10.0</ele><time>2026-04-15T12:28:05Z</time></trkpt><trkpt lat="43.70168122666044" lon="10.619918811920613"><ele>10.0</ele><time>2026-04-15T12:28:06Z</time></trkpt><trkpt lat="43.701558011036084" lon="10.619967621367758"><ele>10.5</ele><time>2026-04-15T12:28:07Z</time></trkpt><trkpt lat="43.701430076560634" lon="10.620020441368668"><ele>11.0</ele><time>2026-04-15T12:28:08Z</time></trkpt><trkpt lat="43.70130168916384" lon="10.620077944152554"><ele>11.5</ele><time>2026-04-15T12:28:09Z</time></trkpt><trkpt lat="43.70117070048753" lon="10.620138354056797"><ele>12.0</ele><time>2026-04-15T12:28:10Z</time></trkpt><trkpt lat="43.701034640938154" lon="10.6201953693147"><ele>12.0</ele><time>2026-04-15T12:28:11Z</time></trkpt><trkpt lat="43.700893404979574" lon="10.620251210585941"><ele>12.0</ele><time>2026-04-15T12:28:12Z</time></trkpt><trkpt lat="43.700755196147924" lon="10.620304366893484"><ele>12.0</ele><time>2026-04-15T12:28:13Z</time></trkpt><trkpt lat="43.700624871090334" lon="10.620355351488156"><ele>12.0</ele><time>2026-04-15T12:28:14Z</time></trkpt><trkpt lat="43.700495643508496" lon="10.620405759285882"><ele>11.75</ele><time>2026-04-15T12:28:15Z</time></trkpt><trkpt lat="43.70037362890625" lon="10.620455492702362"><ele>11.5</ele><time>2026-04-15T12:28:16Z</time></trkpt><trkpt lat="43.70025409304916" lon="10.620504681423878"><ele>11.25</ele><time>2026-04-15T12:28:17Z</time></trkpt><trkpt lat="43.70013667087114" lon="10.620551669621623"><ele>11.0</ele><time>2026-04-15T12:28:18Z</time></trkpt><trkpt lat="43.70001914442731" lon="10.620597292185092"><ele>11.5</ele><time>2026-04-15T12:28:19Z</time></trkpt><trkpt lat="43.69990171886672" lon="10.6206394365183"><ele>12.0</ele><time>2026-04-15T12:28:20Z</time></trkpt><trkpt lat="43.69978057617731" lon="10.620686983993062"><ele>12.5</ele><time>2026-04-15T12:28:21Z</time></trkpt><trkpt lat="43.69965752463912" lon="10.620737043310019"><ele>13.0</ele><time>2026-04-15T12:28:22Z</time></trkpt><trkpt lat="43.69953227071842" lon="10.620790031494282"><ele>13.0</ele><time>2026-04-15T12:28:23Z</time></trkpt><trkpt lat="43.6994014404952" lon="10.62084325580805"><ele>13.0</ele><time>2026-04-15T12:28:24Z</time></trkpt><trkpt lat="43.69927407055942" lon="10.620894095145102"><ele>13.0</ele><time>2026-04-15T12:28:25Z</time></trkpt><trkpt lat="43.699149667597204" lon="10.620942572567865"><ele>13.0</ele><time>2026-04-15T12:28:26Z</time></trkpt><trkpt lat="43.69902028356394" lon="10.620993348709057"><ele>13.0</ele><time>2026-04-15T12:28:27Z</time></trkpt><trkpt lat="43.69888919155102" lon="10.621046191366114"><ele>13.0</ele><time>2026-04-15T12:28:28Z</time></trkpt><trkpt lat="43.69875306227871" lon="10.621100356497225"><ele>13.0</ele><time>2026-04-15T12:28:29Z</time></trkpt><trkpt lat="43.69861440058921" lon="10.621152072410466"><ele>13.0</ele><time>2026-04-15T12:28:30Z</time></trkpt><trkpt lat="43.6984736346988" lon="10.621197090615976"><ele>13.0</ele><time>2026-04-15T12:28:31Z</time></trkpt><trkpt lat="43.69832867767148" lon="10.621236953020219"><ele>13.0</ele><time>2026-04-15T12:28:32Z</time></trkpt><trkpt lat="43.69818621138295" lon="10.621273141059644"><ele>13.0</ele><time>2026-04-15T12:28:33Z</time></trkpt><trkpt lat="43.698039841553836" lon="10.62131165132243"><ele>13.0</ele><time>2026-04-15T12:28:34Z</time></trkpt><trkpt lat="43.69789267471343" lon="10.621351873871031"><ele>13.0</ele><time>2026-04-15T12:28:35Z</time></trkpt><trkpt lat="43.69774198798254" lon="10.621394086215512"><ele>13.0</ele><time>2026-04-15T12:28:36Z</time></trkpt><trkpt lat="43.69759018421663" lon="10.621435930419118"><ele>13.0</ele><time>2026-04-15T12:28:37Z</time></trkpt><trkpt lat="43.69743932633787" lon="10.621477047404873"><ele>13.0</ele><time>2026-04-15T12:28:38Z</time></trkpt><trkpt lat="43.69727791176388" lon="10.621522273793884"><ele>13.0</ele><time>2026-04-15T12:28:39Z</time></trkpt><trkpt lat="43.69712276760236" lon="10.621564730801918"><ele>13.0</ele><time>2026-04-15T12:28:40Z</time></trkpt><trkpt lat="43.69695351699369" lon="10.621609881825416"><ele>13.333333333333332</ele><time>2026-04-15T12:28:41Z</time></trkpt><trkpt lat="43.69676593651832" lon="10.621657869056774"><ele>13.666666666666668</ele><time>2026-04-15T12:28:42Z</time></trkpt><trkpt lat="43.69657781536051" lon="10.621709686850565"><ele>14.0</ele><time>2026-04-15T12:28:43Z</time></trkpt><trkpt lat="43.69641950893203" lon="10.62174769578899"><ele>14.0</ele><time>2026-04-15T12:28:44Z</time></trkpt><trkpt lat="43.69627587262618" lon="10.62178251970283"><ele>14.0</ele><time>2026-04-15T12:28:45Z</time></trkpt><trkpt lat="43.696142120159976" lon="10.62181913944477"><ele>14.0</ele><time>2026-04-15T12:28:46Z</time></trkpt><trkpt lat="43.69601440230897" lon="10.621857047143092"><ele>14.0</ele><time>2026-04-15T12:28:47Z</time></trkpt><trkpt lat="43.695886362772534" lon="10.621899679927832"><ele>14.0</ele><time>2026-04-15T12:28:48Z</time></trkpt><trkpt lat="43.6957622263228" lon="10.621938441389869"><ele>14.0</ele><time>2026-04-15T12:28:49Z</time></trkpt><trkpt lat="43.69563617327278" lon="10.621978373306945"><ele>14.0</ele><time>2026-04-15T12:28:50Z</time></trkpt><trkpt lat="43.69551002312577" lon="10.622019484804603"><ele>14.0</ele><time>2026-04-15T12:28:51Z</time></trkpt><trkpt lat="43.69538570356762" lon="10.622059863814558"><ele>13.75</ele><time>2026-04-15T12:28:52Z</time></trkpt><trkpt lat="43.695261757748426" lon="10.622105881711189"><ele>13.5</ele><time>2026-04-15T12:28:53Z</time></trkpt><trkpt lat="43.695140369718764" lon="10.622149414478093"><ele>13.25</ele><time>2026-04-15T12:28:54Z</time></trkpt><trkpt lat="43.69502222237705" lon="10.622192052754837"><ele>13.0</ele><time>2026-04-15T12:28:55Z</time></trkpt><trkpt lat="43.69490113160831" lon="10.622235063275083"><ele>13.0</ele><time>2026-04-15T12:28:56Z</time></trkpt><trkpt lat="43.69478119566731" lon="10.622273224192666"><ele>13.0</ele><time>2026-04-15T12:28:57Z</time></trkpt><trkpt lat="43.69466107561381" lon="10.622309938745492"><ele>13.0</ele><time>2026-04-15T12:28:58Z</time></trkpt><trkpt lat="43.694550544531026" lon="10.622349532969846"><ele>13.0</ele><time>2026-04-15T12:28:59Z</time></trkpt><trkpt lat="43.69445311525292" lon="10.622389535618925"><ele>12.666666666666666</ele><time>2026-04-15T12:29:00Z</time></trkpt><trkpt lat="43.69437767197051" lon="10.62241904988788"><ele>12.333333333333332</ele><time>2026-04-15T12:29:01Z</time></trkpt><trkpt lat="43.69430928582931" lon="10.622444652324548"><ele>12.0</ele><time>2026-04-15T12:29:02Z</time></trkpt><trkpt lat="43.69424828305328" lon="10.622466951663078"><ele>11.666666666666666</ele><time>2026-04-15T12:29:03Z</time></trkpt><trkpt lat="43.69417942632655" lon="10.62248998859088"><ele>11.333333333333332</ele><time>2026-04-15T12:29:04Z</time></trkpt><trkpt lat="43.69409815160895" lon="10.622519857126424"><ele>11.0</ele><time>2026-04-15T12:29:05Z</time></trkpt><trkpt lat="43.693998693771384" lon="10.622556782352953"><ele>11.0</ele><time>2026-04-15T12:29:06Z</time></trkpt><trkpt lat="43.693879397574484" lon="10.622600084722935"><ele>11.0</ele><time>2026-04-15T12:29:07Z</time></trkpt><trkpt lat="43.693734657893344" lon="10.62264924891536"><ele>11.0</ele><time>2026-04-15T12:29:08Z</time></trkpt><trkpt lat="43.693562755410376" lon="10.622708707800546"><ele>11.0</ele><time>2026-04-15T12:29:09Z</time></trkpt><trkpt lat="43.69338665051877" lon="10.622771464811633"><ele>11.0</ele><time>2026-04-15T12:29:10Z</time></trkpt><trkpt lat="43.69319918077751" lon="10.62283968214538"><ele>11.0</ele><time>2026-04-15T12:29:11Z</time></trkpt><trkpt lat="43.692995295311235" lon="10.622913921719086"><ele>11.333333333333332</ele><time>2026-04-15T12:29:12Z</time></trkpt><trkpt lat="43.69278345068987" lon="10.622990186751977"><ele>11.666666666666666</ele><time>2026-04-15T12:29:13Z</time></trkpt><trkpt lat="43.69258951338923" lon="10.623058820336736"><ele>12.0</ele><time>2026-04-15T12:29:14Z</time></trkpt><trkpt lat="43.692417166079416" lon="10.623119370902838"><ele>12.0</ele><time>2026-04-15T12:29:15Z</time></trkpt><trkpt lat="43.69225648053856" lon="10.623175715614861"><ele>12.0</ele><time>2026-04-15T12:29:16Z</time></trkpt><trkpt lat="43.692100913004836" lon="10.623231836587282"><ele>12.0</ele><time>2026-04-15T12:29:17Z</time></trkpt><trkpt lat="43.69194486942394" lon="10.623288828131356"><ele>12.333333333333332</ele><time>2026-04-15T12:29:18Z</time></trkpt><trkpt lat="43.691779557869864" lon="10.623348406120817"><ele>12.666666666666666</ele><time>2026-04-15T12:29:19Z</time></trkpt><trkpt lat="43.69161017916843" lon="10.62340746718273"><ele>13.0</ele><time>2026-04-15T12:29:20Z</time></trkpt><trkpt lat="43.69144173219453" lon="10.623467274308096"><ele>13.0</ele><time>2026-04-15T12:29:21Z</time></trkpt><trkpt lat="43.69126809165528" lon="10.623527627235214"><ele>13.0</ele><time>2026-04-15T12:29:22Z</time></trkpt><trkpt lat="43.691092725865616" lon="10.623588734147296"><ele>13.0</ele><time>2026-04-15T12:29:23Z</time></trkpt><trkpt lat="43.69092181258342" lon="10.623648280298852"><ele>13.0</ele><time>2026-04-15T12:29:24Z</time></trkpt><trkpt lat="43.6907638119665" lon="10.623705412094987"><ele>13.0</ele><time>2026-04-15T12:29:25Z</time></trkpt><trkpt lat="43.690613873526154" lon="10.623760308882838"><ele>13.0</ele><time>2026-04-15T12:29:26Z</time></trkpt><trkpt lat="43.690463281985174" lon="10.62381579746535"><ele>13.0</ele><time>2026-04-15T12:29:27Z</time></trkpt><trkpt lat="43.69031287658592" lon="10.62387085442469"><ele>13.0</ele><time>2026-04-15T12:29:28Z</time></trkpt><trkpt lat="43.69016504756263" lon="10.62392352752034"><ele>13.0</ele><time>2026-04-15T12:29:29Z</time></trkpt><trkpt lat="43.69001112454726" lon="10.623979909587797"><ele>12.666666666666666</ele><time>2026-04-15T12:29:30Z</time></trkpt><trkpt lat="43.68985997592324" lon="10.624033485424318"><ele>12.333333333333332</ele><time>2026-04-15T12:29:31Z</time></trkpt><trkpt lat="43.689709584208984" lon="10.624085287228775"><ele>12.0</ele><time>2026-04-15T12:29:32Z</time></trkpt><trkpt lat="43.68956672171916" lon="10.62413823681259"><ele>12.0</ele><time>2026-04-15T12:29:33Z</time></trkpt><trkpt lat="43.689424096253354" lon="10.624190923486488"><ele>12.0</ele><time>2026-04-15T12:29:34Z</time></trkpt><trkpt lat="43.68928720623975" lon="10.62423893247444"><ele>12.0</ele><time>2026-04-15T12:29:35Z</time></trkpt><trkpt lat="43.689154103073676" lon="10.62428319130584"><ele>12.0</ele><time>2026-04-15T12:29:36Z</time></trkpt><trkpt lat="43.689025121228134" lon="10.624326215171275"><ele>12.0</ele><time>2026-04-15T12:29:37Z</time></trkpt><trkpt lat="43.68889720064472" lon="10.624367690770834"><ele>12.0</ele><time>2026-04-15T12:29:38Z</time></trkpt><trkpt lat="43.6887761017315" lon="10.62440427685359"><ele>12.0</ele><time>2026-04-15T12:29:39Z</time></trkpt><trkpt lat="43.68867519068625" lon="10.624429761413797"><ele>12.0</ele><time>2026-04-15T12:29:40Z</time></trkpt><trkpt lat="43.68858292464604" lon="10.624449404289166"><ele>11.833333333333334</ele><time>2026-04-15T12:29:41Z</time></trkpt><trkpt lat="43.688493445180605" lon="10.62446130683918"><ele>11.666666666666666</ele><time>2026-04-15T12:29:42Z</time></trkpt><trkpt lat="43.688409601539625" lon="10.624473151781578"><ele>11.5</ele><time>2026-04-15T12:29:43Z</time></trkpt><trkpt lat="43.688328260796666" lon="10.624487111961372"><ele>11.333333333333332</ele><time>2026-04-15T12:29:44Z</time></trkpt><trkpt lat="43.688242925311904" lon="10.624501936524293"><ele>11.166666666666666</ele><time>2026-04-15T12:29:45Z</time></trkpt><trkpt lat="43.68815450345341" lon="10.624516825045633"><ele>11.0</ele><time>2026-04-15T12:29:46Z</time></trkpt><trkpt lat="43.68806460838909" lon="10.624528570171085"><ele>10.8</ele><time>2026-04-15T12:29:47Z</time></trkpt><trkpt lat="43.68797634528147" lon="10.624539268040536"><ele>10.600000000000001</ele><time>2026-04-15T12:29:48Z</time></trkpt><trkpt lat="43.68788758074147" lon="10.624551519951517"><ele>10.4</ele><time>2026-04-15T12:29:49Z</time></trkpt><trkpt lat="43.68779906483339" lon="10.624567521323195"><ele>10.2</ele><time>2026-04-15T12:29:50Z</time></trkpt><trkpt lat="43.687708322891304" lon="10.624582979582868"><ele>10.0</ele><time>2026-04-15T12:29:51Z</time></trkpt><trkpt lat="43.6876137924237" lon="10.624600385804644"><ele>10.4</ele><time>2026-04-15T12:29:52Z</time></trkpt><trkpt lat="43.687518771152796" lon="10.62461254651828"><ele>10.8</ele><time>2026-04-15T12:29:53Z</time></trkpt><trkpt lat="43.68742067591868" lon="10.624629573122148"><ele>11.2</ele><time>2026-04-15T12:29:54Z</time></trkpt><trkpt lat="43.68732309852152" lon="10.624643852478695"><ele>11.6</ele><time>2026-04-15T12:29:55Z</time></trkpt><trkpt lat="43.68722396415735" lon="10.62465821410486"><ele>12.0</ele><time>2026-04-15T12:29:56Z</time></trkpt><trkpt lat="43.687117637890424" lon="10.624681568822936"><ele>12.0</ele><time>2026-04-15T12:29:57Z</time></trkpt><trkpt lat="43.687008006767954" lon="10.624702489362486"><ele>12.0</ele><time>2026-04-15T12:29:58Z</time></trkpt><trkpt lat="43.686895857857245" lon="10.624723845635092"><ele>12.0</ele><time>2026-04-15T12:29:59Z</time></trkpt><trkpt lat="43.68678380005784" lon="10.62474410454312"><ele>12.0</ele><time>2026-04-15T12:30:00Z</time></trkpt><trkpt lat="43.68666454318684" lon="10.624766907952305"><ele>12.666666666666668</ele><time>2026-04-15T12:30:01Z</time></trkpt><trkpt lat="43.68654511771519" lon="10.624786118245018"><ele>13.333333333333334</ele><time>2026-04-15T12:30:02Z</time></trkpt><trkpt lat="43.6864275767477" lon="10.624806140770616"><ele>14.0</ele><time>2026-04-15T12:30:03Z</time></trkpt><trkpt lat="43.686187441085465" lon="10.624846404629734"><ele>13.75</ele><time>2026-04-15T12:30:05Z</time></trkpt><trkpt lat="43.6860631367718" lon="10.624866789110902"><ele>13.5</ele><time>2026-04-15T12:30:06Z</time></trkpt><trkpt lat="43.685933584355006" lon="10.624886023646864"><ele>13.25</ele><time>2026-04-15T12:30:07Z</time></trkpt><trkpt lat="43.68580425523839" lon="10.62490691724827"><ele>13.0</ele><time>2026-04-15T12:30:08Z</time></trkpt><trkpt lat="43.685666899717305" lon="10.62493278732018"><ele>13.0</ele><time>2026-04-15T12:30:09Z</time></trkpt><trkpt lat="43.68552453704555" lon="10.624959506297277"><ele>13.0</ele><time>2026-04-15T12:30:10Z</time></trkpt><trkpt lat="43.68538346118619" lon="10.624983551934127"><ele>13.0</ele><time>2026-04-15T12:30:11Z</time></trkpt><trkpt lat="43.68525400327859" lon="10.625003803339636"><ele>13.0</ele><time>2026-04-15T12:30:12Z</time></trkpt><trkpt lat="43.68513371295231" lon="10.625021901731872"><ele>13.4</ele><time>2026-04-15T12:30:13Z</time></trkpt><trkpt lat="43.68502197276034" lon="10.625038500807385"><ele>13.8</ele><time>2026-04-15T12:30:14Z</time></trkpt><trkpt lat="43.684917262760464" lon="10.625053652832735"><ele>14.2</ele><time>2026-04-15T12:30:15Z</time></trkpt><trkpt lat="43.68481983647626" lon="10.625068217046529"><ele>14.6</ele><time>2026-04-15T12:30:16Z</time></trkpt><trkpt lat="43.68472471985096" lon="10.625083804841841"><ele>15.0</ele><time>2026-04-15T12:30:17Z</time></trkpt><trkpt lat="43.6846322976967" lon="10.625098734488178"><ele>15.0</ele><time>2026-04-15T12:30:18Z</time></trkpt><trkpt lat="43.684544616705814" lon="10.625110394733627"><ele>15.0</ele><time>2026-04-15T12:30:19Z</time></trkpt><trkpt lat="43.684458120883" lon="10.625124915916055"><ele>15.0</ele><time>2026-04-15T12:30:20Z</time></trkpt><trkpt lat="43.68436613567726" lon="10.625136427190338"><ele>15.0</ele><time>2026-04-15T12:30:21Z</time></trkpt><trkpt lat="43.684274502121426" lon="10.62514877850398"><ele>15.0</ele><time>2026-04-15T12:30:22Z</time></trkpt><trkpt lat="43.68418766160144" lon="10.62515179152819"><ele>15.0</ele><time>2026-04-15T12:30:23Z</time></trkpt><trkpt lat="43.68410750346703" lon="10.625140112457592"><ele>15.8</ele><time>2026-04-15T12:30:24Z</time></trkpt><trkpt lat="43.68402309950602" lon="10.625110014887744"><ele>16.6</ele><time>2026-04-15T12:30:26Z</time></trkpt><trkpt lat="43.68395351132213" lon="10.625069180501441"><ele>17.4</ele><time>2026-04-15T12:30:29Z</time></trkpt><trkpt lat="43.68386933482795" lon="10.624998482805259"><ele>18.2</ele><time>2026-04-15T12:30:31Z</time></trkpt><trkpt lat="43.68381087304414" lon="10.624843369817915"><ele>19.0</ele><time>2026-04-15T12:30:33Z</time></trkpt><trkpt lat="43.68377718744946" lon="10.624767275438284"><ele>19.0</ele><time>2026-04-15T12:30:34Z</time></trkpt><trkpt lat="43.68367944456006" lon="10.624651755687095"><ele>19.0</ele><time>2026-04-15T12:30:36Z</time></trkpt><trkpt lat="43.68361805551787" lon="10.624609714801286"><ele>19.0</ele><time>2026-04-15T12:30:37Z</time></trkpt><trkpt lat="43.68354964187727" lon="10.624595675380002"><ele>19.0</ele><time>2026-04-15T12:30:38Z</time></trkpt><trkpt lat="43.68347476469806" lon="10.624618640907181"><ele>19.0</ele><time>2026-04-15T12:30:39Z</time></trkpt><trkpt lat="43.683401711900366" lon="10.624673745100013"><ele>19.0</ele><time>2026-04-15T12:30:40Z</time></trkpt><trkpt lat="43.68333948003111" lon="10.624756815773901"><ele>20.0</ele><time>2026-04-15T12:30:41Z</time></trkpt><trkpt lat="43.68330665853751" lon="10.624865454003936"><ele>21.0</ele><time>2026-04-15T12:30:42Z</time></trkpt><trkpt lat="43.683288902278086" lon="10.624988538107477"><ele>22.0</ele><time>2026-04-15T12:30:43Z</time></trkpt><trkpt lat="43.68328602142693" lon="10.625214121666879"><ele>23.0</ele><time>2026-04-15T12:30:45Z</time></trkpt><trkpt lat="43.68326723498578" lon="10.625317378617083"><ele>24.0</ele><time>2026-04-15T12:30:46Z</time></trkpt><trkpt lat="43.683217252979716" lon="10.625411629967232"><ele>25.0</ele><time>2026-04-15T12:30:47Z</time></trkpt><trkpt lat="43.68315543234892" lon="10.625501903316215"><ele>26.0</ele><time>2026-04-15T12:30:48Z</time></trkpt><trkpt lat="43.6830998924958" lon="10.625585497522055"><ele>27.0</ele><time>2026-04-15T12:30:49Z</time></trkpt><trkpt lat="43.68304985713503" lon="10.625664537909083"><ele>28.0</ele><time>2026-04-15T12:30:50Z</time></trkpt><trkpt lat="43.683001250922054" lon="10.6257497901967"><ele>29.0</ele><time>2026-04-15T12:30:51Z</time></trkpt><trkpt lat="43.68294604750985" lon="10.62584172145897"><ele>30.0</ele><time>2026-04-15T12:30:52Z</time></trkpt><trkpt lat="43.68288976778618" lon="10.625935298330731"><ele>30.0</ele><time>2026-04-15T12:30:53Z</time></trkpt><trkpt lat="43.68283026851005" lon="10.62604552547521"><ele>30.0</ele><time>2026-04-15T12:30:54Z</time></trkpt><trkpt lat="43.682772047092776" lon="10.626161064915937"><ele>30.0</ele><time>2026-04-15T12:30:55Z</time></trkpt><trkpt lat="43.682711753025245" lon="10.626280153034832"><ele>30.0</ele><time>2026-04-15T12:30:56Z</time></trkpt><trkpt lat="43.68264168822146" lon="10.626403769291471"><ele>30.0</ele><time>2026-04-15T12:30:57Z</time></trkpt><trkpt lat="43.682569889105" lon="10.626538652206882"><ele>30.0</ele><time>2026-04-15T12:30:58Z</time></trkpt><trkpt lat="43.68248818655415" lon="10.626691520720211"><ele>30.0</ele><time>2026-04-15T12:30:59Z</time></trkpt><trkpt lat="43.68240382237676" lon="10.62684898989502"><ele>30.0</ele><time>2026-04-15T12:31:00Z</time></trkpt><trkpt lat="43.68231537989529" lon="10.627013639767178"><ele>30.0</ele><time>2026-04-15T12:31:01Z</time></trkpt><trkpt lat="43.68221885681042" lon="10.627195804215644"><ele>30.333333333333336</ele><time>2026-04-15T12:31:02Z</time></trkpt><trkpt lat="43.68212026317953" lon="10.62738343252227"><ele>30.666666666666668</ele><time>2026-04-15T12:31:03Z</time></trkpt><trkpt lat="43.6820124174394" lon="10.627573045688374"><ele>31.0</ele><time>2026-04-15T12:31:04Z</time></trkpt><trkpt lat="43.68191492878407" lon="10.627748583467362"><ele>27.75</ele><time>2026-04-15T12:31:05Z</time></trkpt><trkpt lat="43.68182333263513" lon="10.627916354430315"><ele>24.5</ele><time>2026-04-15T12:31:06Z</time></trkpt><trkpt lat="43.6817363628164" lon="10.628078400416454"><ele>21.25</ele><time>2026-04-15T12:31:07Z</time></trkpt><trkpt lat="43.68164804534807" lon="10.628240642019708"><ele>18.0</ele><time>2026-04-15T12:31:08Z</time></trkpt><trkpt lat="43.6815624561222" lon="10.62840146471364"><ele>18.0</ele><time>2026-04-15T12:31:09Z</time></trkpt><trkpt lat="43.68147452620022" lon="10.628563260135502"><ele>18.0</ele><time>2026-04-15T12:31:10Z</time></trkpt><trkpt lat="43.681384579379205" lon="10.628726139038092"><ele>18.0</ele><time>2026-04-15T12:31:11Z</time></trkpt><trkpt lat="43.68129677245204" lon="10.628890080198476"><ele>18.0</ele><time>2026-04-15T12:31:12Z</time></trkpt><trkpt lat="43.68120654225463" lon="10.629055429304277"><ele>17.75</ele><time>2026-04-15T12:31:13Z</time></trkpt><trkpt lat="43.68111945274098" lon="10.629217324172922"><ele>17.5</ele><time>2026-04-15T12:31:14Z</time></trkpt><trkpt lat="43.68103913101359" lon="10.629372610130035"><ele>17.25</ele><time>2026-04-15T12:31:15Z</time></trkpt><trkpt lat="43.68096049750986" lon="10.629523202035896"><ele>17.0</ele><time>2026-04-15T12:31:16Z</time></trkpt><trkpt lat="43.680882278292074" lon="10.629666945390833"><ele>17.0</ele><time>2026-04-15T12:31:17Z</time></trkpt><trkpt lat="43.68080290374253" lon="10.62980700722354"><ele>17.0</ele><time>2026-04-15T12:31:18Z</time></trkpt><trkpt lat="43.68072703693012" lon="10.629943496193771"><ele>17.0</ele><time>2026-04-15T12:31:19Z</time></trkpt><trkpt lat="43.680652083413754" lon="10.630077002978606"><ele>17.0</ele><time>2026-04-15T12:31:20Z</time></trkpt><trkpt lat="43.68057468099937" lon="10.630215240428411"><ele>16.75</ele><time>2026-04-15T12:31:21Z</time></trkpt><trkpt lat="43.68049666583207" lon="10.630351225869063"><ele>16.5</ele><time>2026-04-15T12:31:22Z</time></trkpt><trkpt lat="43.68041669970832" lon="10.630492321118018"><ele>16.25</ele><time>2026-04-15T12:31:23Z</time></trkpt><trkpt lat="43.680332830647586" lon="10.630642936787666"><ele>16.0</ele><time>2026-04-15T12:31:24Z</time></trkpt><trkpt lat="43.68024856535309" lon="10.630792248081908"><ele>14.75</ele><time>2026-04-15T12:31:25Z</time></trkpt><trkpt lat="43.680163193249015" lon="10.630949798121767"><ele>13.5</ele><time>2026-04-15T12:31:26Z</time></trkpt><trkpt lat="43.68008202224018" lon="10.631098520817934"><ele>12.25</ele><time>2026-04-15T12:31:27Z</time></trkpt><trkpt lat="43.67999845674754" lon="10.631250109066603"><ele>11.0</ele><time>2026-04-15T12:31:28Z</time></trkpt><trkpt lat="43.679920980667085" lon="10.63139121233781"><ele>10.4</ele><time>2026-04-15T12:31:29Z</time></trkpt><trkpt lat="43.679847553700924" lon="10.631523288981235"><ele>9.8</ele><time>2026-04-15T12:31:30Z</time></trkpt><trkpt lat="43.67978018490833" lon="10.631648308032224"><ele>9.200000000000001</ele><time>2026-04-15T12:31:31Z</time></trkpt><trkpt lat="43.67971545912591" lon="10.631768698898767"><ele>8.600000000000001</ele><time>2026-04-15T12:31:32Z</time></trkpt><trkpt lat="43.67965680414831" lon="10.631878394273402"><ele>8.0</ele><time>2026-04-15T12:31:33Z</time></trkpt><trkpt lat="43.67960815301446" lon="10.631971860380766"><ele>9.166666666666666</ele><time>2026-04-15T12:31:34Z</time></trkpt><trkpt lat="43.67956442268813" lon="10.632050675490087"><ele>10.333333333333332</ele><time>2026-04-15T12:31:35Z</time></trkpt><trkpt lat="43.67952222016443" lon="10.632124518149222"><ele>11.5</ele><time>2026-04-15T12:31:36Z</time></trkpt><trkpt lat="43.67942537760076" lon="10.632234171035467"><ele>12.666666666666666</ele><time>2026-04-15T12:31:38Z</time></trkpt><trkpt lat="43.67936009082599" lon="10.632257214822841"><ele>13.833333333333334</ele><time>2026-04-15T12:31:39Z</time></trkpt><trkpt lat="43.679281407167885" lon="10.63224293369161"><ele>15.0</ele><time>2026-04-15T12:31:40Z</time></trkpt><trkpt lat="43.67919259552316" lon="10.632211721118944"><ele>15.0</ele><time>2026-04-15T12:31:41Z</time></trkpt><trkpt lat="43.679090413370275" lon="10.632208761542593"><ele>15.0</ele><time>2026-04-15T12:31:42Z</time></trkpt><trkpt lat="43.67898602006242" lon="10.632234203598742"><ele>15.0</ele><time>2026-04-15T12:31:43Z</time></trkpt><trkpt lat="43.67888080831032" lon="10.632263664394173"><ele>15.0</ele><time>2026-04-15T12:31:44Z</time></trkpt><trkpt lat="43.678771031212" lon="10.632249791568475"><ele>15.0</ele><time>2026-04-15T12:31:45Z</time></trkpt><trkpt lat="43.67867065156887" lon="10.632188938835847"><ele>14.5</ele><time>2026-04-15T12:31:46Z</time></trkpt><trkpt lat="43.678564218901855" lon="10.6321311624598"><ele>14.0</ele><time>2026-04-15T12:31:47Z</time></trkpt><trkpt lat="43.67845027194726" lon="10.632085583591508"><ele>13.5</ele><time>2026-04-15T12:31:48Z</time></trkpt><trkpt lat="43.67833038766562" lon="10.632055199158406"><ele>13.0</ele><time>2026-04-15T12:31:49Z</time></trkpt><trkpt lat="43.67820372273785" lon="10.632040810842053"><ele>13.0</ele><time>2026-04-15T12:31:50Z</time></trkpt><trkpt lat="43.678073568091975" lon="10.632047240804653"><ele>13.0</ele><time>2026-04-15T12:31:51Z</time></trkpt><trkpt lat="43.67794232647039" lon="10.632069012440239"><ele>13.0</ele><time>2026-04-15T12:31:52Z</time></trkpt><trkpt lat="43.677810374432596" lon="10.63209772861059"><ele>13.0</ele><time>2026-04-15T12:31:53Z</time></trkpt><trkpt lat="43.677679310954396" lon="10.632135011361536"><ele>13.0</ele><time>2026-04-15T12:31:54Z</time></trkpt><trkpt lat="43.67754518028037" lon="10.632190007385834"><ele>13.0</ele><time>2026-04-15T12:31:55Z</time></trkpt><trkpt lat="43.677416818291334" lon="10.632259971056277"><ele>13.0</ele><time>2026-04-15T12:31:56Z</time></trkpt><trkpt lat="43.67729054800548" lon="10.632349425424104"><ele>13.0</ele><time>2026-04-15T12:31:57Z</time></trkpt><trkpt lat="43.677173449713734" lon="10.632451874188513"><ele>13.0</ele><time>2026-04-15T12:31:58Z</time></trkpt><trkpt lat="43.67706115352591" lon="10.632576671794991"><ele>13.0</ele><time>2026-04-15T12:31:59Z</time></trkpt><trkpt lat="43.67695634619323" lon="10.632720767991943"><ele>13.0</ele><time>2026-04-15T12:32:00Z</time></trkpt><trkpt lat="43.67686118649272" lon="10.63287443445672"><ele>13.0</ele><time>2026-04-15T12:32:01Z</time></trkpt><trkpt lat="43.67677333726453" lon="10.633041164389716"><ele>12.333333333333332</ele><time>2026-04-15T12:32:02Z</time></trkpt><trkpt lat="43.676697182626796" lon="10.633217490471585"><ele>11.666666666666666</ele><time>2026-04-15T12:32:03Z</time></trkpt><trkpt lat="43.676632334783086" lon="10.633410175953701"><ele>11.0</ele><time>2026-04-15T12:32:04Z</time></trkpt><trkpt lat="43.67658303796077" lon="10.633612422126394"><ele>11.0</ele><time>2026-04-15T12:32:05Z</time></trkpt><trkpt lat="43.67654772807547" lon="10.633826692859454"><ele>11.0</ele><time>2026-04-15T12:32:06Z</time></trkpt><trkpt lat="43.67652053029685" lon="10.634042258247083"><ele>11.0</ele><time>2026-04-15T12:32:07Z</time></trkpt><trkpt lat="43.676502885610915" lon="10.634272416425445"><ele>11.333333333333332</ele><time>2026-04-15T12:32:08Z</time></trkpt><trkpt lat="43.67649971746683" lon="10.634498120063213"><ele>11.666666666666666</ele><time>2026-04-15T12:32:09Z</time></trkpt><trkpt lat="43.6765090229729" lon="10.634724100313239"><ele>12.0</ele><time>2026-04-15T12:32:10Z</time></trkpt><trkpt lat="43.67652858895051" lon="10.634956795441877"><ele>12.0</ele><time>2026-04-15T12:32:11Z</time></trkpt><trkpt lat="43.6765524572311" lon="10.635183380897605"><ele>12.0</ele><time>2026-04-15T12:32:12Z</time></trkpt><trkpt lat="43.676580152674646" lon="10.635406208377324"><ele>12.0</ele><time>2026-04-15T12:32:13Z</time></trkpt><trkpt lat="43.676610851957854" lon="10.63563138343305"><ele>12.333333333333332</ele><time>2026-04-15T12:32:14Z</time></trkpt><trkpt lat="43.67664255279976" lon="10.635866075188538"><ele>12.666666666666666</ele><time>2026-04-15T12:32:15Z</time></trkpt><trkpt lat="43.676677734264004" lon="10.6360981130828"><ele>13.0</ele><time>2026-04-15T12:32:16Z</time></trkpt><trkpt lat="43.67671137518931" lon="10.636330154911727"><ele>13.0</ele><time>2026-04-15T12:32:17Z</time></trkpt><trkpt lat="43.67674375543078" lon="10.636564817554904"><ele>13.0</ele><time>2026-04-15T12:32:18Z</time></trkpt><trkpt lat="43.67677719059435" lon="10.63679772308334"><ele>13.0</ele><time>2026-04-15T12:32:19Z</time></trkpt><trkpt lat="43.676810423545845" lon="10.63703707712983"><ele>13.333333333333332</ele><time>2026-04-15T12:32:20Z</time></trkpt><trkpt lat="43.676844378958535" lon="10.637269181510291"><ele>13.666666666666668</ele><time>2026-04-15T12:32:21Z</time></trkpt><trkpt lat="43.67687985456863" lon="10.637502842885805"><ele>14.0</ele><time>2026-04-15T12:32:22Z</time></trkpt><trkpt lat="43.67691364375861" lon="10.637729721791002"><ele>15.666666666666668</ele><time>2026-04-15T12:32:23Z</time></trkpt><trkpt lat="43.676944962117325" lon="10.637958019562852"><ele>17.333333333333332</ele><time>2026-04-15T12:32:24Z</time></trkpt><trkpt lat="43.67697635907104" lon="10.638180540223262"><ele>19.0</ele><time>2026-04-15T12:32:25Z</time></trkpt><trkpt lat="43.677006278316995" lon="10.638395367848519"><ele>19.0</ele><time>2026-04-15T12:32:26Z</time></trkpt><trkpt lat="43.677034687073096" lon="10.63861928644842"><ele>19.0</ele><time>2026-04-15T12:32:27Z</time></trkpt><trkpt lat="43.67706135243463" lon="10.638838673572566"><ele>19.0</ele><time>2026-04-15T12:32:28Z</time></trkpt><trkpt lat="43.67708944970823" lon="10.63904722503868"><ele>18.0</ele><time>2026-04-15T12:32:29Z</time></trkpt><trkpt lat="43.67711659355059" lon="10.63926230486663"><ele>17.0</ele><time>2026-04-15T12:32:30Z</time></trkpt><trkpt lat="43.67714074749868" lon="10.63946826211996"><ele>16.0</ele><time>2026-04-15T12:32:31Z</time></trkpt><trkpt lat="43.67716125630341" lon="10.63967927073504"><ele>15.75</ele><time>2026-04-15T12:32:32Z</time></trkpt><trkpt lat="43.67717668196112" lon="10.63988554367955"><ele>15.5</ele><time>2026-04-15T12:32:33Z</time></trkpt><trkpt lat="43.677186391440806" lon="10.64009459206345"><ele>15.25</ele><time>2026-04-15T12:32:34Z</time></trkpt><trkpt lat="43.67719092996908" lon="10.640292778783143"><ele>15.0</ele><time>2026-04-15T12:32:35Z</time></trkpt><trkpt lat="43.677187405362545" lon="10.640485085532514"><ele>15.5</ele><time>2026-04-15T12:32:36Z</time></trkpt><trkpt lat="43.677176957386834" lon="10.640677058813802"><ele>16.0</ele><time>2026-04-15T12:32:37Z</time></trkpt><trkpt lat="43.67715651994466" lon="10.640867861241485"><ele>16.5</ele><time>2026-04-15T12:32:38Z</time></trkpt><trkpt lat="43.677129087076615" lon="10.641054678620819"><ele>17.0</ele><time>2026-04-15T12:32:39Z</time></trkpt><trkpt lat="43.67709232453388" lon="10.641241572924862"><ele>17.0</ele><time>2026-04-15T12:32:40Z</time></trkpt><trkpt lat="43.67705596537261" lon="10.641422436371178"><ele>17.0</ele><time>2026-04-15T12:32:41Z</time></trkpt><trkpt lat="43.67701473252565" lon="10.641606923481934"><ele>17.0</ele><time>2026-04-15T12:32:42Z</time></trkpt><trkpt lat="43.67696292050421" lon="10.641787933428189"><ele>17.0</ele><time>2026-04-15T12:32:43Z</time></trkpt><trkpt lat="43.67690089459247" lon="10.6419650975924"><ele>17.75</ele><time>2026-04-15T12:32:44Z</time></trkpt><trkpt lat="43.67683258113463" lon="10.642132917785238"><ele>18.5</ele><time>2026-04-15T12:32:45Z</time></trkpt><trkpt lat="43.67675840206853" lon="10.642300582690629"><ele>19.25</ele><time>2026-04-15T12:32:46Z</time></trkpt><trkpt lat="43.67667969305988" lon="10.642456886429619"><ele>20.0</ele><time>2026-04-15T12:32:47Z</time></trkpt><trkpt lat="43.67660022952806" lon="10.642601176290402"><ele>20.0</ele><time>2026-04-15T12:32:48Z</time></trkpt><trkpt lat="43.676517413963495" lon="10.642738081963811"><ele>20.0</ele><time>2026-04-15T12:32:49Z</time></trkpt><trkpt lat="43.67643061040587" lon="10.642870972598653"><ele>20.0</ele><time>2026-04-15T12:32:50Z</time></trkpt><trkpt lat="43.67634043700433" lon="10.642999645250002"><ele>20.0</ele><time>2026-04-15T12:32:51Z</time></trkpt><trkpt lat="43.67624833194241" lon="10.643117210124021"><ele>19.0</ele><time>2026-04-15T12:32:52Z</time></trkpt><trkpt lat="43.6761537742679" lon="10.643223022880541"><ele>18.0</ele><time>2026-04-15T12:32:53Z</time></trkpt><trkpt lat="43.67606018554725" lon="10.643316826445254"><ele>17.0</ele><time>2026-04-15T12:32:54Z</time></trkpt><trkpt lat="43.67597144316532" lon="10.643400499662775"><ele>16.0</ele><time>2026-04-15T12:32:55Z</time></trkpt><trkpt lat="43.67589320901386" lon="10.643467448459413"><ele>15.0</ele><time>2026-04-15T12:32:56Z</time></trkpt><trkpt lat="43.67581401919905" lon="10.643525459514052"><ele>15.0</ele><time>2026-04-15T12:32:57Z</time></trkpt><trkpt lat="43.67573479704199" lon="10.643569055335638"><ele>15.0</ele><time>2026-04-15T12:32:58Z</time></trkpt><trkpt lat="43.675649156049296" lon="10.643595885709201"><ele>15.0</ele><time>2026-04-15T12:32:59Z</time></trkpt><trkpt lat="43.675550626158945" lon="10.643605496870748"><ele>15.0</ele><time>2026-04-15T12:33:00Z</time></trkpt><trkpt lat="43.67545022494909" lon="10.643623044174845"><ele>15.0</ele><time>2026-04-15T12:33:01Z</time></trkpt><trkpt lat="43.67536708949644" lon="10.64369428144876"><ele>14.5</ele><time>2026-04-15T12:33:02Z</time></trkpt><trkpt lat="43.67530949956667" lon="10.64380903885551"><ele>14.0</ele><time>2026-04-15T12:33:03Z</time></trkpt><trkpt lat="43.675301305709596" lon="10.643958078579324"><ele>13.5</ele><time>2026-04-15T12:33:04Z</time></trkpt><trkpt lat="43.6753223010768" lon="10.644113152347959"><ele>13.0</ele><time>2026-04-15T12:33:05Z</time></trkpt><trkpt lat="43.675314363875295" lon="10.644438781333392"><ele>12.666666666666666</ele><time>2026-04-15T12:33:07Z</time></trkpt><trkpt lat="43.67526891231567" lon="10.64461368666589"><ele>12.333333333333332</ele><time>2026-04-15T12:33:08Z</time></trkpt><trkpt lat="43.675168165800706" lon="10.644792982775181"><ele>12.0</ele><time>2026-04-15T12:33:09Z</time></trkpt><trkpt lat="43.675074191856154" lon="10.644985783151606"><ele>12.0</ele><time>2026-04-15T12:33:10Z</time></trkpt><trkpt lat="43.67496324019408" lon="10.645188051827969"><ele>12.0</ele><time>2026-04-15T12:33:11Z</time></trkpt><trkpt lat="43.674832022273215" lon="10.64539981825265"><ele>12.0</ele><time>2026-04-15T12:33:12Z</time></trkpt><trkpt lat="43.674683213778394" lon="10.645615526549063"><ele>12.0</ele><time>2026-04-15T12:33:13Z</time></trkpt><trkpt lat="43.67452314223521" lon="10.645820279546804"><ele>12.0</ele><time>2026-04-15T12:33:14Z</time></trkpt><trkpt lat="43.67435153374574" lon="10.64602051821878"><ele>12.0</ele><time>2026-04-15T12:33:15Z</time></trkpt><trkpt lat="43.67417298429285" lon="10.646221894108507"><ele>12.0</ele><time>2026-04-15T12:33:16Z</time></trkpt><trkpt lat="43.673994001942326" lon="10.646432158515735"><ele>12.0</ele><time>2026-04-15T12:33:17Z</time></trkpt><trkpt lat="43.67381065732855" lon="10.646654984021776"><ele>12.0</ele><time>2026-04-15T12:33:18Z</time></trkpt><trkpt lat="43.6736317919299" lon="10.646874084030562"><ele>12.0</ele><time>2026-04-15T12:33:19Z</time></trkpt><trkpt lat="43.673452779806254" lon="10.647089574245843"><ele>12.333333333333332</ele><time>2026-04-15T12:33:20Z</time></trkpt><trkpt lat="43.67328923032359" lon="10.64728617599103"><ele>12.666666666666666</ele><time>2026-04-15T12:33:21Z</time></trkpt><trkpt lat="43.673129745091515" lon="10.647482675396464"><ele>13.0</ele><time>2026-04-15T12:33:22Z</time></trkpt><trkpt lat="43.672975884496445" lon="10.647684356445085"><ele>13.666666666666666</ele><time>2026-04-15T12:33:23Z</time></trkpt><trkpt lat="43.67283157626852" lon="10.647904435275644"><ele>14.333333333333332</ele><time>2026-04-15T12:33:24Z</time></trkpt><trkpt lat="43.672702711802835" lon="10.648141220679701"><ele>15.0</ele><time>2026-04-15T12:33:25Z</time></trkpt><trkpt lat="43.67257666302649" lon="10.648399954262864"><ele>14.666666666666668</ele><time>2026-04-15T12:33:26Z</time></trkpt><trkpt lat="43.67247015069233" lon="10.648657951897237"><ele>14.333333333333334</ele><time>2026-04-15T12:33:27Z</time></trkpt><trkpt lat="43.67238406419878" lon="10.648915312201597"><ele>14.0</ele><time>2026-04-15T12:33:28Z</time></trkpt><trkpt lat="43.67231861967256" lon="10.649157489014872"><ele>14.0</ele><time>2026-04-15T12:33:29Z</time></trkpt><trkpt lat="43.67226695609043" lon="10.649393821890285"><ele>14.0</ele><time>2026-04-15T12:33:30Z</time></trkpt><trkpt lat="43.672227763334895" lon="10.649607096177048"><ele>14.0</ele><time>2026-04-15T12:33:31Z</time></trkpt><trkpt lat="43.67219091898508" lon="10.649796604823472"><ele>14.0</ele><time>2026-04-15T12:33:32Z</time></trkpt><trkpt lat="43.672141200351476" lon="10.649965852415406"><ele>14.0</ele><time>2026-04-15T12:33:33Z</time></trkpt><trkpt lat="43.67206999032488" lon="10.650122292824722"><ele>14.0</ele><time>2026-04-15T12:33:34Z</time></trkpt><trkpt lat="43.67199816865387" lon="10.650268886931466"><ele>14.0</ele><time>2026-04-15T12:33:35Z</time></trkpt><trkpt lat="43.671978060873364" lon="10.650429036517304"><ele>13.75</ele><time>2026-04-15T12:33:36Z</time></trkpt><trkpt lat="43.672017757927826" lon="10.650598232044741"><ele>13.5</ele><time>2026-04-15T12:33:37Z</time></trkpt><trkpt lat="43.67209354975061" lon="10.650770380116345"><ele>13.25</ele><time>2026-04-15T12:33:38Z</time></trkpt><trkpt lat="43.67214685788925" lon="10.650973467238524"><ele>13.0</ele><time>2026-04-15T12:33:39Z</time></trkpt><trkpt lat="43.67217517186707" lon="10.651203026463305"><ele>13.0</ele><time>2026-04-15T12:33:40Z</time></trkpt><trkpt lat="43.67213231541284" lon="10.6514744707712"><ele>13.0</ele><time>2026-04-15T12:33:41Z</time></trkpt><trkpt lat="43.67211783462501" lon="10.651743441492291"><ele>13.0</ele><time>2026-04-15T12:33:42Z</time></trkpt><trkpt lat="43.67210523350819" lon="10.652024580316462"><ele>13.0</ele><time>2026-04-15T12:33:43Z</time></trkpt><trkpt lat="43.672091487661156" lon="10.652303436421633"><ele>13.0</ele><time>2026-04-15T12:33:44Z</time></trkpt><trkpt lat="43.672077295254404" lon="10.652597122419282"><ele>13.0</ele><time>2026-04-15T12:33:45Z</time></trkpt><trkpt lat="43.67206153564508" lon="10.65290604442593"><ele>13.5</ele><time>2026-04-15T12:33:46Z</time></trkpt><trkpt lat="43.6720379021419" lon="10.653222147549451"><ele>14.0</ele><time>2026-04-15T12:33:47Z</time></trkpt><trkpt lat="43.67200018546166" lon="10.653547529755768"><ele>14.5</ele><time>2026-04-15T12:33:48Z</time></trkpt><trkpt lat="43.67194431476509" lon="10.65386974105887"><ele>15.0</ele><time>2026-04-15T12:33:49Z</time></trkpt><trkpt lat="43.67186709378186" lon="10.654179286923538"><ele>15.0</ele><time>2026-04-15T12:33:50Z</time></trkpt><trkpt lat="43.67176096296295" lon="10.654485092193989"><ele>15.0</ele><time>2026-04-15T12:33:51Z</time></trkpt><trkpt lat="43.67163525494836" lon="10.65475163625807"><ele>15.0</ele><time>2026-04-15T12:33:52Z</time></trkpt><trkpt lat="43.67149126675761" lon="10.655003262283078"><ele>15.0</ele><time>2026-04-15T12:33:53Z</time></trkpt><trkpt lat="43.671327003880826" lon="10.65523970289791"><ele>15.0</ele><time>2026-04-15T12:33:54Z</time></trkpt><trkpt lat="43.6711437881841" lon="10.655451768341756"><ele>15.0</ele><time>2026-04-15T12:33:55Z</time></trkpt><trkpt lat="43.670951057796216" lon="10.655627299847847"><ele>15.0</ele><time>2026-04-15T12:33:56Z</time></trkpt><trkpt lat="43.67075648388146" lon="10.655768933747677"><ele>15.0</ele><time>2026-04-15T12:33:57Z</time></trkpt><trkpt lat="43.67056367883448" lon="10.655878069069388"><ele>15.0</ele><time>2026-04-15T12:33:58Z</time></trkpt><trkpt lat="43.67036580711205" lon="10.655953276252458"><ele>14.333333333333332</ele><time>2026-04-15T12:33:59Z</time></trkpt><trkpt lat="43.67017186718466" lon="10.656004640634187"><ele>13.666666666666666</ele><time>2026-04-15T12:34:00Z</time></trkpt><trkpt lat="43.66997909807519" lon="10.656038474348193"><ele>13.0</ele><time>2026-04-15T12:34:01Z</time></trkpt><trkpt lat="43.66979726551514" lon="10.656050071486424"><ele>13.0</ele><time>2026-04-15T12:34:02Z</time></trkpt><trkpt lat="43.669614357648946" lon="10.656049400920498"><ele>13.0</ele><time>2026-04-15T12:34:03Z</time></trkpt><trkpt lat="43.66943271170675" lon="10.656036009522927"><ele>13.0</ele><time>2026-04-15T12:34:04Z</time></trkpt><trkpt lat="43.66925799116756" lon="10.656013898749647"><ele>13.333333333333332</ele><time>2026-04-15T12:34:05Z</time></trkpt><trkpt lat="43.66908653279467" lon="10.655991999329661"><ele>13.666666666666668</ele><time>2026-04-15T12:34:06Z</time></trkpt><trkpt lat="43.66891431148048" lon="10.655965994810582"><ele>14.0</ele><time>2026-04-15T12:34:07Z</time></trkpt><trkpt lat="43.66873786200947" lon="10.655936702797545"><ele>14.0</ele><time>2026-04-15T12:34:08Z</time></trkpt><trkpt lat="43.66856813827985" lon="10.655908994340137"><ele>14.0</ele><time>2026-04-15T12:34:09Z</time></trkpt><trkpt lat="43.668402824393915" lon="10.655886274078126"><ele>14.0</ele><time>2026-04-15T12:34:10Z</time></trkpt><trkpt lat="43.66823373269878" lon="10.655867386548291"><ele>14.0</ele><time>2026-04-15T12:34:11Z</time></trkpt><trkpt lat="43.668071274112606" lon="10.655849443968094"><ele>14.0</ele><time>2026-04-15T12:34:12Z</time></trkpt><trkpt lat="43.66791465400624" lon="10.655828034978594"><ele>14.0</ele><time>2026-04-15T12:34:13Z</time></trkpt><trkpt lat="43.66776118103613" lon="10.655805087355999"><ele>14.0</ele><time>2026-04-15T12:34:14Z</time></trkpt><trkpt lat="43.66761613650474" lon="10.655781809571488"><ele>14.0</ele><time>2026-04-15T12:34:15Z</time></trkpt><trkpt lat="43.667479877096454" lon="10.65576169443811"><ele>14.0</ele><time>2026-04-15T12:34:16Z</time></trkpt><trkpt lat="43.66735206270941" lon="10.655744530993186"><ele>14.0</ele><time>2026-04-15T12:34:17Z</time></trkpt><trkpt lat="43.66723231856283" lon="10.655728886612799"><ele>14.0</ele><time>2026-04-15T12:34:18Z</time></trkpt><trkpt lat="43.66711666951249" lon="10.655711173566829"><ele>13.999999999999998</ele><time>2026-04-15T12:34:19Z</time></trkpt><trkpt lat="43.66700323135997" lon="10.655694533777531"><ele>13.999999999999998</ele><time>2026-04-15T12:34:20Z</time></trkpt><trkpt lat="43.666893214198204" lon="10.655678924758737"><ele>14.0</ele><time>2026-04-15T12:34:21Z</time></trkpt><trkpt lat="43.66679375284668" lon="10.655663957524274"><ele>14.0</ele><time>2026-04-15T12:34:22Z</time></trkpt><trkpt lat="43.66670599146994" lon="10.655648372375985"><ele>13.833333333333334</ele><time>2026-04-15T12:34:23Z</time></trkpt><trkpt lat="43.666626421459476" lon="10.655627145611806"><ele>13.666666666666668</ele><time>2026-04-15T12:34:24Z</time></trkpt><trkpt lat="43.66656037636844" lon="10.655598722408987"><ele>13.5</ele><time>2026-04-15T12:34:25Z</time></trkpt><trkpt lat="43.66649834473098" lon="10.655565884643282"><ele>13.333333333333332</ele><time>2026-04-15T12:34:26Z</time></trkpt><trkpt lat="43.666444109219846" lon="10.655508133979687"><ele>13.166666666666666</ele><time>2026-04-15T12:34:27Z</time></trkpt><trkpt lat="43.66638259527524" lon="10.655421614431999"><ele>13.0</ele><time>2026-04-15T12:34:28Z</time></trkpt><trkpt lat="43.66630671780702" lon="10.655325267555618"><ele>12.8</ele><time>2026-04-15T12:34:29Z</time></trkpt><trkpt lat="43.6661278226885" lon="10.655263825203638"><ele>12.600000000000001</ele><time>2026-04-15T12:34:31Z</time></trkpt><trkpt lat="43.66604157412467" lon="10.655300249300824"><ele>12.399999999999999</ele><time>2026-04-15T12:34:32Z</time></trkpt><trkpt lat="43.66597137536317" lon="10.655368273065454"><ele>12.2</ele><time>2026-04-15T12:34:33Z</time></trkpt><trkpt lat="43.66590569054511" lon="10.655447409578844"><ele>12.0</ele><time>2026-04-15T12:34:34Z</time></trkpt><trkpt lat="43.66584483344898" lon="10.65551570314108"><ele>12.333333333333334</ele><time>2026-04-15T12:34:35Z</time></trkpt><trkpt lat="43.665778070906015" lon="10.655571167478703"><ele>12.666666666666668</ele><time>2026-04-15T12:34:36Z</time></trkpt><trkpt lat="43.66570022838159" lon="10.655616675836194"><ele>13.0</ele><time>2026-04-15T12:34:37Z</time></trkpt><trkpt lat="43.66561264023256" lon="10.655666497830705"><ele>13.333333333333334</ele><time>2026-04-15T12:34:38Z</time></trkpt><trkpt lat="43.66553387719202" lon="10.655737970136709"><ele>13.666666666666668</ele><time>2026-04-15T12:34:39Z</time></trkpt><trkpt lat="43.66546872157171" lon="10.655834490384033"><ele>14.0</ele><time>2026-04-15T12:34:40Z</time></trkpt><trkpt lat="43.66541986958599" lon="10.655958832701453"><ele>14.0</ele><time>2026-04-15T12:34:41Z</time></trkpt><trkpt lat="43.66538391546793" lon="10.656115663548446"><ele>14.0</ele><time>2026-04-15T12:34:42Z</time></trkpt><trkpt lat="43.66535803190733" lon="10.6563139304819"><ele>14.0</ele><time>2026-04-15T12:34:43Z</time></trkpt><trkpt lat="43.665324992631625" lon="10.656572228419282"><ele>14.0</ele><time>2026-04-15T12:34:44Z</time></trkpt><trkpt lat="43.66527671149605" lon="10.656860613281767"><ele>14.0</ele><time>2026-04-15T12:34:45Z</time></trkpt><trkpt lat="43.665228994106606" lon="10.657143152288926"><ele>14.0</ele><time>2026-04-15T12:34:46Z</time></trkpt><trkpt lat="43.66518081726852" lon="10.657379380556456"><ele>14.0</ele><time>2026-04-15T12:34:47Z</time></trkpt><trkpt lat="43.66513122325417" lon="10.6575621223594"><ele>13.999999999999998</ele><time>2026-04-15T12:34:48Z</time></trkpt><trkpt lat="43.66507614618623" lon="10.657712811631846"><ele>13.999999999999998</ele><time>2026-04-15T12:34:49Z</time></trkpt><trkpt lat="43.66500971246912" lon="10.657814067497"><ele>14.0</ele><time>2026-04-15T12:34:50Z</time></trkpt><trkpt lat="43.664944260871465" lon="10.65785802802158"><ele>14.0</ele><time>2026-04-15T12:34:51Z</time></trkpt><trkpt lat="43.6648574799294" lon="10.657835456944941"><ele>14.0</ele><time>2026-04-15T12:34:54Z</time></trkpt><trkpt lat="43.66477523376616" lon="10.657833761172766"><ele>14.0</ele><time>2026-04-15T12:34:55Z</time></trkpt><trkpt lat="43.66465971277689" lon="10.657834528959796"><ele>14.0</ele><time>2026-04-15T12:34:56Z</time></trkpt><trkpt lat="43.66453260750231" lon="10.657854361413872"><ele>14.0</ele><time>2026-04-15T12:34:57Z</time></trkpt><trkpt lat="43.66439411428069" lon="10.657852151727356"><ele>14.0</ele><time>2026-04-15T12:34:58Z</time></trkpt><trkpt lat="43.6642534560637" lon="10.657797879661393"><ele>14.0</ele><time>2026-04-15T12:34:59Z</time></trkpt><trkpt lat="43.66411685637746" lon="10.657699559080369"><ele>14.0</ele><time>2026-04-15T12:35:00Z</time></trkpt><trkpt lat="43.66397937101784" lon="10.657622465438518"><ele>14.0</ele><time>2026-04-15T12:35:01Z</time></trkpt><trkpt lat="43.66383623912202" lon="10.657569235555354"><ele>14.0</ele><time>2026-04-15T12:35:02Z</time></trkpt><trkpt lat="43.66368270877235" lon="10.657528237854919"><ele>14.0</ele><time>2026-04-15T12:35:03Z</time></trkpt><trkpt lat="43.663528442051756" lon="10.6574989714471"><ele>14.0</ele><time>2026-04-15T12:35:04Z</time></trkpt><trkpt lat="43.663375323338734" lon="10.657480648592637"><ele>14.0</ele><time>2026-04-15T12:35:05Z</time></trkpt><trkpt lat="43.66321544459365" lon="10.657476702619936"><ele>14.0</ele><time>2026-04-15T12:35:06Z</time></trkpt><trkpt lat="43.66305445447114" lon="10.657480333884878"><ele>14.0</ele><time>2026-04-15T12:35:07Z</time></trkpt><trkpt lat="43.66289226675334" lon="10.657485454031214"><ele>13.666666666666668</ele><time>2026-04-15T12:35:08Z</time></trkpt><trkpt lat="43.66272742487938" lon="10.657492968737051"><ele>13.333333333333332</ele><time>2026-04-15T12:35:09Z</time></trkpt><trkpt lat="43.66256350028942" lon="10.657498962621869"><ele>13.0</ele><time>2026-04-15T12:35:10Z</time></trkpt><trkpt lat="43.66239723474588" lon="10.657506661898477"><ele>13.0</ele><time>2026-04-15T12:35:11Z</time></trkpt><trkpt lat="43.66222663707451" lon="10.657516852538874"><ele>13.0</ele><time>2026-04-15T12:35:12Z</time></trkpt><trkpt lat="43.66205650865617" lon="10.657527703849114"><ele>13.0</ele><time>2026-04-15T12:35:13Z</time></trkpt><trkpt lat="43.66187356639637" lon="10.657536330562767"><ele>13.0</ele><time>2026-04-15T12:35:14Z</time></trkpt><trkpt lat="43.66168679728304" lon="10.657544119979782"><ele>13.0</ele><time>2026-04-15T12:35:15Z</time></trkpt><trkpt lat="43.66149668261878" lon="10.65755129066251"><ele>13.0</ele><time>2026-04-15T12:35:16Z</time></trkpt><trkpt lat="43.66130935350494" lon="10.657560922075618"><ele>13.0</ele><time>2026-04-15T12:35:17Z</time></trkpt><trkpt lat="43.661126995846885" lon="10.657573037898274"><ele>13.0</ele><time>2026-04-15T12:35:18Z</time></trkpt><trkpt lat="43.660939159633614" lon="10.657584150159614"><ele>13.0</ele><time>2026-04-15T12:35:19Z</time></trkpt><trkpt lat="43.66074564095199" lon="10.657592841997726"><ele>13.0</ele><time>2026-04-15T12:35:20Z</time></trkpt><trkpt lat="43.66054712222289" lon="10.657600156742344"><ele>13.0</ele><time>2026-04-15T12:35:21Z</time></trkpt><trkpt lat="43.660342177276654" lon="10.657607873797712"><ele>13.0</ele><time>2026-04-15T12:35:22Z</time></trkpt><trkpt lat="43.660150595488524" lon="10.657617018185414"><ele>13.0</ele><time>2026-04-15T12:35:23Z</time></trkpt><trkpt lat="43.659976126400515" lon="10.657626209804649"><ele>13.0</ele><time>2026-04-15T12:35:24Z</time></trkpt><trkpt lat="43.65980612137138" lon="10.657638056028972"><ele>13.0</ele><time>2026-04-15T12:35:25Z</time></trkpt><trkpt lat="43.65964082318569" lon="10.657647943118942"><ele>13.0</ele><time>2026-04-15T12:35:26Z</time></trkpt><trkpt lat="43.659480710835" lon="10.657654423846951"><ele>13.0</ele><time>2026-04-15T12:35:27Z</time></trkpt><trkpt lat="43.659324854384266" lon="10.657660711199837"><ele>13.0</ele><time>2026-04-15T12:35:28Z</time></trkpt><trkpt lat="43.65917968339559" lon="10.657668007214673"><ele>13.5</ele><time>2026-04-15T12:35:29Z</time></trkpt><trkpt lat="43.65904379579356" lon="10.657674992490302"><ele>14.0</ele><time>2026-04-15T12:35:30Z</time></trkpt><trkpt lat="43.65891456922962" lon="10.657681745652795"><ele>14.5</ele><time>2026-04-15T12:35:31Z</time></trkpt><trkpt lat="43.65877775639721" lon="10.657688896870184"><ele>15.0</ele><time>2026-04-15T12:35:32Z</time></trkpt><trkpt lat="43.65864247063338" lon="10.657694309832216"><ele>15.0</ele><time>2026-04-15T12:35:33Z</time></trkpt><trkpt lat="43.65850147796342" lon="10.657699284482575"><ele>15.0</ele><time>2026-04-15T12:35:34Z</time></trkpt><trkpt lat="43.658355706178" lon="10.65770590668768"><ele>15.0</ele><time>2026-04-15T12:35:35Z</time></trkpt><trkpt lat="43.65821223479067" lon="10.657713936343278"><ele>15.0</ele><time>2026-04-15T12:35:36Z</time></trkpt><trkpt lat="43.6580725060881" lon="10.657720068626658"><ele>15.0</ele><time>2026-04-15T12:35:37Z</time></trkpt><trkpt lat="43.657931756410385" lon="10.657727230755883"><ele>15.0</ele><time>2026-04-15T12:35:38Z</time></trkpt><trkpt lat="43.65779359832345" lon="10.657735457023312"><ele>15.0</ele><time>2026-04-15T12:35:39Z</time></trkpt><trkpt lat="43.65765250136617" lon="10.657743232137555"><ele>15.0</ele><time>2026-04-15T12:35:40Z</time></trkpt><trkpt lat="43.657513629229925" lon="10.657748868411641"><ele>15.25</ele><time>2026-04-15T12:35:41Z</time></trkpt><trkpt lat="43.657373964080044" lon="10.657754307056177"><ele>15.5</ele><time>2026-04-15T12:35:42Z</time></trkpt><trkpt lat="43.657231421883786" lon="10.657759146773527"><ele>15.75</ele><time>2026-04-15T12:35:43Z</time></trkpt><trkpt lat="43.657093160343315" lon="10.657761350901408"><ele>16.0</ele><time>2026-04-15T12:35:44Z</time></trkpt><trkpt lat="43.65695355702925" lon="10.657756044498687"><ele>16.0</ele><time>2026-04-15T12:35:45Z</time></trkpt><trkpt lat="43.65681923804767" lon="10.65773876067316"><ele>16.0</ele><time>2026-04-15T12:35:46Z</time></trkpt><trkpt lat="43.65669083747372" lon="10.657714406233115"><ele>16.0</ele><time>2026-04-15T12:35:47Z</time></trkpt><trkpt lat="43.65656458356422" lon="10.657680130264492"><ele>16.0</ele><time>2026-04-15T12:35:48Z</time></trkpt><trkpt lat="43.656432411228266" lon="10.657630502143338"><ele>16.0</ele><time>2026-04-15T12:35:49Z</time></trkpt><trkpt lat="43.65630801471101" lon="10.657573383370531"><ele>16.0</ele><time>2026-04-15T12:35:50Z</time></trkpt><trkpt lat="43.65618229236515" lon="10.657506570060123"><ele>16.0</ele><time>2026-04-15T12:35:51Z</time></trkpt><trkpt lat="43.65604973923596" lon="10.657424624181953"><ele>16.0</ele><time>2026-04-15T12:35:52Z</time></trkpt><trkpt lat="43.655922671333116" lon="10.65733235331288"><ele>15.666666666666666</ele><time>2026-04-15T12:35:53Z</time></trkpt><trkpt lat="43.655792382669496" lon="10.657224032372637"><ele>15.333333333333332</ele><time>2026-04-15T12:35:54Z</time></trkpt><trkpt lat="43.655667400264285" lon="10.657099095886855"><ele>15.0</ele><time>2026-04-15T12:35:55Z</time></trkpt><trkpt lat="43.655551605284906" lon="10.656957697452459"><ele>15.0</ele><time>2026-04-15T12:35:56Z</time></trkpt><trkpt lat="43.655445133943964" lon="10.656814678589779"><ele>15.0</ele><time>2026-04-15T12:35:57Z</time></trkpt><trkpt lat="43.655343088203416" lon="10.656670723586442"><ele>15.0</ele><time>2026-04-15T12:35:58Z</time></trkpt><trkpt lat="43.655255918695154" lon="10.656545609975662"><ele>15.0</ele><time>2026-04-15T12:35:59Z</time></trkpt><trkpt lat="43.65518283314023" lon="10.656441924725264"><ele>15.0</ele><time>2026-04-15T12:36:00Z</time></trkpt><trkpt lat="43.65511994572007" lon="10.65635060492257"><ele>15.0</ele><time>2026-04-15T12:36:01Z</time></trkpt><trkpt lat="43.65506179705521" lon="10.656262626450193"><ele>15.0</ele><time>2026-04-15T12:36:02Z</time></trkpt><trkpt lat="43.655013964321604" lon="10.656170123744177"><ele>15.0</ele><time>2026-04-15T12:36:03Z</time></trkpt><trkpt lat="43.65498372509689" lon="10.656080652132625"><ele>15.0</ele><time>2026-04-15T12:36:04Z</time></trkpt><trkpt lat="43.65496480125969" lon="10.655994205924465"><ele>15.0</ele><time>2026-04-15T12:36:05Z</time></trkpt><trkpt lat="43.65495055104454" lon="10.655897042681604"><ele>15.0</ele><time>2026-04-15T12:36:06Z</time></trkpt><trkpt lat="43.65493722893883" lon="10.65578500834898"><ele>15.0</ele><time>2026-04-15T12:36:07Z</time></trkpt><trkpt lat="43.65491888958997" lon="10.655656719605254"><ele>15.0</ele><time>2026-04-15T12:36:08Z</time></trkpt><trkpt lat="43.65488745885965" lon="10.655525404920965"><ele>15.0</ele><time>2026-04-15T12:36:09Z</time></trkpt><trkpt lat="43.65483211871985" lon="10.655395747384137"><ele>15.0</ele><time>2026-04-15T12:36:10Z</time></trkpt><trkpt lat="43.654751899717496" lon="10.655275215342364"><ele>15.0</ele><time>2026-04-15T12:36:11Z</time></trkpt><trkpt lat="43.65465734245221" lon="10.655156761192366"><ele>15.0</ele><time>2026-04-15T12:36:12Z</time></trkpt><trkpt lat="43.65455888580349" lon="10.65504173924477"><ele>15.0</ele><time>2026-04-15T12:36:13Z</time></trkpt><trkpt lat="43.65446247497373" lon="10.654949230035424"><ele>15.0</ele><time>2026-04-15T12:36:14Z</time></trkpt><trkpt lat="43.654361537495824" lon="10.6549018168893"><ele>15.0</ele><time>2026-04-15T12:36:15Z</time></trkpt><trkpt lat="43.654258162884595" lon="10.654906396573557"><ele>15.0</ele><time>2026-04-15T12:36:16Z</time></trkpt><trkpt lat="43.65415536458776" lon="10.654951570467615"><ele>15.0</ele><time>2026-04-15T12:36:17Z</time></trkpt><trkpt lat="43.65405257613186" lon="10.655026400662281"><ele>15.0</ele><time>2026-04-15T12:36:18Z</time></trkpt><trkpt lat="43.65397708041089" lon="10.655134868390116"><ele>15.0</ele><time>2026-04-15T12:36:19Z</time></trkpt><trkpt lat="43.65391226734348" lon="10.65525791873412"><ele>15.0</ele><time>2026-04-15T12:36:20Z</time></trkpt><trkpt lat="43.65375045303292" lon="10.655229793837613"><ele>15.0</ele><time>2026-04-15T12:36:21Z</time></trkpt><trkpt lat="43.65362545828082" lon="10.655195398048784"><ele>15.0</ele><time>2026-04-15T12:36:22Z</time></trkpt><trkpt lat="43.65348835532273" lon="10.655135151470914"><ele>15.0</ele><time>2026-04-15T12:36:23Z</time></trkpt><trkpt lat="43.653338071325265" lon="10.65509224273495"><ele>16.333333333333332</ele><time>2026-04-15T12:36:24Z</time></trkpt><trkpt lat="43.65316006560659" lon="10.655074146804484"><ele>17.666666666666664</ele><time>2026-04-15T12:36:25Z</time></trkpt><trkpt lat="43.65295355231757" lon="10.655074389689588"><ele>19.0</ele><time>2026-04-15T12:36:26Z</time></trkpt><trkpt lat="43.65271486033203" lon="10.655104519834325"><ele>20.5</ele><time>2026-04-15T12:36:27Z</time></trkpt><trkpt lat="43.65246815230234" lon="10.65516736228723"><ele>22.0</ele><time>2026-04-15T12:36:28Z</time></trkpt><trkpt lat="43.65222542462553" lon="10.655264179718948"><ele>23.0</ele><time>2026-04-15T12:36:29Z</time></trkpt><trkpt lat="43.6519689239244" lon="10.655394208224603"><ele>24.0</ele><time>2026-04-15T12:36:30Z</time></trkpt><trkpt lat="43.65170143029158" lon="10.655531564704884"><ele>25.0</ele><time>2026-04-15T12:36:31Z</time></trkpt><trkpt lat="43.651474810908674" lon="10.655644690383925"><ele>26.0</ele><time>2026-04-15T12:36:32Z</time></trkpt><trkpt lat="43.65127476022456" lon="10.655739551220357"><ele>26.666666666666664</ele><time>2026-04-15T12:36:33Z</time></trkpt><trkpt lat="43.65109154083456" lon="10.655826103891261"><ele>27.333333333333336</ele><time>2026-04-15T12:36:34Z</time></trkpt><trkpt lat="43.65091545394403" lon="10.655911618363897"><ele>28.0</ele><time>2026-04-15T12:36:35Z</time></trkpt><trkpt lat="43.650748086289575" lon="10.655991112642862"><ele>28.0</ele><time>2026-04-15T12:36:36Z</time></trkpt><trkpt lat="43.650578739006534" lon="10.656062931686236"><ele>28.0</ele><time>2026-04-15T12:36:37Z</time></trkpt><trkpt lat="43.650400499536985" lon="10.65611204029367"><ele>28.0</ele><time>2026-04-15T12:36:38Z</time></trkpt><trkpt lat="43.65020187682427" lon="10.656133157151169"><ele>28.666666666666668</ele><time>2026-04-15T12:36:39Z</time></trkpt><trkpt lat="43.64998887755702" lon="10.656135935488196"><ele>29.333333333333336</ele><time>2026-04-15T12:36:40Z</time></trkpt><trkpt lat="43.64977173613077" lon="10.65611674999837"><ele>30.0</ele><time>2026-04-15T12:36:41Z</time></trkpt><trkpt lat="43.649551341685715" lon="10.656087975793257"><ele>29.333333333333336</ele><time>2026-04-15T12:36:42Z</time></trkpt><trkpt lat="43.64935082081837" lon="10.656053189456989"><ele>28.666666666666668</ele><time>2026-04-15T12:36:43Z</time></trkpt><trkpt lat="43.649169328532366" lon="10.65601908040103"><ele>28.0</ele><time>2026-04-15T12:36:44Z</time></trkpt><trkpt lat="43.64900377590553" lon="10.65598411391242"><ele>28.0</ele><time>2026-04-15T12:36:45Z</time></trkpt><trkpt lat="43.64884202944747" lon="10.655950697896824"><ele>28.0</ele><time>2026-04-15T12:36:46Z</time></trkpt><trkpt lat="43.64868729592891" lon="10.655919948954766"><ele>28.0</ele><time>2026-04-15T12:36:47Z</time></trkpt><trkpt lat="43.648530140653705" lon="10.655890027743014"><ele>29.0</ele><time>2026-04-15T12:36:48Z</time></trkpt><trkpt lat="43.6483698655558" lon="10.655858278754453"><ele>30.0</ele><time>2026-04-15T12:36:49Z</time></trkpt><trkpt lat="43.648217734360074" lon="10.655818535627786"><ele>31.0</ele><time>2026-04-15T12:36:50Z</time></trkpt><trkpt lat="43.648064816086666" lon="10.65576424645799"><ele>31.0</ele><time>2026-04-15T12:36:51Z</time></trkpt><trkpt lat="43.64791052689828" lon="10.655699215382198"><ele>31.0</ele><time>2026-04-15T12:36:52Z</time></trkpt><trkpt lat="43.64776229657488" lon="10.655619968946757"><ele>31.0</ele><time>2026-04-15T12:36:53Z</time></trkpt><trkpt lat="43.647613048570804" lon="10.655531347133838"><ele>31.0</ele><time>2026-04-15T12:36:54Z</time></trkpt><trkpt lat="43.64746864443593" lon="10.655430407947748"><ele>31.0</ele><time>2026-04-15T12:36:55Z</time></trkpt><trkpt lat="43.64732520721774" lon="10.655315511367524"><ele>31.0</ele><time>2026-04-15T12:36:56Z</time></trkpt><trkpt lat="43.64718741465937" lon="10.655192427323959"><ele>31.333333333333336</ele><time>2026-04-15T12:36:57Z</time></trkpt><trkpt lat="43.647048945352005" lon="10.655059193873447"><ele>31.666666666666664</ele><time>2026-04-15T12:36:58Z</time></trkpt><trkpt lat="43.646917310293716" lon="10.654915768674261"><ele>32.0</ele><time>2026-04-15T12:36:59Z</time></trkpt><trkpt lat="43.64678955624916" lon="10.654759771855982"><ele>31.333333333333332</ele><time>2026-04-15T12:37:00Z</time></trkpt><trkpt lat="43.64666848434243" lon="10.65459609611808"><ele>30.666666666666664</ele><time>2026-04-15T12:37:01Z</time></trkpt><trkpt lat="43.64655183166627" lon="10.654422661732918"><ele>30.0</ele><time>2026-04-15T12:37:02Z</time></trkpt><trkpt lat="43.64643842899047" lon="10.654228359458992"><ele>28.666666666666664</ele><time>2026-04-15T12:37:03Z</time></trkpt><trkpt lat="43.64633358359686" lon="10.654025418596708"><ele>27.333333333333332</ele><time>2026-04-15T12:37:04Z</time></trkpt><trkpt lat="43.64623964198524" lon="10.653809874495279"><ele>26.0</ele><time>2026-04-15T12:37:05Z</time></trkpt><trkpt lat="43.64615481713201" lon="10.653588348239378"><ele>24.333333333333332</ele><time>2026-04-15T12:37:06Z</time></trkpt><trkpt lat="43.64607343379533" lon="10.653352540867981"><ele>22.666666666666664</ele><time>2026-04-15T12:37:07Z</time></trkpt><trkpt lat="43.64599607457903" lon="10.653120011001365"><ele>21.0</ele><time>2026-04-15T12:37:08Z</time></trkpt><trkpt lat="43.645916600699145" lon="10.652882665019238"><ele>19.666666666666668</ele><time>2026-04-15T12:37:09Z</time></trkpt><trkpt lat="43.645834353045764" lon="10.65264399199372"><ele>18.333333333333336</ele><time>2026-04-15T12:37:10Z</time></trkpt><trkpt lat="43.6457539897929" lon="10.652412774841203"><ele>17.0</ele><time>2026-04-15T12:37:11Z</time></trkpt><trkpt lat="43.64567418145601" lon="10.652188537678935"><ele>17.0</ele><time>2026-04-15T12:37:12Z</time></trkpt><trkpt lat="43.645594877762704" lon="10.65195917113299"><ele>17.0</ele><time>2026-04-15T12:37:13Z</time></trkpt><trkpt lat="43.645520988298834" lon="10.651737729950057"><ele>17.0</ele><time>2026-04-15T12:37:14Z</time></trkpt><trkpt lat="43.64545261952671" lon="10.65152901520763"><ele>17.666666666666668</ele><time>2026-04-15T12:37:15Z</time></trkpt><trkpt lat="43.64538702526933" lon="10.65132855652978"><ele>18.333333333333332</ele><time>2026-04-15T12:37:16Z</time></trkpt><trkpt lat="43.6453208145391" lon="10.651139794566246"><ele>19.0</ele><time>2026-04-15T12:37:17Z</time></trkpt><trkpt lat="43.645249377979866" lon="10.650959247155104"><ele>19.0</ele><time>2026-04-15T12:37:18Z</time></trkpt><trkpt lat="43.64516625274831" lon="10.65078747998993"><ele>19.0</ele><time>2026-04-15T12:37:19Z</time></trkpt><trkpt lat="43.645071181567296" lon="10.6506289323884"><ele>19.0</ele><time>2026-04-15T12:37:20Z</time></trkpt><trkpt lat="43.644967590478466" lon="10.650483973475652"><ele>19.0</ele><time>2026-04-15T12:37:21Z</time></trkpt><trkpt lat="43.644864700548425" lon="10.650354620407827"><ele>18.5</ele><time>2026-04-15T12:37:22Z</time></trkpt><trkpt lat="43.64476110360319" lon="10.650232204160519"><ele>18.0</ele><time>2026-04-15T12:37:23Z</time></trkpt><trkpt lat="43.64465907602031" lon="10.650119823464781"><ele>17.5</ele><time>2026-04-15T12:37:24Z</time></trkpt><trkpt lat="43.64455691391325" lon="10.650015746344733"><ele>17.0</ele><time>2026-04-15T12:37:25Z</time></trkpt><trkpt lat="43.644448296266454" lon="10.64992685462522"><ele>18.25</ele><time>2026-04-15T12:37:26Z</time></trkpt><trkpt lat="43.64433311942823" lon="10.649850772715393"><ele>19.5</ele><time>2026-04-15T12:37:27Z</time></trkpt><trkpt lat="43.64421376141813" lon="10.649789613883149"><ele>20.75</ele><time>2026-04-15T12:37:28Z</time></trkpt><trkpt lat="43.64409533266623" lon="10.649742673980604"><ele>22.0</ele><time>2026-04-15T12:37:29Z</time></trkpt><trkpt lat="43.643966354749686" lon="10.649706810301984"><ele>22.0</ele><time>2026-04-15T12:37:30Z</time></trkpt><trkpt lat="43.64383364850443" lon="10.649681594937118"><ele>22.0</ele><time>2026-04-15T12:37:31Z</time></trkpt><trkpt lat="43.64369895920645" lon="10.64966495916328"><ele>22.0</ele><time>2026-04-15T12:37:32Z</time></trkpt><trkpt lat="43.64356486897519" lon="10.649655522997948"><ele>22.0</ele><time>2026-04-15T12:37:33Z</time></trkpt><trkpt lat="43.64344201138843" lon="10.649658108430852"><ele>22.166666666666664</ele><time>2026-04-15T12:37:34Z</time></trkpt><trkpt lat="43.64333162219412" lon="10.649667208689198"><ele>22.333333333333332</ele><time>2026-04-15T12:37:35Z</time></trkpt><trkpt lat="43.643248708534216" lon="10.649680218180205"><ele>22.5</ele><time>2026-04-15T12:37:36Z</time></trkpt><trkpt lat="43.643185305202216" lon="10.649693184246003"><ele>22.666666666666668</ele><time>2026-04-15T12:37:37Z</time></trkpt><trkpt lat="43.64311434035552" lon="10.649718607910136"><ele>22.833333333333336</ele><time>2026-04-15T12:37:39Z</time></trkpt><trkpt lat="43.64305160493826" lon="10.649729499428716"><ele>23.0</ele><time>2026-04-15T12:37:41Z</time></trkpt><trkpt lat="43.642980007789" lon="10.64975309506061"><ele>23.0</ele><time>2026-04-15T12:37:43Z</time></trkpt><trkpt lat="43.64290288875163" lon="10.649774549324123"><ele>23.0</ele><time>2026-04-15T12:37:46Z</time></trkpt><trkpt lat="43.64281927114917" lon="10.649792406575894"><ele>23.0</ele><time>2026-04-15T12:37:50Z</time></trkpt><trkpt lat="43.64274164420937" lon="10.649804149015882"><ele>23.0</ele><time>2026-04-15T12:37:52Z</time></trkpt><trkpt lat="43.64265379989815" lon="10.649835200301347"><ele>23.0</ele><time>2026-04-15T12:37:54Z</time></trkpt><trkpt lat="43.64259225765433" lon="10.649855509765786"><ele>23.0</ele><time>2026-04-15T12:37:56Z</time></trkpt><trkpt lat="43.6425225870329" lon="10.649871699900004"><ele>22.75</ele><time>2026-04-15T12:37:59Z</time></trkpt><trkpt lat="43.64244824379425" lon="10.649883552191492"><ele>22.5</ele><time>2026-04-15T12:38:03Z</time></trkpt><trkpt lat="43.64230760952253" lon="10.649948493934659"><ele>22.25</ele><time>2026-04-15T12:38:22Z</time></trkpt><trkpt lat="43.642186861832165" lon="10.650005897012717"><ele>22.0</ele><time>2026-04-15T12:38:23Z</time></trkpt><trkpt lat="43.64206326321916" lon="10.650058291433883"><ele>22.5</ele><time>2026-04-15T12:38:24Z</time></trkpt><trkpt lat="43.64193205224269" lon="10.650105762754192"><ele>23.0</ele><time>2026-04-15T12:38:25Z</time></trkpt><trkpt lat="43.641804415329986" lon="10.650142739590466"><ele>23.5</ele><time>2026-04-15T12:38:26Z</time></trkpt><trkpt lat="43.64166050524395" lon="10.65018203381277"><ele>24.0</ele><time>2026-04-15T12:38:27Z</time></trkpt><trkpt lat="43.641515265069415" lon="10.650219486473274"><ele>24.0</ele><time>2026-04-15T12:38:28Z</time></trkpt><trkpt lat="43.64136516564295" lon="10.650265200785194"><ele>24.0</ele><time>2026-04-15T12:38:29Z</time></trkpt><trkpt lat="43.64121109447605" lon="10.650310216082497"><ele>24.0</ele><time>2026-04-15T12:38:30Z</time></trkpt><trkpt lat="43.64105481396239" lon="10.650352936389286"><ele>24.0</ele><time>2026-04-15T12:38:31Z</time></trkpt><trkpt lat="43.6408938726092" lon="10.650393688174812"><ele>24.0</ele><time>2026-04-15T12:38:32Z</time></trkpt><trkpt lat="43.64072845256283" lon="10.650432637088752"><ele>24.0</ele><time>2026-04-15T12:38:33Z</time></trkpt><trkpt lat="43.64055794740024" lon="10.650468007575595"><ele>24.0</ele><time>2026-04-15T12:38:34Z</time></trkpt><trkpt lat="43.64038542565084" lon="10.650504535036879"><ele>24.0</ele><time>2026-04-15T12:38:35Z</time></trkpt><trkpt lat="43.64020727966266" lon="10.650552666429737"><ele>24.0</ele><time>2026-04-15T12:38:36Z</time></trkpt><trkpt lat="43.640046176612536" lon="10.650615751738806"><ele>23.75</ele><time>2026-04-15T12:38:37Z</time></trkpt><trkpt lat="43.63989920274171" lon="10.650685392540156"><ele>23.5</ele><time>2026-04-15T12:38:38Z</time></trkpt><trkpt lat="43.639767599749895" lon="10.650743716576189"><ele>23.25</ele><time>2026-04-15T12:38:39Z</time></trkpt><trkpt lat="43.63964675687002" lon="10.650771936259444"><ele>23.0</ele><time>2026-04-15T12:38:40Z</time></trkpt><trkpt lat="43.63953875091599" lon="10.650776244378926"><ele>23.333333333333336</ele><time>2026-04-15T12:38:41Z</time></trkpt><trkpt lat="43.639447304451565" lon="10.65080498715681"><ele>23.666666666666668</ele><time>2026-04-15T12:38:42Z</time></trkpt><trkpt lat="43.63937113499821" lon="10.650894108272498"><ele>24.0</ele><time>2026-04-15T12:38:43Z</time></trkpt><trkpt lat="43.63922959938009" lon="10.651218720736653"><ele>24.0</ele><time>2026-04-15T12:38:45Z</time></trkpt><trkpt lat="43.63912592666401" lon="10.65137584098763"><ele>24.0</ele><time>2026-04-15T12:38:46Z</time></trkpt><trkpt lat="43.639009001120286" lon="10.651525221483096"><ele>24.0</ele><time>2026-04-15T12:38:47Z</time></trkpt><trkpt lat="43.63889685003588" lon="10.651665651749566"><ele>24.0</ele><time>2026-04-15T12:38:48Z</time></trkpt><trkpt lat="43.638784207784596" lon="10.65180093497682"><ele>24.0</ele><time>2026-04-15T12:38:49Z</time></trkpt><trkpt lat="43.63866740272965" lon="10.651935281647647"><ele>24.0</ele><time>2026-04-15T12:38:50Z</time></trkpt><trkpt lat="43.63855433242644" lon="10.652061349798435"><ele>24.0</ele><time>2026-04-15T12:38:51Z</time></trkpt><trkpt lat="43.6384441448465" lon="10.652187881590507"><ele>24.0</ele><time>2026-04-15T12:38:52Z</time></trkpt><trkpt lat="43.63833137993886" lon="10.652319400521693"><ele>24.0</ele><time>2026-04-15T12:38:53Z</time></trkpt><trkpt lat="43.638212516795654" lon="10.652456146323294"><ele>24.0</ele><time>2026-04-15T12:38:54Z</time></trkpt><trkpt lat="43.63808773864184" lon="10.652603032061792"><ele>24.0</ele><time>2026-04-15T12:38:55Z</time></trkpt><trkpt lat="43.63796858545058" lon="10.652741670105783"><ele>24.0</ele><time>2026-04-15T12:38:56Z</time></trkpt><trkpt lat="43.637844776408976" lon="10.65289271707617"><ele>24.0</ele><time>2026-04-15T12:38:57Z</time></trkpt><trkpt lat="43.637716272261855" lon="10.653051188422054"><ele>24.666666666666664</ele><time>2026-04-15T12:38:58Z</time></trkpt><trkpt lat="43.637581873146594" lon="10.653220181788333"><ele>25.333333333333332</ele><time>2026-04-15T12:38:59Z</time></trkpt><trkpt lat="43.63743826725107" lon="10.65340292160921"><ele>26.0</ele><time>2026-04-15T12:39:00Z</time></trkpt><trkpt lat="43.63728702455394" lon="10.653602275988698"><ele>26.0</ele><time>2026-04-15T12:39:01Z</time></trkpt><trkpt lat="43.637121929151775" lon="10.65381605375246"><ele>26.0</ele><time>2026-04-15T12:39:02Z</time></trkpt><trkpt lat="43.636943399847354" lon="10.654045592627131"><ele>25.333333333333332</ele><time>2026-04-15T12:39:03Z</time></trkpt><trkpt lat="43.63677147126474" lon="10.654267806435"><ele>24.666666666666664</ele><time>2026-04-15T12:39:04Z</time></trkpt><trkpt lat="43.63661637961146" lon="10.654467736006508"><ele>24.0</ele><time>2026-04-15T12:39:05Z</time></trkpt><trkpt lat="43.636474974867724" lon="10.654648918811521"><ele>24.666666666666664</ele><time>2026-04-15T12:39:06Z</time></trkpt><trkpt lat="43.63633603111453" lon="10.654828916241366"><ele>25.333333333333332</ele><time>2026-04-15T12:39:07Z</time></trkpt><trkpt lat="43.636198130149694" lon="10.655003946930778"><ele>26.0</ele><time>2026-04-15T12:39:08Z</time></trkpt><trkpt lat="43.636048900933204" lon="10.655174456772855"><ele>26.333333333333332</ele><time>2026-04-15T12:39:09Z</time></trkpt><trkpt lat="43.63589074035458" lon="10.65532334887376"><ele>26.666666666666664</ele><time>2026-04-15T12:39:10Z</time></trkpt><trkpt lat="43.63572706244806" lon="10.655454927057315"><ele>27.0</ele><time>2026-04-15T12:39:11Z</time></trkpt><trkpt lat="43.63555943484822" lon="10.655584717199146"><ele>27.0</ele><time>2026-04-15T12:39:12Z</time></trkpt><trkpt lat="43.63538874473059" lon="10.655713350379276"><ele>27.0</ele><time>2026-04-15T12:39:13Z</time></trkpt><trkpt lat="43.63522259571403" lon="10.655839932404039"><ele>27.0</ele><time>2026-04-15T12:39:14Z</time></trkpt><trkpt lat="43.635061018754584" lon="10.65596440562755"><ele>27.0</ele><time>2026-04-15T12:39:15Z</time></trkpt><trkpt lat="43.634899291448924" lon="10.656090483721597"><ele>27.0</ele><time>2026-04-15T12:39:16Z</time></trkpt><trkpt lat="43.634735865002746" lon="10.656216040504422"><ele>27.0</ele><time>2026-04-15T12:39:17Z</time></trkpt><trkpt lat="43.6345683443144" lon="10.656341639998937"><ele>26.666666666666664</ele><time>2026-04-15T12:39:18Z</time></trkpt><trkpt lat="43.634400694267356" lon="10.656468899199675"><ele>26.333333333333332</ele><time>2026-04-15T12:39:19Z</time></trkpt><trkpt lat="43.634239373387885" lon="10.656596817032666"><ele>26.0</ele><time>2026-04-15T12:39:20Z</time></trkpt><trkpt lat="43.63407998047142" lon="10.656722418367007"><ele>26.0</ele><time>2026-04-15T12:39:21Z</time></trkpt><trkpt lat="43.633923288931" lon="10.656844986381962"><ele>26.0</ele><time>2026-04-15T12:39:22Z</time></trkpt><trkpt lat="43.63376679063501" lon="10.656965755408374"><ele>26.0</ele><time>2026-04-15T12:39:23Z</time></trkpt><trkpt lat="43.63360304236003" lon="10.657088667022206"><ele>25.666666666666664</ele><time>2026-04-15T12:39:24Z</time></trkpt><trkpt lat="43.633445041084954" lon="10.657210894445814"><ele>25.333333333333336</ele><time>2026-04-15T12:39:25Z</time></trkpt><trkpt lat="43.63328296384256" lon="10.65733435865119"><ele>25.0</ele><time>2026-04-15T12:39:26Z</time></trkpt><trkpt lat="43.63312449856872" lon="10.65745628363343"><ele>25.0</ele><time>2026-04-15T12:39:27Z</time></trkpt><trkpt lat="43.63297258735683" lon="10.657577592465842"><ele>25.0</ele><time>2026-04-15T12:39:28Z</time></trkpt><trkpt lat="43.63281824959225" lon="10.657699150348181"><ele>25.0</ele><time>2026-04-15T12:39:29Z</time></trkpt><trkpt lat="43.63266547952363" lon="10.65781467974961"><ele>24.333333333333336</ele><time>2026-04-15T12:39:30Z</time></trkpt><trkpt lat="43.632511770603955" lon="10.657930501646108"><ele>23.666666666666668</ele><time>2026-04-15T12:39:31Z</time></trkpt><trkpt lat="43.63235883934025" lon="10.65804699834518"><ele>23.0</ele><time>2026-04-15T12:39:32Z</time></trkpt><trkpt lat="43.632205132257205" lon="10.658166461865155"><ele>23.0</ele><time>2026-04-15T12:39:33Z</time></trkpt><trkpt lat="43.6320442437777" lon="10.658286720984865"><ele>23.0</ele><time>2026-04-15T12:39:34Z</time></trkpt><trkpt lat="43.631877825079364" lon="10.658405937088911"><ele>23.0</ele><time>2026-04-15T12:39:35Z</time></trkpt><trkpt lat="43.63170597793318" lon="10.658521525062428"><ele>24.0</ele><time>2026-04-15T12:39:36Z</time></trkpt><trkpt lat="43.63153075285792" lon="10.658629924230292"><ele>25.0</ele><time>2026-04-15T12:39:37Z</time></trkpt><trkpt lat="43.63134941907028" lon="10.658734919823388"><ele>26.0</ele><time>2026-04-15T12:39:38Z</time></trkpt><trkpt lat="43.63117019180899" lon="10.658837813585807"><ele>25.333333333333332</ele><time>2026-04-15T12:39:39Z</time></trkpt><trkpt lat="43.63099602953439" lon="10.658934590001031"><ele>24.666666666666664</ele><time>2026-04-15T12:39:40Z</time></trkpt><trkpt lat="43.63083023706637" lon="10.659022472470935"><ele>24.0</ele><time>2026-04-15T12:39:41Z</time></trkpt><trkpt lat="43.630664141102635" lon="10.65910752098102"><ele>24.0</ele><time>2026-04-15T12:39:42Z</time></trkpt><trkpt lat="43.630495223876565" lon="10.659184106606368"><ele>24.0</ele><time>2026-04-15T12:39:43Z</time></trkpt><trkpt lat="43.63032581852908" lon="10.659256824501748"><ele>24.0</ele><time>2026-04-15T12:39:44Z</time></trkpt><trkpt lat="43.63014878501995" lon="10.659330724394747"><ele>24.333333333333336</ele><time>2026-04-15T12:39:45Z</time></trkpt><trkpt lat="43.62997099708851" lon="10.659401454610135"><ele>24.666666666666668</ele><time>2026-04-15T12:39:46Z</time></trkpt><trkpt lat="43.62978700851028" lon="10.659470937166274"><ele>25.0</ele><time>2026-04-15T12:39:47Z</time></trkpt><trkpt lat="43.62959484991435" lon="10.659540294063714"><ele>25.333333333333336</ele><time>2026-04-15T12:39:48Z</time></trkpt><trkpt lat="43.629402421550004" lon="10.659604376237604"><ele>25.666666666666664</ele><time>2026-04-15T12:39:49Z</time></trkpt><trkpt lat="43.62921236967348" lon="10.659658646561697"><ele>26.0</ele><time>2026-04-15T12:39:50Z</time></trkpt><trkpt lat="43.62903062129227" lon="10.659704739724551"><ele>26.0</ele><time>2026-04-15T12:39:51Z</time></trkpt><trkpt lat="43.628863128820825" lon="10.659743280652837"><ele>26.0</ele><time>2026-04-15T12:39:52Z</time></trkpt><trkpt lat="43.62871580318872" lon="10.659775064604561"><ele>26.0</ele><time>2026-04-15T12:39:53Z</time></trkpt><trkpt lat="43.62860112802225" lon="10.659791529384105"><ele>26.0</ele><time>2026-04-15T12:39:54Z</time></trkpt><trkpt lat="43.628514641602294" lon="10.659795768780366"><ele>26.166666666666664</ele><time>2026-04-15T12:39:55Z</time></trkpt><trkpt lat="43.62843894803294" lon="10.659787813028771"><ele>26.333333333333332</ele><time>2026-04-15T12:39:56Z</time></trkpt><trkpt lat="43.62836453291694" lon="10.659763376207856"><ele>26.5</ele><time>2026-04-15T12:39:57Z</time></trkpt><trkpt lat="43.62828372360265" lon="10.659711842738117"><ele>26.666666666666664</ele><time>2026-04-15T12:39:58Z</time></trkpt><trkpt lat="43.6282048720343" lon="10.659654734042595"><ele>26.833333333333332</ele><time>2026-04-15T12:39:59Z</time></trkpt><trkpt lat="43.62811496785974" lon="10.659617289620636"><ele>27.0</ele><time>2026-04-15T12:40:00Z</time></trkpt><trkpt lat="43.62802302306205" lon="10.65962296041201"><ele>27.0</ele><time>2026-04-15T12:40:01Z</time></trkpt><trkpt lat="43.62793515347012" lon="10.65968590079442"><ele>27.000000000000004</ele><time>2026-04-15T12:40:02Z</time></trkpt><trkpt lat="43.62786806461594" lon="10.65976842547539"><ele>27.000000000000004</ele><time>2026-04-15T12:40:03Z</time></trkpt><trkpt lat="43.627818452874685" lon="10.65987425054658"><ele>27.0</ele><time>2026-04-15T12:40:04Z</time></trkpt><trkpt lat="43.62777729292876" lon="10.659986445030325"><ele>27.0</ele><time>2026-04-15T12:40:05Z</time></trkpt><trkpt lat="43.62772979151236" lon="10.660110093612579"><ele>27.0</ele><time>2026-04-15T12:40:06Z</time></trkpt><trkpt lat="43.627661693854115" lon="10.660230651455013"><ele>27.0</ele><time>2026-04-15T12:40:07Z</time></trkpt><trkpt lat="43.62756887544855" lon="10.660343896045484"><ele>27.0</ele><time>2026-04-15T12:40:08Z</time></trkpt><trkpt lat="43.62745018966485" lon="10.660459102516505"><ele>27.0</ele><time>2026-04-15T12:40:09Z</time></trkpt><trkpt lat="43.627322689342" lon="10.66056418238432"><ele>27.0</ele><time>2026-04-15T12:40:10Z</time></trkpt><trkpt lat="43.62718266264458" lon="10.660672052160145"><ele>27.0</ele><time>2026-04-15T12:40:11Z</time></trkpt><trkpt lat="43.62703635592888" lon="10.660790265583028"><ele>27.0</ele><time>2026-04-15T12:40:12Z</time></trkpt><trkpt lat="43.62688210926972" lon="10.660919065811738"><ele>27.0</ele><time>2026-04-15T12:40:13Z</time></trkpt><trkpt lat="43.62673039938056" lon="10.661046226947157"><ele>27.0</ele><time>2026-04-15T12:40:14Z</time></trkpt><trkpt lat="43.62658286836488" lon="10.661170662700929"><ele>27.0</ele><time>2026-04-15T12:40:15Z</time></trkpt><trkpt lat="43.62643780825201" lon="10.661289736939132"><ele>27.0</ele><time>2026-04-15T12:40:16Z</time></trkpt><trkpt lat="43.62628581033893" lon="10.661411163626356"><ele>27.0</ele><time>2026-04-15T12:40:17Z</time></trkpt><trkpt lat="43.62613526358785" lon="10.661530040010101"><ele>27.0</ele><time>2026-04-15T12:40:18Z</time></trkpt><trkpt lat="43.6259767614637" lon="10.66165303213321"><ele>27.0</ele><time>2026-04-15T12:40:19Z</time></trkpt><trkpt lat="43.625823204932765" lon="10.661773038741453"><ele>27.0</ele><time>2026-04-15T12:40:20Z</time></trkpt><trkpt lat="43.6256674701365" lon="10.661896023243175"><ele>27.0</ele><time>2026-04-15T12:40:21Z</time></trkpt><trkpt lat="43.62550478689212" lon="10.662024568104409"><ele>27.0</ele><time>2026-04-15T12:40:22Z</time></trkpt><trkpt lat="43.625337140986915" lon="10.662154986921694"><ele>27.0</ele><time>2026-04-15T12:40:23Z</time></trkpt><trkpt lat="43.625168649669234" lon="10.662288297473214"><ele>27.0</ele><time>2026-04-15T12:40:24Z</time></trkpt><trkpt lat="43.624992514462356" lon="10.662431534724746"><ele>27.666666666666664</ele><time>2026-04-15T12:40:25Z</time></trkpt><trkpt lat="43.624813837487935" lon="10.662577510409202"><ele>28.333333333333332</ele><time>2026-04-15T12:40:26Z</time></trkpt><trkpt lat="43.62463052429709" lon="10.662727067458976"><ele>29.0</ele><time>2026-04-15T12:40:27Z</time></trkpt><trkpt lat="43.62444607408017" lon="10.662870939842357"><ele>29.666666666666664</ele><time>2026-04-15T12:40:28Z</time></trkpt><trkpt lat="43.62426545215336" lon="10.66301200931356"><ele>30.333333333333336</ele><time>2026-04-15T12:40:29Z</time></trkpt><trkpt lat="43.62408256701213" lon="10.663152563720823"><ele>31.0</ele><time>2026-04-15T12:40:30Z</time></trkpt><trkpt lat="43.623903946435284" lon="10.66328857743136"><ele>31.0</ele><time>2026-04-15T12:40:31Z</time></trkpt><trkpt lat="43.623728383943735" lon="10.663427552151477"><ele>31.0</ele><time>2026-04-15T12:40:32Z</time></trkpt><trkpt lat="43.623555721413794" lon="10.663566448565376"><ele>31.0</ele><time>2026-04-15T12:40:33Z</time></trkpt><trkpt lat="43.623384112420126" lon="10.663705667846218"><ele>31.0</ele><time>2026-04-15T12:40:34Z</time></trkpt><trkpt lat="43.623208719176894" lon="10.663847537578649"><ele>31.0</ele><time>2026-04-15T12:40:35Z</time></trkpt><trkpt lat="43.62303422201409" lon="10.663985417394386"><ele>31.0</ele><time>2026-04-15T12:40:36Z</time></trkpt><trkpt lat="43.62285904399767" lon="10.664123884599027"><ele>30.333333333333336</ele><time>2026-04-15T12:40:37Z</time></trkpt><trkpt lat="43.62268048203726" lon="10.664262660134339"><ele>29.666666666666664</ele><time>2026-04-15T12:40:38Z</time></trkpt><trkpt lat="43.62250134656356" lon="10.664399120468037"><ele>29.0</ele><time>2026-04-15T12:40:39Z</time></trkpt><trkpt lat="43.622325077758894" lon="10.664536718892832"><ele>29.0</ele><time>2026-04-15T12:40:40Z</time></trkpt><trkpt lat="43.622143483809246" lon="10.664681851012084"><ele>29.0</ele><time>2026-04-15T12:40:41Z</time></trkpt><trkpt lat="43.621955928767036" lon="10.664832348319432"><ele>29.0</ele><time>2026-04-15T12:40:42Z</time></trkpt><trkpt lat="43.62177415852574" lon="10.664981480110532"><ele>29.0</ele><time>2026-04-15T12:40:43Z</time></trkpt><trkpt lat="43.621587099247684" lon="10.665138018293595"><ele>29.0</ele><time>2026-04-15T12:40:44Z</time></trkpt><trkpt lat="43.62140101212529" lon="10.665299358030294"><ele>29.0</ele><time>2026-04-15T12:40:45Z</time></trkpt><trkpt lat="43.62121709786372" lon="10.66546239806731"><ele>28.0</ele><time>2026-04-15T12:40:46Z</time></trkpt><trkpt lat="43.62103340359952" lon="10.665632560749058"><ele>27.0</ele><time>2026-04-15T12:40:47Z</time></trkpt><trkpt lat="43.6208546407406" lon="10.665807287173532"><ele>26.0</ele><time>2026-04-15T12:40:48Z</time></trkpt><trkpt lat="43.62067341224376" lon="10.665996161925227"><ele>26.333333333333332</ele><time>2026-04-15T12:40:49Z</time></trkpt><trkpt lat="43.620503973564915" lon="10.666187363808511"><ele>26.666666666666664</ele><time>2026-04-15T12:40:50Z</time></trkpt><trkpt lat="43.62033453736711" lon="10.666395520049987"><ele>27.0</ele><time>2026-04-15T12:40:51Z</time></trkpt><trkpt lat="43.620177313814516" lon="10.666603275732474"><ele>27.0</ele><time>2026-04-15T12:40:52Z</time></trkpt><trkpt lat="43.62002197422174" lon="10.666823330363181"><ele>27.0</ele><time>2026-04-15T12:40:53Z</time></trkpt><trkpt lat="43.61987029001319" lon="10.667052272783673"><ele>27.0</ele><time>2026-04-15T12:40:54Z</time></trkpt><trkpt lat="43.61973161659133" lon="10.66728282660145"><ele>26.666666666666664</ele><time>2026-04-15T12:40:55Z</time></trkpt><trkpt lat="43.61959939144879" lon="10.667521606814418"><ele>26.333333333333332</ele><time>2026-04-15T12:40:56Z</time></trkpt><trkpt lat="43.61947349712459" lon="10.667761542712526"><ele>26.0</ele><time>2026-04-15T12:40:57Z</time></trkpt><trkpt lat="43.61935487069549" lon="10.668001249418923"><ele>26.0</ele><time>2026-04-15T12:40:58Z</time></trkpt><trkpt lat="43.61924416683018" lon="10.66825151138032"><ele>26.0</ele><time>2026-04-15T12:40:59Z</time></trkpt><trkpt lat="43.6191376238924" lon="10.668498400104065"><ele>26.0</ele><time>2026-04-15T12:41:00Z</time></trkpt><trkpt lat="43.619035006180134" lon="10.668751332223897"><ele>26.0</ele><time>2026-04-15T12:41:01Z</time></trkpt><trkpt lat="43.618939205565404" lon="10.669003938678726"><ele>26.0</ele><time>2026-04-15T12:41:02Z</time></trkpt><trkpt lat="43.61884456737835" lon="10.669260673410887"><ele>26.0</ele><time>2026-04-15T12:41:03Z</time></trkpt><trkpt lat="43.618750655170764" lon="10.669521159553327"><ele>26.333333333333332</ele><time>2026-04-15T12:41:04Z</time></trkpt><trkpt lat="43.618661158505034" lon="10.669774483428649"><ele>26.666666666666664</ele><time>2026-04-15T12:41:05Z</time></trkpt><trkpt lat="43.61857839848892" lon="10.670030762731082"><ele>27.0</ele><time>2026-04-15T12:41:06Z</time></trkpt><trkpt lat="43.618505828500524" lon="10.670296780198678"><ele>27.0</ele><time>2026-04-15T12:41:07Z</time></trkpt><trkpt lat="43.61844722349423" lon="10.670555211027825"><ele>27.0</ele><time>2026-04-15T12:41:08Z</time></trkpt><trkpt lat="43.618399519728854" lon="10.670817789405366"><ele>27.0</ele><time>2026-04-15T12:41:09Z</time></trkpt><trkpt lat="43.61836098830104" lon="10.671081281617946"><ele>27.5</ele><time>2026-04-15T12:41:10Z</time></trkpt><trkpt lat="43.61833054027745" lon="10.671334911268996"><ele>28.0</ele><time>2026-04-15T12:41:11Z</time></trkpt><trkpt lat="43.61829594265485" lon="10.671839829693978"><ele>27.666666666666668</ele><time>2026-04-15T12:41:13Z</time></trkpt><trkpt lat="43.61829383157325" lon="10.672102856042688"><ele>27.333333333333336</ele><time>2026-04-15T12:41:14Z</time></trkpt><trkpt lat="43.618298069841" lon="10.672346135232507"><ele>27.0</ele><time>2026-04-15T12:41:15Z</time></trkpt><trkpt lat="43.61830854091035" lon="10.672586622481374"><ele>27.0</ele><time>2026-04-15T12:41:16Z</time></trkpt><trkpt lat="43.61832622904783" lon="10.672807228668244"><ele>27.0</ele><time>2026-04-15T12:41:17Z</time></trkpt><trkpt lat="43.61835149893527" lon="10.673024197194767"><ele>27.0</ele><time>2026-04-15T12:41:18Z</time></trkpt><trkpt lat="43.618381144202544" lon="10.673231132179058"><ele>27.0</ele><time>2026-04-15T12:41:19Z</time></trkpt><trkpt lat="43.618411135982925" lon="10.67344404948636"><ele>27.0</ele><time>2026-04-15T12:41:20Z</time></trkpt><trkpt lat="43.61844142332136" lon="10.673643448714735"><ele>27.0</ele><time>2026-04-15T12:41:21Z</time></trkpt><trkpt lat="43.618466150785494" lon="10.673817138731897"><ele>27.0</ele><time>2026-04-15T12:41:22Z</time></trkpt><trkpt lat="43.61848150101843" lon="10.673960186255778"><ele>27.166666666666668</ele><time>2026-04-15T12:41:23Z</time></trkpt><trkpt lat="43.61849025363044" lon="10.674093371918355"><ele>27.333333333333336</ele><time>2026-04-15T12:41:24Z</time></trkpt><trkpt lat="43.61848319210339" lon="10.67419956173577"><ele>27.5</ele><time>2026-04-15T12:41:25Z</time></trkpt><trkpt lat="43.61845875627044" lon="10.674298342812774"><ele>27.666666666666668</ele><time>2026-04-15T12:41:26Z</time></trkpt><trkpt lat="43.61842114968333" lon="10.674416230760885"><ele>27.833333333333336</ele><time>2026-04-15T12:41:27Z</time></trkpt><trkpt lat="43.618380705119094" lon="10.674541799749512"><ele>28.0</ele><time>2026-04-15T12:41:28Z</time></trkpt><trkpt lat="43.618357083983874" lon="10.674681639613352"><ele>28.333333333333336</ele><time>2026-04-15T12:41:29Z</time></trkpt><trkpt lat="43.61833591438447" lon="10.674842688175355"><ele>28.666666666666664</ele><time>2026-04-15T12:41:30Z</time></trkpt><trkpt lat="43.61829121659887" lon="10.674989117421756"><ele>29.0</ele><time>2026-04-15T12:41:31Z</time></trkpt><trkpt lat="43.61810785320607" lon="10.67524523508426"><ele>29.333333333333332</ele><time>2026-04-15T12:41:33Z</time></trkpt><trkpt lat="43.61798414208589" lon="10.675389452345778"><ele>29.666666666666664</ele><time>2026-04-15T12:41:34Z</time></trkpt><trkpt lat="43.617808837578515" lon="10.675561521458624"><ele>30.0</ele><time>2026-04-15T12:41:35Z</time></trkpt><trkpt lat="43.617596541184064" lon="10.675797438063919"><ele>29.0</ele><time>2026-04-15T12:41:36Z</time></trkpt><trkpt lat="43.617348613549815" lon="10.676080336774877"><ele>28.0</ele><time>2026-04-15T12:41:37Z</time></trkpt><trkpt lat="43.61707827355209" lon="10.676365155627128"><ele>28.5</ele><time>2026-04-15T12:41:38Z</time></trkpt><trkpt lat="43.61680327295325" lon="10.67667237362595"><ele>29.0</ele><time>2026-04-15T12:41:39Z</time></trkpt><trkpt lat="43.6165336709141" lon="10.676982033263148"><ele>29.5</ele><time>2026-04-15T12:41:40Z</time></trkpt><trkpt lat="43.61629154268633" lon="10.677263225118718"><ele>30.0</ele><time>2026-04-15T12:41:41Z</time></trkpt><trkpt lat="43.61607439202511" lon="10.67751034634373"><ele>30.0</ele><time>2026-04-15T12:41:42Z</time></trkpt><trkpt lat="43.61587785360993" lon="10.677729473274175"><ele>30.0</ele><time>2026-04-15T12:41:43Z</time></trkpt><trkpt lat="43.615694135675966" lon="10.67793803549279"><ele>30.0</ele><time>2026-04-15T12:41:44Z</time></trkpt><trkpt lat="43.61552695454471" lon="10.678142501262329"><ele>30.0</ele><time>2026-04-15T12:41:45Z</time></trkpt><trkpt lat="43.61538041102244" lon="10.678353309250218"><ele>30.0</ele><time>2026-04-15T12:41:46Z</time></trkpt><trkpt lat="43.61524580422759" lon="10.67857949881929"><ele>30.0</ele><time>2026-04-15T12:41:47Z</time></trkpt><trkpt lat="43.61512510441772" lon="10.678822808521186"><ele>30.0</ele><time>2026-04-15T12:41:48Z</time></trkpt><trkpt lat="43.61500637026462" lon="10.679067515345366"><ele>30.0</ele><time>2026-04-15T12:41:49Z</time></trkpt><trkpt lat="43.61488781251644" lon="10.679306211012292"><ele>31.0</ele><time>2026-04-15T12:41:50Z</time></trkpt><trkpt lat="43.61476801060596" lon="10.679538258827046"><ele>32.0</ele><time>2026-04-15T12:41:51Z</time></trkpt><trkpt lat="43.614645930740224" lon="10.679778478737331"><ele>33.0</ele><time>2026-04-15T12:41:52Z</time></trkpt><trkpt lat="43.614523135056125" lon="10.680020248575106"><ele>33.0</ele><time>2026-04-15T12:41:53Z</time></trkpt><trkpt lat="43.614405843008626" lon="10.6802564906326"><ele>33.0</ele><time>2026-04-15T12:41:54Z</time></trkpt><trkpt lat="43.6142880142322" lon="10.68048853053461"><ele>33.0</ele><time>2026-04-15T12:41:55Z</time></trkpt><trkpt lat="43.61416919571183" lon="10.680721320063173"><ele>33.333333333333336</ele><time>2026-04-15T12:41:56Z</time></trkpt><trkpt lat="43.614050026792576" lon="10.680958079165624"><ele>33.66666666666667</ele><time>2026-04-15T12:41:57Z</time></trkpt><trkpt lat="43.61393452518119" lon="10.681187152346402"><ele>34.0</ele><time>2026-04-15T12:41:58Z</time></trkpt><trkpt lat="43.613819386816125" lon="10.681411204887038"><ele>34.333333333333336</ele><time>2026-04-15T12:41:59Z</time></trkpt><trkpt lat="43.613702902741345" lon="10.681634378781183"><ele>34.666666666666664</ele><time>2026-04-15T12:42:00Z</time></trkpt><trkpt lat="43.61358384708864" lon="10.681860770866928"><ele>35.0</ele><time>2026-04-15T12:42:01Z</time></trkpt><trkpt lat="43.61346581420516" lon="10.68209021603496"><ele>35.33333333333333</ele><time>2026-04-15T12:42:02Z</time></trkpt><trkpt lat="43.61334779032766" lon="10.682322390322657"><ele>35.666666666666664</ele><time>2026-04-15T12:42:03Z</time></trkpt><trkpt lat="43.61323017359878" lon="10.682555401426116"><ele>36.0</ele><time>2026-04-15T12:42:04Z</time></trkpt><trkpt lat="43.61311522335477" lon="10.682787438397824"><ele>36.0</ele><time>2026-04-15T12:42:05Z</time></trkpt><trkpt lat="43.61299925538798" lon="10.683026886611861"><ele>36.0</ele><time>2026-04-15T12:42:06Z</time></trkpt><trkpt lat="43.61288780488427" lon="10.68326426756937"><ele>36.0</ele><time>2026-04-15T12:42:07Z</time></trkpt><trkpt lat="43.61277736912692" lon="10.683501952586388"><ele>35.666666666666664</ele><time>2026-04-15T12:42:08Z</time></trkpt><trkpt lat="43.61266131614349" lon="10.683744251471717"><ele>35.33333333333333</ele><time>2026-04-15T12:42:09Z</time></trkpt><trkpt lat="43.61254574047717" lon="10.683988800267123"><ele>35.0</ele><time>2026-04-15T12:42:10Z</time></trkpt><trkpt lat="43.61243105603088" lon="10.684237085429098"><ele>36.666666666666664</ele><time>2026-04-15T12:42:11Z</time></trkpt><trkpt lat="43.61231733153872" lon="10.684489466749264"><ele>38.333333333333336</ele><time>2026-04-15T12:42:12Z</time></trkpt><trkpt lat="43.612206629610846" lon="10.684743706140242"><ele>40.0</ele><time>2026-04-15T12:42:13Z</time></trkpt><trkpt lat="43.61209578312054" lon="10.685000650617098"><ele>37.0</ele><time>2026-04-15T12:42:14Z</time></trkpt><trkpt lat="43.611987577224006" lon="10.685251918090689"><ele>34.0</ele><time>2026-04-15T12:42:15Z</time></trkpt><trkpt lat="43.61188019782848" lon="10.685503112904586"><ele>31.0</ele><time>2026-04-15T12:42:16Z</time></trkpt><trkpt lat="43.61176870135977" lon="10.685756352263992"><ele>31.0</ele><time>2026-04-15T12:42:17Z</time></trkpt><trkpt lat="43.611659800360755" lon="10.686001776596235"><ele>31.0</ele><time>2026-04-15T12:42:18Z</time></trkpt><trkpt lat="43.61155081257956" lon="10.686250344303076"><ele>31.0</ele><time>2026-04-15T12:42:19Z</time></trkpt><trkpt lat="43.61144039953378" lon="10.68649154405245"><ele>32.0</ele><time>2026-04-15T12:42:20Z</time></trkpt><trkpt lat="43.61132434478805" lon="10.6867347310293"><ele>33.0</ele><time>2026-04-15T12:42:21Z</time></trkpt><trkpt lat="43.611209062935544" lon="10.68696788035133"><ele>34.0</ele><time>2026-04-15T12:42:22Z</time></trkpt><trkpt lat="43.61110562197909" lon="10.687195877707412"><ele>34.0</ele><time>2026-04-15T12:42:23Z</time></trkpt><trkpt lat="43.61099146632736" lon="10.687403362643378"><ele>34.0</ele><time>2026-04-15T12:42:24Z</time></trkpt><trkpt lat="43.61092243737811" lon="10.687656403064093"><ele>34.0</ele><time>2026-04-15T12:42:25Z</time></trkpt><trkpt lat="43.61083332640842" lon="10.687884566273322"><ele>35.333333333333336</ele><time>2026-04-15T12:42:26Z</time></trkpt><trkpt lat="43.61074339988417" lon="10.688113864091596"><ele>36.666666666666664</ele><time>2026-04-15T12:42:27Z</time></trkpt><trkpt lat="43.61065705257863" lon="10.688338465994644"><ele>38.0</ele><time>2026-04-15T12:42:28Z</time></trkpt><trkpt lat="43.61056655303584" lon="10.688566162077553"><ele>39.33333333333333</ele><time>2026-04-15T12:42:29Z</time></trkpt><trkpt lat="43.61047273363151" lon="10.688792886255428"><ele>40.666666666666664</ele><time>2026-04-15T12:42:30Z</time></trkpt><trkpt lat="43.61037795263538" lon="10.689011445416705"><ele>42.0</ele><time>2026-04-15T12:42:31Z</time></trkpt><trkpt lat="43.610273900938616" lon="10.689217437756009"><ele>39.0</ele><time>2026-04-15T12:42:32Z</time></trkpt><trkpt lat="43.6101559550854" lon="10.689409945886943"><ele>36.0</ele><time>2026-04-15T12:42:33Z</time></trkpt><trkpt lat="43.610030098234596" lon="10.689576778912429"><ele>33.0</ele><time>2026-04-15T12:42:34Z</time></trkpt><trkpt lat="43.60990598992286" lon="10.689716430476608"><ele>33.0</ele><time>2026-04-15T12:42:35Z</time></trkpt><trkpt lat="43.609788675118565" lon="10.689829355925191"><ele>33.0</ele><time>2026-04-15T12:42:36Z</time></trkpt><trkpt lat="43.60967547823461" lon="10.689914568853332"><ele>33.0</ele><time>2026-04-15T12:42:37Z</time></trkpt><trkpt lat="43.60957110433576" lon="10.689942888549963"><ele>33.0</ele><time>2026-04-15T12:42:38Z</time></trkpt><trkpt lat="43.609455781681405" lon="10.68992717509774"><ele>32.75</ele><time>2026-04-15T12:42:39Z</time></trkpt><trkpt lat="43.60933960029395" lon="10.689942066776103"><ele>32.5</ele><time>2026-04-15T12:42:40Z</time></trkpt><trkpt lat="43.60921588883868" lon="10.690019055898356"><ele>32.25</ele><time>2026-04-15T12:42:41Z</time></trkpt><trkpt lat="43.60907194090952" lon="10.690092418712103"><ele>32.0</ele><time>2026-04-15T12:42:42Z</time></trkpt><trkpt lat="43.60889985611517" lon="10.69012303023934"><ele>32.0</ele><time>2026-04-15T12:42:43Z</time></trkpt><trkpt lat="43.608715226548355" lon="10.690138144491428"><ele>32.0</ele><time>2026-04-15T12:42:44Z</time></trkpt><trkpt lat="43.608520264854185" lon="10.69013932084857"><ele>32.0</ele><time>2026-04-15T12:42:45Z</time></trkpt><trkpt lat="43.608307789662504" lon="10.690127623930554"><ele>31.0</ele><time>2026-04-15T12:42:46Z</time></trkpt><trkpt lat="43.608086705731104" lon="10.690109126454153"><ele>30.0</ele><time>2026-04-15T12:42:47Z</time></trkpt><trkpt lat="43.60786188637419" lon="10.69009068143246"><ele>29.0</ele><time>2026-04-15T12:42:48Z</time></trkpt><trkpt lat="43.60763381446833" lon="10.69007937557114"><ele>29.0</ele><time>2026-04-15T12:42:49Z</time></trkpt><trkpt lat="43.6073878132792" lon="10.69006809090274"><ele>29.0</ele><time>2026-04-15T12:42:50Z</time></trkpt><trkpt lat="43.60714021925965" lon="10.690060471902633"><ele>31.0</ele><time>2026-04-15T12:42:51Z</time></trkpt><trkpt lat="43.60688893986596" lon="10.69006522675776"><ele>33.0</ele><time>2026-04-15T12:42:52Z</time></trkpt><trkpt lat="43.606639291947474" lon="10.690104676791911"><ele>33.0</ele><time>2026-04-15T12:42:53Z</time></trkpt><trkpt lat="43.60639180180453" lon="10.690190655055979"><ele>33.0</ele><time>2026-04-15T12:42:54Z</time></trkpt><trkpt lat="43.60614141501167" lon="10.690312068061916"><ele>32.0</ele><time>2026-04-15T12:42:55Z</time></trkpt><trkpt lat="43.60589931387192" lon="10.690453533639072"><ele>31.0</ele><time>2026-04-15T12:42:56Z</time></trkpt><trkpt lat="43.60567365777381" lon="10.69062174840618"><ele>31.0</ele><time>2026-04-15T12:42:57Z</time></trkpt><trkpt lat="43.60546333773013" lon="10.690823358286023"><ele>31.0</ele><time>2026-04-15T12:42:58Z</time></trkpt><trkpt lat="43.605270911866725" lon="10.69105358334662"><ele>31.0</ele><time>2026-04-15T12:42:59Z</time></trkpt><trkpt lat="43.605099051703355" lon="10.69129723341164"><ele>31.0</ele><time>2026-04-15T12:43:00Z</time></trkpt><trkpt lat="43.6049358964008" lon="10.691567181848864"><ele>31.0</ele><time>2026-04-15T12:43:01Z</time></trkpt><trkpt lat="43.60477995656074" lon="10.691841738966337"><ele>31.0</ele><time>2026-04-15T12:43:02Z</time></trkpt><trkpt lat="43.60462227972265" lon="10.692116745997724"><ele>32.0</ele><time>2026-04-15T12:43:03Z</time></trkpt><trkpt lat="43.60446363378071" lon="10.69236794793185"><ele>33.0</ele><time>2026-04-15T12:43:04Z</time></trkpt><trkpt lat="43.60429245431508" lon="10.692614971050613"><ele>32.5</ele><time>2026-04-15T12:43:05Z</time></trkpt><trkpt lat="43.60410791001366" lon="10.69285089545815"><ele>32.0</ele><time>2026-04-15T12:43:06Z</time></trkpt><trkpt lat="43.60391510752307" lon="10.693067730573135"><ele>32.0</ele><time>2026-04-15T12:43:07Z</time></trkpt><trkpt lat="43.60370417365242" lon="10.69327405389593"><ele>32.0</ele><time>2026-04-15T12:43:08Z</time></trkpt><trkpt lat="43.60348920776914" lon="10.6934522134389"><ele>32.5</ele><time>2026-04-15T12:43:09Z</time></trkpt><trkpt lat="43.60326480280315" lon="10.693623741026016"><ele>33.0</ele><time>2026-04-15T12:43:10Z</time></trkpt><trkpt lat="43.60303396923753" lon="10.693775144286745"><ele>32.5</ele><time>2026-04-15T12:43:11Z</time></trkpt><trkpt lat="43.60279422367696" lon="10.693914521930392"><ele>32.0</ele><time>2026-04-15T12:43:12Z</time></trkpt><trkpt lat="43.602563381494505" lon="10.694024773597189"><ele>32.0</ele><time>2026-04-15T12:43:13Z</time></trkpt><trkpt lat="43.602335077105806" lon="10.694104293635691"><ele>32.0</ele><time>2026-04-15T12:43:14Z</time></trkpt><trkpt lat="43.60210037360696" lon="10.694177902823665"><ele>32.33333333333333</ele><time>2026-04-15T12:43:15Z</time></trkpt><trkpt lat="43.60187180641447" lon="10.694242812925832"><ele>32.666666666666664</ele><time>2026-04-15T12:43:16Z</time></trkpt><trkpt lat="43.60167114541052" lon="10.694304741105723"><ele>33.0</ele><time>2026-04-15T12:43:17Z</time></trkpt><trkpt lat="43.601477852545344" lon="10.694369830148549"><ele>33.0</ele><time>2026-04-15T12:43:18Z</time></trkpt><trkpt lat="43.60129699214471" lon="10.694432279055794"><ele>33.0</ele><time>2026-04-15T12:43:19Z</time></trkpt><trkpt lat="43.60112764865843" lon="10.694489964316523"><ele>33.0</ele><time>2026-04-15T12:43:20Z</time></trkpt><trkpt lat="43.600983766759875" lon="10.694538268779144"><ele>32.8</ele><time>2026-04-15T12:43:21Z</time></trkpt><trkpt lat="43.60086059782088" lon="10.694574327892584"><ele>32.599999999999994</ele><time>2026-04-15T12:43:22Z</time></trkpt><trkpt lat="43.60075378759971" lon="10.69458283626602"><ele>32.400000000000006</ele><time>2026-04-15T12:43:23Z</time></trkpt><trkpt lat="43.60065234195949" lon="10.694556803700413"><ele>32.2</ele><time>2026-04-15T12:43:24Z</time></trkpt><trkpt lat="43.6005567352432" lon="10.694503505108296"><ele>32.0</ele><time>2026-04-15T12:43:25Z</time></trkpt><trkpt lat="43.60045290698791" lon="10.694460121534707"><ele>32.0</ele><time>2026-04-15T12:43:26Z</time></trkpt><trkpt lat="43.60035199391247" lon="10.694478051856093"><ele>32.0</ele><time>2026-04-15T12:43:27Z</time></trkpt><trkpt lat="43.6002623945446" lon="10.694553530042139"><ele>32.0</ele><time>2026-04-15T12:43:28Z</time></trkpt><trkpt lat="43.600192615789354" lon="10.694828103036743"><ele>32.0</ele><time>2026-04-15T12:43:30Z</time></trkpt><trkpt lat="43.60019523151828" lon="10.694969942244231"><ele>32.33333333333333</ele><time>2026-04-15T12:43:31Z</time></trkpt><trkpt lat="43.59998594860027" lon="10.695054514750927"><ele>32.666666666666664</ele><time>2026-04-15T12:43:32Z</time></trkpt><trkpt lat="43.59983922127698" lon="10.69514288382387"><ele>33.0</ele><time>2026-04-15T12:43:33Z</time></trkpt><trkpt lat="43.599688122332076" lon="10.69523599690437"><ele>33.333333333333336</ele><time>2026-04-15T12:43:34Z</time></trkpt><trkpt lat="43.599539266661" lon="10.695336202185803"><ele>33.66666666666667</ele><time>2026-04-15T12:43:35Z</time></trkpt><trkpt lat="43.59939320840427" lon="10.69544141710825"><ele>34.0</ele><time>2026-04-15T12:43:36Z</time></trkpt><trkpt lat="43.599246777708636" lon="10.695541729489944"><ele>34.0</ele><time>2026-04-15T12:43:37Z</time></trkpt><trkpt lat="43.59909847696575" lon="10.69563948303719"><ele>34.0</ele><time>2026-04-15T12:43:38Z</time></trkpt><trkpt lat="43.59894293782971" lon="10.695742741060092"><ele>34.0</ele><time>2026-04-15T12:43:39Z</time></trkpt><trkpt lat="43.598775570146906" lon="10.695852363991968"><ele>34.333333333333336</ele><time>2026-04-15T12:43:40Z</time></trkpt><trkpt lat="43.59860617581193" lon="10.695964240029152"><ele>34.666666666666664</ele><time>2026-04-15T12:43:41Z</time></trkpt><trkpt lat="43.598423798011844" lon="10.696083002901466"><ele>35.0</ele><time>2026-04-15T12:43:42Z</time></trkpt><trkpt lat="43.59824230497048" lon="10.696196287095248"><ele>34.666666666666664</ele><time>2026-04-15T12:43:43Z</time></trkpt><trkpt lat="43.59806116010877" lon="10.696308162856452"><ele>34.333333333333336</ele><time>2026-04-15T12:43:44Z</time></trkpt><trkpt lat="43.59787063605134" lon="10.696424343385644"><ele>34.0</ele><time>2026-04-15T12:43:45Z</time></trkpt><trkpt lat="43.597678262858835" lon="10.696540558659377"><ele>34.0</ele><time>2026-04-15T12:43:46Z</time></trkpt><trkpt lat="43.5974800698667" lon="10.6966624201378"><ele>34.0</ele><time>2026-04-15T12:43:47Z</time></trkpt><trkpt lat="43.5972825747794" lon="10.696783644035488"><ele>34.0</ele><time>2026-04-15T12:43:48Z</time></trkpt><trkpt lat="43.59708120441281" lon="10.696909525587131"><ele>34.0</ele><time>2026-04-15T12:43:49Z</time></trkpt><trkpt lat="43.59687529897388" lon="10.697038699804096"><ele>34.0</ele><time>2026-04-15T12:43:50Z</time></trkpt><trkpt lat="43.59667302519495" lon="10.697163894412027"><ele>34.0</ele><time>2026-04-15T12:43:51Z</time></trkpt><trkpt lat="43.596471594525305" lon="10.697285429337906"><ele>34.0</ele><time>2026-04-15T12:43:52Z</time></trkpt><trkpt lat="43.5962750088482" lon="10.697401364705623"><ele>34.0</ele><time>2026-04-15T12:43:53Z</time></trkpt><trkpt lat="43.59607475089376" lon="10.697520483857826"><ele>34.0</ele><time>2026-04-15T12:43:54Z</time></trkpt><trkpt lat="43.59587478670021" lon="10.697643978343034"><ele>34.0</ele><time>2026-04-15T12:43:55Z</time></trkpt><trkpt lat="43.59567307819013" lon="10.697770658548144"><ele>34.0</ele><time>2026-04-15T12:43:56Z</time></trkpt><trkpt lat="43.59546807712055" lon="10.697898496039713"><ele>34.0</ele><time>2026-04-15T12:43:57Z</time></trkpt><trkpt lat="43.5952617456464" lon="10.698025973015065"><ele>34.0</ele><time>2026-04-15T12:43:58Z</time></trkpt><trkpt lat="43.59505462948406" lon="10.698154041342455"><ele>34.0</ele><time>2026-04-15T12:43:59Z</time></trkpt><trkpt lat="43.59484585414684" lon="10.698282182698259"><ele>34.0</ele><time>2026-04-15T12:44:00Z</time></trkpt><trkpt lat="43.59463511807554" lon="10.698410566485894"><ele>34.0</ele><time>2026-04-15T12:44:01Z</time></trkpt><trkpt lat="43.59442307697307" lon="10.698539606171005"><ele>35.0</ele><time>2026-04-15T12:44:02Z</time></trkpt><trkpt lat="43.59421342180642" lon="10.698667127087576"><ele>36.0</ele><time>2026-04-15T12:44:03Z</time></trkpt><trkpt lat="43.593996978178346" lon="10.698798899177858"><ele>36.0</ele><time>2026-04-15T12:44:04Z</time></trkpt><trkpt lat="43.59378364299719" lon="10.698928170783699"><ele>36.0</ele><time>2026-04-15T12:44:05Z</time></trkpt><trkpt lat="43.59356871479298" lon="10.699056489538505"><ele>35.5</ele><time>2026-04-15T12:44:06Z</time></trkpt><trkpt lat="43.593353017425066" lon="10.69918772219834"><ele>35.0</ele><time>2026-04-15T12:44:07Z</time></trkpt><trkpt lat="43.59313285702463" lon="10.699321519801167"><ele>34.5</ele><time>2026-04-15T12:44:08Z</time></trkpt><trkpt lat="43.59290803754163" lon="10.699459828641595"><ele>34.0</ele><time>2026-04-15T12:44:09Z</time></trkpt><trkpt lat="43.592689486894336" lon="10.699595296256721"><ele>34.0</ele><time>2026-04-15T12:44:10.001Z</time></trkpt><trkpt lat="43.59246485857005" lon="10.699733142292137"><ele>34.0</ele><time>2026-04-15T12:44:11.001Z</time></trkpt><trkpt lat="43.592243273599756" lon="10.699867553580543"><ele>34.0</ele><time>2026-04-15T12:44:12.001Z</time></trkpt><trkpt lat="43.592015325447555" lon="10.700002226434773"><ele>34.0</ele><time>2026-04-15T12:44:13.001Z</time></trkpt><trkpt lat="43.59178901896231" lon="10.700137253360497"><ele>34.5</ele><time>2026-04-15T12:44:14.001Z</time></trkpt><trkpt lat="43.591562223779384" lon="10.70027506457231"><ele>35.0</ele><time>2026-04-15T12:44:15.001Z</time></trkpt><trkpt lat="43.5913374797597" lon="10.700411097146528"><ele>34.0</ele><time>2026-04-15T12:44:16.001Z</time></trkpt><trkpt lat="43.591110455809144" lon="10.70054435047106"><ele>33.0</ele><time>2026-04-15T12:44:17.001Z</time></trkpt><trkpt lat="43.59088523277083" lon="10.700665429726747"><ele>33.0</ele><time>2026-04-15T12:44:18.001Z</time></trkpt><trkpt lat="43.59066619299016" lon="10.70077182471673"><ele>33.0</ele><time>2026-04-15T12:44:19.001Z</time></trkpt><trkpt lat="43.59044875369481" lon="10.700868412594616"><ele>34.5</ele><time>2026-04-15T12:44:20.001Z</time></trkpt><trkpt lat="43.59022884895246" lon="10.700958555070242"><ele>36.0</ele><time>2026-04-15T12:44:21.001Z</time></trkpt><trkpt lat="43.5900035319285" lon="10.701045389706598"><ele>36.0</ele><time>2026-04-15T12:44:22.001Z</time></trkpt><trkpt lat="43.589777544828856" lon="10.701125131362586"><ele>36.0</ele><time>2026-04-15T12:44:23.001Z</time></trkpt><trkpt lat="43.58954882010865" lon="10.701201762860059"><ele>36.5</ele><time>2026-04-15T12:44:24.001Z</time></trkpt><trkpt lat="43.589324516861794" lon="10.701279435362268"><ele>37.0</ele><time>2026-04-15T12:44:25.001Z</time></trkpt><trkpt lat="43.589090846395486" lon="10.701360522353212"><ele>37.0</ele><time>2026-04-15T12:44:26.001Z</time></trkpt><trkpt lat="43.58885941192398" lon="10.701440449112273"><ele>37.0</ele><time>2026-04-15T12:44:27Z</time></trkpt><trkpt lat="43.58862909238061" lon="10.701522803723075"><ele>36.5</ele><time>2026-04-15T12:44:28Z</time></trkpt><trkpt lat="43.588391619073555" lon="10.701606700057187"><ele>36.0</ele><time>2026-04-15T12:44:29Z</time></trkpt><trkpt lat="43.588154925464394" lon="10.701689439979646"><ele>36.0</ele><time>2026-04-15T12:44:30Z</time></trkpt><trkpt lat="43.58791628597485" lon="10.701771818694091"><ele>36.0</ele><time>2026-04-15T12:44:31Z</time></trkpt><trkpt lat="43.58767907837699" lon="10.701854734445845"><ele>36.5</ele><time>2026-04-15T12:44:32Z</time></trkpt><trkpt lat="43.587441799286005" lon="10.701937023265744"><ele>37.0</ele><time>2026-04-15T12:44:33Z</time></trkpt><trkpt lat="43.587203802317326" lon="10.70201915100047"><ele>36.0</ele><time>2026-04-15T12:44:34Z</time></trkpt><trkpt lat="43.586967750580925" lon="10.702098782298258"><ele>35.0</ele><time>2026-04-15T12:44:35Z</time></trkpt><trkpt lat="43.58673587410768" lon="10.702178116910925"><ele>35.0</ele><time>2026-04-15T12:44:36Z</time></trkpt><trkpt lat="43.586498969345314" lon="10.70225678756026"><ele>35.0</ele><time>2026-04-15T12:44:37Z</time></trkpt><trkpt lat="43.58626916567678" lon="10.702332781426215"><ele>34.5</ele><time>2026-04-15T12:44:38Z</time></trkpt><trkpt lat="43.58603815639964" lon="10.702409340257862"><ele>34.0</ele><time>2026-04-15T12:44:39Z</time></trkpt><trkpt lat="43.585808104259485" lon="10.702488873460512"><ele>34.0</ele><time>2026-04-15T12:44:40Z</time></trkpt><trkpt lat="43.585581530630655" lon="10.7025683089536"><ele>34.0</ele><time>2026-04-15T12:44:41Z</time></trkpt><trkpt lat="43.585350919195264" lon="10.702649345908135"><ele>34.5</ele><time>2026-04-15T12:44:42Z</time></trkpt><trkpt lat="43.58512603946524" lon="10.702728730072936"><ele>35.0</ele><time>2026-04-15T12:44:43Z</time></trkpt><trkpt lat="43.5848971436775" lon="10.702807780289987"><ele>35.5</ele><time>2026-04-15T12:44:44Z</time></trkpt><trkpt lat="43.58467094315633" lon="10.702885198320738"><ele>36.0</ele><time>2026-04-15T12:44:45Z</time></trkpt><trkpt lat="43.58444300357155" lon="10.70296133455468"><ele>36.0</ele><time>2026-04-15T12:44:46Z</time></trkpt><trkpt lat="43.58421149017274" lon="10.703038382567646"><ele>36.0</ele><time>2026-04-15T12:44:47Z</time></trkpt><trkpt lat="43.58398314291181" lon="10.703118677165074"><ele>36.0</ele><time>2026-04-15T12:44:48Z</time></trkpt><trkpt lat="43.583753875912066" lon="10.703201893683866"><ele>36.0</ele><time>2026-04-15T12:44:49Z</time></trkpt><trkpt lat="43.58352608368334" lon="10.70328488531053"><ele>36.5</ele><time>2026-04-15T12:44:50Z</time></trkpt><trkpt lat="43.5832992726563" lon="10.703367051559809"><ele>37.0</ele><time>2026-04-15T12:44:51Z</time></trkpt><trkpt lat="43.583079003847104" lon="10.703442734356656"><ele>37.0</ele><time>2026-04-15T12:44:52Z</time></trkpt><trkpt lat="43.58286768328471" lon="10.703512654194927"><ele>37.0</ele><time>2026-04-15T12:44:53Z</time></trkpt><trkpt lat="43.58266900424423" lon="10.703576079326968"><ele>37.0</ele><time>2026-04-15T12:44:54Z</time></trkpt><trkpt lat="43.58248449142027" lon="10.703637559781598"><ele>36.66666666666667</ele><time>2026-04-15T12:44:55Z</time></trkpt><trkpt lat="43.5823077790135" lon="10.703699247299516"><ele>36.333333333333336</ele><time>2026-04-15T12:44:56Z</time></trkpt><trkpt lat="43.58213059947584" lon="10.703759986098277"><ele>36.0</ele><time>2026-04-15T12:44:57Z</time></trkpt><trkpt lat="43.58195939862678" lon="10.703816347482443"><ele>36.0</ele><time>2026-04-15T12:44:58Z</time></trkpt><trkpt lat="43.58179465729876" lon="10.703866306000824"><ele>36.0</ele><time>2026-04-15T12:44:59Z</time></trkpt><trkpt lat="43.58163585916527" lon="10.703910839386308"><ele>36.0</ele><time>2026-04-15T12:45:00Z</time></trkpt><trkpt lat="43.58147763270213" lon="10.703947426966295"><ele>36.0</ele><time>2026-04-15T12:45:01Z</time></trkpt><trkpt lat="43.581320940164446" lon="10.703974166400432"><ele>36.0</ele><time>2026-04-15T12:45:02Z</time></trkpt><trkpt lat="43.58116997420208" lon="10.70398986004187"><ele>36.0</ele><time>2026-04-15T12:45:03Z</time></trkpt><trkpt lat="43.58102253624807" lon="10.70399708591256"><ele>36.25</ele><time>2026-04-15T12:45:04Z</time></trkpt><trkpt lat="43.58088824195893" lon="10.704003755494181"><ele>36.5</ele><time>2026-04-15T12:45:05Z</time></trkpt><trkpt lat="43.58076686086931" lon="10.704012377972713"><ele>36.75</ele><time>2026-04-15T12:45:06Z</time></trkpt><trkpt lat="43.58065335488744" lon="10.704022141446787"><ele>37.0</ele><time>2026-04-15T12:45:07Z</time></trkpt><trkpt lat="43.580533108118296" lon="10.704044413589262"><ele>37.0</ele><time>2026-04-15T12:45:08Z</time></trkpt><trkpt lat="43.580406527737956" lon="10.704099918534098"><ele>37.0</ele><time>2026-04-15T12:45:09Z</time></trkpt><trkpt lat="43.580271979452355" lon="10.70419244067451"><ele>37.0</ele><time>2026-04-15T12:45:10Z</time></trkpt><trkpt lat="43.58013892941169" lon="10.704301321322248"><ele>37.0</ele><time>2026-04-15T12:45:11Z</time></trkpt><trkpt lat="43.579999630857856" lon="10.704412976072303"><ele>37.0</ele><time>2026-04-15T12:45:12Z</time></trkpt><trkpt lat="43.57985097537145" lon="10.704520057343299"><ele>37.0</ele><time>2026-04-15T12:45:13Z</time></trkpt><trkpt lat="43.579693892402055" lon="10.704616014706216"><ele>37.0</ele><time>2026-04-15T12:45:14Z</time></trkpt><trkpt lat="43.579526356006085" lon="10.704704170160966"><ele>36.66666666666667</ele><time>2026-04-15T12:45:15Z</time></trkpt><trkpt lat="43.579360801172314" lon="10.704777623654243"><ele>36.333333333333336</ele><time>2026-04-15T12:45:16Z</time></trkpt><trkpt lat="43.57918798662509" lon="10.704839687489054"><ele>36.0</ele><time>2026-04-15T12:45:17Z</time></trkpt><trkpt lat="43.57902259893442" lon="10.704901659204179"><ele>36.0</ele><time>2026-04-15T12:45:18Z</time></trkpt><trkpt lat="43.57885572710185" lon="10.704971037398666"><ele>36.0</ele><time>2026-04-15T12:45:19Z</time></trkpt><trkpt lat="43.57868585714217" lon="10.705040176843923"><ele>36.0</ele><time>2026-04-15T12:45:20Z</time></trkpt><trkpt lat="43.57851908618283" lon="10.705105785867842"><ele>36.0</ele><time>2026-04-15T12:45:21Z</time></trkpt><trkpt lat="43.57834986090062" lon="10.705171431415696"><ele>36.0</ele><time>2026-04-15T12:45:22Z</time></trkpt><trkpt lat="43.5781818930498" lon="10.705238027063059"><ele>36.0</ele><time>2026-04-15T12:45:23Z</time></trkpt><trkpt lat="43.57801514485224" lon="10.705303639402032"><ele>36.333333333333336</ele><time>2026-04-15T12:45:24Z</time></trkpt><trkpt lat="43.577847861176664" lon="10.705367045263703"><ele>36.66666666666667</ele><time>2026-04-15T12:45:25Z</time></trkpt><trkpt lat="43.57768235028852" lon="10.705432202694638"><ele>37.0</ele><time>2026-04-15T12:45:26Z</time></trkpt><trkpt lat="43.577516660492044" lon="10.70550019263577"><ele>37.0</ele><time>2026-04-15T12:45:27Z</time></trkpt><trkpt lat="43.57735121088986" lon="10.705565597394012"><ele>37.0</ele><time>2026-04-15T12:45:28Z</time></trkpt><trkpt lat="43.57718229814629" lon="10.70563302023938"><ele>37.0</ele><time>2026-04-15T12:45:29Z</time></trkpt><trkpt lat="43.57701706992485" lon="10.705700042927537"><ele>37.333333333333336</ele><time>2026-04-15T12:45:30Z</time></trkpt><trkpt lat="43.57685029795381" lon="10.705767781141978"><ele>37.666666666666664</ele><time>2026-04-15T12:45:31Z</time></trkpt><trkpt lat="43.57668536749098" lon="10.705832679320785"><ele>38.0</ele><time>2026-04-15T12:45:32Z</time></trkpt><trkpt lat="43.576512937840135" lon="10.705898346706844"><ele>38.0</ele><time>2026-04-15T12:45:33Z</time></trkpt><trkpt lat="43.5763436877708" lon="10.705966356742488"><ele>38.0</ele><time>2026-04-15T12:45:34Z</time></trkpt><trkpt lat="43.57617081060564" lon="10.706035316363945"><ele>38.0</ele><time>2026-04-15T12:45:35Z</time></trkpt><trkpt lat="43.575999491696145" lon="10.706102384174088"><ele>38.0</ele><time>2026-04-15T12:45:36Z</time></trkpt><trkpt lat="43.57582225921424" lon="10.706175380302467"><ele>38.0</ele><time>2026-04-15T12:45:37Z</time></trkpt><trkpt lat="43.57566645094486" lon="10.706234044921056"><ele>38.0</ele><time>2026-04-15T12:45:38Z</time></trkpt><trkpt lat="43.57552166085395" lon="10.70629127944828"><ele>38.0</ele><time>2026-04-15T12:45:39Z</time></trkpt><trkpt lat="43.57537416177374" lon="10.70634836213721"><ele>38.0</ele><time>2026-04-15T12:45:40Z</time></trkpt><trkpt lat="43.575218092239304" lon="10.706408686070622"><ele>38.0</ele><time>2026-04-15T12:45:41Z</time></trkpt><trkpt lat="43.575064090591674" lon="10.706467680797488"><ele>38.0</ele><time>2026-04-15T12:45:42Z</time></trkpt><trkpt lat="43.574905351039966" lon="10.706531829611885"><ele>38.0</ele><time>2026-04-15T12:45:43Z</time></trkpt><trkpt lat="43.57474858761899" lon="10.706596497382566"><ele>38.0</ele><time>2026-04-15T12:45:44Z</time></trkpt><trkpt lat="43.57459482673301" lon="10.706658584631093"><ele>37.666666666666664</ele><time>2026-04-15T12:45:45Z</time></trkpt><trkpt lat="43.57443671722851" lon="10.706719116975085"><ele>37.333333333333336</ele><time>2026-04-15T12:45:46Z</time></trkpt><trkpt lat="43.5742803488295" lon="10.706778508619504"><ele>37.0</ele><time>2026-04-15T12:45:47Z</time></trkpt><trkpt lat="43.57411857267215" lon="10.706841335482764"><ele>37.0</ele><time>2026-04-15T12:45:48Z</time></trkpt><trkpt lat="43.57395522167275" lon="10.706905888740156"><ele>37.0</ele><time>2026-04-15T12:45:49Z</time></trkpt><trkpt lat="43.57379249358502" lon="10.706970938994932"><ele>37.0</ele><time>2026-04-15T12:45:50Z</time></trkpt><trkpt lat="43.57362435694773" lon="10.707039413444809"><ele>37.66666666666667</ele><time>2026-04-15T12:45:51Z</time></trkpt><trkpt lat="43.573454436441324" lon="10.707110129617295"><ele>38.333333333333336</ele><time>2026-04-15T12:45:52Z</time></trkpt><trkpt lat="43.573286925199184" lon="10.707178084791583"><ele>39.0</ele><time>2026-04-15T12:45:53Z</time></trkpt><trkpt lat="43.57312142851142" lon="10.70724173408908"><ele>39.0</ele><time>2026-04-15T12:45:54Z</time></trkpt><trkpt lat="43.57295858085196" lon="10.707302605604676"><ele>39.0</ele><time>2026-04-15T12:45:55Z</time></trkpt><trkpt lat="43.57279867039217" lon="10.707364316186494"><ele>39.0</ele><time>2026-04-15T12:45:56Z</time></trkpt><trkpt lat="43.572642138603065" lon="10.707426663625245"><ele>39.333333333333336</ele><time>2026-04-15T12:45:57Z</time></trkpt><trkpt lat="43.57247777736256" lon="10.707492137360203"><ele>39.66666666666667</ele><time>2026-04-15T12:45:58Z</time></trkpt><trkpt lat="43.572317436329385" lon="10.707555778485686"><ele>40.0</ele><time>2026-04-15T12:45:59Z</time></trkpt><trkpt lat="43.57215546064519" lon="10.707619811344086"><ele>39.333333333333336</ele><time>2026-04-15T12:46:00Z</time></trkpt><trkpt lat="43.57198528950761" lon="10.70768692122002"><ele>38.666666666666664</ele><time>2026-04-15T12:46:01Z</time></trkpt><trkpt lat="43.57181663036458" lon="10.707755708677114"><ele>38.0</ele><time>2026-04-15T12:46:02Z</time></trkpt><trkpt lat="43.57164678697192" lon="10.707826000814995"><ele>38.0</ele><time>2026-04-15T12:46:03Z</time></trkpt><trkpt lat="43.57147376504018" lon="10.707895745493655"><ele>38.0</ele><time>2026-04-15T12:46:04Z</time></trkpt><trkpt lat="43.57130110769052" lon="10.707964427396172"><ele>38.0</ele><time>2026-04-15T12:46:05Z</time></trkpt><trkpt lat="43.571127399729676" lon="10.708031936647888"><ele>38.0</ele><time>2026-04-15T12:46:06Z</time></trkpt><trkpt lat="43.57095485536852" lon="10.70810036935893"><ele>38.0</ele><time>2026-04-15T12:46:07Z</time></trkpt><trkpt lat="43.57078387701981" lon="10.708167749114628"><ele>38.0</ele><time>2026-04-15T12:46:08Z</time></trkpt><trkpt lat="43.570610404965926" lon="10.708234136537502"><ele>38.0</ele><time>2026-04-15T12:46:09Z</time></trkpt><trkpt lat="43.57043699978947" lon="10.708302808800925"><ele>38.0</ele><time>2026-04-15T12:46:10Z</time></trkpt><trkpt lat="43.57026511652334" lon="10.70837303273353"><ele>38.0</ele><time>2026-04-15T12:46:11Z</time></trkpt><trkpt lat="43.57009072604306" lon="10.7084441235248"><ele>38.666666666666664</ele><time>2026-04-15T12:46:12Z</time></trkpt><trkpt lat="43.56991491097524" lon="10.708515111550867"><ele>39.333333333333336</ele><time>2026-04-15T12:46:13Z</time></trkpt><trkpt lat="43.56974043344665" lon="10.708585052106546"><ele>40.0</ele><time>2026-04-15T12:46:14Z</time></trkpt><trkpt lat="43.5695647555486" lon="10.708655200883923"><ele>40.333333333333336</ele><time>2026-04-15T12:46:15Z</time></trkpt><trkpt lat="43.56938554896239" lon="10.70872612999419"><ele>40.666666666666664</ele><time>2026-04-15T12:46:16.001Z</time></trkpt><trkpt lat="43.56920588585891" lon="10.70879672745559"><ele>41.0</ele><time>2026-04-15T12:46:17.001Z</time></trkpt><trkpt lat="43.56902568150608" lon="10.708868742272944"><ele>41.0</ele><time>2026-04-15T12:46:18.001Z</time></trkpt><trkpt lat="43.56884706741578" lon="10.70894075992053"><ele>41.0</ele><time>2026-04-15T12:46:19.001Z</time></trkpt><trkpt lat="43.56866950012617" lon="10.709010731032599"><ele>41.0</ele><time>2026-04-15T12:46:20.001Z</time></trkpt><trkpt lat="43.56848849004688" lon="10.709082816666946"><ele>40.666666666666664</ele><time>2026-04-15T12:46:21.001Z</time></trkpt><trkpt lat="43.56830749493873" lon="10.70915508865762"><ele>40.333333333333336</ele><time>2026-04-15T12:46:22.001Z</time></trkpt><trkpt lat="43.568126627502245" lon="10.709226815824586"><ele>40.0</ele><time>2026-04-15T12:46:23.001Z</time></trkpt><trkpt lat="43.56794630142966" lon="10.70929872046593"><ele>40.333333333333336</ele><time>2026-04-15T12:46:24.001Z</time></trkpt><trkpt lat="43.567771471621064" lon="10.709371912339721"><ele>40.666666666666664</ele><time>2026-04-15T12:46:25.001Z</time></trkpt><trkpt lat="43.56758956757569" lon="10.709445453944051"><ele>41.0</ele><time>2026-04-15T12:46:26.001Z</time></trkpt><trkpt lat="43.56741014243647" lon="10.709514075249032"><ele>41.33333333333333</ele><time>2026-04-15T12:46:27.001Z</time></trkpt><trkpt lat="43.567232223745464" lon="10.709581569071112"><ele>41.666666666666664</ele><time>2026-04-15T12:46:28.001Z</time></trkpt><trkpt lat="43.567053115434874" lon="10.709650657033619"><ele>42.0</ele><time>2026-04-15T12:46:29.001Z</time></trkpt><trkpt lat="43.56687796469505" lon="10.70972235108652"><ele>42.0</ele><time>2026-04-15T12:46:30.001Z</time></trkpt><trkpt lat="43.566703279515885" lon="10.709798047639762"><ele>42.0</ele><time>2026-04-15T12:46:31.001Z</time></trkpt><trkpt lat="43.566525599301386" lon="10.709876019525652"><ele>42.0</ele><time>2026-04-15T12:46:32.001Z</time></trkpt><trkpt lat="43.566363939012426" lon="10.709942539718392"><ele>42.0</ele><time>2026-04-15T12:46:33.001Z</time></trkpt><trkpt lat="43.566198158371826" lon="10.710008275307516"><ele>42.0</ele><time>2026-04-15T12:46:34.001Z</time></trkpt><trkpt lat="43.56603580098608" lon="10.71006915766879"><ele>42.0</ele><time>2026-04-15T12:46:35.001Z</time></trkpt><trkpt lat="43.56587608310484" lon="10.710127963896939"><ele>42.0</ele><time>2026-04-15T12:46:36.001Z</time></trkpt><trkpt lat="43.56571682533953" lon="10.710190817667288"><ele>42.0</ele><time>2026-04-15T12:46:37.001Z</time></trkpt><trkpt lat="43.565556760211" lon="10.710256822651488"><ele>42.0</ele><time>2026-04-15T12:46:38.001Z</time></trkpt><trkpt lat="43.56539314831887" lon="10.710322055847088"><ele>41.666666666666664</ele><time>2026-04-15T12:46:39.001Z</time></trkpt><trkpt lat="43.56522846230461" lon="10.710387771267083"><ele>41.33333333333333</ele><time>2026-04-15T12:46:40.001Z</time></trkpt><trkpt lat="43.565060640446426" lon="10.710454252840425"><ele>41.0</ele><time>2026-04-15T12:46:41.001Z</time></trkpt><trkpt lat="43.564891109268444" lon="10.710521975345223"><ele>41.0</ele><time>2026-04-15T12:46:42.001Z</time></trkpt><trkpt lat="43.56472071087861" lon="10.71058754914578"><ele>41.0</ele><time>2026-04-15T12:46:43.001Z</time></trkpt><trkpt lat="43.564546905121425" lon="10.71065145540717"><ele>41.0</ele><time>2026-04-15T12:46:44.001Z</time></trkpt><trkpt lat="43.564372175841314" lon="10.710717747059036"><ele>41.33333333333333</ele><time>2026-04-15T12:46:45.001Z</time></trkpt><trkpt lat="43.56419322693082" lon="10.710786429523754"><ele>41.666666666666664</ele><time>2026-04-15T12:46:46.001Z</time></trkpt><trkpt lat="43.5640210922697" lon="10.71085317138731"><ele>42.0</ele><time>2026-04-15T12:46:47.001Z</time></trkpt><trkpt lat="43.563843569264186" lon="10.71092389621409"><ele>42.0</ele><time>2026-04-15T12:46:48.001Z</time></trkpt><trkpt lat="43.56366740326941" lon="10.710993858953897"><ele>42.0</ele><time>2026-04-15T12:46:49.001Z</time></trkpt><trkpt lat="43.563487511922574" lon="10.711063674184002"><ele>42.0</ele><time>2026-04-15T12:46:50.001Z</time></trkpt><trkpt lat="43.56330416546807" lon="10.711132710882943"><ele>42.0</ele><time>2026-04-15T12:46:51.001Z</time></trkpt><trkpt lat="43.56311874153129" lon="10.71120346224367"><ele>42.0</ele><time>2026-04-15T12:46:52.001Z</time></trkpt><trkpt lat="43.56293548765584" lon="10.711274381084056"><ele>42.0</ele><time>2026-04-15T12:46:53.001Z</time></trkpt><trkpt lat="43.56274856983829" lon="10.711346659045729"><ele>42.333333333333336</ele><time>2026-04-15T12:46:54.001Z</time></trkpt><trkpt lat="43.5625626489057" lon="10.711418576244055"><ele>42.66666666666667</ele><time>2026-04-15T12:46:55.001Z</time></trkpt><trkpt lat="43.562373959422736" lon="10.711491142977156"><ele>43.0</ele><time>2026-04-15T12:46:56.001Z</time></trkpt><trkpt lat="43.562193209432856" lon="10.711562471340073"><ele>43.333333333333336</ele><time>2026-04-15T12:46:57.001Z</time></trkpt><trkpt lat="43.56201308498848" lon="10.711634518135579"><ele>43.666666666666664</ele><time>2026-04-15T12:46:58.001Z</time></trkpt><trkpt lat="43.56184275003877" lon="10.711703601497414"><ele>44.0</ele><time>2026-04-15T12:46:59.001Z</time></trkpt><trkpt lat="43.56167341762291" lon="10.711772412267766"><ele>44.0</ele><time>2026-04-15T12:47:00.001Z</time></trkpt><trkpt lat="43.561505340976446" lon="10.711839197997115"><ele>44.0</ele><time>2026-04-15T12:47:01.001Z</time></trkpt><trkpt lat="43.56134321510234" lon="10.71190358331547"><ele>44.0</ele><time>2026-04-15T12:47:02.001Z</time></trkpt><trkpt lat="43.56117394937833" lon="10.711964613202534"><ele>43.666666666666664</ele><time>2026-04-15T12:47:03.001Z</time></trkpt><trkpt lat="43.561009128309756" lon="10.712017641294523"><ele>43.333333333333336</ele><time>2026-04-15T12:47:04.001Z</time></trkpt><trkpt lat="43.56083830145424" lon="10.712063914877378"><ele>43.0</ele><time>2026-04-15T12:47:05.001Z</time></trkpt><trkpt lat="43.560673449723836" lon="10.712094334503535"><ele>43.0</ele><time>2026-04-15T12:47:06.001Z</time></trkpt><trkpt lat="43.560502036320145" lon="10.712113106723935"><ele>43.0</ele><time>2026-04-15T12:47:07.001Z</time></trkpt><trkpt lat="43.56032993074986" lon="10.712129595185583"><ele>43.0</ele><time>2026-04-15T12:47:08.001Z</time></trkpt><trkpt lat="43.560155318520074" lon="10.712143960906321"><ele>43.333333333333336</ele><time>2026-04-15T12:47:09.001Z</time></trkpt><trkpt lat="43.55997954994447" lon="10.712156638206784"><ele>43.666666666666664</ele><time>2026-04-15T12:47:10.001Z</time></trkpt><trkpt lat="43.55980765158449" lon="10.712166317934992"><ele>44.0</ele><time>2026-04-15T12:47:11.001Z</time></trkpt><trkpt lat="43.55963085610038" lon="10.712174507075186"><ele>44.0</ele><time>2026-04-15T12:47:12.001Z</time></trkpt><trkpt lat="43.55945524140543" lon="10.712183647582657"><ele>44.0</ele><time>2026-04-15T12:47:13.001Z</time></trkpt><trkpt lat="43.55928151489333" lon="10.712193614315316"><ele>44.0</ele><time>2026-04-15T12:47:14.001Z</time></trkpt><trkpt lat="43.55910383263727" lon="10.712205280078464"><ele>44.0</ele><time>2026-04-15T12:47:15.001Z</time></trkpt><trkpt lat="43.558927662373414" lon="10.712217203369566"><ele>44.0</ele><time>2026-04-15T12:47:16.001Z</time></trkpt><trkpt lat="43.55875348753383" lon="10.712228079554983"><ele>44.0</ele><time>2026-04-15T12:47:17.001Z</time></trkpt><trkpt lat="43.55857403760817" lon="10.712237939411901"><ele>44.0</ele><time>2026-04-15T12:47:18.001Z</time></trkpt><trkpt lat="43.55839660648746" lon="10.712247791572752"><ele>44.0</ele><time>2026-04-15T12:47:19.001Z</time></trkpt><trkpt lat="43.55822014965381" lon="10.712258082906978"><ele>44.0</ele><time>2026-04-15T12:47:20.001Z</time></trkpt><trkpt lat="43.55804479766306" lon="10.71227190883739"><ele>44.33333333333333</ele><time>2026-04-15T12:47:21.001Z</time></trkpt><trkpt lat="43.55786329887877" lon="10.712287022475667"><ele>44.666666666666664</ele><time>2026-04-15T12:47:22.001Z</time></trkpt><trkpt lat="43.55768507811623" lon="10.712303061776428"><ele>45.0</ele><time>2026-04-15T12:47:23.001Z</time></trkpt><trkpt lat="43.557506144362186" lon="10.712317605364154"><ele>45.0</ele><time>2026-04-15T12:47:24.001Z</time></trkpt><trkpt lat="43.557325667119926" lon="10.712326843474049"><ele>45.0</ele><time>2026-04-15T12:47:25.001Z</time></trkpt><trkpt lat="43.55714474148868" lon="10.71233394153399"><ele>45.0</ele><time>2026-04-15T12:47:26.001Z</time></trkpt><trkpt lat="43.55696294654918" lon="10.712341689309124"><ele>45.333333333333336</ele><time>2026-04-15T12:47:27.001Z</time></trkpt><trkpt lat="43.55678012699099" lon="10.712353158988675"><ele>45.66666666666667</ele><time>2026-04-15T12:47:28.001Z</time></trkpt><trkpt lat="43.556595003046965" lon="10.712366162825042"><ele>46.0</ele><time>2026-04-15T12:47:29.001Z</time></trkpt><trkpt lat="43.55641418954364" lon="10.712381258204715"><ele>46.0</ele><time>2026-04-15T12:47:30.001Z</time></trkpt><trkpt lat="43.55623856372133" lon="10.712396556160092"><ele>46.0</ele><time>2026-04-15T12:47:31.001Z</time></trkpt><trkpt lat="43.556062916743265" lon="10.712410426657456"><ele>46.0</ele><time>2026-04-15T12:47:32.001Z</time></trkpt><trkpt lat="43.55588546441405" lon="10.712421153472118"><ele>46.333333333333336</ele><time>2026-04-15T12:47:33.001Z</time></trkpt><trkpt lat="43.5557137308261" lon="10.712431703342222"><ele>46.666666666666664</ele><time>2026-04-15T12:47:34.001Z</time></trkpt><trkpt lat="43.555537905929924" lon="10.71244286852643"><ele>47.0</ele><time>2026-04-15T12:47:35.001Z</time></trkpt><trkpt lat="43.55536601829564" lon="10.712457892829537"><ele>47.0</ele><time>2026-04-15T12:47:36.001Z</time></trkpt><trkpt lat="43.55518987644721" lon="10.712472855045371"><ele>47.0</ele><time>2026-04-15T12:47:37.001Z</time></trkpt><trkpt lat="43.555014355910856" lon="10.712485743112007"><ele>47.0</ele><time>2026-04-15T12:47:38.001Z</time></trkpt><trkpt lat="43.55483768314186" lon="10.71249619859553"><ele>47.0</ele><time>2026-04-15T12:47:39.001Z</time></trkpt><trkpt lat="43.55466144135019" lon="10.71250442138096"><ele>47.0</ele><time>2026-04-15T12:47:40.001Z</time></trkpt><trkpt lat="43.55448303181379" lon="10.712512658049947"><ele>47.0</ele><time>2026-04-15T12:47:41.001Z</time></trkpt><trkpt lat="43.554306580187614" lon="10.712523472314118"><ele>47.0</ele><time>2026-04-15T12:47:42.001Z</time></trkpt><trkpt lat="43.55412628329714" lon="10.712536279879451"><ele>47.0</ele><time>2026-04-15T12:47:43.001Z</time></trkpt><trkpt lat="43.55394788627906" lon="10.712549771649243"><ele>47.0</ele><time>2026-04-15T12:47:44.001Z</time></trkpt><trkpt lat="43.55376643844824" lon="10.712564359717136"><ele>47.0</ele><time>2026-04-15T12:47:45.001Z</time></trkpt><trkpt lat="43.5535911723731" lon="10.71257593374259"><ele>47.0</ele><time>2026-04-15T12:47:46.001Z</time></trkpt><trkpt lat="43.55341687672726" lon="10.712586499962532"><ele>47.0</ele><time>2026-04-15T12:47:47.001Z</time></trkpt><trkpt lat="43.5532570077122" lon="10.712593503519248"><ele>47.0</ele><time>2026-04-15T12:47:48.001Z</time></trkpt><trkpt lat="43.55310385027538" lon="10.712599296575734"><ele>47.0</ele><time>2026-04-15T12:47:49.001Z</time></trkpt><trkpt lat="43.5529519881885" lon="10.712607093889241"><ele>47.0</ele><time>2026-04-15T12:47:50.001Z</time></trkpt><trkpt lat="43.55279107499133" lon="10.712619795572477"><ele>47.0</ele><time>2026-04-15T12:47:51.001Z</time></trkpt><trkpt lat="43.55263065065475" lon="10.712641645925457"><ele>47.0</ele><time>2026-04-15T12:47:52.001Z</time></trkpt><trkpt lat="43.552477273442115" lon="10.712676031201827"><ele>47.0</ele><time>2026-04-15T12:47:53.001Z</time></trkpt><trkpt lat="43.55232338433262" lon="10.712727067703563"><ele>48.0</ele><time>2026-04-15T12:47:54.001Z</time></trkpt><trkpt lat="43.552165724415666" lon="10.712795457655334"><ele>49.0</ele><time>2026-04-15T12:47:55.001Z</time></trkpt><trkpt lat="43.552018343792376" lon="10.71286844679613"><ele>50.0</ele><time>2026-04-15T12:47:56.001Z</time></trkpt><trkpt lat="43.55186690139277" lon="10.712941459327233"><ele>50.333333333333336</ele><time>2026-04-15T12:47:57.001Z</time></trkpt><trkpt lat="43.551711658667614" lon="10.713013352864882"><ele>50.66666666666667</ele><time>2026-04-15T12:47:58.001Z</time></trkpt><trkpt lat="43.55155882974988" lon="10.713086627096263"><ele>51.0</ele><time>2026-04-15T12:47:59.001Z</time></trkpt><trkpt lat="43.55140886079878" lon="10.713159562771615"><ele>51.0</ele><time>2026-04-15T12:48:00.001Z</time></trkpt><trkpt lat="43.551257370312356" lon="10.713235367034038"><ele>51.0</ele><time>2026-04-15T12:48:01.001Z</time></trkpt><trkpt lat="43.55111131690481" lon="10.713305293541861"><ele>51.0</ele><time>2026-04-15T12:48:02.001Z</time></trkpt><trkpt lat="43.550966111002964" lon="10.713373582756411"><ele>51.33333333333333</ele><time>2026-04-15T12:48:03.001Z</time></trkpt><trkpt lat="43.550821702103676" lon="10.713443900376605"><ele>51.666666666666664</ele><time>2026-04-15T12:48:04.001Z</time></trkpt><trkpt lat="43.550681509717656" lon="10.71351611776922"><ele>52.0</ele><time>2026-04-15T12:48:05.001Z</time></trkpt><trkpt lat="43.5505426484878" lon="10.71358794477118"><ele>52.75</ele><time>2026-04-15T12:48:06.001Z</time></trkpt><trkpt lat="43.55040631075908" lon="10.713657626928034"><ele>53.5</ele><time>2026-04-15T12:48:07.001Z</time></trkpt><trkpt lat="43.55026483196773" lon="10.713724107157951"><ele>54.25</ele><time>2026-04-15T12:48:08.001Z</time></trkpt><trkpt lat="43.55012867087404" lon="10.713782089175355"><ele>55.0</ele><time>2026-04-15T12:48:09.001Z</time></trkpt><trkpt lat="43.54998725279018" lon="10.713846344917588"><ele>55.0</ele><time>2026-04-15T12:48:10.001Z</time></trkpt><trkpt lat="43.549849708247486" lon="10.713913649911957"><ele>55.0</ele><time>2026-04-15T12:48:11.001Z</time></trkpt><trkpt lat="43.549710862414955" lon="10.713981849046334"><ele>55.0</ele><time>2026-04-15T12:48:12.001Z</time></trkpt><trkpt lat="43.54956715980226" lon="10.714044003477854"><ele>55.0</ele><time>2026-04-15T12:48:13.001Z</time></trkpt><trkpt lat="43.54941921603311" lon="10.714090746667027"><ele>55.0</ele><time>2026-04-15T12:48:14.001Z</time></trkpt><trkpt lat="43.54926901461299" lon="10.714117050341136"><ele>55.0</ele><time>2026-04-15T12:48:15.001Z</time></trkpt><trkpt lat="43.54911417883443" lon="10.71412583372627"><ele>55.0</ele><time>2026-04-15T12:48:16.001Z</time></trkpt><trkpt lat="43.54896246611395" lon="10.714108383575367"><ele>55.0</ele><time>2026-04-15T12:48:17.001Z</time></trkpt><trkpt lat="43.54880442462154" lon="10.714087847885402"><ele>55.0</ele><time>2026-04-15T12:48:18.001Z</time></trkpt><trkpt lat="43.548644094761976" lon="10.714079420538438"><ele>55.0</ele><time>2026-04-15T12:48:19Z</time></trkpt><trkpt lat="43.54847893320658" lon="10.714076223938886"><ele>54.33333333333333</ele><time>2026-04-15T12:48:20Z</time></trkpt><trkpt lat="43.54831035781855" lon="10.71407540954818"><ele>53.66666666666667</ele><time>2026-04-15T12:48:21.001Z</time></trkpt><trkpt lat="43.548143895017446" lon="10.714082946419696"><ele>53.0</ele><time>2026-04-15T12:48:22.001Z</time></trkpt><trkpt lat="43.54797736067612" lon="10.714102420370672"><ele>53.0</ele><time>2026-04-15T12:48:23.001Z</time></trkpt><trkpt lat="43.54780555511095" lon="10.714128557638444"><ele>53.0</ele><time>2026-04-15T12:48:24.001Z</time></trkpt><trkpt lat="43.547630460035926" lon="10.714160519243261"><ele>53.0</ele><time>2026-04-15T12:48:25.001Z</time></trkpt><trkpt lat="43.547460708812004" lon="10.714196306212687"><ele>53.0</ele><time>2026-04-15T12:48:26.001Z</time></trkpt><trkpt lat="43.547281434021095" lon="10.714242237188321"><ele>53.0</ele><time>2026-04-15T12:48:27.001Z</time></trkpt><trkpt lat="43.54710406212886" lon="10.714296300856871"><ele>53.0</ele><time>2026-04-15T12:48:28.001Z</time></trkpt><trkpt lat="43.54692717061924" lon="10.714355919921788"><ele>55.333333333333336</ele><time>2026-04-15T12:48:29.001Z</time></trkpt><trkpt lat="43.54675104721411" lon="10.714415329953455"><ele>57.66666666666667</ele><time>2026-04-15T12:48:30.001Z</time></trkpt><trkpt lat="43.54657393273868" lon="10.714478443438455"><ele>60.0</ele><time>2026-04-15T12:48:31.001Z</time></trkpt><trkpt lat="43.54639576590989" lon="10.714545755427956"><ele>60.0</ele><time>2026-04-15T12:48:32.001Z</time></trkpt><trkpt lat="43.54622150786944" lon="10.714617294005778"><ele>60.0</ele><time>2026-04-15T12:48:33.001Z</time></trkpt><trkpt lat="43.54605756099576" lon="10.714680832410464"><ele>60.0</ele><time>2026-04-15T12:48:34.001Z</time></trkpt><trkpt lat="43.545880699912644" lon="10.714732338383557"><ele>59.0</ele><time>2026-04-15T12:48:35.001Z</time></trkpt><trkpt lat="43.54570771630965" lon="10.714756537919056"><ele>58.0</ele><time>2026-04-15T12:48:36.001Z</time></trkpt><trkpt lat="43.54553938605601" lon="10.714750848912301"><ele>57.0</ele><time>2026-04-15T12:48:37.001Z</time></trkpt><trkpt lat="43.545385083870435" lon="10.714730332830879"><ele>57.0</ele><time>2026-04-15T12:48:38.001Z</time></trkpt><trkpt lat="43.545249079255655" lon="10.714721449471151"><ele>57.0</ele><time>2026-04-15T12:48:39.001Z</time></trkpt><trkpt lat="43.5451237140943" lon="10.714726103303587"><ele>57.0</ele><time>2026-04-15T12:48:40.001Z</time></trkpt><trkpt lat="43.54501584355764" lon="10.714735989600792"><ele>57.0</ele><time>2026-04-15T12:48:41.001Z</time></trkpt><trkpt lat="43.544928946752314" lon="10.714753819168179"><ele>57.0</ele><time>2026-04-15T12:48:42.001Z</time></trkpt><trkpt lat="43.544853887027855" lon="10.714787312327427"><ele>57.0</ele><time>2026-04-15T12:48:43.001Z</time></trkpt><trkpt lat="43.54479173622102" lon="10.714825302820888"><ele>57.0</ele><time>2026-04-15T12:48:44.001Z</time></trkpt><trkpt lat="43.54473660153577" lon="10.71486934774415"><ele>57.0</ele><time>2026-04-15T12:48:45.001Z</time></trkpt><trkpt lat="43.54449409960928" lon="10.714913781283231"><ele>56.25</ele><time>2026-04-15T12:48:48.001Z</time></trkpt><trkpt lat="43.54435646654152" lon="10.714907654951602"><ele>55.5</ele><time>2026-04-15T12:48:49.001Z</time></trkpt><trkpt lat="43.54420328463059" lon="10.714898825518656"><ele>54.75</ele><time>2026-04-15T12:48:50.001Z</time></trkpt><trkpt lat="43.544058346504364" lon="10.714895779760369"><ele>54.0</ele><time>2026-04-15T12:48:51.001Z</time></trkpt><trkpt lat="43.543934663612795" lon="10.714892475478543"><ele>54.0</ele><time>2026-04-15T12:48:52.001Z</time></trkpt><trkpt lat="43.54382491660074" lon="10.714854920656322"><ele>54.0</ele><time>2026-04-15T12:48:53.001Z</time></trkpt><trkpt lat="43.54374581916247" lon="10.714754903696043"><ele>54.0</ele><time>2026-04-15T12:48:54.001Z</time></trkpt><trkpt lat="43.54369141984685" lon="10.714593545482424"><ele>54.0</ele><time>2026-04-15T12:48:55.001Z</time></trkpt><trkpt lat="43.54366297539979" lon="10.71439448895266"><ele>49.666666666666664</ele><time>2026-04-15T12:48:56.001Z</time></trkpt><trkpt lat="43.543644501407734" lon="10.714176025512996"><ele>45.33333333333333</ele><time>2026-04-15T12:48:57.001Z</time></trkpt><trkpt lat="43.54361717884118" lon="10.713937328897758"><ele>41.0</ele><time>2026-04-15T12:48:58.001Z</time></trkpt><trkpt lat="43.54358079257418" lon="10.7136854328134"><ele>41.33333333333333</ele><time>2026-04-15T12:48:59.001Z</time></trkpt><trkpt lat="43.54354250903196" lon="10.713417086039186"><ele>41.666666666666664</ele><time>2026-04-15T12:49:00.001Z</time></trkpt><trkpt lat="43.54350512134069" lon="10.713122977264469"><ele>42.0</ele><time>2026-04-15T12:49:01.001Z</time></trkpt><trkpt lat="43.543471878560844" lon="10.712860567694273"><ele>42.25</ele><time>2026-04-15T12:49:02.001Z</time></trkpt><trkpt lat="43.54344655402819" lon="10.712668980745638"><ele>42.5</ele><time>2026-04-15T12:49:03.001Z</time></trkpt><trkpt lat="43.54342238155561" lon="10.712498847689577"><ele>42.75</ele><time>2026-04-15T12:49:04.001Z</time></trkpt><trkpt lat="43.543398745854056" lon="10.712320346410557"><ele>43.0</ele><time>2026-04-15T12:49:05.001Z</time></trkpt><trkpt lat="43.543372885940315" lon="10.712134518321884"><ele>43.0</ele><time>2026-04-15T12:49:06.001Z</time></trkpt><trkpt lat="43.54334436464793" lon="10.711943653034568"><ele>43.0</ele><time>2026-04-15T12:49:07.001Z</time></trkpt><trkpt lat="43.54331743193801" lon="10.711743643469172"><ele>43.0</ele><time>2026-04-15T12:49:08.001Z</time></trkpt><trkpt lat="43.543288753580626" lon="10.711540964978267"><ele>43.0</ele><time>2026-04-15T12:49:09.001Z</time></trkpt><trkpt lat="43.54325935096292" lon="10.71132527918505"><ele>43.0</ele><time>2026-04-15T12:49:10.001Z</time></trkpt><trkpt lat="43.543231360091276" lon="10.711112849133723"><ele>43.0</ele><time>2026-04-15T12:49:11.001Z</time></trkpt><trkpt lat="43.5432051673904" lon="10.71091354494723"><ele>43.0</ele><time>2026-04-15T12:49:12.001Z</time></trkpt><trkpt lat="43.54317947592846" lon="10.710723406025147"><ele>43.0</ele><time>2026-04-15T12:49:13.001Z</time></trkpt><trkpt lat="43.54315621707697" lon="10.710540201747543"><ele>43.5</ele><time>2026-04-15T12:49:14.001Z</time></trkpt><trkpt lat="43.54312927998698" lon="10.710353721124863"><ele>44.0</ele><time>2026-04-15T12:49:15.001Z</time></trkpt><trkpt lat="43.54310031635294" lon="10.710163277889706"><ele>44.5</ele><time>2026-04-15T12:49:16.001Z</time></trkpt><trkpt lat="43.543077210147686" lon="10.709985792187409"><ele>45.0</ele><time>2026-04-15T12:49:17.001Z</time></trkpt><trkpt lat="43.543051259548484" lon="10.709805094328294"><ele>45.75</ele><time>2026-04-15T12:49:18.001Z</time></trkpt><trkpt lat="43.543029782174344" lon="10.709623070700284"><ele>46.5</ele><time>2026-04-15T12:49:19.001Z</time></trkpt><trkpt lat="43.542998996307695" lon="10.709440851971694"><ele>47.25</ele><time>2026-04-15T12:49:20.001Z</time></trkpt><trkpt lat="43.54297499800811" lon="10.70925643303955"><ele>48.0</ele><time>2026-04-15T12:49:21.001Z</time></trkpt><trkpt lat="43.54295074638382" lon="10.709066635008046"><ele>48.0</ele><time>2026-04-15T12:49:22.001Z</time></trkpt><trkpt lat="43.54292925383173" lon="10.708873631519591"><ele>48.0</ele><time>2026-04-15T12:49:23.001Z</time></trkpt><trkpt lat="43.54289985975572" lon="10.708678006140408"><ele>48.0</ele><time>2026-04-15T12:49:24.001Z</time></trkpt><trkpt lat="43.54287462740223" lon="10.708491976495731"><ele>48.0</ele><time>2026-04-15T12:49:25.001Z</time></trkpt><trkpt lat="43.54285059842609" lon="10.708301804038946"><ele>48.0</ele><time>2026-04-15T12:49:26.001Z</time></trkpt><trkpt lat="43.54282313881227" lon="10.708112099344689"><ele>48.0</ele><time>2026-04-15T12:49:27.001Z</time></trkpt><trkpt lat="43.54279377471608" lon="10.707920792593887"><ele>48.0</ele><time>2026-04-15T12:49:28.001Z</time></trkpt><trkpt lat="43.54277329086689" lon="10.707728500977305"><ele>48.0</ele><time>2026-04-15T12:49:29.001Z</time></trkpt><trkpt lat="43.54275104986806" lon="10.707536238692859"><ele>48.25</ele><time>2026-04-15T12:49:30.001Z</time></trkpt><trkpt lat="43.54272379967748" lon="10.707350130504373"><ele>48.5</ele><time>2026-04-15T12:49:31.001Z</time></trkpt><trkpt lat="43.54269743488528" lon="10.707161960193883"><ele>48.75</ele><time>2026-04-15T12:49:32.001Z</time></trkpt><trkpt lat="43.54267415373784" lon="10.706971296423278"><ele>49.0</ele><time>2026-04-15T12:49:33.001Z</time></trkpt><trkpt lat="43.542648876311894" lon="10.70677903881045"><ele>49.25</ele><time>2026-04-15T12:49:34.001Z</time></trkpt><trkpt lat="43.54262285655126" lon="10.706585867240024"><ele>49.5</ele><time>2026-04-15T12:49:35.001Z</time></trkpt><trkpt lat="43.542596116989216" lon="10.706392239327666"><ele>49.75</ele><time>2026-04-15T12:49:36.001Z</time></trkpt><trkpt lat="43.542567958985586" lon="10.706198602474602"><ele>50.0</ele><time>2026-04-15T12:49:37.001Z</time></trkpt><trkpt lat="43.542543237415146" lon="10.705997832607428"><ele>50.0</ele><time>2026-04-15T12:49:38.001Z</time></trkpt><trkpt lat="43.54251679962479" lon="10.70579976897586"><ele>50.0</ele><time>2026-04-15T12:49:39.001Z</time></trkpt><trkpt lat="43.54248592658462" lon="10.70560091731079"><ele>50.0</ele><time>2026-04-15T12:49:40.001Z</time></trkpt><trkpt lat="43.542457484958106" lon="10.705394183140216"><ele>50.0</ele><time>2026-04-15T12:49:41.001Z</time></trkpt><trkpt lat="43.54243021356948" lon="10.705192241054792"><ele>49.66666666666667</ele><time>2026-04-15T12:49:42.001Z</time></trkpt><trkpt lat="43.542402304743725" lon="10.70498379419088"><ele>49.33333333333333</ele><time>2026-04-15T12:49:43.001Z</time></trkpt><trkpt lat="43.54237448467477" lon="10.70478150140899"><ele>49.0</ele><time>2026-04-15T12:49:44.001Z</time></trkpt><trkpt lat="43.54234753719151" lon="10.704572925533045"><ele>49.666666666666664</ele><time>2026-04-15T12:49:45.001Z</time></trkpt><trkpt lat="43.54232002425185" lon="10.704364359466751"><ele>50.33333333333333</ele><time>2026-04-15T12:49:46.001Z</time></trkpt><trkpt lat="43.542291712796406" lon="10.704164991051277"><ele>51.0</ele><time>2026-04-15T12:49:47.001Z</time></trkpt><trkpt lat="43.54226201803746" lon="10.703960561015846"><ele>51.0</ele><time>2026-04-15T12:49:48.001Z</time></trkpt><trkpt lat="43.542234658858106" lon="10.703748588138303"><ele>51.0</ele><time>2026-04-15T12:49:49.001Z</time></trkpt><trkpt lat="43.54220675272041" lon="10.703551386785975"><ele>51.0</ele><time>2026-04-15T12:49:50.001Z</time></trkpt><trkpt lat="43.542179643815814" lon="10.703357658483531"><ele>51.0</ele><time>2026-04-15T12:49:51.001Z</time></trkpt><trkpt lat="43.54212620529417" lon="10.702999024130078"><ele>51.0</ele><time>2026-04-15T12:49:53Z</time></trkpt><trkpt lat="43.54210359967489" lon="10.70281222845983"><ele>51.0</ele><time>2026-04-15T12:49:54Z</time></trkpt><trkpt lat="43.54208091027838" lon="10.702627509276482"><ele>51.0</ele><time>2026-04-15T12:49:55Z</time></trkpt><trkpt lat="43.5420555555537" lon="10.702446042688043"><ele>51.0</ele><time>2026-04-15T12:49:56Z</time></trkpt><trkpt lat="43.542030037057046" lon="10.702252925409176"><ele>51.5</ele><time>2026-04-15T12:49:57Z</time></trkpt><trkpt lat="43.54200437845743" lon="10.70206437117428"><ele>52.0</ele><time>2026-04-15T12:49:58Z</time></trkpt><trkpt lat="43.541980654427455" lon="10.70187672719412"><ele>52.5</ele><time>2026-04-15T12:49:59Z</time></trkpt><trkpt lat="43.54195880471421" lon="10.701699330908276"><ele>53.0</ele><time>2026-04-15T12:50:00Z</time></trkpt><trkpt lat="43.54193732690997" lon="10.701522728607415"><ele>53.25</ele><time>2026-04-15T12:50:01Z</time></trkpt><trkpt lat="43.541914684229056" lon="10.701351051277856"><ele>53.5</ele><time>2026-04-15T12:50:02Z</time></trkpt><trkpt lat="43.54189150759721" lon="10.70118504389431"><ele>53.75</ele><time>2026-04-15T12:50:03Z</time></trkpt><trkpt lat="43.54186637510084" lon="10.701014696200735"><ele>54.0</ele><time>2026-04-15T12:50:04Z</time></trkpt><trkpt lat="43.5418432723562" lon="10.70084926750065"><ele>54.400000000000006</ele><time>2026-04-15T12:50:05Z</time></trkpt><trkpt lat="43.54182361629651" lon="10.700685042785764"><ele>54.800000000000004</ele><time>2026-04-15T12:50:06Z</time></trkpt><trkpt lat="43.541807108251135" lon="10.700539680657316"><ele>55.199999999999996</ele><time>2026-04-15T12:50:07Z</time></trkpt><trkpt lat="43.54179196769467" lon="10.700406349495392"><ele>55.599999999999994</ele><time>2026-04-15T12:50:08Z</time></trkpt><trkpt lat="43.541783774496636" lon="10.700288246181128"><ele>56.0</ele><time>2026-04-15T12:50:09Z</time></trkpt><trkpt lat="43.54179115462545" lon="10.70018777647712"><ele>56.0</ele><time>2026-04-15T12:50:10Z</time></trkpt><trkpt lat="43.54181104427697" lon="10.700104365759364"><ele>55.99999999999999</ele><time>2026-04-15T12:50:11Z</time></trkpt><trkpt lat="43.54181419041508" lon="10.699948323325499"><ele>55.99999999999999</ele><time>2026-04-15T12:50:13Z</time></trkpt><trkpt lat="43.54170368908002" lon="10.699877621020857"><ele>56.0</ele><time>2026-04-15T12:50:15Z</time></trkpt><trkpt lat="43.54163147731978" lon="10.699913941190431"><ele>56.0</ele><time>2026-04-15T12:50:16Z</time></trkpt><trkpt lat="43.541486629885306" lon="10.700015031522371"><ele>56.0</ele><time>2026-04-15T12:50:18Z</time></trkpt><trkpt lat="43.54140563444108" lon="10.700039588648142"><ele>55.99999999999999</ele><time>2026-04-15T12:50:19Z</time></trkpt><trkpt lat="43.54131439133312" lon="10.700059907303723"><ele>55.99999999999999</ele><time>2026-04-15T12:50:20Z</time></trkpt><trkpt lat="43.541218456111196" lon="10.70007743051584"><ele>56.0</ele><time>2026-04-15T12:50:21Z</time></trkpt><trkpt lat="43.541123245843046" lon="10.700093182938414"><ele>56.0</ele><time>2026-04-15T12:50:22Z</time></trkpt><trkpt lat="43.54102749910017" lon="10.700107901132522"><ele>56.5</ele><time>2026-04-15T12:50:23Z</time></trkpt><trkpt lat="43.540923494282225" lon="10.70011973188379"><ele>57.0</ele><time>2026-04-15T12:50:24Z</time></trkpt><trkpt lat="43.540810603498265" lon="10.700139023212508"><ele>57.5</ele><time>2026-04-15T12:50:25Z</time></trkpt><trkpt lat="43.54069129299973" lon="10.700164275505326"><ele>58.0</ele><time>2026-04-15T12:50:26Z</time></trkpt><trkpt lat="43.540575892213596" lon="10.700184935903847"><ele>58.0</ele><time>2026-04-15T12:50:27.001Z</time></trkpt><trkpt lat="43.54045106713001" lon="10.700202248301634"><ele>58.0</ele><time>2026-04-15T12:50:28.001Z</time></trkpt><trkpt lat="43.54032893610152" lon="10.700218965619287"><ele>58.0</ele><time>2026-04-15T12:50:29.001Z</time></trkpt><trkpt lat="43.54020553692443" lon="10.700232076768481"><ele>58.0</ele><time>2026-04-15T12:50:30.001Z</time></trkpt><trkpt lat="43.54008130189792" lon="10.70024704893368"><ele>57.75</ele><time>2026-04-15T12:50:31.001Z</time></trkpt><trkpt lat="43.53995684643168" lon="10.700265290989687"><ele>57.5</ele><time>2026-04-15T12:50:32.001Z</time></trkpt><trkpt lat="43.53982908402639" lon="10.70028174151493"><ele>57.25</ele><time>2026-04-15T12:50:33.001Z</time></trkpt><trkpt lat="43.53970195652903" lon="10.700297201602032"><ele>57.0</ele><time>2026-04-15T12:50:34.001Z</time></trkpt><trkpt lat="43.539568248779666" lon="10.700312761840584"><ele>56.75</ele><time>2026-04-15T12:50:35.001Z</time></trkpt><trkpt lat="43.53943527226261" lon="10.700330393935836"><ele>56.5</ele><time>2026-04-15T12:50:36.001Z</time></trkpt><trkpt lat="43.539297480741176" lon="10.70034834143811"><ele>56.25</ele><time>2026-04-15T12:50:37.001Z</time></trkpt><trkpt lat="43.53915385442605" lon="10.700365406074347"><ele>56.0</ele><time>2026-04-15T12:50:38.001Z</time></trkpt><trkpt lat="43.53900661673388" lon="10.700382350685036"><ele>56.0</ele><time>2026-04-15T12:50:39.001Z</time></trkpt><trkpt lat="43.5388589936048" lon="10.700404077392498"><ele>56.0</ele><time>2026-04-15T12:50:40.001Z</time></trkpt><trkpt lat="43.538707700807294" lon="10.700426440149034"><ele>56.0</ele><time>2026-04-15T12:50:41.001Z</time></trkpt><trkpt lat="43.53853892914853" lon="10.700446776299477"><ele>56.333333333333336</ele><time>2026-04-15T12:50:42.001Z</time></trkpt><trkpt lat="43.5383469803102" lon="10.70047119965501"><ele>56.66666666666667</ele><time>2026-04-15T12:50:43.001Z</time></trkpt><trkpt lat="43.53814755187495" lon="10.70049819111056"><ele>57.0</ele><time>2026-04-15T12:50:44.001Z</time></trkpt><trkpt lat="43.537962030033725" lon="10.700523795605347"><ele>57.0</ele><time>2026-04-15T12:50:45.001Z</time></trkpt><trkpt lat="43.537799043445666" lon="10.700547959725055"><ele>57.0</ele><time>2026-04-15T12:50:46.001Z</time></trkpt><trkpt lat="43.53765286253831" lon="10.700567004747695"><ele>57.0</ele><time>2026-04-15T12:50:47.001Z</time></trkpt><trkpt lat="43.5375024381136" lon="10.700592054215313"><ele>57.0</ele><time>2026-04-15T12:50:48.001Z</time></trkpt><trkpt lat="43.53735473776459" lon="10.700621858769512"><ele>57.0</ele><time>2026-04-15T12:50:49.001Z</time></trkpt><trkpt lat="43.53720557300995" lon="10.700652220737704"><ele>57.0</ele><time>2026-04-15T12:50:50.001Z</time></trkpt><trkpt lat="43.53704984552479" lon="10.700679371639273"><ele>56.33333333333333</ele><time>2026-04-15T12:50:51.001Z</time></trkpt><trkpt lat="43.536880051279866" lon="10.700716572032245"><ele>55.666666666666664</ele><time>2026-04-15T12:50:52.001Z</time></trkpt><trkpt lat="43.53670884511019" lon="10.700753077128946"><ele>55.0</ele><time>2026-04-15T12:50:53.001Z</time></trkpt><trkpt lat="43.536540819857066" lon="10.700789059711761"><ele>55.0</ele><time>2026-04-15T12:50:54.001Z</time></trkpt><trkpt lat="43.53637539040764" lon="10.70082456864663"><ele>55.0</ele><time>2026-04-15T12:50:55.001Z</time></trkpt><trkpt lat="43.53620424115794" lon="10.70086158997088"><ele>55.0</ele><time>2026-04-15T12:50:56.001Z</time></trkpt><trkpt lat="43.536029789182905" lon="10.700897988910196"><ele>55.666666666666664</ele><time>2026-04-15T12:50:57.001Z</time></trkpt><trkpt lat="43.53585905028478" lon="10.700933416408226"><ele>56.33333333333333</ele><time>2026-04-15T12:50:58.001Z</time></trkpt><trkpt lat="43.53570265077044" lon="10.700965365673692"><ele>57.0</ele><time>2026-04-15T12:50:59.001Z</time></trkpt><trkpt lat="43.535555300785035" lon="10.700997500836385"><ele>57.0</ele><time>2026-04-15T12:51:00.001Z</time></trkpt><trkpt lat="43.53540524597486" lon="10.701032153544103"><ele>57.0</ele><time>2026-04-15T12:51:01.001Z</time></trkpt><trkpt lat="43.535250877209634" lon="10.7010645586953"><ele>57.0</ele><time>2026-04-15T12:51:02.001Z</time></trkpt><trkpt lat="43.535095604657734" lon="10.701096248401237"><ele>56.66666666666667</ele><time>2026-04-15T12:51:03.001Z</time></trkpt><trkpt lat="43.53493844430251" lon="10.701128978438847"><ele>56.333333333333336</ele><time>2026-04-15T12:51:04.001Z</time></trkpt><trkpt lat="43.53477305377688" lon="10.701159179947572"><ele>56.0</ele><time>2026-04-15T12:51:05.001Z</time></trkpt><trkpt lat="43.534611099178534" lon="10.701192917918796"><ele>56.66666666666667</ele><time>2026-04-15T12:51:06.001Z</time></trkpt><trkpt lat="43.53445124859946" lon="10.701226439422165"><ele>57.33333333333333</ele><time>2026-04-15T12:51:07.001Z</time></trkpt><trkpt lat="43.53428297457298" lon="10.7012626628094"><ele>58.0</ele><time>2026-04-15T12:51:08.001Z</time></trkpt><trkpt lat="43.53411194886582" lon="10.701296310804793"><ele>58.0</ele><time>2026-04-15T12:51:09.001Z</time></trkpt><trkpt lat="43.53394000466698" lon="10.701330411316823"><ele>58.0</ele><time>2026-04-15T12:51:10.001Z</time></trkpt><trkpt lat="43.53376221577623" lon="10.701365939656803"><ele>58.0</ele><time>2026-04-15T12:51:11.001Z</time></trkpt><trkpt lat="43.53359254045128" lon="10.701403521923025"><ele>57.33333333333333</ele><time>2026-04-15T12:51:12.001Z</time></trkpt><trkpt lat="43.53341106844183" lon="10.701442889098125"><ele>56.66666666666667</ele><time>2026-04-15T12:51:13.001Z</time></trkpt><trkpt lat="43.53322759437448" lon="10.701479434911644"><ele>56.0</ele><time>2026-04-15T12:51:14.001Z</time></trkpt><trkpt lat="43.533046407773995" lon="10.701515737215068"><ele>55.66666666666667</ele><time>2026-04-15T12:51:15.001Z</time></trkpt><trkpt lat="43.532858671558316" lon="10.701548777090252"><ele>55.33333333333333</ele><time>2026-04-15T12:51:16.001Z</time></trkpt><trkpt lat="43.53266566048237" lon="10.701584973833185"><ele>55.0</ele><time>2026-04-15T12:51:17.001Z</time></trkpt><trkpt lat="43.53247702344705" lon="10.701625995797933"><ele>55.0</ele><time>2026-04-15T12:51:18.001Z</time></trkpt><trkpt lat="43.53228765013069" lon="10.70166857129064"><ele>55.0</ele><time>2026-04-15T12:51:19.001Z</time></trkpt><trkpt lat="43.532095017763126" lon="10.701711516740529"><ele>55.0</ele><time>2026-04-15T12:51:20.001Z</time></trkpt><trkpt lat="43.53190530707442" lon="10.701746751023277"><ele>55.0</ele><time>2026-04-15T12:51:21.001Z</time></trkpt><trkpt lat="43.53171932592866" lon="10.701780755227272"><ele>55.0</ele><time>2026-04-15T12:51:22.001Z</time></trkpt><trkpt lat="43.53153236051105" lon="10.701817056323975"><ele>55.0</ele><time>2026-04-15T12:51:23.001Z</time></trkpt><trkpt lat="43.53134596320341" lon="10.70185475502897"><ele>55.0</ele><time>2026-04-15T12:51:24.001Z</time></trkpt><trkpt lat="43.53115695422621" lon="10.70189305452965"><ele>55.0</ele><time>2026-04-15T12:51:25.001Z</time></trkpt><trkpt lat="43.53097143413365" lon="10.701926434128026"><ele>55.0</ele><time>2026-04-15T12:51:26.001Z</time></trkpt><trkpt lat="43.53078787211521" lon="10.701954479477667"><ele>55.0</ele><time>2026-04-15T12:51:27.001Z</time></trkpt><trkpt lat="43.530607769722344" lon="10.701979309847742"><ele>55.0</ele><time>2026-04-15T12:51:28.001Z</time></trkpt><trkpt lat="43.530427636199086" lon="10.701999737304941"><ele>55.0</ele><time>2026-04-15T12:51:29.001Z</time></trkpt><trkpt lat="43.530254103881134" lon="10.70202553378118"><ele>54.666666666666664</ele><time>2026-04-15T12:51:30.001Z</time></trkpt><trkpt lat="43.53008200783007" lon="10.702051691359939"><ele>54.33333333333333</ele><time>2026-04-15T12:51:31.001Z</time></trkpt><trkpt lat="43.52991747534793" lon="10.70207152319362"><ele>54.0</ele><time>2026-04-15T12:51:32Z</time></trkpt><trkpt lat="43.529748886187875" lon="10.702089981648879"><ele>54.0</ele><time>2026-04-15T12:51:33Z</time></trkpt><trkpt lat="43.52958121425947" lon="10.702109705053378"><ele>54.0</ele><time>2026-04-15T12:51:34Z</time></trkpt><trkpt lat="43.529410899673906" lon="10.702130133255515"><ele>54.0</ele><time>2026-04-15T12:51:35Z</time></trkpt><trkpt lat="43.52923432789913" lon="10.702152125869292"><ele>54.33333333333333</ele><time>2026-04-15T12:51:36Z</time></trkpt><trkpt lat="43.52906178365073" lon="10.702170173942458"><ele>54.666666666666664</ele><time>2026-04-15T12:51:37Z</time></trkpt><trkpt lat="43.52888404544386" lon="10.702179656296385"><ele>55.0</ele><time>2026-04-15T12:51:38Z</time></trkpt><trkpt lat="43.52870684923866" lon="10.702185108138696"><ele>56.0</ele><time>2026-04-15T12:51:39Z</time></trkpt><trkpt lat="43.52852819654131" lon="10.702189842196272"><ele>57.0</ele><time>2026-04-15T12:51:40Z</time></trkpt><trkpt lat="43.5283506012432" lon="10.702195480934419"><ele>58.0</ele><time>2026-04-15T12:51:41Z</time></trkpt><trkpt lat="43.52817825788682" lon="10.702201478559452"><ele>58.0</ele><time>2026-04-15T12:51:42Z</time></trkpt><trkpt lat="43.528015017679444" lon="10.702209055647296"><ele>58.0</ele><time>2026-04-15T12:51:43Z</time></trkpt><trkpt lat="43.527854435990626" lon="10.702216870092302"><ele>58.0</ele><time>2026-04-15T12:51:44Z</time></trkpt><trkpt lat="43.527693187612144" lon="10.702221071826024"><ele>57.33333333333333</ele><time>2026-04-15T12:51:45Z</time></trkpt><trkpt lat="43.52752573120493" lon="10.70222683155979"><ele>56.66666666666667</ele><time>2026-04-15T12:51:46Z</time></trkpt><trkpt lat="43.52735826793777" lon="10.702230662986215"><ele>56.0</ele><time>2026-04-15T12:51:47Z</time></trkpt><trkpt lat="43.52719047299847" lon="10.70223612212939"><ele>56.0</ele><time>2026-04-15T12:51:48Z</time></trkpt><trkpt lat="43.527028495698126" lon="10.702242784237034"><ele>56.0</ele><time>2026-04-15T12:51:49Z</time></trkpt><trkpt lat="43.52688227676057" lon="10.702251286272226"><ele>56.0</ele><time>2026-04-15T12:51:50Z</time></trkpt><trkpt lat="43.526735797513865" lon="10.702264981654203"><ele>56.0</ele><time>2026-04-15T12:51:51Z</time></trkpt><trkpt lat="43.52659805187838" lon="10.702294451073104"><ele>56.0</ele><time>2026-04-15T12:51:52Z</time></trkpt><trkpt lat="43.526469336769686" lon="10.702349081794656"><ele>56.0</ele><time>2026-04-15T12:51:53Z</time></trkpt><trkpt lat="43.52634924420968" lon="10.702424360937052"><ele>56.0</ele><time>2026-04-15T12:51:54Z</time></trkpt><trkpt lat="43.526222572964485" lon="10.702521725975927"><ele>56.333333333333336</ele><time>2026-04-15T12:51:55Z</time></trkpt><trkpt lat="43.526104761980434" lon="10.702627122785094"><ele>56.66666666666667</ele><time>2026-04-15T12:51:56Z</time></trkpt><trkpt lat="43.52597685231252" lon="10.702738906042683"><ele>57.0</ele><time>2026-04-15T12:51:57Z</time></trkpt><trkpt lat="43.52583750371755" lon="10.702859315869144"><ele>56.33333333333333</ele><time>2026-04-15T12:51:58Z</time></trkpt><trkpt lat="43.52569676100972" lon="10.702988163986245"><ele>55.666666666666664</ele><time>2026-04-15T12:51:59Z</time></trkpt><trkpt lat="43.525550759552864" lon="10.703117798283516"><ele>55.0</ele><time>2026-04-15T12:52:00Z</time></trkpt><trkpt lat="43.52540039811896" lon="10.703240993281396"><ele>54.33333333333333</ele><time>2026-04-15T12:52:01Z</time></trkpt><trkpt lat="43.52524977983026" lon="10.703368050939252"><ele>53.66666666666667</ele><time>2026-04-15T12:52:02Z</time></trkpt><trkpt lat="43.52509700174263" lon="10.703496240187926"><ele>53.0</ele><time>2026-04-15T12:52:03Z</time></trkpt><trkpt lat="43.524947789041114" lon="10.70362269503837"><ele>53.0</ele><time>2026-04-15T12:52:04Z</time></trkpt><trkpt lat="43.52480375952353" lon="10.703748137073058"><ele>53.0</ele><time>2026-04-15T12:52:05Z</time></trkpt><trkpt lat="43.524657613094924" lon="10.703878081534247"><ele>53.0</ele><time>2026-04-15T12:52:06Z</time></trkpt><trkpt lat="43.5245104511891" lon="10.704008016724153"><ele>53.66666666666667</ele><time>2026-04-15T12:52:07Z</time></trkpt><trkpt lat="43.524355727664364" lon="10.704138681565693"><ele>54.33333333333333</ele><time>2026-04-15T12:52:08Z</time></trkpt><trkpt lat="43.52420580726481" lon="10.704263729565314"><ele>55.0</ele><time>2026-04-15T12:52:09Z</time></trkpt><trkpt lat="43.524055968802024" lon="10.704391137741267"><ele>55.0</ele><time>2026-04-15T12:52:10Z</time></trkpt><trkpt lat="43.5239065839528" lon="10.704517668713306"><ele>55.0</ele><time>2026-04-15T12:52:11Z</time></trkpt><trkpt lat="43.523756306456704" lon="10.70464945824201"><ele>55.0</ele><time>2026-04-15T12:52:12Z</time></trkpt><trkpt lat="43.5236121732351" lon="10.704780084368654"><ele>55.33333333333333</ele><time>2026-04-15T12:52:13Z</time></trkpt><trkpt lat="43.523466641929026" lon="10.704912534951637"><ele>55.66666666666667</ele><time>2026-04-15T12:52:14Z</time></trkpt><trkpt lat="43.52331500217253" lon="10.705048329730664"><ele>56.0</ele><time>2026-04-15T12:52:15Z</time></trkpt><trkpt lat="43.52315872883309" lon="10.705182842579049"><ele>56.333333333333336</ele><time>2026-04-15T12:52:16Z</time></trkpt><trkpt lat="43.522999493640015" lon="10.705318454329976"><ele>56.66666666666667</ele><time>2026-04-15T12:52:17Z</time></trkpt><trkpt lat="43.52284089871918" lon="10.705455575830895"><ele>57.0</ele><time>2026-04-15T12:52:18Z</time></trkpt><trkpt lat="43.522681464399014" lon="10.705595531281674"><ele>57.0</ele><time>2026-04-15T12:52:19Z</time></trkpt><trkpt lat="43.5225302423671" lon="10.70572884780177"><ele>57.0</ele><time>2026-04-15T12:52:20Z</time></trkpt><trkpt lat="43.5223830329652" lon="10.705858115810003"><ele>57.0</ele><time>2026-04-15T12:52:21Z</time></trkpt><trkpt lat="43.52223447467629" lon="10.705988733136698"><ele>57.0</ele><time>2026-04-15T12:52:22Z</time></trkpt><trkpt lat="43.52208528294834" lon="10.706114484528634"><ele>57.0</ele><time>2026-04-15T12:52:23Z</time></trkpt><trkpt lat="43.5219325398423" lon="10.706246679717895"><ele>57.0</ele><time>2026-04-15T12:52:24Z</time></trkpt><trkpt lat="43.521781482081835" lon="10.706382108765064"><ele>57.0</ele><time>2026-04-15T12:52:25Z</time></trkpt><trkpt lat="43.52163275350513" lon="10.706517776328884"><ele>57.0</ele><time>2026-04-15T12:52:26Z</time></trkpt><trkpt lat="43.52148361592087" lon="10.706660277625131"><ele>57.0</ele><time>2026-04-15T12:52:27Z</time></trkpt><trkpt lat="43.52133752036206" lon="10.706817241284947"><ele>56.66666666666667</ele><time>2026-04-15T12:52:28Z</time></trkpt><trkpt lat="43.52119072151015" lon="10.706988152508881"><ele>56.333333333333336</ele><time>2026-04-15T12:52:29Z</time></trkpt><trkpt lat="43.521043798318615" lon="10.707162961966814"><ele>56.0</ele><time>2026-04-15T12:52:30Z</time></trkpt><trkpt lat="43.5208965205928" lon="10.70733616734538"><ele>56.0</ele><time>2026-04-15T12:52:31Z</time></trkpt><trkpt lat="43.52075433628188" lon="10.707500855143506"><ele>56.0</ele><time>2026-04-15T12:52:32Z</time></trkpt><trkpt lat="43.52060926593859" lon="10.707661687558517"><ele>56.0</ele><time>2026-04-15T12:52:33.001Z</time></trkpt><trkpt lat="43.52047236570841" lon="10.707824443049082"><ele>56.333333333333336</ele><time>2026-04-15T12:52:34.001Z</time></trkpt><trkpt lat="43.520344244467125" lon="10.707992007837545"><ele>56.66666666666667</ele><time>2026-04-15T12:52:35.001Z</time></trkpt><trkpt lat="43.52022706648086" lon="10.708168469133287"><ele>57.0</ele><time>2026-04-15T12:52:36.001Z</time></trkpt><trkpt lat="43.520122557541804" lon="10.708345309596451"><ele>57.0</ele><time>2026-04-15T12:52:37.001Z</time></trkpt><trkpt lat="43.520021976281825" lon="10.708529284766902"><ele>57.0</ele><time>2026-04-15T12:52:38.001Z</time></trkpt><trkpt lat="43.5199248481701" lon="10.708716847238327"><ele>57.0</ele><time>2026-04-15T12:52:39.001Z</time></trkpt><trkpt lat="43.519825761951616" lon="10.708904681561926"><ele>57.33333333333333</ele><time>2026-04-15T12:52:40.001Z</time></trkpt><trkpt lat="43.519721244456356" lon="10.709102463296654"><ele>57.666666666666664</ele><time>2026-04-15T12:52:41.001Z</time></trkpt><trkpt lat="43.51961650334664" lon="10.70930023249407"><ele>58.0</ele><time>2026-04-15T12:52:42.001Z</time></trkpt><trkpt lat="43.519509549730074" lon="10.709498160996565"><ele>57.33333333333333</ele><time>2026-04-15T12:52:43.001Z</time></trkpt><trkpt lat="43.51940389208431" lon="10.709691648021703"><ele>56.66666666666667</ele><time>2026-04-15T12:52:44.001Z</time></trkpt><trkpt lat="43.519294958748965" lon="10.709888712666263"><ele>56.0</ele><time>2026-04-15T12:52:45.001Z</time></trkpt><trkpt lat="43.519191272704774" lon="10.710086830031779"><ele>55.66666666666667</ele><time>2026-04-15T12:52:46.001Z</time></trkpt><trkpt lat="43.5190890430154" lon="10.710288611291304"><ele>55.33333333333333</ele><time>2026-04-15T12:52:47.001Z</time></trkpt><trkpt lat="43.51898958556873" lon="10.710489461937062"><ele>55.0</ele><time>2026-04-15T12:52:48Z</time></trkpt><trkpt lat="43.51889280932435" lon="10.710687346562631"><ele>55.0</ele><time>2026-04-15T12:52:49Z</time></trkpt><trkpt lat="43.51878990645985" lon="10.710896649481663"><ele>55.0</ele><time>2026-04-15T12:52:50Z</time></trkpt><trkpt lat="43.51868792121336" lon="10.711099091151693"><ele>55.0</ele><time>2026-04-15T12:52:51Z</time></trkpt><trkpt lat="43.51858776131495" lon="10.711292367633353"><ele>55.666666666666664</ele><time>2026-04-15T12:52:52Z</time></trkpt><trkpt lat="43.518483026133275" lon="10.711494858512669"><ele>56.33333333333333</ele><time>2026-04-15T12:52:53Z</time></trkpt><trkpt lat="43.51837470871883" lon="10.71169590223309"><ele>57.0</ele><time>2026-04-15T12:52:54Z</time></trkpt><trkpt lat="43.518266179762655" lon="10.711899526907393"><ele>56.33333333333333</ele><time>2026-04-15T12:52:55Z</time></trkpt><trkpt lat="43.5181554211381" lon="10.712109925580785"><ele>55.666666666666664</ele><time>2026-04-15T12:52:56Z</time></trkpt><trkpt lat="43.51804568856986" lon="10.712321663993047"><ele>55.0</ele><time>2026-04-15T12:52:57Z</time></trkpt><trkpt lat="43.51793410303513" lon="10.712541652809119"><ele>55.666666666666664</ele><time>2026-04-15T12:52:58Z</time></trkpt><trkpt lat="43.517819511024264" lon="10.712766066630074"><ele>56.33333333333333</ele><time>2026-04-15T12:52:59Z</time></trkpt><trkpt lat="43.51770446453553" lon="10.712991154740383"><ele>57.0</ele><time>2026-04-15T12:53:00Z</time></trkpt><trkpt lat="43.51759005991066" lon="10.713210996688177"><ele>57.0</ele><time>2026-04-15T12:53:01Z</time></trkpt><trkpt lat="43.51747649643922" lon="10.713425513146671"><ele>57.0</ele><time>2026-04-15T12:53:02Z</time></trkpt><trkpt lat="43.51736043540161" lon="10.713641766498188"><ele>57.0</ele><time>2026-04-15T12:53:03Z</time></trkpt><trkpt lat="43.517244335106454" lon="10.713856258695449"><ele>57.0</ele><time>2026-04-15T12:53:04Z</time></trkpt><trkpt lat="43.51713160543182" lon="10.714059132043761"><ele>57.0</ele><time>2026-04-15T12:53:05Z</time></trkpt><trkpt lat="43.517014761492106" lon="10.714263386182964"><ele>57.0</ele><time>2026-04-15T12:53:06Z</time></trkpt><trkpt lat="43.516892995358475" lon="10.714461802926477"><ele>58.0</ele><time>2026-04-15T12:53:07Z</time></trkpt><trkpt lat="43.51676173670419" lon="10.714664607053379"><ele>59.0</ele><time>2026-04-15T12:53:08Z</time></trkpt><trkpt lat="43.516619403184876" lon="10.714852296957211"><ele>60.0</ele><time>2026-04-15T12:53:09Z</time></trkpt><trkpt lat="43.51647515233168" lon="10.715029043163172"><ele>60.0</ele><time>2026-04-15T12:53:10Z</time></trkpt><trkpt lat="43.516319756231496" lon="10.715202842570996"><ele>60.0</ele><time>2026-04-15T12:53:11Z</time></trkpt><trkpt lat="43.51616254442073" lon="10.715368395552364"><ele>60.0</ele><time>2026-04-15T12:53:12Z</time></trkpt><trkpt lat="43.51599314380322" lon="10.715534185260681"><ele>59.66666666666667</ele><time>2026-04-15T12:53:13Z</time></trkpt><trkpt lat="43.5158270877346" lon="10.715688979178008"><ele>59.333333333333336</ele><time>2026-04-15T12:53:14Z</time></trkpt><trkpt lat="43.51565583159231" lon="10.71583935930258"><ele>59.0</ele><time>2026-04-15T12:53:15Z</time></trkpt><trkpt lat="43.515483734472" lon="10.715978582226192"><ele>59.0</ele><time>2026-04-15T12:53:16Z</time></trkpt><trkpt lat="43.51530959960451" lon="10.71610274038085"><ele>59.0</ele><time>2026-04-15T12:53:17Z</time></trkpt><trkpt lat="43.515137227877894" lon="10.716213484297754"><ele>59.0</ele><time>2026-04-15T12:53:18Z</time></trkpt><trkpt lat="43.51495281664122" lon="10.716319946287728"><ele>59.0</ele><time>2026-04-15T12:53:19Z</time></trkpt><trkpt lat="43.514768044384496" lon="10.716416818288907"><ele>59.0</ele><time>2026-04-15T12:53:20Z</time></trkpt><trkpt lat="43.514580514674165" lon="10.716506389947654"><ele>59.0</ele><time>2026-04-15T12:53:21Z</time></trkpt><trkpt lat="43.514395772515726" lon="10.716589084266545"><ele>59.66666666666667</ele><time>2026-04-15T12:53:22Z</time></trkpt><trkpt lat="43.514205348605046" lon="10.716673200857613"><ele>60.33333333333333</ele><time>2026-04-15T12:53:23Z</time></trkpt><trkpt lat="43.51402126888947" lon="10.71675298036062"><ele>61.0</ele><time>2026-04-15T12:53:24Z</time></trkpt><trkpt lat="43.51383739765358" lon="10.716830718083495"><ele>60.666666666666664</ele><time>2026-04-15T12:53:25Z</time></trkpt><trkpt lat="43.513659842136796" lon="10.716906498283208"><ele>60.33333333333333</ele><time>2026-04-15T12:53:26Z</time></trkpt><trkpt lat="43.5134799692585" lon="10.716983667016207"><ele>60.0</ele><time>2026-04-15T12:53:27Z</time></trkpt><trkpt lat="43.51329880931012" lon="10.717060076207385"><ele>60.0</ele><time>2026-04-15T12:53:28Z</time></trkpt><trkpt lat="43.51311641304039" lon="10.717138683712072"><ele>60.0</ele><time>2026-04-15T12:53:29Z</time></trkpt><trkpt lat="43.51293371036816" lon="10.717217096415107"><ele>60.0</ele><time>2026-04-15T12:53:30Z</time></trkpt><trkpt lat="43.512750009921646" lon="10.71729376424985"><ele>60.33333333333333</ele><time>2026-04-15T12:53:31Z</time></trkpt><trkpt lat="43.51256561206385" lon="10.717367039464497"><ele>60.666666666666664</ele><time>2026-04-15T12:53:32Z</time></trkpt><trkpt lat="43.51237854655943" lon="10.717433776232998"><ele>61.0</ele><time>2026-04-15T12:53:33Z</time></trkpt><trkpt lat="43.51218782661527" lon="10.71748898651686"><ele>62.0</ele><time>2026-04-15T12:53:34Z</time></trkpt><trkpt lat="43.5119924481458" lon="10.717528036878043"><ele>63.0</ele><time>2026-04-15T12:53:35Z</time></trkpt><trkpt lat="43.51180152765383" lon="10.71755222000152"><ele>64.0</ele><time>2026-04-15T12:53:36Z</time></trkpt><trkpt lat="43.511615745733216" lon="10.717569071159256"><ele>64.0</ele><time>2026-04-15T12:53:37Z</time></trkpt><trkpt lat="43.51143010766271" lon="10.717580975445385"><ele>64.0</ele><time>2026-04-15T12:53:38Z</time></trkpt><trkpt lat="43.5112445960511" lon="10.717586104761"><ele>64.0</ele><time>2026-04-15T12:53:39Z</time></trkpt><trkpt lat="43.5110611802023" lon="10.71759217589522"><ele>65.0</ele><time>2026-04-15T12:53:40Z</time></trkpt><trkpt lat="43.51088673662755" lon="10.717600983765838"><ele>66.0</ele><time>2026-04-15T12:53:41Z</time></trkpt><trkpt lat="43.51070296783675" lon="10.717613378427957"><ele>67.0</ele><time>2026-04-15T12:53:42Z</time></trkpt><trkpt lat="43.51052062289937" lon="10.717630651107575"><ele>68.33333333333333</ele><time>2026-04-15T12:53:43Z</time></trkpt><trkpt lat="43.51033222308454" lon="10.717650893157286"><ele>69.66666666666667</ele><time>2026-04-15T12:53:44Z</time></trkpt><trkpt lat="43.51014731300066" lon="10.717682162933324"><ele>71.0</ele><time>2026-04-15T12:53:45Z</time></trkpt><trkpt lat="43.509962657024204" lon="10.717721089830738"><ele>68.66666666666667</ele><time>2026-04-15T12:53:46Z</time></trkpt><trkpt lat="43.509786055904954" lon="10.717775224725289"><ele>66.33333333333333</ele><time>2026-04-15T12:53:47Z</time></trkpt><trkpt lat="43.5096081922041" lon="10.717838045706086"><ele>64.0</ele><time>2026-04-15T12:53:48Z</time></trkpt><trkpt lat="43.50943404904416" lon="10.717906617050257"><ele>63.666666666666664</ele><time>2026-04-15T12:53:49Z</time></trkpt><trkpt lat="43.50926057301954" lon="10.717971165216186"><ele>63.33333333333333</ele><time>2026-04-15T12:53:50Z</time></trkpt><trkpt lat="43.50909286048316" lon="10.718032709145298"><ele>63.0</ele><time>2026-04-15T12:53:51Z</time></trkpt><trkpt lat="43.508923215785806" lon="10.718091079462718"><ele>63.0</ele><time>2026-04-15T12:53:52Z</time></trkpt><trkpt lat="43.508756620108215" lon="10.718146209770959"><ele>63.0</ele><time>2026-04-15T12:53:53Z</time></trkpt><trkpt lat="43.50859025281168" lon="10.718204043293813"><ele>63.0</ele><time>2026-04-15T12:53:54Z</time></trkpt><trkpt lat="43.50842675530928" lon="10.718264131949832"><ele>63.0</ele><time>2026-04-15T12:53:55Z</time></trkpt><trkpt lat="43.508268781590616" lon="10.718322829448777"><ele>63.0</ele><time>2026-04-15T12:53:55.999Z</time></trkpt><trkpt lat="43.508119754878216" lon="10.718378016728382"><ele>63.0</ele><time>2026-04-15T12:53:56.999Z</time></trkpt><trkpt lat="43.50797028208235" lon="10.718435811045348"><ele>62.33333333333333</ele><time>2026-04-15T12:53:57.999Z</time></trkpt><trkpt lat="43.507810393753516" lon="10.718492756033822"><ele>61.666666666666664</ele><time>2026-04-15T12:53:58.999Z</time></trkpt><trkpt lat="43.50764165647016" lon="10.718550672745128"><ele>61.0</ele><time>2026-04-15T12:53:59.999Z</time></trkpt><trkpt lat="43.507465448058895" lon="10.718611261894244"><ele>61.0</ele><time>2026-04-15T12:54:00.999Z</time></trkpt><trkpt lat="43.50728796998093" lon="10.71867481830129"><ele>61.0</ele><time>2026-04-15T12:54:01.999Z</time></trkpt><trkpt lat="43.507112111369686" lon="10.718740257382441"><ele>61.0</ele><time>2026-04-15T12:54:02.999Z</time></trkpt><trkpt lat="43.50693282313631" lon="10.718809178088952"><ele>61.0</ele><time>2026-04-15T12:54:03.999Z</time></trkpt><trkpt lat="43.506751059513086" lon="10.718877228931124"><ele>61.0</ele><time>2026-04-15T12:54:04.999Z</time></trkpt><trkpt lat="43.50656896379214" lon="10.71894235620642"><ele>61.0</ele><time>2026-04-15T12:54:05.999Z</time></trkpt><trkpt lat="43.50637645162895" lon="10.719007816877312"><ele>62.0</ele><time>2026-04-15T12:54:06.999Z</time></trkpt><trkpt lat="43.5061892265564" lon="10.719070647181645"><ele>63.0</ele><time>2026-04-15T12:54:07.999Z</time></trkpt><trkpt lat="43.5060075848672" lon="10.719131729984287"><ele>64.0</ele><time>2026-04-15T12:54:08.999Z</time></trkpt><trkpt lat="43.50583400424321" lon="10.719192546957666"><ele>64.0</ele><time>2026-04-15T12:54:09.999Z</time></trkpt><trkpt lat="43.50566099060626" lon="10.719254558891864"><ele>64.0</ele><time>2026-04-15T12:54:10.999Z</time></trkpt><trkpt lat="43.50549242534067" lon="10.71931498809136"><ele>64.0</ele><time>2026-04-15T12:54:11.999Z</time></trkpt><trkpt lat="43.505322590810955" lon="10.719375718408743"><ele>64.0</ele><time>2026-04-15T12:54:12.999Z</time></trkpt><trkpt lat="43.505148010257585" lon="10.719436705816449"><ele>64.0</ele><time>2026-04-15T12:54:13.999Z</time></trkpt><trkpt lat="43.50497284513705" lon="10.719497806216017"><ele>64.0</ele><time>2026-04-15T12:54:14.999Z</time></trkpt><trkpt lat="43.50479958118184" lon="10.719559218655816"><ele>64.0</ele><time>2026-04-15T12:54:15.999Z</time></trkpt><trkpt lat="43.50462647112392" lon="10.719619591077066"><ele>64.0</ele><time>2026-04-15T12:54:16.999Z</time></trkpt><trkpt lat="43.50445240086292" lon="10.719681173327013"><ele>64.0</ele><time>2026-04-15T12:54:17.999Z</time></trkpt><trkpt lat="43.50427843582998" lon="10.71974322776503"><ele>63.666666666666664</ele><time>2026-04-15T12:54:18.999Z</time></trkpt><trkpt lat="43.50410570704821" lon="10.719805881760532"><ele>63.33333333333333</ele><time>2026-04-15T12:54:19.999Z</time></trkpt><trkpt lat="43.503928802776294" lon="10.719870317459819"><ele>63.0</ele><time>2026-04-15T12:54:20.999Z</time></trkpt><trkpt lat="43.50375209444854" lon="10.719933529134753"><ele>63.0</ele><time>2026-04-15T12:54:21.999Z</time></trkpt><trkpt lat="43.503572853814696" lon="10.71999679869901"><ele>63.0</ele><time>2026-04-15T12:54:22.999Z</time></trkpt><trkpt lat="43.503396046319864" lon="10.720059814531385"><ele>63.0</ele><time>2026-04-15T12:54:23.999Z</time></trkpt><trkpt lat="43.50321534855313" lon="10.720126557737949"><ele>63.0</ele><time>2026-04-15T12:54:24.999Z</time></trkpt><trkpt lat="43.50303333391184" lon="10.720194533957327"><ele>63.0</ele><time>2026-04-15T12:54:25.999Z</time></trkpt><trkpt lat="43.50284870723591" lon="10.720262519106026"><ele>63.0</ele><time>2026-04-15T12:54:26.999Z</time></trkpt><trkpt lat="43.502664617378684" lon="10.720328955717742"><ele>63.66666666666667</ele><time>2026-04-15T12:54:27.999Z</time></trkpt><trkpt lat="43.502479836308346" lon="10.720394435820383"><ele>64.33333333333334</ele><time>2026-04-15T12:54:28.999Z</time></trkpt><trkpt lat="43.50229662252862" lon="10.720459179622079"><ele>65.0</ele><time>2026-04-15T12:54:29.999Z</time></trkpt><trkpt lat="43.50211933133694" lon="10.720521974551437"><ele>65.0</ele><time>2026-04-15T12:54:30.999Z</time></trkpt><trkpt lat="43.50195601571299" lon="10.720580717602424"><ele>65.0</ele><time>2026-04-15T12:54:31.999Z</time></trkpt><trkpt lat="43.50179971338351" lon="10.720637909959507"><ele>65.0</ele><time>2026-04-15T12:54:32.999Z</time></trkpt><trkpt lat="43.50151159660904" lon="10.720738941026527"><ele>65.0</ele><time>2026-04-15T12:54:34.999Z</time></trkpt><trkpt lat="43.50136473676504" lon="10.720790135369217"><ele>65.0</ele><time>2026-04-15T12:54:35.999Z</time></trkpt><trkpt lat="43.50121750542564" lon="10.720842333779832"><ele>65.0</ele><time>2026-04-15T12:54:36.999Z</time></trkpt><trkpt lat="43.50106878182732" lon="10.720897748344056"><ele>65.0</ele><time>2026-04-15T12:54:37.999Z</time></trkpt><trkpt lat="43.50091519392916" lon="10.7209553209609"><ele>65.0</ele><time>2026-04-15T12:54:39Z</time></trkpt><trkpt lat="43.50075802825157" lon="10.721012852074645"><ele>65.0</ele><time>2026-04-15T12:54:40Z</time></trkpt><trkpt lat="43.50060418419293" lon="10.721068812599828"><ele>65.0</ele><time>2026-04-15T12:54:41Z</time></trkpt><trkpt lat="43.50044737048929" lon="10.721124489336729"><ele>65.0</ele><time>2026-04-15T12:54:42Z</time></trkpt><trkpt lat="43.50028942697397" lon="10.721176868388973"><ele>65.0</ele><time>2026-04-15T12:54:43Z</time></trkpt><trkpt lat="43.50013149567944" lon="10.721220003646629"><ele>65.75</ele><time>2026-04-15T12:54:44Z</time></trkpt><trkpt lat="43.499979666837355" lon="10.721248991948507"><ele>66.5</ele><time>2026-04-15T12:54:45Z</time></trkpt><trkpt lat="43.499828958589" lon="10.721272167034904"><ele>67.25</ele><time>2026-04-15T12:54:46Z</time></trkpt><trkpt lat="43.49969276968369" lon="10.721296574873636"><ele>68.0</ele><time>2026-04-15T12:54:47Z</time></trkpt><trkpt lat="43.49957530532757" lon="10.721319291256496"><ele>68.33333333333334</ele><time>2026-04-15T12:54:48Z</time></trkpt><trkpt lat="43.499473020567635" lon="10.721335095494977"><ele>68.66666666666667</ele><time>2026-04-15T12:54:49Z</time></trkpt><trkpt lat="43.49939042113868" lon="10.721341346860049"><ele>69.0</ele><time>2026-04-15T12:54:50Z</time></trkpt><trkpt lat="43.49932240785942" lon="10.721332030997662"><ele>69.33333333333333</ele><time>2026-04-15T12:54:51Z</time></trkpt><trkpt lat="43.49924361413976" lon="10.72130169103137"><ele>69.66666666666666</ele><time>2026-04-15T12:54:52Z</time></trkpt><trkpt lat="43.49916651586682" lon="10.721240624836101"><ele>70.0</ele><time>2026-04-15T12:54:53Z</time></trkpt><trkpt lat="43.49909650379117" lon="10.721194420491688"><ele>70.0</ele><time>2026-04-15T12:54:54Z</time></trkpt><trkpt lat="43.498981082669275" lon="10.721296082332096"><ele>70.0</ele><time>2026-04-15T12:54:56Z</time></trkpt><trkpt lat="43.49895507111768" lon="10.721406995821475"><ele>70.0</ele><time>2026-04-15T12:54:57Z</time></trkpt><trkpt lat="43.4989631203213" lon="10.721534255062286"><ele>70.0</ele><time>2026-04-15T12:54:58Z</time></trkpt><trkpt lat="43.49898570073601" lon="10.721667737154123"><ele>70.0</ele><time>2026-04-15T12:54:59Z</time></trkpt><trkpt lat="43.49898133940472" lon="10.721809003164495"><ele>69.5</ele><time>2026-04-15T12:55:00Z</time></trkpt><trkpt lat="43.49894954335542" lon="10.721954686401743"><ele>69.0</ele><time>2026-04-15T12:55:01Z</time></trkpt><trkpt lat="43.49891570261578" lon="10.722100379700551"><ele>68.5</ele><time>2026-04-15T12:55:02Z</time></trkpt><trkpt lat="43.49888192880612" lon="10.722251228419847"><ele>68.0</ele><time>2026-04-15T12:55:03Z</time></trkpt><trkpt lat="43.498849199767946" lon="10.722408184947653"><ele>68.0</ele><time>2026-04-15T12:55:04Z</time></trkpt><trkpt lat="43.49881686266109" lon="10.72256995558883"><ele>68.0</ele><time>2026-04-15T12:55:05Z</time></trkpt><trkpt lat="43.498786310297014" lon="10.722734633450413"><ele>68.0</ele><time>2026-04-15T12:55:06Z</time></trkpt><trkpt lat="43.498754741119164" lon="10.722905795931181"><ele>68.0</ele><time>2026-04-15T12:55:07Z</time></trkpt><trkpt lat="43.498721484425914" lon="10.723073168096725"><ele>68.0</ele><time>2026-04-15T12:55:08Z</time></trkpt><trkpt lat="43.4986868743182" lon="10.723240705811811"><ele>68.0</ele><time>2026-04-15T12:55:09Z</time></trkpt><trkpt lat="43.498648024214724" lon="10.723413038549493"><ele>68.0</ele><time>2026-04-15T12:55:10Z</time></trkpt><trkpt lat="43.498609543053846" lon="10.72358242450713"><ele>68.0</ele><time>2026-04-15T12:55:11Z</time></trkpt><trkpt lat="43.4985780755737" lon="10.723754067725828"><ele>69.25</ele><time>2026-04-15T12:55:12Z</time></trkpt><trkpt lat="43.49854783755557" lon="10.723930554491114"><ele>70.5</ele><time>2026-04-15T12:55:13Z</time></trkpt><trkpt lat="43.49851804033564" lon="10.72410806131726"><ele>71.75</ele><time>2026-04-15T12:55:14Z</time></trkpt><trkpt lat="43.4984992927325" lon="10.724291834627117"><ele>73.0</ele><time>2026-04-15T12:55:15Z</time></trkpt><trkpt lat="43.49849212766313" lon="10.724468015209174"><ele>73.75</ele><time>2026-04-15T12:55:16Z</time></trkpt><trkpt lat="43.49849996861686" lon="10.724636186857396"><ele>74.5</ele><time>2026-04-15T12:55:17Z</time></trkpt><trkpt lat="43.49850926855195" lon="10.72480043227255"><ele>75.25</ele><time>2026-04-15T12:55:18Z</time></trkpt><trkpt lat="43.49852200789858" lon="10.724957162775521"><ele>76.0</ele><time>2026-04-15T12:55:19Z</time></trkpt><trkpt lat="43.49854295569207" lon="10.725090451608319"><ele>76.0</ele><time>2026-04-15T12:55:20Z</time></trkpt><trkpt lat="43.498579400574265" lon="10.725213406889083"><ele>76.0</ele><time>2026-04-15T12:55:21Z</time></trkpt><trkpt lat="43.49862877947168" lon="10.725319571556176"><ele>76.0</ele><time>2026-04-15T12:55:22Z</time></trkpt><trkpt lat="43.498682640830424" lon="10.725427646318623"><ele>76.0</ele><time>2026-04-15T12:55:23Z</time></trkpt><trkpt lat="43.498739321291175" lon="10.725555566570758"><ele>76.0</ele><time>2026-04-15T12:55:24Z</time></trkpt><trkpt lat="43.49879804021106" lon="10.725695482083875"><ele>76.0</ele><time>2026-04-15T12:55:25Z</time></trkpt><trkpt lat="43.498857595128136" lon="10.725839868918696"><ele>76.0</ele><time>2026-04-15T12:55:26Z</time></trkpt><trkpt lat="43.49892211211806" lon="10.725991325733482"><ele>76.0</ele><time>2026-04-15T12:55:27Z</time></trkpt><trkpt lat="43.49899005801335" lon="10.726152684537071"><ele>76.0</ele><time>2026-04-15T12:55:28Z</time></trkpt><trkpt lat="43.499062941767114" lon="10.726316814676473"><ele>75.25</ele><time>2026-04-15T12:55:29Z</time></trkpt><trkpt lat="43.499134090026175" lon="10.726478722369654"><ele>74.5</ele><time>2026-04-15T12:55:30Z</time></trkpt><trkpt lat="43.49921133332264" lon="10.726657816757125"><ele>73.75</ele><time>2026-04-15T12:55:31Z</time></trkpt><trkpt lat="43.499286581893" lon="10.726842380837587"><ele>73.0</ele><time>2026-04-15T12:55:32Z</time></trkpt><trkpt lat="43.49935964752123" lon="10.727013089390606"><ele>72.5</ele><time>2026-04-15T12:55:33Z</time></trkpt><trkpt lat="43.499425857327104" lon="10.727168942194876"><ele>72.0</ele><time>2026-04-15T12:55:34Z</time></trkpt><trkpt lat="43.4994838350034" lon="10.727312466248488"><ele>71.5</ele><time>2026-04-15T12:55:35Z</time></trkpt><trkpt lat="43.49954073605503" lon="10.72745378176305"><ele>71.0</ele><time>2026-04-15T12:55:36Z</time></trkpt><trkpt lat="43.49959784163278" lon="10.72759767000715"><ele>72.5</ele><time>2026-04-15T12:55:37Z</time></trkpt><trkpt lat="43.49965381050063" lon="10.72775489717392"><ele>74.0</ele><time>2026-04-15T12:55:38Z</time></trkpt><trkpt lat="43.49971027263415" lon="10.72792979275458"><ele>75.5</ele><time>2026-04-15T12:55:39Z</time></trkpt><trkpt lat="43.499769739116196" lon="10.72811396401496"><ele>77.0</ele><time>2026-04-15T12:55:40Z</time></trkpt><trkpt lat="43.49983307088255" lon="10.728306640927276"><ele>77.0</ele><time>2026-04-15T12:55:41Z</time></trkpt><trkpt lat="43.499900231250365" lon="10.728510866916471"><ele>77.0</ele><time>2026-04-15T12:55:42Z</time></trkpt><trkpt lat="43.49996712466386" lon="10.728724627318275"><ele>77.0</ele><time>2026-04-15T12:55:43Z</time></trkpt><trkpt lat="43.500026821539066" lon="10.728944333027155"><ele>74.66666666666667</ele><time>2026-04-15T12:55:44Z</time></trkpt><trkpt lat="43.50007752461858" lon="10.72914871928475"><ele>72.33333333333333</ele><time>2026-04-15T12:55:45Z</time></trkpt><trkpt lat="43.50012147121898" lon="10.729340821757459"><ele>70.0</ele><time>2026-04-15T12:55:46Z</time></trkpt><trkpt lat="43.50015894962523" lon="10.729540866729517"><ele>70.0</ele><time>2026-04-15T12:55:47Z</time></trkpt><trkpt lat="43.50018118223862" lon="10.729744094355011"><ele>70.0</ele><time>2026-04-15T12:55:48Z</time></trkpt><trkpt lat="43.50019351624207" lon="10.729955562273828"><ele>70.0</ele><time>2026-04-15T12:55:49Z</time></trkpt><trkpt lat="43.50020301921764" lon="10.730185134676145"><ele>69.0</ele><time>2026-04-15T12:55:50Z</time></trkpt><trkpt lat="43.50021113922919" lon="10.730423746790054"><ele>68.0</ele><time>2026-04-15T12:55:51Z</time></trkpt><trkpt lat="43.50022516417197" lon="10.73067723146843"><ele>67.0</ele><time>2026-04-15T12:55:52Z</time></trkpt><trkpt lat="43.50023989918105" lon="10.73095763177367"><ele>67.0</ele><time>2026-04-15T12:55:52.999Z</time></trkpt><trkpt lat="43.50024679733907" lon="10.73122815907403"><ele>67.0</ele><time>2026-04-15T12:55:53.999Z</time></trkpt><trkpt lat="43.50024377189" lon="10.731469015850877"><ele>67.0</ele><time>2026-04-15T12:55:54.999Z</time></trkpt><trkpt lat="43.500214441486314" lon="10.731687982614579"><ele>67.0</ele><time>2026-04-15T12:55:55.999Z</time></trkpt><trkpt lat="43.50016611870524" lon="10.731899091690956"><ele>67.0</ele><time>2026-04-15T12:55:56.999Z</time></trkpt><trkpt lat="43.50009791861217" lon="10.732092284015064"><ele>67.0</ele><time>2026-04-15T12:55:57.999Z</time></trkpt><trkpt lat="43.500006222322334" lon="10.732270625078593"><ele>67.0</ele><time>2026-04-15T12:55:58.999Z</time></trkpt><trkpt lat="43.49989728502019" lon="10.732450353044856"><ele>67.0</ele><time>2026-04-15T12:55:59.999Z</time></trkpt><trkpt lat="43.49976464651216" lon="10.732602464983563"><ele>67.0</ele><time>2026-04-15T12:56:00.999Z</time></trkpt><trkpt lat="43.49962055962287" lon="10.732725234623473"><ele>67.33333333333333</ele><time>2026-04-15T12:56:01.999Z</time></trkpt><trkpt lat="43.499459707124544" lon="10.732819727977114"><ele>67.66666666666667</ele><time>2026-04-15T12:56:02.999Z</time></trkpt><trkpt lat="43.499296666666545" lon="10.732903079755353"><ele>68.0</ele><time>2026-04-15T12:56:03.999Z</time></trkpt><trkpt lat="43.499128329824856" lon="10.73298115178287"><ele>68.0</ele><time>2026-04-15T12:56:04.999Z</time></trkpt><trkpt lat="43.498966927218746" lon="10.733059508836034"><ele>68.0</ele><time>2026-04-15T12:56:05.999Z</time></trkpt><trkpt lat="43.49880906883484" lon="10.733135844404867"><ele>68.0</ele><time>2026-04-15T12:56:06.999Z</time></trkpt><trkpt lat="43.49865360450283" lon="10.733213729762644"><ele>68.66666666666667</ele><time>2026-04-15T12:56:07.999Z</time></trkpt><trkpt lat="43.49850030965401" lon="10.733287703570545"><ele>69.33333333333333</ele><time>2026-04-15T12:56:08.999Z</time></trkpt><trkpt lat="43.498345249244004" lon="10.733361166392173"><ele>70.0</ele><time>2026-04-15T12:56:09.999Z</time></trkpt><trkpt lat="43.49818745146308" lon="10.733437970143534"><ele>70.0</ele><time>2026-04-15T12:56:10.999Z</time></trkpt><trkpt lat="43.498029345428826" lon="10.733514951204281"><ele>70.0</ele><time>2026-04-15T12:56:11.999Z</time></trkpt><trkpt lat="43.49786700650765" lon="10.733594387185114"><ele>70.0</ele><time>2026-04-15T12:56:12.999Z</time></trkpt><trkpt lat="43.497698644329304" lon="10.733683922851275"><ele>68.66666666666666</ele><time>2026-04-15T12:56:13.999Z</time></trkpt><trkpt lat="43.497532985964384" lon="10.7337877891526"><ele>67.33333333333333</ele><time>2026-04-15T12:56:14.999Z</time></trkpt><trkpt lat="43.497372847802815" lon="10.733904255987557"><ele>66.0</ele><time>2026-04-15T12:56:15.999Z</time></trkpt><trkpt lat="43.497217524356564" lon="10.73403985395333"><ele>66.33333333333333</ele><time>2026-04-15T12:56:16.999Z</time></trkpt><trkpt lat="43.49706586675916" lon="10.734185099491985"><ele>66.66666666666666</ele><time>2026-04-15T12:56:17.999Z</time></trkpt><trkpt lat="43.496909839703235" lon="10.734339362655987"><ele>67.0</ele><time>2026-04-15T12:56:18.999Z</time></trkpt><trkpt lat="43.49675375413092" lon="10.73450247112569"><ele>67.0</ele><time>2026-04-15T12:56:19.999Z</time></trkpt><trkpt lat="43.49659668772465" lon="10.734671163394466"><ele>67.0</ele><time>2026-04-15T12:56:20.999Z</time></trkpt><trkpt lat="43.49643711279961" lon="10.734841515436287"><ele>67.0</ele><time>2026-04-15T12:56:21.999Z</time></trkpt><trkpt lat="43.496272959901226" lon="10.735009432813717"><ele>67.33333333333333</ele><time>2026-04-15T12:56:22.999Z</time></trkpt><trkpt lat="43.49610406339243" lon="10.735169310438627"><ele>67.66666666666667</ele><time>2026-04-15T12:56:23.999Z</time></trkpt><trkpt lat="43.495921250774884" lon="10.735314865405211"><ele>68.0</ele><time>2026-04-15T12:56:24.999Z</time></trkpt><trkpt lat="43.49573347735188" lon="10.735436988548324"><ele>68.0</ele><time>2026-04-15T12:56:25.999Z</time></trkpt><trkpt lat="43.49554735992173" lon="10.735534844488239"><ele>68.0</ele><time>2026-04-15T12:56:26.999Z</time></trkpt><trkpt lat="43.49536474870973" lon="10.735616696558541"><ele>68.0</ele><time>2026-04-15T12:56:27.999Z</time></trkpt><trkpt lat="43.49519197267735" lon="10.735685135379702"><ele>69.0</ele><time>2026-04-15T12:56:28.999Z</time></trkpt><trkpt lat="43.49502490395384" lon="10.735749318213099"><ele>70.0</ele><time>2026-04-15T12:56:29.999Z</time></trkpt><trkpt lat="43.494860981052" lon="10.735813057904435"><ele>71.0</ele><time>2026-04-15T12:56:30.999Z</time></trkpt><trkpt lat="43.49469942163444" lon="10.735879193064386"><ele>71.0</ele><time>2026-04-15T12:56:31.999Z</time></trkpt><trkpt lat="43.49454082948629" lon="10.735950306299138"><ele>71.0</ele><time>2026-04-15T12:56:32.999Z</time></trkpt><trkpt lat="43.49438224829029" lon="10.736033329779906"><ele>71.0</ele><time>2026-04-15T12:56:33.999Z</time></trkpt><trkpt lat="43.49422343816491" lon="10.736126157009444"><ele>70.66666666666667</ele><time>2026-04-15T12:56:34.999Z</time></trkpt><trkpt lat="43.49406038040552" lon="10.736232273880985"><ele>70.33333333333333</ele><time>2026-04-15T12:56:35.999Z</time></trkpt><trkpt lat="43.49390548644821" lon="10.736345183693068"><ele>70.0</ele><time>2026-04-15T12:56:36.999Z</time></trkpt><trkpt lat="43.49375283987975" lon="10.736467233000353"><ele>69.66666666666666</ele><time>2026-04-15T12:56:37.999Z</time></trkpt><trkpt lat="43.49360284240284" lon="10.736595295893233"><ele>69.33333333333333</ele><time>2026-04-15T12:56:38.999Z</time></trkpt><trkpt lat="43.49345790241928" lon="10.736730547703512"><ele>69.0</ele><time>2026-04-15T12:56:39.999Z</time></trkpt><trkpt lat="43.4933116518209" lon="10.736868850347676"><ele>69.0</ele><time>2026-04-15T12:56:40.999Z</time></trkpt><trkpt lat="43.49316312486028" lon="10.737012482402124"><ele>69.0</ele><time>2026-04-15T12:56:41.999Z</time></trkpt><trkpt lat="43.493020593312885" lon="10.737147744046418"><ele>69.0</ele><time>2026-04-15T12:56:42.999Z</time></trkpt><trkpt lat="43.49287800386589" lon="10.73728731422142"><ele>69.0</ele><time>2026-04-15T12:56:43.999Z</time></trkpt><trkpt lat="43.49273635074418" lon="10.737437026994236"><ele>69.0</ele><time>2026-04-15T12:56:45Z</time></trkpt><trkpt lat="43.49260698879229" lon="10.737594504344482"><ele>69.0</ele><time>2026-04-15T12:56:46Z</time></trkpt><trkpt lat="43.49249013326778" lon="10.737758216903194"><ele>69.0</ele><time>2026-04-15T12:56:47Z</time></trkpt><trkpt lat="43.49237830766271" lon="10.737925220334775"><ele>69.0</ele><time>2026-04-15T12:56:48Z</time></trkpt><trkpt lat="43.492266788655655" lon="10.738096770724235"><ele>69.0</ele><time>2026-04-15T12:56:49Z</time></trkpt><trkpt lat="43.49216128507472" lon="10.738268559087562"><ele>69.33333333333333</ele><time>2026-04-15T12:56:50Z</time></trkpt><trkpt lat="43.49206673438965" lon="10.738436032163264"><ele>69.66666666666666</ele><time>2026-04-15T12:56:51Z</time></trkpt><trkpt lat="43.49197071148765" lon="10.738610763023736"><ele>70.0</ele><time>2026-04-15T12:56:52Z</time></trkpt><trkpt lat="43.491878358645685" lon="10.738793293532558"><ele>70.0</ele><time>2026-04-15T12:56:53Z</time></trkpt><trkpt lat="43.49179051758202" lon="10.73899043257092"><ele>70.0</ele><time>2026-04-15T12:56:54Z</time></trkpt><trkpt lat="43.491707551111546" lon="10.739195959136847"><ele>70.0</ele><time>2026-04-15T12:56:55Z</time></trkpt><trkpt lat="43.491619975764216" lon="10.739401928111558"><ele>69.33333333333333</ele><time>2026-04-15T12:56:56Z</time></trkpt><trkpt lat="43.491524201474306" lon="10.739601042653797"><ele>68.66666666666667</ele><time>2026-04-15T12:56:57Z</time></trkpt><trkpt lat="43.49142832075584" lon="10.739789432541997"><ele>68.0</ele><time>2026-04-15T12:56:58Z</time></trkpt><trkpt lat="43.49133346181879" lon="10.73997725474453"><ele>68.66666666666667</ele><time>2026-04-15T12:56:59Z</time></trkpt><trkpt lat="43.49123790592329" lon="10.740157835950907"><ele>69.33333333333333</ele><time>2026-04-15T12:57:00Z</time></trkpt><trkpt lat="43.4911373560235" lon="10.74033241511692"><ele>70.0</ele><time>2026-04-15T12:57:01Z</time></trkpt><trkpt lat="43.491035495736085" lon="10.740489838634241"><ele>70.0</ele><time>2026-04-15T12:57:02Z</time></trkpt><trkpt lat="43.49092936522729" lon="10.740648551248615"><ele>70.0</ele><time>2026-04-15T12:57:03Z</time></trkpt><trkpt lat="43.49081992123763" lon="10.740810559066936"><ele>70.0</ele><time>2026-04-15T12:57:04Z</time></trkpt><trkpt lat="43.49070160435456" lon="10.740966150546994"><ele>69.33333333333333</ele><time>2026-04-15T12:57:05Z</time></trkpt><trkpt lat="43.49056579287954" lon="10.741120719087716"><ele>68.66666666666667</ele><time>2026-04-15T12:57:06Z</time></trkpt><trkpt lat="43.49042854592097" lon="10.741261338036114"><ele>68.0</ele><time>2026-04-15T12:57:07Z</time></trkpt><trkpt lat="43.49028338791242" lon="10.741401422229815"><ele>69.33333333333334</ele><time>2026-04-15T12:57:08Z</time></trkpt><trkpt lat="43.49013055812144" lon="10.741531878934556"><ele>70.66666666666667</ele><time>2026-04-15T12:57:09Z</time></trkpt><trkpt lat="43.489968953911465" lon="10.741652225784962"><ele>72.0</ele><time>2026-04-15T12:57:10Z</time></trkpt><trkpt lat="43.48980399584298" lon="10.741763400577122"><ele>72.0</ele><time>2026-04-15T12:57:11Z</time></trkpt><trkpt lat="43.48963788073217" lon="10.74186979347099"><ele>72.0</ele><time>2026-04-15T12:57:12Z</time></trkpt><trkpt lat="43.48946713646339" lon="10.741976443314595"><ele>72.0</ele><time>2026-04-15T12:57:13Z</time></trkpt><trkpt lat="43.489291193907064" lon="10.742088280708865"><ele>71.33333333333333</ele><time>2026-04-15T12:57:14Z</time></trkpt><trkpt lat="43.489112408653625" lon="10.74220743637121"><ele>70.66666666666666</ele><time>2026-04-15T12:57:15Z</time></trkpt><trkpt lat="43.48894294929204" lon="10.742333578220412"><ele>70.0</ele><time>2026-04-15T12:57:16Z</time></trkpt><trkpt lat="43.48878977867552" lon="10.74246769443793"><ele>70.33333333333333</ele><time>2026-04-15T12:57:17Z</time></trkpt><trkpt lat="43.48864222613622" lon="10.742611803455167"><ele>70.66666666666667</ele><time>2026-04-15T12:57:18Z</time></trkpt><trkpt lat="43.48851346931449" lon="10.742767225245215"><ele>71.0</ele><time>2026-04-15T12:57:19Z</time></trkpt><trkpt lat="43.48839041962633" lon="10.742935110998568"><ele>71.0</ele><time>2026-04-15T12:57:20Z</time></trkpt><trkpt lat="43.4882769476392" lon="10.743101486007198"><ele>71.0</ele><time>2026-04-15T12:57:21Z</time></trkpt><trkpt lat="43.48816771314119" lon="10.74327853178149"><ele>71.0</ele><time>2026-04-15T12:57:22Z</time></trkpt><trkpt lat="43.48806128601921" lon="10.743461959126792"><ele>69.66666666666667</ele><time>2026-04-15T12:57:23Z</time></trkpt><trkpt lat="43.48795902544077" lon="10.743658008158341"><ele>68.33333333333333</ele><time>2026-04-15T12:57:24Z</time></trkpt><trkpt lat="43.48786136164598" lon="10.743860424680626"><ele>67.0</ele><time>2026-04-15T12:57:25Z</time></trkpt><trkpt lat="43.48776577339768" lon="10.744068318364409"><ele>68.0</ele><time>2026-04-15T12:57:26Z</time></trkpt><trkpt lat="43.48767139123341" lon="10.744271786592298"><ele>69.0</ele><time>2026-04-15T12:57:27Z</time></trkpt><trkpt lat="43.48757461439698" lon="10.744468388757515"><ele>70.0</ele><time>2026-04-15T12:57:28Z</time></trkpt><trkpt lat="43.48747516225148" lon="10.744657978713255"><ele>70.0</ele><time>2026-04-15T12:57:29Z</time></trkpt><trkpt lat="43.487368973597405" lon="10.744839946476493"><ele>70.0</ele><time>2026-04-15T12:57:30Z</time></trkpt><trkpt lat="43.48724731106778" lon="10.745023504523973"><ele>70.0</ele><time>2026-04-15T12:57:31Z</time></trkpt><trkpt lat="43.48712186576147" lon="10.745198227549368"><ele>69.33333333333333</ele><time>2026-04-15T12:57:32Z</time></trkpt><trkpt lat="43.48698580158011" lon="10.745365258000783"><ele>68.66666666666667</ele><time>2026-04-15T12:57:33Z</time></trkpt><trkpt lat="43.48683776543275" lon="10.745518888554173"><ele>68.0</ele><time>2026-04-15T12:57:34Z</time></trkpt><trkpt lat="43.486680338402515" lon="10.74566050265347"><ele>68.0</ele><time>2026-04-15T12:57:35Z</time></trkpt><trkpt lat="43.48652221159944" lon="10.745787332120877"><ele>68.0</ele><time>2026-04-15T12:57:36Z</time></trkpt><trkpt lat="43.48636107891157" lon="10.74591113035454"><ele>68.0</ele><time>2026-04-15T12:57:37Z</time></trkpt><trkpt lat="43.48620001623191" lon="10.746033948612547"><ele>68.0</ele><time>2026-04-15T12:57:38Z</time></trkpt><trkpt lat="43.48604045916706" lon="10.746159006638825"><ele>68.0</ele><time>2026-04-15T12:57:39Z</time></trkpt><trkpt lat="43.48588519855283" lon="10.746299160965155"><ele>68.0</ele><time>2026-04-15T12:57:40Z</time></trkpt><trkpt lat="43.48574517275431" lon="10.746454406842826"><ele>68.0</ele><time>2026-04-15T12:57:41Z</time></trkpt><trkpt lat="43.48561735448762" lon="10.746630337543344"><ele>68.0</ele><time>2026-04-15T12:57:42Z</time></trkpt><trkpt lat="43.48550568532221" lon="10.746821324898697"><ele>68.0</ele><time>2026-04-15T12:57:43Z</time></trkpt><trkpt lat="43.48540705738029" lon="10.747029181756655"><ele>70.0</ele><time>2026-04-15T12:57:44Z</time></trkpt><trkpt lat="43.48530762254017" lon="10.747234893176776"><ele>72.0</ele><time>2026-04-15T12:57:45Z</time></trkpt><trkpt lat="43.48520204695639" lon="10.747440334728502"><ele>74.0</ele><time>2026-04-15T12:57:46Z</time></trkpt><trkpt lat="43.4850919066195" lon="10.747640508257966"><ele>71.66666666666667</ele><time>2026-04-15T12:57:47Z</time></trkpt><trkpt lat="43.48497253423666" lon="10.747816825789139"><ele>69.33333333333333</ele><time>2026-04-15T12:57:48Z</time></trkpt><trkpt lat="43.484834486610744" lon="10.747969547406294"><ele>67.0</ele><time>2026-04-15T12:57:49Z</time></trkpt><trkpt lat="43.48467861772852" lon="10.748108559691648"><ele>68.66666666666666</ele><time>2026-04-15T12:57:50Z</time></trkpt><trkpt lat="43.484519726356915" lon="10.748221423454922"><ele>70.33333333333333</ele><time>2026-04-15T12:57:51Z</time></trkpt><trkpt lat="43.484363223039516" lon="10.748319330606408"><ele>72.0</ele><time>2026-04-15T12:57:52Z</time></trkpt><trkpt lat="43.4842137883078" lon="10.748407793149749"><ele>72.0</ele><time>2026-04-15T12:57:53Z</time></trkpt><trkpt lat="43.484061785347365" lon="10.748492182665288"><ele>72.0</ele><time>2026-04-15T12:57:54Z</time></trkpt><trkpt lat="43.48391881796314" lon="10.748579667025627"><ele>72.0</ele><time>2026-04-15T12:57:55Z</time></trkpt><trkpt lat="43.48378326072159" lon="10.748672860032434"><ele>72.0</ele><time>2026-04-15T12:57:56Z</time></trkpt><trkpt lat="43.48364757124324" lon="10.748781524583913"><ele>72.0</ele><time>2026-04-15T12:57:57Z</time></trkpt><trkpt lat="43.483514554797644" lon="10.748896904793387"><ele>72.0</ele><time>2026-04-15T12:57:58Z</time></trkpt><trkpt lat="43.483384997165295" lon="10.749019462903506"><ele>72.0</ele><time>2026-04-15T12:57:59Z</time></trkpt><trkpt lat="43.48326176331245" lon="10.749151530808952"><ele>72.0</ele><time>2026-04-15T12:58:00Z</time></trkpt><trkpt lat="43.48314184560286" lon="10.749290369723175"><ele>72.0</ele><time>2026-04-15T12:58:01Z</time></trkpt><trkpt lat="43.48302345784964" lon="10.749429328713097"><ele>72.33333333333333</ele><time>2026-04-15T12:58:02Z</time></trkpt><trkpt lat="43.482906880733836" lon="10.749566079173048"><ele>72.66666666666666</ele><time>2026-04-15T12:58:03Z</time></trkpt><trkpt lat="43.48278790234615" lon="10.74970238463453"><ele>73.0</ele><time>2026-04-15T12:58:04Z</time></trkpt><trkpt lat="43.48267120151037" lon="10.749840690584023"><ele>73.0</ele><time>2026-04-15T12:58:05Z</time></trkpt><trkpt lat="43.482552589097224" lon="10.749984748574839"><ele>73.0</ele><time>2026-04-15T12:58:06Z</time></trkpt><trkpt lat="43.48243271153218" lon="10.750133846814977"><ele>73.0</ele><time>2026-04-15T12:58:07Z</time></trkpt><trkpt lat="43.48231350943343" lon="10.750274849123041"><ele>73.33333333333333</ele><time>2026-04-15T12:58:08Z</time></trkpt><trkpt lat="43.482176152666725" lon="10.750439492667292"><ele>73.66666666666667</ele><time>2026-04-15T12:58:09Z</time></trkpt><trkpt lat="43.482002275356486" lon="10.750637743418602"><ele>74.0</ele><time>2026-04-15T12:58:10Z</time></trkpt><trkpt lat="43.48179867425913" lon="10.750877503999272"><ele>71.0</ele><time>2026-04-15T12:58:11Z</time></trkpt><trkpt lat="43.48158082354429" lon="10.751159775087922"><ele>68.0</ele><time>2026-04-15T12:58:12Z</time></trkpt><trkpt lat="43.48133646417607" lon="10.751410815356971"><ele>70.5</ele><time>2026-04-15T12:58:13Z</time></trkpt><trkpt lat="43.48110130222467" lon="10.751682751267781"><ele>73.0</ele><time>2026-04-15T12:58:14Z</time></trkpt><trkpt lat="43.480882831603864" lon="10.751967164338367"><ele>73.0</ele><time>2026-04-15T12:58:15Z</time></trkpt><trkpt lat="43.48069731108423" lon="10.752258404689753"><ele>73.0</ele><time>2026-04-15T12:58:16Z</time></trkpt><trkpt lat="43.48053563925487" lon="10.752572070159482"><ele>76.0</ele><time>2026-04-15T12:58:17Z</time></trkpt><trkpt lat="43.480375306815034" lon="10.75290876166224"><ele>79.0</ele><time>2026-04-15T12:58:17.999Z</time></trkpt><trkpt lat="43.480198961643836" lon="10.753255469372077"><ele>76.0</ele><time>2026-04-15T12:58:18.999Z</time></trkpt><trkpt lat="43.48001460339277" lon="10.753594592514068"><ele>73.0</ele><time>2026-04-15T12:58:19.999Z</time></trkpt><trkpt lat="43.47984359953585" lon="10.753889670689444"><ele>73.0</ele><time>2026-04-15T12:58:20.999Z</time></trkpt><trkpt lat="43.47967297743394" lon="10.754151724271857"><ele>73.0</ele><time>2026-04-15T12:58:21.999Z</time></trkpt><trkpt lat="43.47950075277697" lon="10.754402003125701"><ele>74.0</ele><time>2026-04-15T12:58:22.999Z</time></trkpt><trkpt lat="43.479329956615324" lon="10.754648853816457"><ele>75.0</ele><time>2026-04-15T12:58:23.999Z</time></trkpt><trkpt lat="43.47916673007722" lon="10.754885016101982"><ele>75.0</ele><time>2026-04-15T12:58:24.999Z</time></trkpt><trkpt lat="43.47899883329368" lon="10.755126628344533"><ele>75.0</ele><time>2026-04-15T12:58:25.999Z</time></trkpt><trkpt lat="43.47882497232434" lon="10.755378578938933"><ele>75.0</ele><time>2026-04-15T12:58:26.999Z</time></trkpt><trkpt lat="43.478639751461884" lon="10.755644839172772"><ele>75.0</ele><time>2026-04-15T12:58:27.999Z</time></trkpt><trkpt lat="43.4784511286807" lon="10.755916750112767"><ele>74.5</ele><time>2026-04-15T12:58:28.999Z</time></trkpt><trkpt lat="43.47826876111147" lon="10.756188824660274"><ele>74.0</ele><time>2026-04-15T12:58:29.999Z</time></trkpt><trkpt lat="43.47811240016917" lon="10.756482484379108"><ele>74.0</ele><time>2026-04-15T12:58:30.999Z</time></trkpt><trkpt lat="43.47798915589584" lon="10.756813066573029"><ele>74.0</ele><time>2026-04-15T12:58:31.999Z</time></trkpt><trkpt lat="43.47788345152768" lon="10.757173617049048"><ele>73.5</ele><time>2026-04-15T12:58:32.999Z</time></trkpt><trkpt lat="43.47778966229142" lon="10.757523599883642"><ele>73.0</ele><time>2026-04-15T12:58:33.999Z</time></trkpt><trkpt lat="43.47769968856871" lon="10.757844200296224"><ele>73.0</ele><time>2026-04-15T12:58:34.999Z</time></trkpt><trkpt lat="43.47761296552601" lon="10.758141424721952"><ele>73.0</ele><time>2026-04-15T12:58:35.999Z</time></trkpt><trkpt lat="43.4775282218333" lon="10.75842059671793"><ele>72.0</ele><time>2026-04-15T12:58:36.999Z</time></trkpt><trkpt lat="43.47744757798839" lon="10.75867981094918"><ele>71.0</ele><time>2026-04-15T12:58:37.999Z</time></trkpt><trkpt lat="43.47736909909776" lon="10.758934731341101"><ele>70.0</ele><time>2026-04-15T12:58:38.999Z</time></trkpt><trkpt lat="43.47729987363851" lon="10.759169646872001"><ele>70.0</ele><time>2026-04-15T12:58:39.999Z</time></trkpt><trkpt lat="43.477230433855226" lon="10.759402032366078"><ele>70.0</ele><time>2026-04-15T12:58:40.999Z</time></trkpt><trkpt lat="43.47715382314476" lon="10.759636640323787"><ele>70.0</ele><time>2026-04-15T12:58:41.999Z</time></trkpt><trkpt lat="43.477065828116224" lon="10.759893044039176"><ele>72.66666666666666</ele><time>2026-04-15T12:58:42.999Z</time></trkpt><trkpt lat="43.47698530381957" lon="10.760156078186942"><ele>75.33333333333333</ele><time>2026-04-15T12:58:43.999Z</time></trkpt><trkpt lat="43.476903141890034" lon="10.760426376861611"><ele>78.0</ele><time>2026-04-15T12:58:44.999Z</time></trkpt><trkpt lat="43.47682548432064" lon="10.76068519252365"><ele>78.0</ele><time>2026-04-15T12:58:45.999Z</time></trkpt><trkpt lat="43.4767516524679" lon="10.760930241033135"><ele>78.0</ele><time>2026-04-15T12:58:46.999Z</time></trkpt><trkpt lat="43.47668643974463" lon="10.761182486587263"><ele>78.0</ele><time>2026-04-15T12:58:47.999Z</time></trkpt><trkpt lat="43.47664701850283" lon="10.761443671214382"><ele>77.66666666666667</ele><time>2026-04-15T12:58:48.999Z</time></trkpt><trkpt lat="43.476628968278995" lon="10.761720463758682"><ele>77.33333333333334</ele><time>2026-04-15T12:58:49.999Z</time></trkpt><trkpt lat="43.476628631356036" lon="10.761992328095994"><ele>77.0</ele><time>2026-04-15T12:58:51Z</time></trkpt><trkpt lat="43.47661951993166" lon="10.76224334290142"><ele>77.0</ele><time>2026-04-15T12:58:52Z</time></trkpt><trkpt lat="43.476588592488234" lon="10.762464290598917"><ele>77.0</ele><time>2026-04-15T12:58:53Z</time></trkpt><trkpt lat="43.47653535658757" lon="10.762656020720035"><ele>77.0</ele><time>2026-04-15T12:58:54Z</time></trkpt><trkpt lat="43.4764632455444" lon="10.762815954395187"><ele>77.0</ele><time>2026-04-15T12:58:55Z</time></trkpt><trkpt lat="43.47636845880544" lon="10.762941558626297"><ele>78.66666666666667</ele><time>2026-04-15T12:58:56Z</time></trkpt><trkpt lat="43.4762617651246" lon="10.763022702877626"><ele>80.33333333333333</ele><time>2026-04-15T12:58:57Z</time></trkpt><trkpt lat="43.47613303743563" lon="10.763073386351465"><ele>82.0</ele><time>2026-04-15T12:58:58Z</time></trkpt><trkpt lat="43.475818285587785" lon="10.763154051868698"><ele>82.0</ele><time>2026-04-15T12:59:00Z</time></trkpt><trkpt lat="43.47563506384451" lon="10.763211843144662"><ele>82.0</ele><time>2026-04-15T12:59:01Z</time></trkpt><trkpt lat="43.475441747573946" lon="10.763267649273162"><ele>82.0</ele><time>2026-04-15T12:59:02Z</time></trkpt><trkpt lat="43.47524855507413" lon="10.7633238846184"><ele>82.33333333333333</ele><time>2026-04-15T12:59:03Z</time></trkpt><trkpt lat="43.475051186147134" lon="10.763381009623165"><ele>82.66666666666667</ele><time>2026-04-15T12:59:04Z</time></trkpt><trkpt lat="43.47486315110458" lon="10.76342937115551"><ele>83.0</ele><time>2026-04-15T12:59:05Z</time></trkpt><trkpt lat="43.47467515924482" lon="10.763470238218753"><ele>82.66666666666667</ele><time>2026-04-15T12:59:06Z</time></trkpt><trkpt lat="43.47447888741556" lon="10.763498565132029"><ele>82.33333333333333</ele><time>2026-04-15T12:59:07Z</time></trkpt><trkpt lat="43.47427842781848" lon="10.763511030865347"><ele>82.0</ele><time>2026-04-15T12:59:08Z</time></trkpt><trkpt lat="43.474070908971626" lon="10.763467787242517"><ele>82.0</ele><time>2026-04-15T12:59:09Z</time></trkpt><trkpt lat="43.47386655868034" lon="10.763434677241593"><ele>82.0</ele><time>2026-04-15T12:59:10Z</time></trkpt><trkpt lat="43.47367228802806" lon="10.763407833040402"><ele>82.0</ele><time>2026-04-15T12:59:11Z</time></trkpt><trkpt lat="43.47347885466729" lon="10.76336743646836"><ele>82.33333333333333</ele><time>2026-04-15T12:59:12Z</time></trkpt><trkpt lat="43.47327784442972" lon="10.763333365655056"><ele>82.66666666666667</ele><time>2026-04-15T12:59:13Z</time></trkpt><trkpt lat="43.47307350468359" lon="10.76330047584598"><ele>83.0</ele><time>2026-04-15T12:59:14Z</time></trkpt><trkpt lat="43.47286943587145" lon="10.763268996602417"><ele>82.0</ele><time>2026-04-15T12:59:15Z</time></trkpt><trkpt lat="43.472663205747125" lon="10.76323739612552"><ele>81.0</ele><time>2026-04-15T12:59:16Z</time></trkpt><trkpt lat="43.472252681645216" lon="10.763135481628582"><ele>80.66666666666667</ele><time>2026-04-15T12:59:18Z</time></trkpt><trkpt lat="43.47205090832775" lon="10.763037398501831"><ele>80.33333333333334</ele><time>2026-04-15T12:59:19Z</time></trkpt><trkpt lat="43.47186112681758" lon="10.76291793135453"><ele>80.0</ele><time>2026-04-15T12:59:20Z</time></trkpt><trkpt lat="43.47167104836414" lon="10.762796539111584"><ele>81.0</ele><time>2026-04-15T12:59:21Z</time></trkpt><trkpt lat="43.4714932330221" lon="10.762686135244257"><ele>82.0</ele><time>2026-04-15T12:59:22Z</time></trkpt><trkpt lat="43.471314474340346" lon="10.762576401361578"><ele>83.0</ele><time>2026-04-15T12:59:23Z</time></trkpt><trkpt lat="43.471134392810434" lon="10.762469062192782"><ele>83.0</ele><time>2026-04-15T12:59:24Z</time></trkpt><trkpt lat="43.47095189121474" lon="10.76236051713649"><ele>83.0</ele><time>2026-04-15T12:59:25Z</time></trkpt><trkpt lat="43.47076445192028" lon="10.762246164411332"><ele>83.0</ele><time>2026-04-15T12:59:26Z</time></trkpt><trkpt lat="43.47057750352982" lon="10.762132411186453"><ele>83.33333333333334</ele><time>2026-04-15T12:59:27Z</time></trkpt><trkpt lat="43.47038665954396" lon="10.762017995650549"><ele>83.66666666666667</ele><time>2026-04-15T12:59:28Z</time></trkpt><trkpt lat="43.4701926247399" lon="10.761903059105228"><ele>84.0</ele><time>2026-04-15T12:59:29Z</time></trkpt><trkpt lat="43.46999002578096" lon="10.761788238254884"><ele>84.0</ele><time>2026-04-15T12:59:30Z</time></trkpt><trkpt lat="43.4697849985808" lon="10.761679591707884"><ele>84.0</ele><time>2026-04-15T12:59:31Z</time></trkpt><trkpt lat="43.46957115916845" lon="10.761585001724303"><ele>84.0</ele><time>2026-04-15T12:59:32Z</time></trkpt><trkpt lat="43.469357754406886" lon="10.76151715699006"><ele>84.0</ele><time>2026-04-15T12:59:33Z</time></trkpt><trkpt lat="43.4691510363215" lon="10.761457094228088"><ele>84.0</ele><time>2026-04-15T12:59:34Z</time></trkpt><trkpt lat="43.46895248276647" lon="10.761396569932723"><ele>84.0</ele><time>2026-04-15T12:59:35Z</time></trkpt><trkpt lat="43.46874851570128" lon="10.761331737333494"><ele>83.0</ele><time>2026-04-15T12:59:36Z</time></trkpt><trkpt lat="43.468541780258334" lon="10.761265464066303"><ele>82.0</ele><time>2026-04-15T12:59:37Z</time></trkpt><trkpt lat="43.46833876484504" lon="10.761201636200846"><ele>81.0</ele><time>2026-04-15T12:59:38Z</time></trkpt><trkpt lat="43.46813372268645" lon="10.761136285639925"><ele>81.0</ele><time>2026-04-15T12:59:39Z</time></trkpt><trkpt lat="43.46792877043147" lon="10.761073396147971"><ele>81.0</ele><time>2026-04-15T12:59:40Z</time></trkpt><trkpt lat="43.46772314125603" lon="10.761006598060247"><ele>81.0</ele><time>2026-04-15T12:59:41Z</time></trkpt><trkpt lat="43.46751441254403" lon="10.76093964220429"><ele>81.66666666666667</ele><time>2026-04-15T12:59:42Z</time></trkpt><trkpt lat="43.46730716486165" lon="10.760874769841378"><ele>82.33333333333334</ele><time>2026-04-15T12:59:43Z</time></trkpt><trkpt lat="43.46710000097633" lon="10.760811504959252"><ele>83.0</ele><time>2026-04-15T12:59:44Z</time></trkpt><trkpt lat="43.46688952655801" lon="10.760747768318558"><ele>83.0</ele><time>2026-04-15T12:59:45Z</time></trkpt><trkpt lat="43.46667606589163" lon="10.760684993710884"><ele>83.0</ele><time>2026-04-15T12:59:46Z</time></trkpt><trkpt lat="43.466462987776644" lon="10.760621259213504"><ele>83.0</ele><time>2026-04-15T12:59:47Z</time></trkpt><trkpt lat="43.46624794701192" lon="10.76055456054284"><ele>82.33333333333334</ele><time>2026-04-15T12:59:48Z</time></trkpt><trkpt lat="43.466034414349515" lon="10.760487762577343"><ele>81.66666666666667</ele><time>2026-04-15T12:59:49Z</time></trkpt><trkpt lat="43.46582869194985" lon="10.760432349380997"><ele>81.0</ele><time>2026-04-15T12:59:50Z</time></trkpt><trkpt lat="43.465627501278085" lon="10.760402504687105"><ele>81.33333333333333</ele><time>2026-04-15T12:59:51Z</time></trkpt><trkpt lat="43.465420529089876" lon="10.760410505730807"><ele>81.66666666666666</ele><time>2026-04-15T12:59:52Z</time></trkpt><trkpt lat="43.465205185153415" lon="10.760437027526104"><ele>82.0</ele><time>2026-04-15T12:59:53Z</time></trkpt><trkpt lat="43.46499943163518" lon="10.760472372961127"><ele>82.0</ele><time>2026-04-15T12:59:54Z</time></trkpt><trkpt lat="43.46480844656532" lon="10.760507966806172"><ele>82.0</ele><time>2026-04-15T12:59:55Z</time></trkpt><trkpt lat="43.46461868192665" lon="10.760538655043609"><ele>82.0</ele><time>2026-04-15T12:59:56Z</time></trkpt><trkpt lat="43.46442508651319" lon="10.760567325324253"><ele>82.33333333333333</ele><time>2026-04-15T12:59:57Z</time></trkpt><trkpt lat="43.46422667918024" lon="10.760595596491612"><ele>82.66666666666667</ele><time>2026-04-15T12:59:58Z</time></trkpt><trkpt lat="43.46402449090264" lon="10.760618984402905"><ele>83.0</ele><time>2026-04-15T12:59:59Z</time></trkpt><trkpt lat="43.463816594003696" lon="10.760623881407493"><ele>84.0</ele><time>2026-04-15T13:00:00Z</time></trkpt><trkpt lat="43.463611870913" lon="10.760606161244235"><ele>85.0</ele><time>2026-04-15T13:00:01Z</time></trkpt><trkpt lat="43.463402765090635" lon="10.760574754435487"><ele>86.0</ele><time>2026-04-15T13:00:02Z</time></trkpt><trkpt lat="43.46320060886364" lon="10.760551134317106"><ele>86.0</ele><time>2026-04-15T13:00:03Z</time></trkpt><trkpt lat="43.46299975017337" lon="10.76055801724307"><ele>86.0</ele><time>2026-04-15T13:00:04Z</time></trkpt><trkpt lat="43.46280498154469" lon="10.760604690830718"><ele>86.0</ele><time>2026-04-15T13:00:05Z</time></trkpt><trkpt lat="43.46261681211094" lon="10.760670506751785"><ele>86.66666666666667</ele><time>2026-04-15T13:00:06Z</time></trkpt><trkpt lat="43.462453114246024" lon="10.760737601127735"><ele>87.33333333333333</ele><time>2026-04-15T13:00:07Z</time></trkpt><trkpt lat="43.46229043486325" lon="10.76078688448377"><ele>88.0</ele><time>2026-04-15T13:00:08Z</time></trkpt><trkpt lat="43.46212606061307" lon="10.760801157381442"><ele>88.0</ele><time>2026-04-15T13:00:09Z</time></trkpt><trkpt lat="43.46195190279026" lon="10.760764782041292"><ele>88.0</ele><time>2026-04-15T13:00:10Z</time></trkpt><trkpt lat="43.46177250678451" lon="10.760678455237644"><ele>88.0</ele><time>2026-04-15T13:00:11Z</time></trkpt><trkpt lat="43.461600457576154" lon="10.760552183461456"><ele>88.0</ele><time>2026-04-15T13:00:11.999Z</time></trkpt><trkpt lat="43.46143104129289" lon="10.76042436881918"><ele>88.0</ele><time>2026-04-15T13:00:12.999Z</time></trkpt><trkpt lat="43.461269428023364" lon="10.760313155708019"><ele>88.0</ele><time>2026-04-15T13:00:13.999Z</time></trkpt><trkpt lat="43.46111019078127" lon="10.760208573385626"><ele>89.33333333333333</ele><time>2026-04-15T13:00:14.999Z</time></trkpt><trkpt lat="43.46095816068842" lon="10.760105933448575"><ele>90.66666666666667</ele><time>2026-04-15T13:00:15.999Z</time></trkpt><trkpt lat="43.46081310853722" lon="10.760005312962678"><ele>92.0</ele><time>2026-04-15T13:00:16.999Z</time></trkpt><trkpt lat="43.46066935008548" lon="10.759902494893886"><ele>92.0</ele><time>2026-04-15T13:00:17.999Z</time></trkpt><trkpt lat="43.460527183752134" lon="10.75979883744955"><ele>92.0</ele><time>2026-04-15T13:00:18.999Z</time></trkpt><trkpt lat="43.46038137304571" lon="10.759696778227195"><ele>92.0</ele><time>2026-04-15T13:00:19.999Z</time></trkpt><trkpt lat="43.460240300923694" lon="10.75960128578313"><ele>90.66666666666667</ele><time>2026-04-15T13:00:20.999Z</time></trkpt><trkpt lat="43.460099079304186" lon="10.759508892990052"><ele>89.33333333333333</ele><time>2026-04-15T13:00:21.999Z</time></trkpt><trkpt lat="43.45995918541132" lon="10.75944149141927"><ele>88.0</ele><time>2026-04-15T13:00:22.999Z</time></trkpt><trkpt lat="43.45980076705002" lon="10.759419908311402"><ele>88.0</ele><time>2026-04-15T13:00:23.999Z</time></trkpt><trkpt lat="43.459646743578865" lon="10.759464311595375"><ele>88.0</ele><time>2026-04-15T13:00:24.999Z</time></trkpt><trkpt lat="43.45950300438165" lon="10.759549337196912"><ele>88.0</ele><time>2026-04-15T13:00:25.999Z</time></trkpt><trkpt lat="43.45937600730674" lon="10.759674655435353"><ele>87.0</ele><time>2026-04-15T13:00:26.999Z</time></trkpt><trkpt lat="43.45927265766561" lon="10.759833056478291"><ele>86.0</ele><time>2026-04-15T13:00:27.999Z</time></trkpt><trkpt lat="43.45918980707398" lon="10.760044444295314"><ele>85.0</ele><time>2026-04-15T13:00:28.999Z</time></trkpt><trkpt lat="43.45911868105322" lon="10.760309181028253"><ele>85.0</ele><time>2026-04-15T13:00:29.999Z</time></trkpt><trkpt lat="43.45899978013422" lon="10.760613150537852"><ele>85.0</ele><time>2026-04-15T13:00:30.999Z</time></trkpt><trkpt lat="43.458880180308654" lon="10.760948562136845"><ele>87.0</ele><time>2026-04-15T13:00:31.999Z</time></trkpt><trkpt lat="43.45877361967301" lon="10.76128058651392"><ele>89.0</ele><time>2026-04-15T13:00:32.999Z</time></trkpt><trkpt lat="43.45866893764789" lon="10.761566203364437"><ele>89.0</ele><time>2026-04-15T13:00:33.999Z</time></trkpt><trkpt lat="43.45857923066834" lon="10.761829084832687"><ele>89.0</ele><time>2026-04-15T13:00:34.999Z</time></trkpt><trkpt lat="43.45849798953654" lon="10.762093236686926"><ele>89.0</ele><time>2026-04-15T13:00:35.999Z</time></trkpt><trkpt lat="43.45845929301913" lon="10.762392063840718"><ele>89.5</ele><time>2026-04-15T13:00:36.999Z</time></trkpt><trkpt lat="43.45846918426881" lon="10.762736881050492"><ele>90.0</ele><time>2026-04-15T13:00:37.999Z</time></trkpt><trkpt lat="43.45848821706794" lon="10.763090477859276"><ele>90.0</ele><time>2026-04-15T13:00:38.999Z</time></trkpt><trkpt lat="43.458459556444446" lon="10.76337216281817"><ele>90.0</ele><time>2026-04-15T13:00:39.999Z</time></trkpt><trkpt lat="43.458401984000616" lon="10.763565325323627"><ele>90.0</ele><time>2026-04-15T13:00:40.999Z</time></trkpt><trkpt lat="43.458309449931626" lon="10.763729041852573"><ele>89.0</ele><time>2026-04-15T13:00:41.999Z</time></trkpt><trkpt lat="43.45817971833554" lon="10.763901285639612"><ele>88.0</ele><time>2026-04-15T13:00:42.999Z</time></trkpt><trkpt lat="43.45801261461312" lon="10.764076068935145"><ele>87.0</ele><time>2026-04-15T13:00:43.999Z</time></trkpt><trkpt lat="43.45782974192754" lon="10.76428365683788"><ele>88.0</ele><time>2026-04-15T13:00:44.999Z</time></trkpt><trkpt lat="43.45762552051183" lon="10.76451731977287"><ele>89.0</ele><time>2026-04-15T13:00:45.999Z</time></trkpt><trkpt lat="43.457404449081814" lon="10.764768722930768"><ele>89.0</ele><time>2026-04-15T13:00:46.999Z</time></trkpt><trkpt lat="43.457189376645765" lon="10.765016107194468"><ele>89.0</ele><time>2026-04-15T13:00:47.999Z</time></trkpt><trkpt lat="43.45697553973815" lon="10.765264262410119"><ele>89.5</ele><time>2026-04-15T13:00:48.999Z</time></trkpt><trkpt lat="43.456761197993366" lon="10.765504857957295"><ele>90.0</ele><time>2026-04-15T13:00:49.999Z</time></trkpt><trkpt lat="43.45654978827201" lon="10.765738516336546"><ele>90.0</ele><time>2026-04-15T13:00:50.999Z</time></trkpt><trkpt lat="43.456345746670074" lon="10.765965664876685"><ele>90.0</ele><time>2026-04-15T13:00:51.999Z</time></trkpt><trkpt lat="43.456148206021034" lon="10.766188410686723"><ele>91.0</ele><time>2026-04-15T13:00:52.999Z</time></trkpt><trkpt lat="43.45595059493429" lon="10.766413738819995"><ele>92.0</ele><time>2026-04-15T13:00:53.999Z</time></trkpt><trkpt lat="43.45574798432788" lon="10.766641171753363"><ele>91.5</ele><time>2026-04-15T13:00:54.999Z</time></trkpt><trkpt lat="43.45554784969093" lon="10.766865131751503"><ele>91.0</ele><time>2026-04-15T13:00:55.999Z</time></trkpt><trkpt lat="43.45534700991616" lon="10.7670879983724"><ele>93.0</ele><time>2026-04-15T13:00:57Z</time></trkpt><trkpt lat="43.45515254371905" lon="10.767307798055588"><ele>95.0</ele><time>2026-04-15T13:00:58Z</time></trkpt><trkpt lat="43.45497012471862" lon="10.767521334483922"><ele>95.5</ele><time>2026-04-15T13:00:59Z</time></trkpt><trkpt lat="43.454791197091524" lon="10.767729912576531"><ele>96.0</ele><time>2026-04-15T13:01:00Z</time></trkpt><trkpt lat="43.454604989747274" lon="10.767929747798561"><ele>96.0</ele><time>2026-04-15T13:01:01Z</time></trkpt><trkpt lat="43.454402755355495" lon="10.768106354421183"><ele>96.0</ele><time>2026-04-15T13:01:02Z</time></trkpt><trkpt lat="43.454210246401985" lon="10.768287801498499"><ele>96.0</ele><time>2026-04-15T13:01:03Z</time></trkpt><trkpt lat="43.45401940983381" lon="10.768487911970771"><ele>96.0</ele><time>2026-04-15T13:01:04Z</time></trkpt><trkpt lat="43.45371260754984" lon="10.768501221864728"><ele>96.5</ele><time>2026-04-15T13:01:05Z</time></trkpt><trkpt lat="43.45347010638332" lon="10.768631599361159"><ele>97.0</ele><time>2026-04-15T13:01:06Z</time></trkpt><trkpt lat="43.45322556196669" lon="10.768764164289554"><ele>97.0</ele><time>2026-04-15T13:01:07Z</time></trkpt><trkpt lat="43.45296935455977" lon="10.768906457107397"><ele>97.0</ele><time>2026-04-15T13:01:08Z</time></trkpt><trkpt lat="43.45272072895572" lon="10.769049688350437"><ele>98.0</ele><time>2026-04-15T13:01:09Z</time></trkpt><trkpt lat="43.452470054428645" lon="10.769190760001099"><ele>99.0</ele><time>2026-04-15T13:01:10Z</time></trkpt><trkpt lat="43.45223204693485" lon="10.769325458547753"><ele>99.0</ele><time>2026-04-15T13:01:11Z</time></trkpt><trkpt lat="43.451997789694296" lon="10.769457901857226"><ele>99.0</ele><time>2026-04-15T13:01:12Z</time></trkpt><trkpt lat="43.451766776033374" lon="10.769586498107989"><ele>99.0</ele><time>2026-04-15T13:01:13Z</time></trkpt><trkpt lat="43.45153237376192" lon="10.769715726867062"><ele>99.0</ele><time>2026-04-15T13:01:14Z</time></trkpt><trkpt lat="43.451291160877425" lon="10.76984931530636"><ele>100.0</ele><time>2026-04-15T13:01:15Z</time></trkpt><trkpt lat="43.45105320622901" lon="10.769981319575967"><ele>101.0</ele><time>2026-04-15T13:01:16Z</time></trkpt><trkpt lat="43.450832822119985" lon="10.77010478508865"><ele>101.0</ele><time>2026-04-15T13:01:17Z</time></trkpt><trkpt lat="43.4506320160921" lon="10.770218292607288"><ele>101.0</ele><time>2026-04-15T13:01:18Z</time></trkpt><trkpt lat="43.45044706506048" lon="10.770322021692534"><ele>101.0</ele><time>2026-04-15T13:01:19Z</time></trkpt><trkpt lat="43.45028116352741" lon="10.770411476972674"><ele>101.0</ele><time>2026-04-15T13:01:20Z</time></trkpt><trkpt lat="43.450135246451154" lon="10.77049622972069"><ele>101.0</ele><time>2026-04-15T13:01:21Z</time></trkpt><trkpt lat="43.45000996467805" lon="10.770603341932873"><ele>101.0</ele><time>2026-04-15T13:01:22Z</time></trkpt><trkpt lat="43.449929084090975" lon="10.770783530367146"><ele>101.0</ele><time>2026-04-15T13:01:23Z</time></trkpt><trkpt lat="43.44990312112909" lon="10.771019350445886"><ele>101.0</ele><time>2026-04-15T13:01:24Z</time></trkpt><trkpt lat="43.449928302171315" lon="10.77128165056597"><ele>101.0</ele><time>2026-04-15T13:01:25Z</time></trkpt><trkpt lat="43.44994882856309" lon="10.771538821480979"><ele>100.5</ele><time>2026-04-15T13:01:26Z</time></trkpt><trkpt lat="43.449955337204294" lon="10.771759166848518"><ele>100.0</ele><time>2026-04-15T13:01:27Z</time></trkpt><trkpt lat="43.44995395761713" lon="10.771943508800524"><ele>99.5</ele><time>2026-04-15T13:01:28Z</time></trkpt><trkpt lat="43.4499292717764" lon="10.772104660106452"><ele>99.0</ele><time>2026-04-15T13:01:29Z</time></trkpt><trkpt lat="43.449850068121734" lon="10.772233461127152"><ele>98.66666666666666</ele><time>2026-04-15T13:01:30Z</time></trkpt><trkpt lat="43.44971366652248" lon="10.772323741583909"><ele>98.33333333333333</ele><time>2026-04-15T13:01:31Z</time></trkpt><trkpt lat="43.44954372771256" lon="10.772334461643272"><ele>98.0</ele><time>2026-04-15T13:01:32Z</time></trkpt><trkpt lat="43.44934806381445" lon="10.77229078250193"><ele>100.0</ele><time>2026-04-15T13:01:33Z</time></trkpt><trkpt lat="43.449124010468196" lon="10.772222629623377"><ele>102.0</ele><time>2026-04-15T13:01:34Z</time></trkpt><trkpt lat="43.448889079080615" lon="10.772165150263062"><ele>105.5</ele><time>2026-04-15T13:01:35Z</time></trkpt><trkpt lat="43.44863764470413" lon="10.772136446495374"><ele>109.0</ele><time>2026-04-15T13:01:36Z</time></trkpt><trkpt lat="43.44838085438229" lon="10.772145301906994"><ele>109.0</ele><time>2026-04-15T13:01:37Z</time></trkpt><trkpt lat="43.44810381334551" lon="10.772188076633352"><ele>109.0</ele><time>2026-04-15T13:01:38Z</time></trkpt><trkpt lat="43.44780614154202" lon="10.77225044918165"><ele>109.0</ele><time>2026-04-15T13:01:39Z</time></trkpt><trkpt lat="43.44749455000858" lon="10.77231454264359"><ele>109.0</ele><time>2026-04-15T13:01:40Z</time></trkpt><trkpt lat="43.44718489694974" lon="10.77236998082796"><ele>109.0</ele><time>2026-04-15T13:01:41Z</time></trkpt><trkpt lat="43.44687799755379" lon="10.772417736526688"><ele>109.0</ele><time>2026-04-15T13:01:42Z</time></trkpt><trkpt lat="43.44628155547457" lon="10.772506638883359"><ele>109.0</ele><time>2026-04-15T13:01:44Z</time></trkpt><trkpt lat="43.44599762817346" lon="10.77254759236117"><ele>109.0</ele><time>2026-04-15T13:01:45Z</time></trkpt><trkpt lat="43.44571113341519" lon="10.772577379148021"><ele>110.0</ele><time>2026-04-15T13:01:46Z</time></trkpt><trkpt lat="43.44543391093792" lon="10.772596148229338"><ele>111.0</ele><time>2026-04-15T13:01:47Z</time></trkpt><trkpt lat="43.4451544047502" lon="10.772609230538587"><ele>111.0</ele><time>2026-04-15T13:01:48Z</time></trkpt><trkpt lat="43.44487629895419" lon="10.772624952461248"><ele>111.0</ele><time>2026-04-15T13:01:49Z</time></trkpt><trkpt lat="43.444605194129224" lon="10.772644385167949"><ele>111.0</ele><time>2026-04-15T13:01:50Z</time></trkpt><trkpt lat="43.444332371851246" lon="10.7726651777255"><ele>111.0</ele><time>2026-04-15T13:01:51Z</time></trkpt><trkpt lat="43.444067286388886" lon="10.772689221129463"><ele>111.5</ele><time>2026-04-15T13:01:52Z</time></trkpt><trkpt lat="43.44381742478517" lon="10.772714164751443"><ele>112.0</ele><time>2026-04-15T13:01:53Z</time></trkpt><trkpt lat="43.44356620553992" lon="10.77271374603871"><ele>113.0</ele><time>2026-04-15T13:01:54Z</time></trkpt><trkpt lat="43.44331158851252" lon="10.772661205935933"><ele>114.0</ele><time>2026-04-15T13:01:55Z</time></trkpt><trkpt lat="43.44304823458524" lon="10.772554061793242"><ele>114.5</ele><time>2026-04-15T13:01:56Z</time></trkpt><trkpt lat="43.44278026064346" lon="10.772419810412314"><ele>115.0</ele><time>2026-04-15T13:01:57Z</time></trkpt><trkpt lat="43.442505939356856" lon="10.772292418800552"><ele>115.0</ele><time>2026-04-15T13:01:58Z</time></trkpt><trkpt lat="43.44222264256731" lon="10.772171214138002"><ele>115.0</ele><time>2026-04-15T13:01:59Z</time></trkpt><trkpt lat="43.441936816926" lon="10.77205105821683"><ele>114.0</ele><time>2026-04-15T13:02:00Z</time></trkpt><trkpt lat="43.44164107641689" lon="10.771930092855897"><ele>113.0</ele><time>2026-04-15T13:02:01Z</time></trkpt><trkpt lat="43.44135650067801" lon="10.771815816897917"><ele>115.5</ele><time>2026-04-15T13:02:02Z</time></trkpt><trkpt lat="43.441075894766435" lon="10.771706158317766"><ele>118.0</ele><time>2026-04-15T13:02:03Z</time></trkpt><trkpt lat="43.440802713451404" lon="10.771610490337551"><ele>118.0</ele><time>2026-04-15T13:02:04Z</time></trkpt><trkpt lat="43.44054357012727" lon="10.771488943143748"><ele>118.0</ele><time>2026-04-15T13:02:05Z</time></trkpt><trkpt lat="43.44029938897263" lon="10.771310729626364"><ele>118.5</ele><time>2026-04-15T13:02:06Z</time></trkpt><trkpt lat="43.44008351509838" lon="10.771060211182617"><ele>119.0</ele><time>2026-04-15T13:02:07Z</time></trkpt><trkpt lat="43.43987882289471" lon="10.770757073194341"><ele>119.0</ele><time>2026-04-15T13:02:08Z</time></trkpt><trkpt lat="43.43967280414886" lon="10.770447071117474"><ele>119.0</ele><time>2026-04-15T13:02:09Z</time></trkpt><trkpt lat="43.439458715557095" lon="10.770147331685886"><ele>120.0</ele><time>2026-04-15T13:02:10Z</time></trkpt><trkpt lat="43.43923733403224" lon="10.76984594853875"><ele>121.0</ele><time>2026-04-15T13:02:11Z</time></trkpt><trkpt lat="43.43901540038861" lon="10.769550460206776"><ele>122.0</ele><time>2026-04-15T13:02:12Z</time></trkpt><trkpt lat="43.43879197691585" lon="10.769257515944501"><ele>123.0</ele><time>2026-04-15T13:02:13Z</time></trkpt><trkpt lat="43.43857569077323" lon="10.768968672998867"><ele>123.0</ele><time>2026-04-15T13:02:14Z</time></trkpt><trkpt lat="43.4383666797413" lon="10.768687148339698"><ele>123.0</ele><time>2026-04-15T13:02:15Z</time></trkpt><trkpt lat="43.438163637725374" lon="10.76841676898721"><ele>124.0</ele><time>2026-04-15T13:02:16Z</time></trkpt><trkpt lat="43.4379632338186" lon="10.768149605208805"><ele>125.0</ele><time>2026-04-15T13:02:17Z</time></trkpt><trkpt lat="43.437765715177036" lon="10.767886796194285"><ele>124.5</ele><time>2026-04-15T13:02:18Z</time></trkpt><trkpt lat="43.43757699368749" lon="10.767636818630153"><ele>124.0</ele><time>2026-04-15T13:02:19Z</time></trkpt><trkpt lat="43.43738770418137" lon="10.76738501523003"><ele>124.0</ele><time>2026-04-15T13:02:20Z</time></trkpt><trkpt lat="43.437200764411934" lon="10.767129569444924"><ele>124.0</ele><time>2026-04-15T13:02:21Z</time></trkpt><trkpt lat="43.43701485252347" lon="10.76686270751306"><ele>125.0</ele><time>2026-04-15T13:02:22Z</time></trkpt><trkpt lat="43.4368577394564" lon="10.766556435519382"><ele>126.0</ele><time>2026-04-15T13:02:23Z</time></trkpt><trkpt lat="43.43672996546547" lon="10.766224678819018"><ele>125.5</ele><time>2026-04-15T13:02:24Z</time></trkpt><trkpt lat="43.43658444358592" lon="10.765890113868153"><ele>125.0</ele><time>2026-04-15T13:02:25Z</time></trkpt><trkpt lat="43.436456413478176" lon="10.76553917498096"><ele>125.0</ele><time>2026-04-15T13:02:26Z</time></trkpt><trkpt lat="43.436322151300956" lon="10.765194444769792"><ele>125.0</ele><time>2026-04-15T13:02:27Z</time></trkpt><trkpt lat="43.43619310434252" lon="10.764844763995082"><ele>128.0</ele><time>2026-04-15T13:02:28Z</time></trkpt><trkpt lat="43.43606626218635" lon="10.76448477222243"><ele>131.0</ele><time>2026-04-15T13:02:29Z</time></trkpt><trkpt lat="43.435936546376446" lon="10.764134244586971"><ele>131.0</ele><time>2026-04-15T13:02:30Z</time></trkpt><trkpt lat="43.43579817998871" lon="10.763774880736717"><ele>131.0</ele><time>2026-04-15T13:02:31Z</time></trkpt><trkpt lat="43.43565758529743" lon="10.76342316024364"><ele>130.0</ele><time>2026-04-15T13:02:32Z</time></trkpt><trkpt lat="43.43551274290925" lon="10.763067109424314"><ele>129.0</ele><time>2026-04-15T13:02:33Z</time></trkpt><trkpt lat="43.43537383492925" lon="10.76271812866274"><ele>131.0</ele><time>2026-04-15T13:02:34Z</time></trkpt><trkpt lat="43.435238595197106" lon="10.762364019787746"><ele>133.0</ele><time>2026-04-15T13:02:35Z</time></trkpt><trkpt lat="43.43511156643337" lon="10.76201535817797"><ele>132.5</ele><time>2026-04-15T13:02:36Z</time></trkpt><trkpt lat="43.43498135789066" lon="10.76167030017545"><ele>132.0</ele><time>2026-04-15T13:02:37Z</time></trkpt><trkpt lat="43.4348499209604" lon="10.761327236755795"><ele>131.5</ele><time>2026-04-15T13:02:38Z</time></trkpt><trkpt lat="43.43472029360816" lon="10.761004021287684"><ele>131.0</ele><time>2026-04-15T13:02:39Z</time></trkpt><trkpt lat="43.43458151051698" lon="10.760723612720659"><ele>134.0</ele><time>2026-04-15T13:02:40Z</time></trkpt><trkpt lat="43.43441395637617" lon="10.760498323286013"><ele>137.0</ele><time>2026-04-15T13:02:41Z</time></trkpt><trkpt lat="43.4342130673807" lon="10.760286258559727"><ele>135.5</ele><time>2026-04-15T13:02:42Z</time></trkpt><trkpt lat="43.43402449606386" lon="10.760077904556178"><ele>134.0</ele><time>2026-04-15T13:02:43Z</time></trkpt><trkpt lat="43.43385815675546" lon="10.759881162553413"><ele>136.0</ele><time>2026-04-15T13:02:44Z</time></trkpt><trkpt lat="43.43369503248334" lon="10.759704958906124"><ele>138.0</ele><time>2026-04-15T13:02:45Z</time></trkpt><trkpt lat="43.43352681152521" lon="10.759570145037017"><ele>140.0</ele><time>2026-04-15T13:02:46Z</time></trkpt><trkpt lat="43.4333166278709" lon="10.759477258348127"><ele>138.0</ele><time>2026-04-15T13:02:47Z</time></trkpt><trkpt lat="43.43285605840202" lon="10.759352281410509"><ele>138.0</ele><time>2026-04-15T13:02:49Z</time></trkpt><trkpt lat="43.43262555225465" lon="10.759288167208934"><ele>138.0</ele><time>2026-04-15T13:02:50Z</time></trkpt><trkpt lat="43.43240499743738" lon="10.759250206590652"><ele>138.0</ele><time>2026-04-15T13:02:51Z</time></trkpt><trkpt lat="43.4321908578114" lon="10.759240542001496"><ele>138.0</ele><time>2026-04-15T13:02:52Z</time></trkpt><trkpt lat="43.431962033315344" lon="10.759273012224075"><ele>138.0</ele><time>2026-04-15T13:02:53Z</time></trkpt><trkpt lat="43.43172954031746" lon="10.759275545054958"><ele>140.5</ele><time>2026-04-15T13:02:54Z</time></trkpt><trkpt lat="43.431472489396285" lon="10.759293101613222"><ele>143.0</ele><time>2026-04-15T13:02:55Z</time></trkpt><trkpt lat="43.431207488388274" lon="10.759524738871486"><ele>146.0</ele><time>2026-04-15T13:02:56Z</time></trkpt><trkpt lat="43.43093914456409" lon="10.759615031512451"><ele>149.0</ele><time>2026-04-15T13:02:57Z</time></trkpt><trkpt lat="43.430679279687425" lon="10.759701211620618"><ele>148.0</ele><time>2026-04-15T13:02:58Z</time></trkpt><trkpt lat="43.43042119139825" lon="10.759765735455261"><ele>147.0</ele><time>2026-04-15T13:02:59Z</time></trkpt><trkpt lat="43.43016105336978" lon="10.75977420076916"><ele>147.0</ele><time>2026-04-15T13:03:00Z</time></trkpt><trkpt lat="43.42990899822258" lon="10.759687565867996"><ele>147.0</ele><time>2026-04-15T13:03:01Z</time></trkpt><trkpt lat="43.42966918827552" lon="10.759569437886277"><ele>148.66666666666666</ele><time>2026-04-15T13:03:02Z</time></trkpt><trkpt lat="43.42948020707725" lon="10.759477563038399"><ele>150.33333333333331</ele><time>2026-04-15T13:03:03Z</time></trkpt><trkpt lat="43.42930226205155" lon="10.759444250914326"><ele>152.0</ele><time>2026-04-15T13:03:04Z</time></trkpt><trkpt lat="43.429117619096715" lon="10.759493947332855"><ele>152.0</ele><time>2026-04-15T13:03:05Z</time></trkpt><trkpt lat="43.42892717136053" lon="10.759632398433336"><ele>152.0</ele><time>2026-04-15T13:03:06Z</time></trkpt><trkpt lat="43.428765020714074" lon="10.759841489511375"><ele>152.0</ele><time>2026-04-15T13:03:07Z</time></trkpt><trkpt lat="43.42861022711559" lon="10.760064189669"><ele>154.0</ele><time>2026-04-15T13:03:08Z</time></trkpt><trkpt lat="43.42846426764035" lon="10.760211878402998"><ele>156.0</ele><time>2026-04-15T13:03:09Z</time></trkpt><trkpt lat="43.4283025014321" lon="10.760283256749236"><ele>158.0</ele><time>2026-04-15T13:03:10Z</time></trkpt><trkpt lat="43.428140371658685" lon="10.760306208716466"><ele>158.0</ele><time>2026-04-15T13:03:11Z</time></trkpt><trkpt lat="43.427992361469336" lon="10.760376718149052"><ele>158.0</ele><time>2026-04-15T13:03:12Z</time></trkpt><trkpt lat="43.42788371967454" lon="10.760562614491764"><ele>158.0</ele><time>2026-04-15T13:03:13Z</time></trkpt><trkpt lat="43.42780989806337" lon="10.760840535397294"><ele>156.33333333333331</ele><time>2026-04-15T13:03:14Z</time></trkpt><trkpt lat="43.42770903482267" lon="10.76109551569584"><ele>154.66666666666666</ele><time>2026-04-15T13:03:15Z</time></trkpt><trkpt lat="43.42758321840933" lon="10.761335090796866"><ele>153.0</ele><time>2026-04-15T13:03:16Z</time></trkpt><trkpt lat="43.42747586625185" lon="10.761581886555497"><ele>153.0</ele><time>2026-04-15T13:03:17Z</time></trkpt><trkpt lat="43.42742522265844" lon="10.761837977140818"><ele>153.0</ele><time>2026-04-15T13:03:18Z</time></trkpt><trkpt lat="43.42742329562002" lon="10.762077580516417"><ele>153.0</ele><time>2026-04-15T13:03:19Z</time></trkpt><trkpt lat="43.42746113954767" lon="10.762302736435489"><ele>153.25</ele><time>2026-04-15T13:03:20Z</time></trkpt><trkpt lat="43.42748964673545" lon="10.762503332941966"><ele>153.5</ele><time>2026-04-15T13:03:21Z</time></trkpt><trkpt lat="43.42747485360614" lon="10.76267102501364"><ele>153.75</ele><time>2026-04-15T13:03:22Z</time></trkpt><trkpt lat="43.42740974043531" lon="10.762819627767646"><ele>154.0</ele><time>2026-04-15T13:03:23Z</time></trkpt><trkpt lat="43.42727717525046" lon="10.76292950078534"><ele>151.0</ele><time>2026-04-15T13:03:24Z</time></trkpt><trkpt lat="43.42709699556879" lon="10.762988768818762"><ele>148.0</ele><time>2026-04-15T13:03:25Z</time></trkpt><trkpt lat="43.426920531841084" lon="10.763048744259255"><ele>145.0</ele><time>2026-04-15T13:03:26Z</time></trkpt><trkpt lat="43.42678404057723" lon="10.763133331426477"><ele>145.0</ele><time>2026-04-15T13:03:27Z</time></trkpt><trkpt lat="43.4266781085623" lon="10.763270994146602"><ele>145.0</ele><time>2026-04-15T13:03:28Z</time></trkpt><trkpt lat="43.4266057432059" lon="10.763479320398647"><ele>145.0</ele><time>2026-04-15T13:03:29Z</time></trkpt><trkpt lat="43.42657060800622" lon="10.763751124075302"><ele>145.75</ele><time>2026-04-15T13:03:30Z</time></trkpt><trkpt lat="43.42655980585519" lon="10.763995376324937"><ele>146.5</ele><time>2026-04-15T13:03:31Z</time></trkpt><trkpt lat="43.42651509146407" lon="10.764146693851004"><ele>147.25</ele><time>2026-04-15T13:03:32Z</time></trkpt><trkpt lat="43.426395705252574" lon="10.764232337271945"><ele>148.0</ele><time>2026-04-15T13:03:33Z</time></trkpt><trkpt lat="43.426240234435085" lon="10.76429963541899"><ele>144.0</ele><time>2026-04-15T13:03:34Z</time></trkpt><trkpt lat="43.426127662308325" lon="10.76445425524643"><ele>140.0</ele><time>2026-04-15T13:03:35Z</time></trkpt><trkpt lat="43.426080772165335" lon="10.764694937296678"><ele>136.0</ele><time>2026-04-15T13:03:36Z</time></trkpt><trkpt lat="43.42609848288121" lon="10.764962290742039"><ele>136.0</ele><time>2026-04-15T13:03:37Z</time></trkpt><trkpt lat="43.426120754359246" lon="10.765215605624276"><ele>136.0</ele><time>2026-04-15T13:03:38Z</time></trkpt><trkpt lat="43.426085019620466" lon="10.765447728233426"><ele>136.0</ele><time>2026-04-15T13:03:39Z</time></trkpt><trkpt lat="43.42597860840176" lon="10.765640894000642"><ele>136.0</ele><time>2026-04-15T13:03:40Z</time></trkpt><trkpt lat="43.425802327797726" lon="10.7658094392918"><ele>136.0</ele><time>2026-04-15T13:03:41Z</time></trkpt><trkpt lat="43.42563978584598" lon="10.766012206720184"><ele>136.0</ele><time>2026-04-15T13:03:42Z</time></trkpt><trkpt lat="43.425514124870716" lon="10.766289545124195"><ele>132.5</ele><time>2026-04-15T13:03:43Z</time></trkpt><trkpt lat="43.425412045293875" lon="10.766606805078814"><ele>129.0</ele><time>2026-04-15T13:03:44Z</time></trkpt><trkpt lat="43.425302516623404" lon="10.766926112482693"><ele>129.0</ele><time>2026-04-15T13:03:45Z</time></trkpt><trkpt lat="43.425188949991146" lon="10.76724090322034"><ele>129.0</ele><time>2026-04-15T13:03:46Z</time></trkpt><trkpt lat="43.425072615292734" lon="10.7675370913198"><ele>127.0</ele><time>2026-04-15T13:03:47Z</time></trkpt><trkpt lat="43.42493179193358" lon="10.767807554072785"><ele>125.0</ele><time>2026-04-15T13:03:48Z</time></trkpt><trkpt lat="43.424741876219244" lon="10.768037358877542"><ele>125.0</ele><time>2026-04-15T13:03:49Z</time></trkpt><trkpt lat="43.424536747001625" lon="10.768232642047547"><ele>125.0</ele><time>2026-04-15T13:03:50Z</time></trkpt><trkpt lat="43.42435478274889" lon="10.768428560181405"><ele>123.0</ele><time>2026-04-15T13:03:51Z</time></trkpt><trkpt lat="43.424078846650275" lon="10.768816017491634"><ele>121.0</ele><time>2026-04-15T13:03:53Z</time></trkpt><trkpt lat="43.423974898843284" lon="10.768958413296595"><ele>121.0</ele><time>2026-04-15T13:03:54Z</time></trkpt><trkpt lat="43.42389952518436" lon="10.769078884851188"><ele>121.0</ele><time>2026-04-15T13:03:55Z</time></trkpt><trkpt lat="43.42386744364064" lon="10.769221972718332"><ele>121.0</ele><time>2026-04-15T13:03:56Z</time></trkpt><trkpt lat="43.42389804744859" lon="10.769408343955684"><ele>121.0</ele><time>2026-04-15T13:03:57Z</time></trkpt><trkpt lat="43.42398970691933" lon="10.769608948663308"><ele>121.66666666666667</ele><time>2026-04-15T13:03:58Z</time></trkpt><trkpt lat="43.424111040217056" lon="10.769811785533784"><ele>122.33333333333334</ele><time>2026-04-15T13:03:59Z</time></trkpt><trkpt lat="43.42422369056508" lon="10.770020940322674"><ele>123.0</ele><time>2026-04-15T13:04:00Z</time></trkpt><trkpt lat="43.42429949713949" lon="10.770244370684033"><ele>124.33333333333334</ele><time>2026-04-15T13:04:01Z</time></trkpt><trkpt lat="43.4243240892399" lon="10.77045757951689"><ele>125.66666666666667</ele><time>2026-04-15T13:04:02Z</time></trkpt><trkpt lat="43.42428289027373" lon="10.770654674440104"><ele>127.0</ele><time>2026-04-15T13:04:03Z</time></trkpt><trkpt lat="43.42420117147225" lon="10.770841743591017"><ele>127.0</ele><time>2026-04-15T13:04:04Z</time></trkpt><trkpt lat="43.42409620232724" lon="10.771024145604336"><ele>127.0</ele><time>2026-04-15T13:04:05Z</time></trkpt><trkpt lat="43.42399217975725" lon="10.771160728387324"><ele>127.0</ele><time>2026-04-15T13:04:06Z</time></trkpt><trkpt lat="43.42391194256042" lon="10.7712791633156"><ele>127.0</ele><time>2026-04-15T13:04:07Z</time></trkpt><trkpt lat="43.423857582780435" lon="10.771368868305673"><ele>127.6</ele><time>2026-04-15T13:04:08Z</time></trkpt><trkpt lat="43.42378192192269" lon="10.77147584186585"><ele>128.2</ele><time>2026-04-15T13:04:10Z</time></trkpt><trkpt lat="43.42372385676209" lon="10.771557526227838"><ele>128.8</ele><time>2026-04-15T13:04:16Z</time></trkpt><trkpt lat="43.42362358720554" lon="10.771647494525658"><ele>129.4</ele><time>2026-04-15T13:05:16Z</time></trkpt><trkpt lat="43.42351250868985" lon="10.771733145607076"><ele>130.0</ele><time>2026-04-15T13:05:17Z</time></trkpt><trkpt lat="43.42338467280103" lon="10.771831060857327"><ele>128.5</ele><time>2026-04-15T13:05:18Z</time></trkpt><trkpt lat="43.42327936306263" lon="10.771982790098207"><ele>127.0</ele><time>2026-04-15T13:05:19Z</time></trkpt><trkpt lat="43.42322905587114" lon="10.772142546668213"><ele>125.5</ele><time>2026-04-15T13:05:20Z</time></trkpt><trkpt lat="43.42322111530028" lon="10.772301209602363"><ele>124.0</ele><time>2026-04-15T13:05:21Z</time></trkpt><trkpt lat="43.42324846251846" lon="10.772443102680647"><ele>124.0</ele><time>2026-04-15T13:05:22Z</time></trkpt><trkpt lat="43.42328260198272" lon="10.772548367764994"><ele>124.0</ele><time>2026-04-15T13:05:23Z</time></trkpt><trkpt lat="43.4232933276246" lon="10.772647847703759"><ele>124.0</ele><time>2026-04-15T13:05:24Z</time></trkpt><trkpt lat="43.42327643237962" lon="10.772760169291299"><ele>124.0</ele><time>2026-04-15T13:05:25Z</time></trkpt><trkpt lat="43.423231768824266" lon="10.772881663337385"><ele>124.0</ele><time>2026-04-15T13:05:26Z</time></trkpt><trkpt lat="43.423160303408714" lon="10.773000925968358"><ele>124.0</ele><time>2026-04-15T13:05:27Z</time></trkpt><trkpt lat="43.423076542166854" lon="10.773107192750672"><ele>124.0</ele><time>2026-04-15T13:05:28Z</time></trkpt><trkpt lat="43.42298145705735" lon="10.773207740162688"><ele>124.0</ele><time>2026-04-15T13:05:29Z</time></trkpt><trkpt lat="43.42289255832284" lon="10.773309637145614"><ele>124.0</ele><time>2026-04-15T13:05:30Z</time></trkpt><trkpt lat="43.422803335925124" lon="10.773408420534919"><ele>124.0</ele><time>2026-04-15T13:05:31Z</time></trkpt><trkpt lat="43.42271556765501" lon="10.773509541625232"><ele>124.0</ele><time>2026-04-15T13:05:32Z</time></trkpt><trkpt lat="43.42262387106823" lon="10.773613698192515"><ele>124.0</ele><time>2026-04-15T13:05:33Z</time></trkpt><trkpt lat="43.42252845307965" lon="10.773721691501501"><ele>124.0</ele><time>2026-04-15T13:05:34Z</time></trkpt><trkpt lat="43.42243527285702" lon="10.773827453097036"><ele>124.5</ele><time>2026-04-15T13:05:35Z</time></trkpt><trkpt lat="43.42234589344205" lon="10.773922205474282"><ele>125.0</ele><time>2026-04-15T13:05:36Z</time></trkpt><trkpt lat="43.42225265141916" lon="10.773996978394006"><ele>125.5</ele><time>2026-04-15T13:05:37Z</time></trkpt><trkpt lat="43.42214360807357" lon="10.774049572043197"><ele>126.0</ele><time>2026-04-15T13:05:38Z</time></trkpt><trkpt lat="43.42202286788509" lon="10.774074898666871"><ele>126.75</ele><time>2026-04-15T13:05:39Z</time></trkpt><trkpt lat="43.4218943163786" lon="10.774037392505136"><ele>127.5</ele><time>2026-04-15T13:05:40Z</time></trkpt><trkpt lat="43.4217588031627" lon="10.77403343485943"><ele>128.25</ele><time>2026-04-15T13:05:41Z</time></trkpt><trkpt lat="43.42162114671401" lon="10.773998711549025"><ele>129.0</ele><time>2026-04-15T13:05:42Z</time></trkpt><trkpt lat="43.42147737899318" lon="10.773961220501224"><ele>129.66666666666666</ele><time>2026-04-15T13:05:43Z</time></trkpt><trkpt lat="43.421312696209874" lon="10.773933346175708"><ele>130.33333333333331</ele><time>2026-04-15T13:05:44Z</time></trkpt><trkpt lat="43.42112758984841" lon="10.77391772683559"><ele>131.0</ele><time>2026-04-15T13:05:45Z</time></trkpt><trkpt lat="43.42093137351363" lon="10.773870855778114"><ele>131.0</ele><time>2026-04-15T13:05:46Z</time></trkpt><trkpt lat="43.42074304115243" lon="10.773824637155913"><ele>131.0</ele><time>2026-04-15T13:05:47Z</time></trkpt><trkpt lat="43.42055825310459" lon="10.773770119645839"><ele>131.0</ele><time>2026-04-15T13:05:48Z</time></trkpt><trkpt lat="43.42035788122433" lon="10.773712682010324"><ele>130.0</ele><time>2026-04-15T13:05:49Z</time></trkpt><trkpt lat="43.42013535486634" lon="10.773644779484338"><ele>129.0</ele><time>2026-04-15T13:05:50Z</time></trkpt><trkpt lat="43.41985995636668" lon="10.773560683322646"><ele>128.5</ele><time>2026-04-15T13:05:51Z</time></trkpt><trkpt lat="43.41954056061602" lon="10.773461450916898"><ele>128.0</ele><time>2026-04-15T13:05:52Z</time></trkpt><trkpt lat="43.41917270750628" lon="10.773367365354028"><ele>129.0</ele><time>2026-04-15T13:05:53Z</time></trkpt><trkpt lat="43.41876966583144" lon="10.773227112733647"><ele>130.0</ele><time>2026-04-15T13:05:54Z</time></trkpt><trkpt lat="43.418368451898594" lon="10.773096303083527"><ele>130.5</ele><time>2026-04-15T13:05:55Z</time></trkpt><trkpt lat="43.41797488766797" lon="10.772976337190208"><ele>131.0</ele><time>2026-04-15T13:05:56Z</time></trkpt><trkpt lat="43.417649819574564" lon="10.772880590342986"><ele>131.0</ele><time>2026-04-15T13:05:57Z</time></trkpt><trkpt lat="43.417389622599444" lon="10.772797839105213"><ele>131.0</ele><time>2026-04-15T13:05:58Z</time></trkpt><trkpt lat="43.41716247666195" lon="10.772724386707694"><ele>131.66666666666666</ele><time>2026-04-15T13:05:59Z</time></trkpt><trkpt lat="43.41696902114989" lon="10.772685200329594"><ele>132.33333333333334</ele><time>2026-04-15T13:06:00Z</time></trkpt><trkpt lat="43.41676127910072" lon="10.77272333932361"><ele>133.0</ele><time>2026-04-15T13:06:01Z</time></trkpt><trkpt lat="43.41656601868133" lon="10.77285212681068"><ele>133.0</ele><time>2026-04-15T13:06:02Z</time></trkpt><trkpt lat="43.41638524855259" lon="10.77300111360439"><ele>133.0</ele><time>2026-04-15T13:06:03Z</time></trkpt><trkpt lat="43.41631013562149" lon="10.773339930830055"><ele>132.66666666666669</ele><time>2026-04-15T13:06:04Z</time></trkpt><trkpt lat="43.416169638459955" lon="10.77358167580442"><ele>132.33333333333334</ele><time>2026-04-15T13:06:05Z</time></trkpt><trkpt lat="43.41597720502136" lon="10.773714446269343"><ele>132.0</ele><time>2026-04-15T13:06:06Z</time></trkpt><trkpt lat="43.415752621871775" lon="10.7738134756263"><ele>132.0</ele><time>2026-04-15T13:06:07Z</time></trkpt><trkpt lat="43.41548895470491" lon="10.773925799672233"><ele>132.0</ele><time>2026-04-15T13:06:08Z</time></trkpt><trkpt lat="43.415207229601066" lon="10.774056576690944"><ele>134.0</ele><time>2026-04-15T13:06:09Z</time></trkpt><trkpt lat="43.41495824733598" lon="10.774161619119328"><ele>136.0</ele><time>2026-04-15T13:06:10Z</time></trkpt><trkpt lat="43.41476264697445" lon="10.77424518538025"><ele>136.33333333333334</ele><time>2026-04-15T13:06:11Z</time></trkpt><trkpt lat="43.414583025323616" lon="10.774257600632081"><ele>136.66666666666666</ele><time>2026-04-15T13:06:12Z</time></trkpt><trkpt lat="43.414409052255294" lon="10.774196937332942"><ele>137.0</ele><time>2026-04-15T13:06:13Z</time></trkpt><trkpt lat="43.4142094278678" lon="10.774074362047223"><ele>137.0</ele><time>2026-04-15T13:06:14Z</time></trkpt><trkpt lat="43.41398878869323" lon="10.773896343824903"><ele>137.0</ele><time>2026-04-15T13:06:15Z</time></trkpt><trkpt lat="43.413733200837655" lon="10.773696868541162"><ele>139.5</ele><time>2026-04-15T13:06:16Z</time></trkpt><trkpt lat="43.413473237433415" lon="10.773505897496118"><ele>142.0</ele><time>2026-04-15T13:06:17Z</time></trkpt><trkpt lat="43.413220385320045" lon="10.773336214323614"><ele>142.0</ele><time>2026-04-15T13:06:18Z</time></trkpt><trkpt lat="43.41301394171925" lon="10.773214457369901"><ele>142.0</ele><time>2026-04-15T13:06:19Z</time></trkpt><trkpt lat="43.41283894529136" lon="10.77314312976071"><ele>142.0</ele><time>2026-04-15T13:06:20Z</time></trkpt><trkpt lat="43.41268640455674" lon="10.773107840231807"><ele>141.0</ele><time>2026-04-15T13:06:21Z</time></trkpt><trkpt lat="43.41253338158263" lon="10.773112191699438"><ele>140.0</ele><time>2026-04-15T13:06:22Z</time></trkpt><trkpt lat="43.41238292140347" lon="10.773212768324157"><ele>139.0</ele><time>2026-04-15T13:06:23Z</time></trkpt><trkpt lat="43.412244659807286" lon="10.773401437418961"><ele>138.0</ele><time>2026-04-15T13:06:24Z</time></trkpt><trkpt lat="43.41207212181174" lon="10.77358383049133"><ele>137.0</ele><time>2026-04-15T13:06:25Z</time></trkpt><trkpt lat="43.41184536192814" lon="10.773699504229619"><ele>137.0</ele><time>2026-04-15T13:06:26Z</time></trkpt><trkpt lat="43.411633748963276" lon="10.77376462616793"><ele>137.0</ele><time>2026-04-15T13:06:27Z</time></trkpt><trkpt lat="43.411429336312715" lon="10.773749085450769"><ele>137.0</ele><time>2026-04-15T13:06:28Z</time></trkpt><trkpt lat="43.411206392235485" lon="10.773666082857119"><ele>138.0</ele><time>2026-04-15T13:06:29Z</time></trkpt><trkpt lat="43.41095686316615" lon="10.773601975398524"><ele>139.0</ele><time>2026-04-15T13:06:30Z</time></trkpt><trkpt lat="43.41068582720535" lon="10.773614472317684"><ele>139.0</ele><time>2026-04-15T13:06:31Z</time></trkpt><trkpt lat="43.410444207708906" lon="10.773626070774693"><ele>139.0</ele><time>2026-04-15T13:06:32Z</time></trkpt><trkpt lat="43.41025121698615" lon="10.773554542216708"><ele>139.0</ele><time>2026-04-15T13:06:33Z</time></trkpt><trkpt lat="43.410101610033024" lon="10.773459883562378"><ele>139.0</ele><time>2026-04-15T13:06:34Z</time></trkpt><trkpt lat="43.40996492601411" lon="10.773429974821743"><ele>139.0</ele><time>2026-04-15T13:06:35Z</time></trkpt><trkpt lat="43.409822334762026" lon="10.773501179829443"><ele>139.0</ele><time>2026-04-15T13:06:36Z</time></trkpt><trkpt lat="43.409683196581966" lon="10.773683132261581"><ele>140.66666666666669</ele><time>2026-04-15T13:06:37Z</time></trkpt><trkpt lat="43.409606388766825" lon="10.773949157760846"><ele>142.33333333333334</ele><time>2026-04-15T13:06:38Z</time></trkpt><trkpt lat="43.40958163181596" lon="10.774224527500735"><ele>144.0</ele><time>2026-04-15T13:06:39Z</time></trkpt><trkpt lat="43.40952225142056" lon="10.774500820647692"><ele>144.0</ele><time>2026-04-15T13:06:40Z</time></trkpt><trkpt lat="43.40937659248816" lon="10.774709455930259"><ele>144.0</ele><time>2026-04-15T13:06:41Z</time></trkpt><trkpt lat="43.4091896539553" lon="10.774871499973624"><ele>144.0</ele><time>2026-04-15T13:06:42Z</time></trkpt><trkpt lat="43.40898078321897" lon="10.775007354752837"><ele>143.0</ele><time>2026-04-15T13:06:43Z</time></trkpt><trkpt lat="43.40876137349289" lon="10.77514218322393"><ele>142.0</ele><time>2026-04-15T13:06:44Z</time></trkpt><trkpt lat="43.40851406647979" lon="10.775257012554375"><ele>142.0</ele><time>2026-04-15T13:06:45Z</time></trkpt><trkpt lat="43.408249992070864" lon="10.775351205436477"><ele>142.0</ele><time>2026-04-15T13:06:46Z</time></trkpt><trkpt lat="43.40797527846511" lon="10.775409773601808"><ele>143.5</ele><time>2026-04-15T13:06:47Z</time></trkpt><trkpt lat="43.40769092609101" lon="10.775432540585388"><ele>145.0</ele><time>2026-04-15T13:06:48Z</time></trkpt><trkpt lat="43.40742766069772" lon="10.775420092780939"><ele>145.0</ele><time>2026-04-15T13:06:49Z</time></trkpt><trkpt lat="43.407202373296286" lon="10.77541640382494"><ele>145.0</ele><time>2026-04-15T13:06:50Z</time></trkpt><trkpt lat="43.40699723913994" lon="10.775485822195009"><ele>145.0</ele><time>2026-04-15T13:06:51Z</time></trkpt><trkpt lat="43.40678293076282" lon="10.775584041901006"><ele>145.0</ele><time>2026-04-15T13:06:52Z</time></trkpt><trkpt lat="43.40655407275899" lon="10.775605964043521"><ele>145.0</ele><time>2026-04-15T13:06:53Z</time></trkpt><trkpt lat="43.406317290745406" lon="10.775560879554892"><ele>145.0</ele><time>2026-04-15T13:06:54Z</time></trkpt><trkpt lat="43.40607299931185" lon="10.775456003066664"><ele>145.0</ele><time>2026-04-15T13:06:55Z</time></trkpt><trkpt lat="43.40581765868836" lon="10.775316089362136"><ele>147.5</ele><time>2026-04-15T13:06:56Z</time></trkpt><trkpt lat="43.40555273287908" lon="10.775163976148272"><ele>150.0</ele><time>2026-04-15T13:06:57Z</time></trkpt><trkpt lat="43.40527985676322" lon="10.775011318815212"><ele>150.0</ele><time>2026-04-15T13:06:58Z</time></trkpt><trkpt lat="43.405008045109845" lon="10.774871056916233"><ele>150.0</ele><time>2026-04-15T13:06:59Z</time></trkpt><trkpt lat="43.404750967484716" lon="10.774738624975356"><ele>150.0</ele><time>2026-04-15T13:07:00Z</time></trkpt><trkpt lat="43.40451995177523" lon="10.774629898043287"><ele>150.0</ele><time>2026-04-15T13:07:01Z</time></trkpt><trkpt lat="43.40430254571558" lon="10.774560805372323"><ele>150.0</ele><time>2026-04-15T13:07:02Z</time></trkpt><trkpt lat="43.4040865327994" lon="10.774559154246692"><ele>150.0</ele><time>2026-04-15T13:07:03Z</time></trkpt><trkpt lat="43.403879659591816" lon="10.774615715696997"><ele>150.0</ele><time>2026-04-15T13:07:04Z</time></trkpt><trkpt lat="43.403676774775164" lon="10.77475875869931"><ele>154.0</ele><time>2026-04-15T13:07:05Z</time></trkpt><trkpt lat="43.40347453735844" lon="10.774923521259485"><ele>158.0</ele><time>2026-04-15T13:07:06Z</time></trkpt><trkpt lat="43.40326062234963" lon="10.775078755750448"><ele>158.0</ele><time>2026-04-15T13:07:07Z</time></trkpt><trkpt lat="43.40304246120559" lon="10.775209537195154"><ele>158.0</ele><time>2026-04-15T13:07:08Z</time></trkpt><trkpt lat="43.402835980760464" lon="10.775328345432916"><ele>158.0</ele><time>2026-04-15T13:07:09Z</time></trkpt><trkpt lat="43.402654872579994" lon="10.775446882041402"><ele>158.0</ele><time>2026-04-15T13:07:10Z</time></trkpt><trkpt lat="43.40249986060207" lon="10.775582164421225"><ele>158.0</ele><time>2026-04-15T13:07:11Z</time></trkpt><trkpt lat="43.40239007941154" lon="10.775767782754066"><ele>158.0</ele><time>2026-04-15T13:07:12Z</time></trkpt><trkpt lat="43.40233207064719" lon="10.776008664805241"><ele>158.0</ele><time>2026-04-15T13:07:13Z</time></trkpt><trkpt lat="43.40231430329732" lon="10.776301073791975"><ele>158.0</ele><time>2026-04-15T13:07:14Z</time></trkpt><trkpt lat="43.40230406927532" lon="10.776627840546405"><ele>157.0</ele><time>2026-04-15T13:07:15Z</time></trkpt><trkpt lat="43.402254883760946" lon="10.776965698028201"><ele>156.0</ele><time>2026-04-15T13:07:16Z</time></trkpt><trkpt lat="43.402158576468175" lon="10.777304355587713"><ele>160.0</ele><time>2026-04-15T13:07:17Z</time></trkpt><trkpt lat="43.402064221558184" lon="10.777650597511558"><ele>164.0</ele><time>2026-04-15T13:07:18Z</time></trkpt><trkpt lat="43.4020134778891" lon="10.778030619282356"><ele>165.0</ele><time>2026-04-15T13:07:19Z</time></trkpt><trkpt lat="43.40199985044872" lon="10.77841738615913"><ele>166.0</ele><time>2026-04-15T13:07:20Z</time></trkpt><trkpt lat="43.40201304715511" lon="10.778786262706886"><ele>166.0</ele><time>2026-04-15T13:07:21Z</time></trkpt><trkpt lat="43.402030208325534" lon="10.779161223244442"><ele>166.0</ele><time>2026-04-15T13:07:22Z</time></trkpt><trkpt lat="43.40205170779295" lon="10.779539141113357"><ele>166.0</ele><time>2026-04-15T13:07:23Z</time></trkpt><trkpt lat="43.40206131694828" lon="10.779894693962884"><ele>166.0</ele><time>2026-04-15T13:07:24Z</time></trkpt><trkpt lat="43.402042903398126" lon="10.780203337300174"><ele>165.66666666666669</ele><time>2026-04-15T13:07:25Z</time></trkpt><trkpt lat="43.4020050783976" lon="10.78049435280401"><ele>165.33333333333334</ele><time>2026-04-15T13:07:26Z</time></trkpt><trkpt lat="43.40195624023826" lon="10.780795489093087"><ele>165.0</ele><time>2026-04-15T13:07:27Z</time></trkpt><trkpt lat="43.401911569085556" lon="10.781093864562429"><ele>165.0</ele><time>2026-04-15T13:07:28Z</time></trkpt><trkpt lat="43.401877603686536" lon="10.7814009702717"><ele>165.0</ele><time>2026-04-15T13:07:29Z</time></trkpt><trkpt lat="43.40186461831253" lon="10.781699241886887"><ele>165.0</ele><time>2026-04-15T13:07:30Z</time></trkpt><trkpt lat="43.40187421433461" lon="10.782005940283256"><ele>164.66666666666666</ele><time>2026-04-15T13:07:31Z</time></trkpt><trkpt lat="43.401901005487645" lon="10.782305944957358"><ele>164.33333333333331</ele><time>2026-04-15T13:07:32Z</time></trkpt><trkpt lat="43.401933179327905" lon="10.782607533054152"><ele>164.0</ele><time>2026-04-15T13:07:33Z</time></trkpt><trkpt lat="43.40196484309441" lon="10.782909023384912"><ele>162.5</ele><time>2026-04-15T13:07:34Z</time></trkpt><trkpt lat="43.401994621591186" lon="10.783217345225893"><ele>161.0</ele><time>2026-04-15T13:07:35Z</time></trkpt><trkpt lat="43.40202194377545" lon="10.783525466940022"><ele>159.5</ele><time>2026-04-15T13:07:36Z</time></trkpt><trkpt lat="43.40205116003066" lon="10.78384244675191"><ele>158.0</ele><time>2026-04-15T13:07:37Z</time></trkpt><trkpt lat="43.40208581956356" lon="10.78415737970329"><ele>157.5</ele><time>2026-04-15T13:07:38Z</time></trkpt><trkpt lat="43.402133106522506" lon="10.784472749659125"><ele>157.0</ele><time>2026-04-15T13:07:39Z</time></trkpt><trkpt lat="43.402204162765635" lon="10.784788323281154"><ele>160.5</ele><time>2026-04-15T13:07:40Z</time></trkpt><trkpt lat="43.40229004003224" lon="10.785109364202764"><ele>164.0</ele><time>2026-04-15T13:07:41Z</time></trkpt><trkpt lat="43.402378511706" lon="10.785430020904029"><ele>164.0</ele><time>2026-04-15T13:07:42Z</time></trkpt><trkpt lat="43.40246038729574" lon="10.7857497312079"><ele>164.0</ele><time>2026-04-15T13:07:43Z</time></trkpt><trkpt lat="43.40253616263798" lon="10.786057044572178"><ele>165.0</ele><time>2026-04-15T13:07:44Z</time></trkpt><trkpt lat="43.40261057702582" lon="10.786364691825918"><ele>166.0</ele><time>2026-04-15T13:07:45Z</time></trkpt><trkpt lat="43.40268842996105" lon="10.786664161642143"><ele>166.66666666666669</ele><time>2026-04-15T13:07:46Z</time></trkpt><trkpt lat="43.402763133823036" lon="10.786942577766501"><ele>167.33333333333334</ele><time>2026-04-15T13:07:47Z</time></trkpt><trkpt lat="43.402830049612625" lon="10.787217294919806"><ele>168.0</ele><time>2026-04-15T13:07:48Z</time></trkpt><trkpt lat="43.40288268925617" lon="10.787485375075748"><ele>170.33333333333334</ele><time>2026-04-15T13:07:49Z</time></trkpt><trkpt lat="43.40291149156867" lon="10.787730619767133"><ele>172.66666666666669</ele><time>2026-04-15T13:07:50Z</time></trkpt><trkpt lat="43.402901395539224" lon="10.787960462006643"><ele>175.0</ele><time>2026-04-15T13:07:51Z</time></trkpt><trkpt lat="43.4028205711838" lon="10.788160763769376"><ele>175.0</ele><time>2026-04-15T13:07:52Z</time></trkpt><trkpt lat="43.402714797044375" lon="10.788375392433158"><ele>175.0</ele><time>2026-04-15T13:07:53Z</time></trkpt><trkpt lat="43.402575244238406" lon="10.78859173701804"><ele>175.0</ele><time>2026-04-15T13:07:54Z</time></trkpt><trkpt lat="43.40243107233582" lon="10.788814727504771"><ele>174.0</ele><time>2026-04-15T13:07:55Z</time></trkpt><trkpt lat="43.40227961709983" lon="10.788986386513297"><ele>173.0</ele><time>2026-04-15T13:07:56Z</time></trkpt><trkpt lat="43.40212652622904" lon="10.789092780399379"><ele>172.0</ele><time>2026-04-15T13:07:57Z</time></trkpt><trkpt lat="43.40196316713862" lon="10.789149801653464"><ele>172.0</ele><time>2026-04-15T13:07:58Z</time></trkpt><trkpt lat="43.401783771096945" lon="10.789113876836895"><ele>172.0</ele><time>2026-04-15T13:07:59Z</time></trkpt><trkpt lat="43.40158998524888" lon="10.789048057661468"><ele>172.0</ele><time>2026-04-15T13:08:00Z</time></trkpt><trkpt lat="43.40140776789102" lon="10.788985288761735"><ele>168.25</ele><time>2026-04-15T13:08:01Z</time></trkpt><trkpt lat="43.40126212703553" lon="10.788984871903098"><ele>164.5</ele><time>2026-04-15T13:08:02Z</time></trkpt><trkpt lat="43.40113546166907" lon="10.789078642759732"><ele>160.75</ele><time>2026-04-15T13:08:03Z</time></trkpt><trkpt lat="43.40104243576326" lon="10.789242230212256"><ele>157.0</ele><time>2026-04-15T13:08:04Z</time></trkpt><trkpt lat="43.401006054063465" lon="10.789451223999862"><ele>155.33333333333334</ele><time>2026-04-15T13:08:05Z</time></trkpt><trkpt lat="43.401043768718175" lon="10.789696419558844"><ele>153.66666666666666</ele><time>2026-04-15T13:08:06Z</time></trkpt><trkpt lat="43.401152686620065" lon="10.789943377777602"><ele>152.0</ele><time>2026-04-15T13:08:07Z</time></trkpt><trkpt lat="43.40127842909974" lon="10.790141455649067"><ele>154.0</ele><time>2026-04-15T13:08:08Z</time></trkpt><trkpt lat="43.40139003042279" lon="10.790310112317929"><ele>156.0</ele><time>2026-04-15T13:08:09Z</time></trkpt><trkpt lat="43.4014726593999" lon="10.79046911946753"><ele>158.0</ele><time>2026-04-15T13:08:10Z</time></trkpt><trkpt lat="43.40151404088118" lon="10.790633281382974"><ele>160.0</ele><time>2026-04-15T13:08:11Z</time></trkpt><trkpt lat="43.401498618771406" lon="10.790807890296335"><ele>160.0</ele><time>2026-04-15T13:08:12Z</time></trkpt><trkpt lat="43.401393006179084" lon="10.790926337133563"><ele>160.0</ele><time>2026-04-15T13:08:13Z</time></trkpt><trkpt lat="43.401269836512924" lon="10.791053886757062"><ele>160.0</ele><time>2026-04-15T13:08:14Z</time></trkpt><trkpt lat="43.400917313166225" lon="10.791298225663105"><ele>156.66666666666669</ele><time>2026-04-15T13:08:16Z</time></trkpt><trkpt lat="43.40070406185649" lon="10.791372233341177"><ele>153.33333333333334</ele><time>2026-04-15T13:08:17Z</time></trkpt><trkpt lat="43.40050577457328" lon="10.791442313740992"><ele>150.0</ele><time>2026-04-15T13:08:18Z</time></trkpt><trkpt lat="43.40033486552627" lon="10.79153513461017"><ele>148.0</ele><time>2026-04-15T13:08:19Z</time></trkpt><trkpt lat="43.40018549638987" lon="10.791665567184369"><ele>146.0</ele><time>2026-04-15T13:08:20Z</time></trkpt><trkpt lat="43.40006110430802" lon="10.791857056247544"><ele>144.0</ele><time>2026-04-15T13:08:21Z</time></trkpt><trkpt lat="43.399977463431036" lon="10.792109055142038"><ele>144.0</ele><time>2026-04-15T13:08:22Z</time></trkpt><trkpt lat="43.39993302841044" lon="10.792380705140188"><ele>144.0</ele><time>2026-04-15T13:08:23Z</time></trkpt><trkpt lat="43.39985671520199" lon="10.792600847695969"><ele>144.0</ele><time>2026-04-15T13:08:24Z</time></trkpt><trkpt lat="43.39971518988202" lon="10.792739547507809"><ele>142.33333333333334</ele><time>2026-04-15T13:08:25Z</time></trkpt><trkpt lat="43.399539609957486" lon="10.79283489845178"><ele>140.66666666666669</ele><time>2026-04-15T13:08:26Z</time></trkpt><trkpt lat="43.39934313587237" lon="10.79291091846019"><ele>139.0</ele><time>2026-04-15T13:08:27Z</time></trkpt><trkpt lat="43.39912436608248" lon="10.792936405190416"><ele>139.0</ele><time>2026-04-15T13:08:28Z</time></trkpt><trkpt lat="43.39890813358049" lon="10.792824480117808"><ele>139.0</ele><time>2026-04-15T13:08:29Z</time></trkpt><trkpt lat="43.39868207877214" lon="10.792697291242728"><ele>138.0</ele><time>2026-04-15T13:08:30Z</time></trkpt><trkpt lat="43.3984631082586" lon="10.792575850786012"><ele>137.0</ele><time>2026-04-15T13:08:31Z</time></trkpt><trkpt lat="43.39829208987214" lon="10.792472699563385"><ele>136.0</ele><time>2026-04-15T13:08:32Z</time></trkpt><trkpt lat="43.39814098393627" lon="10.792400524327219"><ele>136.5</ele><time>2026-04-15T13:08:33Z</time></trkpt><trkpt lat="43.397991277990485" lon="10.792357722872778"><ele>137.0</ele><time>2026-04-15T13:08:34Z</time></trkpt><trkpt lat="43.397852935900296" lon="10.792345303576733"><ele>137.5</ele><time>2026-04-15T13:08:35Z</time></trkpt><trkpt lat="43.39772170667841" lon="10.792352857786563"><ele>138.0</ele><time>2026-04-15T13:08:36Z</time></trkpt><trkpt lat="43.3975971888962" lon="10.792376349176221"><ele>138.0</ele><time>2026-04-15T13:08:37Z</time></trkpt><trkpt lat="43.39746711254888" lon="10.792402415814566"><ele>138.0</ele><time>2026-04-15T13:08:38Z</time></trkpt><trkpt lat="43.397335997336555" lon="10.79242584987836"><ele>138.0</ele><time>2026-04-15T13:08:39Z</time></trkpt><trkpt lat="43.39720615974982" lon="10.792442986671931"><ele>138.0</ele><time>2026-04-15T13:08:40Z</time></trkpt><trkpt lat="43.39707451569678" lon="10.792446061792909"><ele>137.5</ele><time>2026-04-15T13:08:41Z</time></trkpt><trkpt lat="43.39694107341747" lon="10.79242651302555"><ele>137.0</ele><time>2026-04-15T13:08:42Z</time></trkpt><trkpt lat="43.39680430433264" lon="10.792393026842769"><ele>136.5</ele><time>2026-04-15T13:08:43Z</time></trkpt><trkpt lat="43.39666890551839" lon="10.79237368679899"><ele>136.0</ele><time>2026-04-15T13:08:44Z</time></trkpt><trkpt lat="43.39652903725625" lon="10.792397354101979"><ele>136.0</ele><time>2026-04-15T13:08:45Z</time></trkpt><trkpt lat="43.39638955929778" lon="10.792452588745297"><ele>136.0</ele><time>2026-04-15T13:08:46Z</time></trkpt><trkpt lat="43.39624999756742" lon="10.792524083218227"><ele>136.0</ele><time>2026-04-15T13:08:47Z</time></trkpt><trkpt lat="43.39611635613333" lon="10.792606334637236"><ele>136.0</ele><time>2026-04-15T13:08:48Z</time></trkpt><trkpt lat="43.395995917837226" lon="10.792721965051603"><ele>133.75</ele><time>2026-04-15T13:08:49Z</time></trkpt><trkpt lat="43.39588555503247" lon="10.792861405424956"><ele>131.5</ele><time>2026-04-15T13:08:50Z</time></trkpt><trkpt lat="43.39580226882105" lon="10.792985643252102"><ele>129.25</ele><time>2026-04-15T13:08:51Z</time></trkpt><trkpt lat="43.39574990740887" lon="10.793079830534431"><ele>127.0</ele><time>2026-04-15T13:08:52Z</time></trkpt><trkpt lat="43.39567874089372" lon="10.7931719541384"><ele>127.0</ele><time>2026-04-15T13:08:54Z</time></trkpt><trkpt lat="43.39563228861056" lon="10.793237027645993"><ele>127.0</ele><time>2026-04-15T13:11:29Z</time></trkpt><trkpt lat="43.39555799432243" lon="10.793340234134993"><ele>127.0</ele><time>2026-04-15T13:15:40.999Z</time></trkpt><trkpt lat="43.39543002430543" lon="10.793517229224118"><ele>127.0</ele><time>2026-04-15T13:15:42.999Z</time></trkpt><trkpt lat="43.39531767122766" lon="10.793668168719925"><ele>125.66666666666667</ele><time>2026-04-15T13:15:43.999Z</time></trkpt><trkpt lat="43.39519998411576" lon="10.79384266876632"><ele>124.33333333333334</ele><time>2026-04-15T13:15:44.999Z</time></trkpt><trkpt lat="43.39505866522059" lon="10.793958070858057"><ele>123.0</ele><time>2026-04-15T13:15:45.999Z</time></trkpt><trkpt lat="43.394937871341845" lon="10.794046201557421"><ele>123.0</ele><time>2026-04-15T13:15:46.999Z</time></trkpt><trkpt lat="43.39480273283184" lon="10.794084667059467"><ele>123.0</ele><time>2026-04-15T13:15:47.999Z</time></trkpt><trkpt lat="43.394646395038365" lon="10.794040347223117"><ele>123.0</ele><time>2026-04-15T13:15:49Z</time></trkpt><trkpt lat="43.394458706817915" lon="10.793951037325085"><ele>120.5</ele><time>2026-04-15T13:15:50Z</time></trkpt><trkpt lat="43.39425377371475" lon="10.793860877075733"><ele>118.0</ele><time>2026-04-15T13:15:51Z</time></trkpt><trkpt lat="43.39403007540349" lon="10.793751095592896"><ele>115.5</ele><time>2026-04-15T13:15:52Z</time></trkpt><trkpt lat="43.3937693594173" lon="10.793677100000117"><ele>113.0</ele><time>2026-04-15T13:15:53Z</time></trkpt><trkpt lat="43.393499305705696" lon="10.793664299057765"><ele>113.0</ele><time>2026-04-15T13:15:54Z</time></trkpt><trkpt lat="43.3932170697118" lon="10.793679813441031"><ele>113.0</ele><time>2026-04-15T13:15:55Z</time></trkpt><trkpt lat="43.39294193255981" lon="10.793667452320049"><ele>112.0</ele><time>2026-04-15T13:15:56Z</time></trkpt><trkpt lat="43.39269469357376" lon="10.793664004685617"><ele>111.0</ele><time>2026-04-15T13:15:57Z</time></trkpt><trkpt lat="43.392463059713265" lon="10.793668396491721"><ele>111.0</ele><time>2026-04-15T13:15:58Z</time></trkpt><trkpt lat="43.39224437713034" lon="10.793648231742589"><ele>111.0</ele><time>2026-04-15T13:15:59Z</time></trkpt><trkpt lat="43.39203650901129" lon="10.793663065494712"><ele>111.0</ele><time>2026-04-15T13:15:59.999Z</time></trkpt><trkpt lat="43.391835926048444" lon="10.79363705553845"><ele>110.66666666666666</ele><time>2026-04-15T13:16:00.999Z</time></trkpt><trkpt lat="43.39164709232659" lon="10.79363523801329"><ele>110.33333333333333</ele><time>2026-04-15T13:16:01.999Z</time></trkpt><trkpt lat="43.39147116849738" lon="10.793654678985687"><ele>110.0</ele><time>2026-04-15T13:16:02.999Z</time></trkpt><trkpt lat="43.391292879658984" lon="10.793750550687024"><ele>114.0</ele><time>2026-04-15T13:16:03.999Z</time></trkpt><trkpt lat="43.39115360422638" lon="10.793989785155738"><ele>118.0</ele><time>2026-04-15T13:16:04.999Z</time></trkpt><trkpt lat="43.39102982219094" lon="10.794260087408697"><ele>114.5</ele><time>2026-04-15T13:16:05.999Z</time></trkpt><trkpt lat="43.3909189500892" lon="10.794567843309924"><ele>111.0</ele><time>2026-04-15T13:16:06.999Z</time></trkpt><trkpt lat="43.3907747469848" lon="10.794854654825356"><ele>111.0</ele><time>2026-04-15T13:16:07.999Z</time></trkpt><trkpt lat="43.39062335864752" lon="10.795106630979335"><ele>111.0</ele><time>2026-04-15T13:16:08.999Z</time></trkpt><trkpt lat="43.39046593403851" lon="10.79537135393454"><ele>110.0</ele><time>2026-04-15T13:16:09.999Z</time></trkpt><trkpt lat="43.39029417990919" lon="10.795661033598341"><ele>109.0</ele><time>2026-04-15T13:16:10.999Z</time></trkpt><trkpt lat="43.39012594419199" lon="10.795945440173831"><ele>104.0</ele><time>2026-04-15T13:16:11.999Z</time></trkpt><trkpt lat="43.38996925889349" lon="10.796202433273075"><ele>99.0</ele><time>2026-04-15T13:16:12.999Z</time></trkpt><trkpt lat="43.389810290765475" lon="10.796409967484266"><ele>99.66666666666666</ele><time>2026-04-15T13:16:13.999Z</time></trkpt><trkpt lat="43.38964675157562" lon="10.796576052626623"><ele>100.33333333333333</ele><time>2026-04-15T13:16:14.999Z</time></trkpt><trkpt lat="43.38947187496667" lon="10.7966790233354"><ele>101.0</ele><time>2026-04-15T13:16:15.999Z</time></trkpt><trkpt lat="43.389259904803176" lon="10.796694266695674"><ele>101.0</ele><time>2026-04-15T13:16:16.999Z</time></trkpt><trkpt lat="43.389016397756905" lon="10.796660869115167"><ele>101.0</ele><time>2026-04-15T13:16:17.999Z</time></trkpt><trkpt lat="43.38875894495516" lon="10.796630166877103"><ele>100.66666666666666</ele><time>2026-04-15T13:16:18.999Z</time></trkpt><trkpt lat="43.38851786155314" lon="10.796613107023916"><ele>100.33333333333334</ele><time>2026-04-15T13:16:19.999Z</time></trkpt><trkpt lat="43.38833368081478" lon="10.796531277599808"><ele>100.0</ele><time>2026-04-15T13:16:20.999Z</time></trkpt><trkpt lat="43.388127168742315" lon="10.796335046124865"><ele>100.0</ele><time>2026-04-15T13:16:21.999Z</time></trkpt><trkpt lat="43.387937517865794" lon="10.796144027498045"><ele>100.0</ele><time>2026-04-15T13:16:22.999Z</time></trkpt><trkpt lat="43.38770750643162" lon="10.79582335426683"><ele>100.0</ele><time>2026-04-15T13:16:23.999Z</time></trkpt><trkpt lat="43.38752939617534" lon="10.79555741369717"><ele>100.0</ele><time>2026-04-15T13:16:24.999Z</time></trkpt><trkpt lat="43.38732267950554" lon="10.79534431059519"><ele>97.0</ele><time>2026-04-15T13:16:25.999Z</time></trkpt><trkpt lat="43.38706799208405" lon="10.795132141606611"><ele>94.0</ele><time>2026-04-15T13:16:26.999Z</time></trkpt><trkpt lat="43.38683204293867" lon="10.794932905130969"><ele>94.0</ele><time>2026-04-15T13:16:27.999Z</time></trkpt><trkpt lat="43.386621358689005" lon="10.794774932292029"><ele>94.0</ele><time>2026-04-15T13:16:28.999Z</time></trkpt><trkpt lat="43.38643823271464" lon="10.794681769957242"><ele>94.0</ele><time>2026-04-15T13:16:29.999Z</time></trkpt><trkpt lat="43.386277824133685" lon="10.794630931588243"><ele>93.0</ele><time>2026-04-15T13:16:30.999Z</time></trkpt><trkpt lat="43.38611127630893" lon="10.7946190754791"><ele>92.0</ele><time>2026-04-15T13:16:31.999Z</time></trkpt><trkpt lat="43.38593842452535" lon="10.794688530812115"><ele>91.0</ele><time>2026-04-15T13:16:32.999Z</time></trkpt><trkpt lat="43.38576739561563" lon="10.79481981532934"><ele>91.0</ele><time>2026-04-15T13:16:33.999Z</time></trkpt><trkpt lat="43.38558742991265" lon="10.79500482484004"><ele>91.0</ele><time>2026-04-15T13:16:34.999Z</time></trkpt><trkpt lat="43.3853925065038" lon="10.795231027367526"><ele>88.0</ele><time>2026-04-15T13:16:35.999Z</time></trkpt><trkpt lat="43.3851410040742" lon="10.795506798034502"><ele>85.0</ele><time>2026-04-15T13:16:36.999Z</time></trkpt><trkpt lat="43.384912614684865" lon="10.795742889993464"><ele>85.0</ele><time>2026-04-15T13:16:37.999Z</time></trkpt><trkpt lat="43.38468232271909" lon="10.795983213431889"><ele>85.0</ele><time>2026-04-15T13:16:38.999Z</time></trkpt><trkpt lat="43.384445292166596" lon="10.796247880005616"><ele>83.5</ele><time>2026-04-15T13:16:39.999Z</time></trkpt><trkpt lat="43.3842256297997" lon="10.79646890561174"><ele>82.0</ele><time>2026-04-15T13:16:40.999Z</time></trkpt><trkpt lat="43.38402647996511" lon="10.796683699686152"><ele>81.5</ele><time>2026-04-15T13:16:41.999Z</time></trkpt><trkpt lat="43.383830030119896" lon="10.79689044792431"><ele>81.0</ele><time>2026-04-15T13:16:42.999Z</time></trkpt><trkpt lat="43.38364208021723" lon="10.797093161063042"><ele>81.0</ele><time>2026-04-15T13:16:43.999Z</time></trkpt><trkpt lat="43.383452227496925" lon="10.797297493735336"><ele>81.0</ele><time>2026-04-15T13:16:44.999Z</time></trkpt><trkpt lat="43.38326158959649" lon="10.797500975906583"><ele>81.5</ele><time>2026-04-15T13:16:45.999Z</time></trkpt><trkpt lat="43.38307391248118" lon="10.797714468495975"><ele>82.0</ele><time>2026-04-15T13:16:46.999Z</time></trkpt><trkpt lat="43.382887890203" lon="10.797920453349642"><ele>82.0</ele><time>2026-04-15T13:16:47.999Z</time></trkpt><trkpt lat="43.382697755159114" lon="10.798116251358577"><ele>82.0</ele><time>2026-04-15T13:16:48.999Z</time></trkpt><trkpt lat="43.38251806621129" lon="10.798299499371206"><ele>82.0</ele><time>2026-04-15T13:16:49.999Z</time></trkpt><trkpt lat="43.38235102572278" lon="10.798478207968175"><ele>82.0</ele><time>2026-04-15T13:16:50.999Z</time></trkpt><trkpt lat="43.38219304740071" lon="10.798645155650338"><ele>82.0</ele><time>2026-04-15T13:16:51.999Z</time></trkpt><trkpt lat="43.38202399349314" lon="10.79882925655959"><ele>82.0</ele><time>2026-04-15T13:16:52.999Z</time></trkpt><trkpt lat="43.3818365107653" lon="10.799044521880896"><ele>82.0</ele><time>2026-04-15T13:16:53.999Z</time></trkpt><trkpt lat="43.381630706968735" lon="10.799286992205385"><ele>82.5</ele><time>2026-04-15T13:16:54.999Z</time></trkpt><trkpt lat="43.38139386422265" lon="10.799542550022421"><ele>83.0</ele><time>2026-04-15T13:16:55.999Z</time></trkpt><trkpt lat="43.38113948995027" lon="10.79979426410171"><ele>82.0</ele><time>2026-04-15T13:16:56.999Z</time></trkpt><trkpt lat="43.380884802395286" lon="10.800050776799536"><ele>81.0</ele><time>2026-04-15T13:16:57.999Z</time></trkpt><trkpt lat="43.38065274916381" lon="10.800300018365391"><ele>80.0</ele><time>2026-04-15T13:16:58.999Z</time></trkpt><trkpt lat="43.3804489964365" lon="10.800532629575164"><ele>79.0</ele><time>2026-04-15T13:16:59.999Z</time></trkpt><trkpt lat="43.38026393982659" lon="10.800735511601808"><ele>79.0</ele><time>2026-04-15T13:17:00.999Z</time></trkpt><trkpt lat="43.38008472201343" lon="10.800914258465768"><ele>79.0</ele><time>2026-04-15T13:17:01.999Z</time></trkpt><trkpt lat="43.37990797199632" lon="10.80103706369109"><ele>79.0</ele><time>2026-04-15T13:17:02.999Z</time></trkpt><trkpt lat="43.37971324546908" lon="10.801049370275948"><ele>78.0</ele><time>2026-04-15T13:17:03.999Z</time></trkpt><trkpt lat="43.37949002085293" lon="10.8009921650931"><ele>77.0</ele><time>2026-04-15T13:17:04.999Z</time></trkpt><trkpt lat="43.379256069902695" lon="10.800896548391012"><ele>77.0</ele><time>2026-04-15T13:17:05.999Z</time></trkpt><trkpt lat="43.379001482343064" lon="10.800814064291888"><ele>77.0</ele><time>2026-04-15T13:17:06.999Z</time></trkpt><trkpt lat="43.37873723790312" lon="10.800746925144063"><ele>77.5</ele><time>2026-04-15T13:17:07.999Z</time></trkpt><trkpt lat="43.378476110946984" lon="10.800682557181876"><ele>78.0</ele><time>2026-04-15T13:17:08.999Z</time></trkpt><trkpt lat="43.37822280766861" lon="10.800620688292685"><ele>77.0</ele><time>2026-04-15T13:17:09.999Z</time></trkpt><trkpt lat="43.37798059484185" lon="10.800566084315554"><ele>76.0</ele><time>2026-04-15T13:17:10.999Z</time></trkpt><trkpt lat="43.37775044990071" lon="10.800504768997914"><ele>76.0</ele><time>2026-04-15T13:17:11.999Z</time></trkpt><trkpt lat="43.37752626297571" lon="10.800455180591158"><ele>76.0</ele><time>2026-04-15T13:17:12.999Z</time></trkpt><trkpt lat="43.37730903854682" lon="10.800401332212655"><ele>76.0</ele><time>2026-04-15T13:17:13.999Z</time></trkpt><trkpt lat="43.377094411735456" lon="10.80034519656974"><ele>77.5</ele><time>2026-04-15T13:17:14.999Z</time></trkpt><trkpt lat="43.37687552180993" lon="10.800321653416686"><ele>79.0</ele><time>2026-04-15T13:17:15.999Z</time></trkpt><trkpt lat="43.37663831501891" lon="10.800390687523594"><ele>79.0</ele><time>2026-04-15T13:17:16.999Z</time></trkpt><trkpt lat="43.37639826714652" lon="10.800494633075468"><ele>79.0</ele><time>2026-04-15T13:17:17.999Z</time></trkpt><trkpt lat="43.376152691695935" lon="10.800652948449393"><ele>78.0</ele><time>2026-04-15T13:17:18.999Z</time></trkpt><trkpt lat="43.375904902406816" lon="10.800850803085536"><ele>77.0</ele><time>2026-04-15T13:17:19.999Z</time></trkpt><trkpt lat="43.37565843397222" lon="10.801054249107624"><ele>76.0</ele><time>2026-04-15T13:17:20.999Z</time></trkpt><trkpt lat="43.375414369421264" lon="10.801247191488635"><ele>75.0</ele><time>2026-04-15T13:17:21.999Z</time></trkpt><trkpt lat="43.375175886872505" lon="10.801422877292225"><ele>75.0</ele><time>2026-04-15T13:17:22.999Z</time></trkpt><trkpt lat="43.3749442798092" lon="10.801594333814592"><ele>75.0</ele><time>2026-04-15T13:17:23.999Z</time></trkpt><trkpt lat="43.374721061036176" lon="10.80176083198428"><ele>74.5</ele><time>2026-04-15T13:17:24.999Z</time></trkpt><trkpt lat="43.37450389064314" lon="10.801924585934735"><ele>74.0</ele><time>2026-04-15T13:17:25.999Z</time></trkpt><trkpt lat="43.3742966856775" lon="10.802081000377138"><ele>74.0</ele><time>2026-04-15T13:17:26.999Z</time></trkpt><trkpt lat="43.37409470017794" lon="10.802234363704088"><ele>74.0</ele><time>2026-04-15T13:17:27.999Z</time></trkpt><trkpt lat="43.37390116521734" lon="10.802383738666114"><ele>74.0</ele><time>2026-04-15T13:17:28.999Z</time></trkpt><trkpt lat="43.37371169856131" lon="10.802528898986418"><ele>74.0</ele><time>2026-04-15T13:17:29.999Z</time></trkpt><trkpt lat="43.37352937084733" lon="10.80266847831905"><ele>74.0</ele><time>2026-04-15T13:17:30.999Z</time></trkpt><trkpt lat="43.37334774542563" lon="10.802805294770877"><ele>74.0</ele><time>2026-04-15T13:17:31.999Z</time></trkpt><trkpt lat="43.37316650976594" lon="10.802940705260111"><ele>74.0</ele><time>2026-04-15T13:17:32.999Z</time></trkpt><trkpt lat="43.37298439443338" lon="10.803078777463336"><ele>74.0</ele><time>2026-04-15T13:17:33.999Z</time></trkpt><trkpt lat="43.37280220038469" lon="10.803218653940288"><ele>74.0</ele><time>2026-04-15T13:17:34.999Z</time></trkpt><trkpt lat="43.372620594384024" lon="10.803356280000324"><ele>74.0</ele><time>2026-04-15T13:17:35.999Z</time></trkpt><trkpt lat="43.37243713610359" lon="10.803496294091131"><ele>74.0</ele><time>2026-04-15T13:17:36.999Z</time></trkpt><trkpt lat="43.37225555719857" lon="10.80363755365253"><ele>73.66666666666667</ele><time>2026-04-15T13:17:37.999Z</time></trkpt><trkpt lat="43.37207489511481" lon="10.803778038649652"><ele>73.33333333333333</ele><time>2026-04-15T13:17:38.999Z</time></trkpt><trkpt lat="43.371897995684684" lon="10.803915264060025"><ele>73.0</ele><time>2026-04-15T13:17:39.999Z</time></trkpt><trkpt lat="43.37172197011862" lon="10.804048918657907"><ele>73.0</ele><time>2026-04-15T13:17:40.999Z</time></trkpt><trkpt lat="43.37155623541012" lon="10.804177029676696"><ele>73.0</ele><time>2026-04-15T13:17:41.999Z</time></trkpt><trkpt lat="43.37139900804039" lon="10.80429811095978"><ele>73.0</ele><time>2026-04-15T13:17:42.999Z</time></trkpt><trkpt lat="43.37123979131475" lon="10.80441898308371"><ele>73.33333333333333</ele><time>2026-04-15T13:17:43.999Z</time></trkpt><trkpt lat="43.37108966231461" lon="10.804533549234433"><ele>73.66666666666667</ele><time>2026-04-15T13:17:44.999Z</time></trkpt><trkpt lat="43.370940287841755" lon="10.804647448364982"><ele>74.0</ele><time>2026-04-15T13:17:45.999Z</time></trkpt><trkpt lat="43.37079468228447" lon="10.804759559642719"><ele>74.0</ele><time>2026-04-15T13:17:46.999Z</time></trkpt><trkpt lat="43.37063956710248" lon="10.804876309748185"><ele>74.0</ele><time>2026-04-15T13:17:47.999Z</time></trkpt><trkpt lat="43.37048203702166" lon="10.80499409912133"><ele>74.0</ele><time>2026-04-15T13:17:48.999Z</time></trkpt><trkpt lat="43.3703254336982" lon="10.80511163535158"><ele>73.0</ele><time>2026-04-15T13:17:49.999Z</time></trkpt><trkpt lat="43.37017235197451" lon="10.805231295643914"><ele>72.0</ele><time>2026-04-15T13:17:50.999Z</time></trkpt><trkpt lat="43.370028987492034" lon="10.805363695838668"><ele>71.0</ele><time>2026-04-15T13:17:51.999Z</time></trkpt><trkpt lat="43.36989252498745" lon="10.805514509518952"><ele>71.0</ele><time>2026-04-15T13:17:52.999Z</time></trkpt><trkpt lat="43.36976128878399" lon="10.80568409031354"><ele>71.0</ele><time>2026-04-15T13:17:53.999Z</time></trkpt><trkpt lat="43.36962961173527" lon="10.805866084740156"><ele>71.0</ele><time>2026-04-15T13:17:54.999Z</time></trkpt><trkpt lat="43.36949334864722" lon="10.806051107231667"><ele>71.0</ele><time>2026-04-15T13:17:55.999Z</time></trkpt><trkpt lat="43.369354219248294" lon="10.806236331401408"><ele>71.0</ele><time>2026-04-15T13:17:56.999Z</time></trkpt><trkpt lat="43.369208996260674" lon="10.806421651339804"><ele>71.0</ele><time>2026-04-15T13:17:57.999Z</time></trkpt><trkpt lat="43.36906087221975" lon="10.806609343384824"><ele>71.0</ele><time>2026-04-15T13:17:58.999Z</time></trkpt><trkpt lat="43.36890878180497" lon="10.806805452157217"><ele>71.0</ele><time>2026-04-15T13:17:59.999Z</time></trkpt><trkpt lat="43.36876224978861" lon="10.806996368187434"><ele>71.0</ele><time>2026-04-15T13:18:01Z</time></trkpt><trkpt lat="43.3686069722568" lon="10.807195727704642"><ele>71.66666666666667</ele><time>2026-04-15T13:18:02Z</time></trkpt><trkpt lat="43.368454941719634" lon="10.807392346583736"><ele>72.33333333333333</ele><time>2026-04-15T13:18:03Z</time></trkpt><trkpt lat="43.36829682901332" lon="10.80759765038378"><ele>73.0</ele><time>2026-04-15T13:18:04Z</time></trkpt><trkpt lat="43.36813532110662" lon="10.8078111691167"><ele>73.5</ele><time>2026-04-15T13:18:05Z</time></trkpt><trkpt lat="43.36797093009336" lon="10.808019058463785"><ele>74.0</ele><time>2026-04-15T13:18:06Z</time></trkpt><trkpt lat="43.36779230057052" lon="10.808211120841845"><ele>74.0</ele><time>2026-04-15T13:18:07Z</time></trkpt><trkpt lat="43.367586129662214" lon="10.808360372241765"><ele>74.0</ele><time>2026-04-15T13:18:08Z</time></trkpt><trkpt lat="43.36738483041349" lon="10.808531831488109"><ele>75.33333333333334</ele><time>2026-04-15T13:18:09Z</time></trkpt><trkpt lat="43.367182185465545" lon="10.808668268568482"><ele>76.66666666666667</ele><time>2026-04-15T13:18:10Z</time></trkpt><trkpt lat="43.36699795147045" lon="10.808799188500169"><ele>78.0</ele><time>2026-04-15T13:18:11Z</time></trkpt><trkpt lat="43.36683579419869" lon="10.808932792517469"><ele>78.0</ele><time>2026-04-15T13:18:12Z</time></trkpt><trkpt lat="43.366700370365706" lon="10.809086100227919"><ele>78.0</ele><time>2026-04-15T13:18:13Z</time></trkpt><trkpt lat="43.36659231288988" lon="10.80926928869563"><ele>78.0</ele><time>2026-04-15T13:18:14Z</time></trkpt><trkpt lat="43.36650319498639" lon="10.80947399871791"><ele>80.33333333333333</ele><time>2026-04-15T13:18:15Z</time></trkpt><trkpt lat="43.36642098182254" lon="10.809678381982748"><ele>82.66666666666666</ele><time>2026-04-15T13:18:16Z</time></trkpt><trkpt lat="43.36633506378278" lon="10.809881218331476"><ele>85.0</ele><time>2026-04-15T13:18:17Z</time></trkpt><trkpt lat="43.36624680617207" lon="10.810080194548226"><ele>85.33333333333333</ele><time>2026-04-15T13:18:18Z</time></trkpt><trkpt lat="43.36615552761019" lon="10.810280848223732"><ele>85.66666666666667</ele><time>2026-04-15T13:18:19Z</time></trkpt><trkpt lat="43.3660662731017" lon="10.810472568626482"><ele>86.0</ele><time>2026-04-15T13:18:20Z</time></trkpt><trkpt lat="43.36597648286667" lon="10.810658274705137"><ele>86.0</ele><time>2026-04-15T13:18:21Z</time></trkpt><trkpt lat="43.36588566940915" lon="10.810824025941647"><ele>86.0</ele><time>2026-04-15T13:18:22Z</time></trkpt><trkpt lat="43.36578722763815" lon="10.810968647487774"><ele>86.0</ele><time>2026-04-15T13:18:23Z</time></trkpt><trkpt lat="43.365677535122934" lon="10.81109620438364"><ele>86.0</ele><time>2026-04-15T13:18:24Z</time></trkpt><trkpt lat="43.36556180546458" lon="10.811214147075212"><ele>84.66666666666667</ele><time>2026-04-15T13:18:25Z</time></trkpt><trkpt lat="43.36544213246148" lon="10.811340093791905"><ele>83.33333333333333</ele><time>2026-04-15T13:18:26Z</time></trkpt><trkpt lat="43.365321911312726" lon="10.811475183242193"><ele>82.0</ele><time>2026-04-15T13:18:27Z</time></trkpt><trkpt lat="43.36520421682171" lon="10.811611547623237"><ele>82.0</ele><time>2026-04-15T13:18:28Z</time></trkpt><trkpt lat="43.36508451443905" lon="10.811751208134853"><ele>82.0</ele><time>2026-04-15T13:18:29Z</time></trkpt><trkpt lat="43.36497485804578" lon="10.81188066125782"><ele>82.0</ele><time>2026-04-15T13:18:30Z</time></trkpt><trkpt lat="43.36487167842626" lon="10.811999754797572"><ele>82.0</ele><time>2026-04-15T13:18:31Z</time></trkpt><trkpt lat="43.364770973546754" lon="10.81211441882382"><ele>81.25</ele><time>2026-04-15T13:18:32Z</time></trkpt><trkpt lat="43.36467273883682" lon="10.812222005131837"><ele>80.5</ele><time>2026-04-15T13:18:33Z</time></trkpt><trkpt lat="43.36458099306046" lon="10.81232549394243"><ele>79.75</ele><time>2026-04-15T13:18:34Z</time></trkpt><trkpt lat="43.36449121936312" lon="10.812423727077467"><ele>79.0</ele><time>2026-04-15T13:18:35Z</time></trkpt><trkpt lat="43.36439840985518" lon="10.812507612377217"><ele>79.0</ele><time>2026-04-15T13:18:36Z</time></trkpt><trkpt lat="43.364303023096234" lon="10.812566062783775"><ele>79.0</ele><time>2026-04-15T13:18:37Z</time></trkpt><trkpt lat="43.364197732164996" lon="10.812603089311718"><ele>79.0</ele><time>2026-04-15T13:18:38Z</time></trkpt><trkpt lat="43.36409001411282" lon="10.812619691694783"><ele>79.0</ele><time>2026-04-15T13:18:39Z</time></trkpt><trkpt lat="43.36398662554396" lon="10.812624370364203"><ele>79.0</ele><time>2026-04-15T13:18:40Z</time></trkpt><trkpt lat="43.363895509992815" lon="10.812621490495355"><ele>79.0</ele><time>2026-04-15T13:18:41Z</time></trkpt><trkpt lat="43.36381453583117" lon="10.81262234806449"><ele>79.0</ele><time>2026-04-15T13:18:42Z</time></trkpt><trkpt lat="43.363720492971424" lon="10.8126240576472"><ele>79.0</ele><time>2026-04-15T13:18:43Z</time></trkpt><trkpt lat="43.36361783967339" lon="10.812630167382334"><ele>79.0</ele><time>2026-04-15T13:18:44Z</time></trkpt><trkpt lat="43.36351070835077" lon="10.812635185620461"><ele>79.0</ele><time>2026-04-15T13:18:45Z</time></trkpt><trkpt lat="43.36339843548436" lon="10.812636134819163"><ele>79.0</ele><time>2026-04-15T13:18:46Z</time></trkpt><trkpt lat="43.36328239942085" lon="10.812631164486467"><ele>79.0</ele><time>2026-04-15T13:18:47Z</time></trkpt><trkpt lat="43.3631633633456" lon="10.812629119882875"><ele>79.0</ele><time>2026-04-15T13:18:48Z</time></trkpt><trkpt lat="43.36304627967678" lon="10.812624441032327"><ele>79.0</ele><time>2026-04-15T13:18:49Z</time></trkpt><trkpt lat="43.36293635980962" lon="10.812622128057242"><ele>79.0</ele><time>2026-04-15T13:18:50Z</time></trkpt><trkpt lat="43.362829109961055" lon="10.812619466827643"><ele>79.0</ele><time>2026-04-15T13:18:51Z</time></trkpt><trkpt lat="43.362738004110916" lon="10.812618546872116"><ele>79.0</ele><time>2026-04-15T13:18:52Z</time></trkpt><trkpt lat="43.36263348923802" lon="10.81262482991159"><ele>79.0</ele><time>2026-04-15T13:18:54Z</time></trkpt><trkpt lat="43.36256637330368" lon="10.812649354698152"><ele>79.0</ele><time>2026-04-15T13:18:57Z</time></trkpt><trkpt lat="43.36249519325939" lon="10.812632477137855"><ele>79.0</ele><time>2026-04-15T13:18:59Z</time></trkpt><trkpt lat="43.36246880722146" lon="10.812741322355487"><ele>77.5</ele><time>2026-04-15T13:19:00Z</time></trkpt><trkpt lat="43.362401216068584" lon="10.812735334182213"><ele>76.0</ele><time>2026-04-15T13:19:03Z</time></trkpt><trkpt lat="43.36238705011949" lon="10.812834319406152"><ele>74.5</ele><time>2026-04-15T13:19:05Z</time></trkpt><trkpt lat="43.362131180488326" lon="10.81276071962589"><ele>73.0</ele><time>2026-04-15T13:19:06Z</time></trkpt><trkpt lat="43.36244933414148" lon="10.812975941377246"><ele>73.0</ele><time>2026-04-15T13:19:08Z</time></trkpt><trkpt lat="43.36251041027807" lon="10.812869812422154"><ele>73.0</ele><time>2026-04-15T13:24:34.001Z</time></trkpt><trkpt lat="43.36254236550768" lon="10.812756442561978"><ele>73.0</ele><time>2026-04-15T13:24:36.001Z</time></trkpt><trkpt lat="43.36251640415657" lon="10.812661818592968"><ele>73.0</ele><time>2026-04-15T13:25:07.001Z</time></trkpt><trkpt lat="43.36246032611633" lon="10.812614436904166"><ele>73.0</ele><time>2026-04-15T13:25:08.001Z</time></trkpt><trkpt lat="43.36237732146233" lon="10.812579550827873"><ele>73.0</ele><time>2026-04-15T13:25:09.001Z</time></trkpt><trkpt lat="43.362221608691854" lon="10.812627929208528"><ele>73.75</ele><time>2026-04-15T13:25:11.001Z</time></trkpt><trkpt lat="43.362106584348005" lon="10.812617462843464"><ele>74.5</ele><time>2026-04-15T13:25:12.001Z</time></trkpt><trkpt lat="43.36199460356631" lon="10.81258562840679"><ele>75.25</ele><time>2026-04-15T13:25:13.001Z</time></trkpt><trkpt lat="43.36188290507966" lon="10.812548559013024"><ele>76.0</ele><time>2026-04-15T13:25:14Z</time></trkpt><trkpt lat="43.361767602805116" lon="10.812512174094078"><ele>76.0</ele><time>2026-04-15T13:25:15Z</time></trkpt><trkpt lat="43.3616551970078" lon="10.812461234982191"><ele>76.0</ele><time>2026-04-15T13:25:16Z</time></trkpt><trkpt lat="43.36153730553654" lon="10.812389609756563"><ele>76.0</ele><time>2026-04-15T13:25:17Z</time></trkpt><trkpt lat="43.3614462967214" lon="10.812301855287803"><ele>76.0</ele><time>2026-04-15T13:25:18Z</time></trkpt><trkpt lat="43.361367634693195" lon="10.812227776053266"><ele>75.8</ele><time>2026-04-15T13:25:19Z</time></trkpt><trkpt lat="43.3612904979304" lon="10.812148013275047"><ele>75.6</ele><time>2026-04-15T13:25:20Z</time></trkpt><trkpt lat="43.361216278430035" lon="10.812053085622102"><ele>75.4</ele><time>2026-04-15T13:25:21Z</time></trkpt><trkpt lat="43.3611391372536" lon="10.811954559873714"><ele>75.2</ele><time>2026-04-15T13:25:22Z</time></trkpt><trkpt lat="43.3610646097916" lon="10.811840999118145"><ele>75.0</ele><time>2026-04-15T13:25:23Z</time></trkpt><trkpt lat="43.360994034405" lon="10.811710790154372"><ele>75.0</ele><time>2026-04-15T13:25:24Z</time></trkpt><trkpt lat="43.360933518640465" lon="10.811571878734421"><ele>75.0</ele><time>2026-04-15T13:25:25Z</time></trkpt><trkpt lat="43.36085543764479" lon="10.811446576575781"><ele>75.0</ele><time>2026-04-15T13:25:26Z</time></trkpt><trkpt lat="43.36078014054548" lon="10.811308454305122"><ele>75.0</ele><time>2026-04-15T13:25:27Z</time></trkpt><trkpt lat="43.360699365950055" lon="10.811147477090437"><ele>73.66666666666667</ele><time>2026-04-15T13:25:28Z</time></trkpt><trkpt lat="43.36062365249526" lon="10.810965985599871"><ele>72.33333333333334</ele><time>2026-04-15T13:25:29Z</time></trkpt><trkpt lat="43.360554685888275" lon="10.810766030488177"><ele>71.0</ele><time>2026-04-15T13:25:30Z</time></trkpt><trkpt lat="43.36049039562575" lon="10.810553776318454"><ele>71.0</ele><time>2026-04-15T13:25:31Z</time></trkpt><trkpt lat="43.360431162775164" lon="10.810359894186199"><ele>71.0</ele><time>2026-04-15T13:25:32Z</time></trkpt><trkpt lat="43.36037768387099" lon="10.810189319794771"><ele>71.0</ele><time>2026-04-15T13:25:33Z</time></trkpt><trkpt lat="43.36032638738763" lon="10.81002564149815"><ele>71.0</ele><time>2026-04-15T13:25:34Z</time></trkpt><trkpt lat="43.360276019760285" lon="10.809863697916064"><ele>71.25</ele><time>2026-04-15T13:25:35Z</time></trkpt><trkpt lat="43.360220935843415" lon="10.80968487055419"><ele>71.5</ele><time>2026-04-15T13:25:36Z</time></trkpt><trkpt lat="43.36016197032241" lon="10.809508640778898"><ele>71.75</ele><time>2026-04-15T13:25:37Z</time></trkpt><trkpt lat="43.36010330661131" lon="10.809330313918563"><ele>72.0</ele><time>2026-04-15T13:25:38Z</time></trkpt><trkpt lat="43.36004712364621" lon="10.809156833441294"><ele>72.5</ele><time>2026-04-15T13:25:39Z</time></trkpt><trkpt lat="43.35999230752584" lon="10.808980067500595"><ele>73.0</ele><time>2026-04-15T13:25:40Z</time></trkpt><trkpt lat="43.359937238514945" lon="10.808805044612791"><ele>73.5</ele><time>2026-04-15T13:25:41Z</time></trkpt><trkpt lat="43.35988299043457" lon="10.808627849749936"><ele>74.0</ele><time>2026-04-15T13:25:42Z</time></trkpt><trkpt lat="43.35982643471475" lon="10.808452908241623"><ele>75.0</ele><time>2026-04-15T13:25:43Z</time></trkpt><trkpt lat="43.359769979960184" lon="10.808274459590384"><ele>76.0</ele><time>2026-04-15T13:25:44Z</time></trkpt><trkpt lat="43.35971559244137" lon="10.808093309101444"><ele>77.0</ele><time>2026-04-15T13:25:45Z</time></trkpt><trkpt lat="43.35966343969101" lon="10.80791233322863"><ele>78.0</ele><time>2026-04-15T13:25:46Z</time></trkpt><trkpt lat="43.35960757943904" lon="10.8077295699098"><ele>75.33333333333333</ele><time>2026-04-15T13:25:47Z</time></trkpt><trkpt lat="43.35954942780785" lon="10.807541214237968"><ele>72.66666666666666</ele><time>2026-04-15T13:25:48Z</time></trkpt><trkpt lat="43.35949118624441" lon="10.807351789993023"><ele>70.0</ele><time>2026-04-15T13:25:49Z</time></trkpt><trkpt lat="43.3594300001656" lon="10.807153178654929"><ele>70.0</ele><time>2026-04-15T13:25:50Z</time></trkpt><trkpt lat="43.35937022202614" lon="10.806963013869133"><ele>70.0</ele><time>2026-04-15T13:25:51Z</time></trkpt><trkpt lat="43.35931526809418" lon="10.806782009021035"><ele>70.0</ele><time>2026-04-15T13:25:52Z</time></trkpt><trkpt lat="43.35926258533014" lon="10.806609118001639"><ele>70.0</ele><time>2026-04-15T13:25:53Z</time></trkpt><trkpt lat="43.35922086316218" lon="10.806447651473135"><ele>69.75</ele><time>2026-04-15T13:25:54Z</time></trkpt><trkpt lat="43.35920334123949" lon="10.806290112692464"><ele>69.5</ele><time>2026-04-15T13:25:55Z</time></trkpt><trkpt lat="43.35921358362465" lon="10.80612248038139"><ele>69.25</ele><time>2026-04-15T13:25:56Z</time></trkpt><trkpt lat="43.359240604796" lon="10.805954632721953"><ele>69.0</ele><time>2026-04-15T13:25:57Z</time></trkpt><trkpt lat="43.35927025870186" lon="10.80578609840499"><ele>69.0</ele><time>2026-04-15T13:25:58Z</time></trkpt><trkpt lat="43.35929159102947" lon="10.805618328977197"><ele>69.0</ele><time>2026-04-15T13:25:59Z</time></trkpt><trkpt lat="43.35931061943484" lon="10.805444710354408"><ele>69.0</ele><time>2026-04-15T13:26:00Z</time></trkpt><trkpt lat="43.35932843812893" lon="10.805271310599839"><ele>69.0</ele><time>2026-04-15T13:26:01Z</time></trkpt><trkpt lat="43.35934605997782" lon="10.805092484372572"><ele>68.5</ele><time>2026-04-15T13:26:02Z</time></trkpt><trkpt lat="43.35936704268132" lon="10.804911080706285"><ele>68.0</ele><time>2026-04-15T13:26:03Z</time></trkpt><trkpt lat="43.3593886387699" lon="10.804723664895329"><ele>67.5</ele><time>2026-04-15T13:26:04Z</time></trkpt><trkpt lat="43.35940977843107" lon="10.80453589391623"><ele>67.0</ele><time>2026-04-15T13:26:05Z</time></trkpt><trkpt lat="43.35942994155433" lon="10.804358732323758"><ele>66.5</ele><time>2026-04-15T13:26:06Z</time></trkpt><trkpt lat="43.35944852126305" lon="10.80417926445462"><ele>66.0</ele><time>2026-04-15T13:26:07Z</time></trkpt><trkpt lat="43.35946332780054" lon="10.803999484407571"><ele>65.5</ele><time>2026-04-15T13:26:08Z</time></trkpt><trkpt lat="43.359464604890405" lon="10.80382006939993"><ele>65.0</ele><time>2026-04-15T13:26:09Z</time></trkpt><trkpt lat="43.3594550102015" lon="10.803644288836981"><ele>65.25</ele><time>2026-04-15T13:26:10Z</time></trkpt><trkpt lat="43.359429043695414" lon="10.803484492187447"><ele>65.5</ele><time>2026-04-15T13:26:11Z</time></trkpt><trkpt lat="43.35940418240934" lon="10.80332703625232"><ele>65.75</ele><time>2026-04-15T13:26:12Z</time></trkpt><trkpt lat="43.359372002454904" lon="10.803166140447368"><ele>66.0</ele><time>2026-04-15T13:26:13Z</time></trkpt><trkpt lat="43.35933383883974" lon="10.803005545421767"><ele>66.0</ele><time>2026-04-15T13:26:14Z</time></trkpt><trkpt lat="43.35928532053545" lon="10.802842154421688"><ele>66.0</ele><time>2026-04-15T13:26:15Z</time></trkpt><trkpt lat="43.35922380065822" lon="10.802684948455099"><ele>66.0</ele><time>2026-04-15T13:26:16Z</time></trkpt><trkpt lat="43.35915011911006" lon="10.80253477207467"><ele>66.0</ele><time>2026-04-15T13:26:17Z</time></trkpt><trkpt lat="43.3590653794179" lon="10.802388766538375"><ele>65.75</ele><time>2026-04-15T13:26:18Z</time></trkpt><trkpt lat="43.35897364359735" lon="10.802250299445314"><ele>65.5</ele><time>2026-04-15T13:26:19Z</time></trkpt><trkpt lat="43.35888223917638" lon="10.802118394120821"><ele>65.25</ele><time>2026-04-15T13:26:20Z</time></trkpt><trkpt lat="43.358789582212864" lon="10.801987782914564"><ele>65.0</ele><time>2026-04-15T13:26:21Z</time></trkpt><trkpt lat="43.358699256782806" lon="10.801847063456881"><ele>65.5</ele><time>2026-04-15T13:26:22Z</time></trkpt><trkpt lat="43.358609996417506" lon="10.801700388045724"><ele>66.0</ele><time>2026-04-15T13:26:23Z</time></trkpt><trkpt lat="43.35852196695435" lon="10.801553780101491"><ele>66.5</ele><time>2026-04-15T13:26:24Z</time></trkpt><trkpt lat="43.35843165345098" lon="10.80139991729324"><ele>67.0</ele><time>2026-04-15T13:26:25Z</time></trkpt><trkpt lat="43.35834384270284" lon="10.801242955333677"><ele>67.0</ele><time>2026-04-15T13:26:26Z</time></trkpt><trkpt lat="43.35826611643807" lon="10.801080202169183"><ele>67.0</ele><time>2026-04-15T13:26:27Z</time></trkpt><trkpt lat="43.35819929688992" lon="10.800907101388736"><ele>67.0</ele><time>2026-04-15T13:26:28Z</time></trkpt><trkpt lat="43.3581395269693" lon="10.800723796032209"><ele>67.0</ele><time>2026-04-15T13:26:29Z</time></trkpt><trkpt lat="43.35808188734512" lon="10.800538735629404"><ele>66.5</ele><time>2026-04-15T13:26:30Z</time></trkpt><trkpt lat="43.35802516436502" lon="10.800354490432275"><ele>66.0</ele><time>2026-04-15T13:26:31Z</time></trkpt><trkpt lat="43.35796707633419" lon="10.800171469207049"><ele>65.5</ele><time>2026-04-15T13:26:32Z</time></trkpt><trkpt lat="43.35790701764161" lon="10.79998630394736"><ele>65.0</ele><time>2026-04-15T13:26:33Z</time></trkpt><trkpt lat="43.35784532387814" lon="10.799800137120622"><ele>65.0</ele><time>2026-04-15T13:26:34Z</time></trkpt><trkpt lat="43.35778216412864" lon="10.799612578923432"><ele>65.0</ele><time>2026-04-15T13:26:35Z</time></trkpt><trkpt lat="43.35770819797908" lon="10.799416686129199"><ele>65.0</ele><time>2026-04-15T13:26:36Z</time></trkpt><trkpt lat="43.35762106305352" lon="10.799226816620642"><ele>65.66666666666667</ele><time>2026-04-15T13:26:37Z</time></trkpt><trkpt lat="43.35751814464141" lon="10.799047882119442"><ele>66.33333333333333</ele><time>2026-04-15T13:26:38Z</time></trkpt><trkpt lat="43.357398902856346" lon="10.798864478815531"><ele>67.0</ele><time>2026-04-15T13:26:39Z</time></trkpt><trkpt lat="43.35727341231382" lon="10.798678967106094"><ele>66.33333333333333</ele><time>2026-04-15T13:26:40Z</time></trkpt><trkpt lat="43.357151731242766" lon="10.798491322373327"><ele>65.66666666666667</ele><time>2026-04-15T13:26:41Z</time></trkpt><trkpt lat="43.35703983356357" lon="10.798308979785759"><ele>65.0</ele><time>2026-04-15T13:26:42Z</time></trkpt><trkpt lat="43.356936889342535" lon="10.798127291755554"><ele>65.0</ele><time>2026-04-15T13:26:43Z</time></trkpt><trkpt lat="43.356839212686964" lon="10.797937237663849"><ele>65.0</ele><time>2026-04-15T13:26:44Z</time></trkpt><trkpt lat="43.356753407523954" lon="10.797743667950474"><ele>65.0</ele><time>2026-04-15T13:26:45Z</time></trkpt><trkpt lat="43.3566721627796" lon="10.797542562528191"><ele>66.66666666666667</ele><time>2026-04-15T13:26:46Z</time></trkpt><trkpt lat="43.3566057664728" lon="10.797349972568894"><ele>68.33333333333333</ele><time>2026-04-15T13:26:47Z</time></trkpt><trkpt lat="43.35654716916703" lon="10.797154278882022"><ele>70.0</ele><time>2026-04-15T13:26:48Z</time></trkpt><trkpt lat="43.35649744365908" lon="10.796961328928747"><ele>71.33333333333333</ele><time>2026-04-15T13:26:49Z</time></trkpt><trkpt lat="43.356453405456364" lon="10.79675318815577"><ele>72.66666666666667</ele><time>2026-04-15T13:26:50Z</time></trkpt><trkpt lat="43.35641410442015" lon="10.796544687421518"><ele>74.0</ele><time>2026-04-15T13:26:51Z</time></trkpt><trkpt lat="43.356382035318774" lon="10.79632886345567"><ele>70.0</ele><time>2026-04-15T13:26:52Z</time></trkpt><trkpt lat="43.35635681269099" lon="10.796105180428219"><ele>66.0</ele><time>2026-04-15T13:26:53Z</time></trkpt><trkpt lat="43.35634338245739" lon="10.795880882107934"><ele>62.0</ele><time>2026-04-15T13:26:54Z</time></trkpt><trkpt lat="43.356339866848664" lon="10.795648912328447"><ele>62.0</ele><time>2026-04-15T13:26:55Z</time></trkpt><trkpt lat="43.3563422468966" lon="10.795428203910935"><ele>62.0</ele><time>2026-04-15T13:26:56Z</time></trkpt><trkpt lat="43.35635027981993" lon="10.795206500483427"><ele>62.0</ele><time>2026-04-15T13:26:57Z</time></trkpt><trkpt lat="43.35636490853238" lon="10.79499101361633"><ele>62.333333333333336</ele><time>2026-04-15T13:26:58Z</time></trkpt><trkpt lat="43.35638732392532" lon="10.794767699570649"><ele>62.66666666666667</ele><time>2026-04-15T13:26:59Z</time></trkpt><trkpt lat="43.35641900271854" lon="10.794538446815466"><ele>63.0</ele><time>2026-04-15T13:27:00Z</time></trkpt><trkpt lat="43.356460700224474" lon="10.794281822763901"><ele>62.0</ele><time>2026-04-15T13:27:01Z</time></trkpt><trkpt lat="43.356508423819164" lon="10.793982900869972"><ele>61.0</ele><time>2026-04-15T13:27:02Z</time></trkpt><trkpt lat="43.35659725582386" lon="10.793646516559116"><ele>60.5</ele><time>2026-04-15T13:27:03Z</time></trkpt><trkpt lat="43.356663567414074" lon="10.793272367628061"><ele>60.0</ele><time>2026-04-15T13:27:04Z</time></trkpt><trkpt lat="43.35676230303665" lon="10.792906457947971"><ele>59.0</ele><time>2026-04-15T13:27:05Z</time></trkpt><trkpt lat="43.356859669775865" lon="10.792514803904268"><ele>58.0</ele><time>2026-04-15T13:27:06Z</time></trkpt><trkpt lat="43.35694485063361" lon="10.792129514346078"><ele>59.0</ele><time>2026-04-15T13:27:07Z</time></trkpt><trkpt lat="43.35702506871669" lon="10.791726902722884"><ele>60.0</ele><time>2026-04-15T13:27:08Z</time></trkpt><trkpt lat="43.3571013602298" lon="10.79130758768322"><ele>59.5</ele><time>2026-04-15T13:27:09Z</time></trkpt><trkpt lat="43.3571628242458" lon="10.790893410273176"><ele>59.0</ele><time>2026-04-15T13:27:10Z</time></trkpt><trkpt lat="43.35721544248626" lon="10.790480391435986"><ele>61.0</ele><time>2026-04-15T13:27:11Z</time></trkpt><trkpt lat="43.357253483405756" lon="10.790077117773128"><ele>63.0</ele><time>2026-04-15T13:27:12Z</time></trkpt><trkpt lat="43.357279072558796" lon="10.789672202425916"><ele>66.0</ele><time>2026-04-15T13:27:13Z</time></trkpt><trkpt lat="43.35729525780483" lon="10.789266636072657"><ele>69.0</ele><time>2026-04-15T13:27:14Z</time></trkpt><trkpt lat="43.357299580567705" lon="10.788859091121969"><ele>67.5</ele><time>2026-04-15T13:27:15Z</time></trkpt><trkpt lat="43.35729477099165" lon="10.788446887719354"><ele>66.0</ele><time>2026-04-15T13:27:16Z</time></trkpt><trkpt lat="43.35727383896366" lon="10.788034699708344"><ele>64.5</ele><time>2026-04-15T13:27:17Z</time></trkpt><trkpt lat="43.357244241385395" lon="10.787629613731854"><ele>63.0</ele><time>2026-04-15T13:27:18Z</time></trkpt><trkpt lat="43.35720387951973" lon="10.78724871308435"><ele>61.5</ele><time>2026-04-15T13:27:19Z</time></trkpt><trkpt lat="43.35715842079254" lon="10.786882932298514"><ele>60.0</ele><time>2026-04-15T13:27:20Z</time></trkpt><trkpt lat="43.35710901527272" lon="10.786511598246873"><ele>60.0</ele><time>2026-04-15T13:27:21Z</time></trkpt><trkpt lat="43.35705911529839" lon="10.786139986084835"><ele>60.0</ele><time>2026-04-15T13:27:22Z</time></trkpt><trkpt lat="43.357007343231125" lon="10.785772267442375"><ele>60.0</ele><time>2026-04-15T13:27:23Z</time></trkpt><trkpt lat="43.35695255466657" lon="10.785403138003922"><ele>60.0</ele><time>2026-04-15T13:27:24Z</time></trkpt><trkpt lat="43.356897281709685" lon="10.785043841144029"><ele>60.0</ele><time>2026-04-15T13:27:25Z</time></trkpt><trkpt lat="43.35684174350974" lon="10.784702329707141"><ele>60.0</ele><time>2026-04-15T13:27:26Z</time></trkpt><trkpt lat="43.35678845049302" lon="10.784371516882388"><ele>60.0</ele><time>2026-04-15T13:27:27Z</time></trkpt><trkpt lat="43.356736976464084" lon="10.78404127389762"><ele>60.0</ele><time>2026-04-15T13:27:28Z</time></trkpt><trkpt lat="43.35668588520485" lon="10.783714179443018"><ele>59.5</ele><time>2026-04-15T13:27:29Z</time></trkpt><trkpt lat="43.356635231224516" lon="10.783386540427609"><ele>59.0</ele><time>2026-04-15T13:27:30Z</time></trkpt><trkpt lat="43.356586472569674" lon="10.783065883979992"><ele>59.0</ele><time>2026-04-15T13:27:31Z</time></trkpt><trkpt lat="43.3565415252642" lon="10.782742006529983"><ele>59.0</ele><time>2026-04-15T13:27:32Z</time></trkpt><trkpt lat="43.356507041766875" lon="10.782418417771455"><ele>59.0</ele><time>2026-04-15T13:27:33Z</time></trkpt><trkpt lat="43.35648520048037" lon="10.78209140342114"><ele>59.0</ele><time>2026-04-15T13:27:34Z</time></trkpt><trkpt lat="43.35647585917996" lon="10.781768347728578"><ele>59.0</ele><time>2026-04-15T13:27:35Z</time></trkpt><trkpt lat="43.35646814658236" lon="10.781441611602629"><ele>59.0</ele><time>2026-04-15T13:27:36Z</time></trkpt><trkpt lat="43.35646033253102" lon="10.781112531248242"><ele>59.5</ele><time>2026-04-15T13:27:37Z</time></trkpt><trkpt lat="43.35645362091829" lon="10.780784201571025"><ele>60.0</ele><time>2026-04-15T13:27:38Z</time></trkpt><trkpt lat="43.35644801331421" lon="10.780453191733253"><ele>60.0</ele><time>2026-04-15T13:27:39Z</time></trkpt><trkpt lat="43.356441898987825" lon="10.780117197846188"><ele>60.0</ele><time>2026-04-15T13:27:40Z</time></trkpt><trkpt lat="43.356432813220685" lon="10.779790180547097"><ele>60.0</ele><time>2026-04-15T13:27:41Z</time></trkpt><trkpt lat="43.35641989775032" lon="10.77946337122793"><ele>60.0</ele><time>2026-04-15T13:27:42Z</time></trkpt><trkpt lat="43.356402742599265" lon="10.779141803570301"><ele>59.33333333333333</ele><time>2026-04-15T13:27:43Z</time></trkpt><trkpt lat="43.35637612901141" lon="10.778833882137604"><ele>58.666666666666664</ele><time>2026-04-15T13:27:44Z</time></trkpt><trkpt lat="43.35633114238354" lon="10.778546961291202"><ele>58.0</ele><time>2026-04-15T13:27:45Z</time></trkpt><trkpt lat="43.356265555157165" lon="10.778260310894197"><ele>58.0</ele><time>2026-04-15T13:27:46Z</time></trkpt><trkpt lat="43.356176608377545" lon="10.777981526013058"><ele>58.0</ele><time>2026-04-15T13:27:47Z</time></trkpt><trkpt lat="43.35607521413782" lon="10.777716484663799"><ele>58.0</ele><time>2026-04-15T13:27:48Z</time></trkpt><trkpt lat="43.35595495473221" lon="10.777476170699853"><ele>57.666666666666664</ele><time>2026-04-15T13:27:49Z</time></trkpt><trkpt lat="43.35582117837027" lon="10.777243049410144"><ele>57.33333333333333</ele><time>2026-04-15T13:27:50Z</time></trkpt><trkpt lat="43.35570823474372" lon="10.777009867284058"><ele>57.0</ele><time>2026-04-15T13:27:51Z</time></trkpt><trkpt lat="43.355506743147174" lon="10.77685794456029"><ele>57.66666666666667</ele><time>2026-04-15T13:27:52Z</time></trkpt><trkpt lat="43.35533761849717" lon="10.776703975042823"><ele>58.333333333333336</ele><time>2026-04-15T13:27:53Z</time></trkpt><trkpt lat="43.35516550635791" lon="10.776582764293854"><ele>59.0</ele><time>2026-04-15T13:27:54Z</time></trkpt><trkpt lat="43.35498816305262" lon="10.77647771707027"><ele>59.0</ele><time>2026-04-15T13:27:55Z</time></trkpt><trkpt lat="43.354822828673555" lon="10.776388762155223"><ele>59.0</ele><time>2026-04-15T13:27:56Z</time></trkpt><trkpt lat="43.354670148913804" lon="10.776298820408613"><ele>59.0</ele><time>2026-04-15T13:27:57Z</time></trkpt><trkpt lat="43.35454802663324" lon="10.77622143527841"><ele>59.2</ele><time>2026-04-15T13:27:58Z</time></trkpt><trkpt lat="43.35445590413759" lon="10.776161835059446"><ele>59.400000000000006</ele><time>2026-04-15T13:27:59Z</time></trkpt><trkpt lat="43.35436598297836" lon="10.776108027026146"><ele>59.6</ele><time>2026-04-15T13:28:00Z</time></trkpt><trkpt lat="43.354267718611695" lon="10.776047163952835"><ele>59.8</ele><time>2026-04-15T13:28:01Z</time></trkpt><trkpt lat="43.354157445486614" lon="10.775977882068403"><ele>60.0</ele><time>2026-04-15T13:28:02Z</time></trkpt><trkpt lat="43.35403767672657" lon="10.77589668995563"><ele>60.0</ele><time>2026-04-15T13:28:03Z</time></trkpt><trkpt lat="43.35391224701917" lon="10.775804519182175"><ele>60.0</ele><time>2026-04-15T13:28:04Z</time></trkpt><trkpt lat="43.353791664697845" lon="10.775696863015277"><ele>60.0</ele><time>2026-04-15T13:28:05Z</time></trkpt><trkpt lat="43.353672067423396" lon="10.775566605104487"><ele>60.0</ele><time>2026-04-15T13:28:06Z</time></trkpt><trkpt lat="43.353562103874125" lon="10.77541432215674"><ele>59.0</ele><time>2026-04-15T13:28:07Z</time></trkpt><trkpt lat="43.35346209780348" lon="10.775248075422528"><ele>58.0</ele><time>2026-04-15T13:28:08Z</time></trkpt><trkpt lat="43.353367452112984" lon="10.775073272350271"><ele>57.0</ele><time>2026-04-15T13:28:09Z</time></trkpt><trkpt lat="43.35326492417771" lon="10.774894477028097"><ele>57.0</ele><time>2026-04-15T13:28:10Z</time></trkpt><trkpt lat="43.35316194645094" lon="10.774722034057937"><ele>57.0</ele><time>2026-04-15T13:28:11Z</time></trkpt><trkpt lat="43.35305769733466" lon="10.77455101926435"><ele>57.0</ele><time>2026-04-15T13:28:12Z</time></trkpt><trkpt lat="43.3529492053555" lon="10.77437490084352"><ele>56.66666666666667</ele><time>2026-04-15T13:28:13Z</time></trkpt><trkpt lat="43.35284276062404" lon="10.774195580067905"><ele>56.333333333333336</ele><time>2026-04-15T13:28:14Z</time></trkpt><trkpt lat="43.35273279193534" lon="10.774006245042491"><ele>56.0</ele><time>2026-04-15T13:28:15Z</time></trkpt><trkpt lat="43.35261823700591" lon="10.773807318601591"><ele>56.0</ele><time>2026-04-15T13:28:16Z</time></trkpt><trkpt lat="43.35249618105917" lon="10.77359833181547"><ele>56.0</ele><time>2026-04-15T13:28:17Z</time></trkpt><trkpt lat="43.35237129355999" lon="10.77338295301487"><ele>56.0</ele><time>2026-04-15T13:28:18Z</time></trkpt><trkpt lat="43.35224709919172" lon="10.773167595042361"><ele>55.66666666666667</ele><time>2026-04-15T13:28:19Z</time></trkpt><trkpt lat="43.352116701285" lon="10.772940246228853"><ele>55.33333333333333</ele><time>2026-04-15T13:28:20Z</time></trkpt><trkpt lat="43.351984478238116" lon="10.772708872637443"><ele>55.0</ele><time>2026-04-15T13:28:21Z</time></trkpt><trkpt lat="43.351852441232325" lon="10.77247972947488"><ele>55.0</ele><time>2026-04-15T13:28:22Z</time></trkpt><trkpt lat="43.35171865468792" lon="10.772250784015315"><ele>55.0</ele><time>2026-04-15T13:28:23Z</time></trkpt><trkpt lat="43.35158660389454" lon="10.772024762283118"><ele>55.0</ele><time>2026-04-15T13:28:24Z</time></trkpt><trkpt lat="43.351454913864366" lon="10.771798958530493"><ele>54.666666666666664</ele><time>2026-04-15T13:28:25Z</time></trkpt><trkpt lat="43.35132395653283" lon="10.771569499266578"><ele>54.33333333333333</ele><time>2026-04-15T13:28:26Z</time></trkpt><trkpt lat="43.35119132948596" lon="10.77134311300715"><ele>54.0</ele><time>2026-04-15T13:28:27Z</time></trkpt><trkpt lat="43.35106079554048" lon="10.771117190746839"><ele>55.0</ele><time>2026-04-15T13:28:28Z</time></trkpt><trkpt lat="43.350932392978216" lon="10.770898203846427"><ele>56.0</ele><time>2026-04-15T13:28:29Z</time></trkpt><trkpt lat="43.350813336284396" lon="10.770690899309574"><ele>57.0</ele><time>2026-04-15T13:28:30Z</time></trkpt><trkpt lat="43.35070455142918" lon="10.770486678027734"><ele>57.0</ele><time>2026-04-15T13:28:31Z</time></trkpt><trkpt lat="43.35059945946373" lon="10.770270587260029"><ele>57.0</ele><time>2026-04-15T13:28:32Z</time></trkpt><trkpt lat="43.350494633833684" lon="10.770048650087716"><ele>57.0</ele><time>2026-04-15T13:28:33Z</time></trkpt><trkpt lat="43.350381077156875" lon="10.769822121973078"><ele>56.66666666666667</ele><time>2026-04-15T13:28:34Z</time></trkpt><trkpt lat="43.35026603115809" lon="10.769595622002578"><ele>56.333333333333336</ele><time>2026-04-15T13:28:35Z</time></trkpt><trkpt lat="43.35014679543215" lon="10.769359135223958"><ele>56.0</ele><time>2026-04-15T13:28:36Z</time></trkpt><trkpt lat="43.35002682259965" lon="10.769123347445003"><ele>56.0</ele><time>2026-04-15T13:28:37Z</time></trkpt><trkpt lat="43.34991230303415" lon="10.768898392285687"><ele>56.0</ele><time>2026-04-15T13:28:38Z</time></trkpt><trkpt lat="43.34980203262621" lon="10.768675536135621"><ele>56.0</ele><time>2026-04-15T13:28:39Z</time></trkpt><trkpt lat="43.34970409843347" lon="10.76844533706451"><ele>55.66666666666667</ele><time>2026-04-15T13:28:40Z</time></trkpt><trkpt lat="43.34962216281674" lon="10.768206582394832"><ele>55.33333333333333</ele><time>2026-04-15T13:28:41Z</time></trkpt><trkpt lat="43.34956774387029" lon="10.767969666357361"><ele>55.0</ele><time>2026-04-15T13:28:42Z</time></trkpt><trkpt lat="43.34953124266233" lon="10.76774675956042"><ele>55.0</ele><time>2026-04-15T13:28:43Z</time></trkpt><trkpt lat="43.349507422150154" lon="10.767539527414769"><ele>55.0</ele><time>2026-04-15T13:28:44Z</time></trkpt><trkpt lat="43.34949210749224" lon="10.767339271977034"><ele>55.0</ele><time>2026-04-15T13:28:45Z</time></trkpt><trkpt lat="43.34948716713885" lon="10.767155114950326"><ele>55.0</ele><time>2026-04-15T13:28:46Z</time></trkpt><trkpt lat="43.349493211234815" lon="10.766994356787853"><ele>55.2</ele><time>2026-04-15T13:28:47Z</time></trkpt><trkpt lat="43.349507110773885" lon="10.766852852012955"><ele>55.4</ele><time>2026-04-15T13:28:48Z</time></trkpt><trkpt lat="43.34952024780181" lon="10.766722727199909"><ele>55.599999999999994</ele><time>2026-04-15T13:28:49Z</time></trkpt><trkpt lat="43.34951915381874" lon="10.766592866121277"><ele>55.8</ele><time>2026-04-15T13:28:50Z</time></trkpt><trkpt lat="43.34948916919362" lon="10.766448693841195"><ele>56.0</ele><time>2026-04-15T13:28:51Z</time></trkpt><trkpt lat="43.34944117908404" lon="10.766307894932405"><ele>56.0</ele><time>2026-04-15T13:28:52Z</time></trkpt><trkpt lat="43.34936482575237" lon="10.766171275989423"><ele>56.0</ele><time>2026-04-15T13:28:53Z</time></trkpt><trkpt lat="43.34927202057441" lon="10.76603080801016"><ele>56.0</ele><time>2026-04-15T13:28:54Z</time></trkpt><trkpt lat="43.349170531161434" lon="10.765889516969983"><ele>56.0</ele><time>2026-04-15T13:28:55Z</time></trkpt><trkpt lat="43.34906514511767" lon="10.765735306468699"><ele>56.0</ele><time>2026-04-15T13:28:56Z</time></trkpt><trkpt lat="43.348958194139655" lon="10.7655712425424"><ele>56.0</ele><time>2026-04-15T13:28:57Z</time></trkpt><trkpt lat="43.3488542286279" lon="10.765398990138042"><ele>56.0</ele><time>2026-04-15T13:28:58Z</time></trkpt><trkpt lat="43.34874952924897" lon="10.765212121845176"><ele>57.333333333333336</ele><time>2026-04-15T13:28:59Z</time></trkpt><trkpt lat="43.348648849245784" lon="10.765005196000573"><ele>58.66666666666667</ele><time>2026-04-15T13:29:00Z</time></trkpt><trkpt lat="43.34855606465947" lon="10.764789365762477"><ele>60.0</ele><time>2026-04-15T13:29:01Z</time></trkpt><trkpt lat="43.34847828996735" lon="10.764554423109029"><ele>61.66666666666667</ele><time>2026-04-15T13:29:02Z</time></trkpt><trkpt lat="43.34840485569064" lon="10.764312091183596"><ele>63.333333333333336</ele><time>2026-04-15T13:29:03Z</time></trkpt><trkpt lat="43.34832937372534" lon="10.764071540724414"><ele>65.0</ele><time>2026-04-15T13:29:04Z</time></trkpt><trkpt lat="43.34824852624136" lon="10.76381939132782"><ele>65.0</ele><time>2026-04-15T13:29:05Z</time></trkpt><trkpt lat="43.34816370334224" lon="10.76355983228409"><ele>65.0</ele><time>2026-04-15T13:29:06Z</time></trkpt><trkpt lat="43.34807558240444" lon="10.763285258283048"><ele>65.0</ele><time>2026-04-15T13:29:07Z</time></trkpt><trkpt lat="43.347986384923594" lon="10.763006108479676"><ele>62.0</ele><time>2026-04-15T13:29:08Z</time></trkpt><trkpt lat="43.347897881673916" lon="10.762720689658744"><ele>59.0</ele><time>2026-04-15T13:29:09Z</time></trkpt><trkpt lat="43.3478187369864" lon="10.762428484133476"><ele>59.0</ele><time>2026-04-15T13:29:10Z</time></trkpt><trkpt lat="43.34775934814776" lon="10.762145210777755"><ele>59.0</ele><time>2026-04-15T13:29:11Z</time></trkpt><trkpt lat="43.347714457502306" lon="10.761871031685043"><ele>59.0</ele><time>2026-04-15T13:29:12Z</time></trkpt><trkpt lat="43.34767506074808" lon="10.761576173998842"><ele>59.0</ele><time>2026-04-15T13:29:13Z</time></trkpt><trkpt lat="43.34764309923586" lon="10.761277131682451"><ele>59.0</ele><time>2026-04-15T13:29:14Z</time></trkpt><trkpt lat="43.34761306841999" lon="10.760964020332057"><ele>59.0</ele><time>2026-04-15T13:29:15Z</time></trkpt><trkpt lat="43.34758462692653" lon="10.760645318484945"><ele>58.66666666666667</ele><time>2026-04-15T13:29:16Z</time></trkpt><trkpt lat="43.34755230836662" lon="10.760338619153128"><ele>58.33333333333333</ele><time>2026-04-15T13:29:17Z</time></trkpt><trkpt lat="43.34750950576017" lon="10.76005656068557"><ele>58.0</ele><time>2026-04-15T13:29:18Z</time></trkpt><trkpt lat="43.347449873603146" lon="10.75978859900558"><ele>57.666666666666664</ele><time>2026-04-15T13:29:19Z</time></trkpt><trkpt lat="43.347365450410095" lon="10.759546855487853"><ele>57.33333333333333</ele><time>2026-04-15T13:29:20Z</time></trkpt><trkpt lat="43.34726821072086" lon="10.759314659694068"><ele>57.0</ele><time>2026-04-15T13:29:21Z</time></trkpt><trkpt lat="43.34716345306381" lon="10.759090391943948"><ele>57.0</ele><time>2026-04-15T13:29:22Z</time></trkpt><trkpt lat="43.347055809650854" lon="10.758874290266862"><ele>57.0</ele><time>2026-04-15T13:29:23Z</time></trkpt><trkpt lat="43.34694186093839" lon="10.75865417909353"><ele>57.0</ele><time>2026-04-15T13:29:24Z</time></trkpt><trkpt lat="43.34682459509802" lon="10.75843515970985"><ele>58.33333333333333</ele><time>2026-04-15T13:29:25Z</time></trkpt><trkpt lat="43.34670553889497" lon="10.758217105423036"><ele>59.666666666666664</ele><time>2026-04-15T13:29:26Z</time></trkpt><trkpt lat="43.3465859746053" lon="10.757996710479903"><ele>61.0</ele><time>2026-04-15T13:29:27Z</time></trkpt><trkpt lat="43.34646467024387" lon="10.75776954135684"><ele>59.666666666666664</ele><time>2026-04-15T13:29:28Z</time></trkpt><trkpt lat="43.34634265753088" lon="10.757543825891533"><ele>58.33333333333333</ele><time>2026-04-15T13:29:29Z</time></trkpt><trkpt lat="43.34621840508362" lon="10.757319703578009"><ele>57.0</ele><time>2026-04-15T13:29:30Z</time></trkpt><trkpt lat="43.34609260710372" lon="10.757106307088801"><ele>57.0</ele><time>2026-04-15T13:29:31Z</time></trkpt><trkpt lat="43.34596353475296" lon="10.75690803713405"><ele>57.0</ele><time>2026-04-15T13:29:32Z</time></trkpt><trkpt lat="43.34583190282016" lon="10.756720845449882"><ele>57.0</ele><time>2026-04-15T13:29:33Z</time></trkpt><trkpt lat="43.34570359403672" lon="10.75655279637215"><ele>57.0</ele><time>2026-04-15T13:29:34Z</time></trkpt><trkpt lat="43.3455851145257" lon="10.756405802637321"><ele>57.0</ele><time>2026-04-15T13:29:35Z</time></trkpt><trkpt lat="43.34548031434561" lon="10.756275737319406"><ele>57.0</ele><time>2026-04-15T13:29:36Z</time></trkpt><trkpt lat="43.34539599442903" lon="10.75616872982346"><ele>57.0</ele><time>2026-04-15T13:29:37Z</time></trkpt><trkpt lat="43.34532244753779" lon="10.756073251194064"><ele>56.833333333333336</ele><time>2026-04-15T13:29:38Z</time></trkpt><trkpt lat="43.345262854275056" lon="10.755992714199742"><ele>56.66666666666667</ele><time>2026-04-15T13:29:39Z</time></trkpt><trkpt lat="43.34521298619422" lon="10.75590841302364"><ele>56.5</ele><time>2026-04-15T13:29:40Z</time></trkpt><trkpt lat="43.34519207691566" lon="10.755810055890583"><ele>56.333333333333336</ele><time>2026-04-15T13:29:41Z</time></trkpt><trkpt lat="43.3451969199755" lon="10.75570294941771"><ele>56.16666666666667</ele><time>2026-04-15T13:29:42Z</time></trkpt><trkpt lat="43.3452404252498" lon="10.755606508428533"><ele>56.0</ele><time>2026-04-15T13:29:43Z</time></trkpt><trkpt lat="43.345291913459164" lon="10.75550638328991"><ele>56.00000000000001</ele><time>2026-04-15T13:29:44Z</time></trkpt><trkpt lat="43.34531063306145" lon="10.755398597859298"><ele>56.0</ele><time>2026-04-15T13:29:45Z</time></trkpt><trkpt lat="43.34528332528941" lon="10.755293434377775"><ele>56.0</ele><time>2026-04-15T13:29:46Z</time></trkpt><trkpt lat="43.34522149801551" lon="10.755211396502903"><ele>56.0</ele><time>2026-04-15T13:29:47Z</time></trkpt><trkpt lat="43.345138903474364" lon="10.755153987629068"><ele>56.00000000000001</ele><time>2026-04-15T13:29:48Z</time></trkpt><trkpt lat="43.345058280532854" lon="10.75510397663806"><ele>56.0</ele><time>2026-04-15T13:29:49Z</time></trkpt><trkpt lat="43.344987973671444" lon="10.755040714324226"><ele>56.0</ele><time>2026-04-15T13:29:50Z</time></trkpt><trkpt lat="43.34492764892666" lon="10.7549445087404"><ele>55.99999999999999</ele><time>2026-04-15T13:29:51Z</time></trkpt><trkpt lat="43.34488961668932" lon="10.754822252135996"><ele>55.99999999999999</ele><time>2026-04-15T13:29:52Z</time></trkpt><trkpt lat="43.344855142442235" lon="10.754669574330757"><ele>56.0</ele><time>2026-04-15T13:29:53Z</time></trkpt><trkpt lat="43.344822462895884" lon="10.75450749908108"><ele>56.0</ele><time>2026-04-15T13:29:54Z</time></trkpt><trkpt lat="43.34478350815561" lon="10.754348706470047"><ele>56.25</ele><time>2026-04-15T13:29:55Z</time></trkpt><trkpt lat="43.34473584492004" lon="10.754180402703367"><ele>56.5</ele><time>2026-04-15T13:29:56Z</time></trkpt><trkpt lat="43.34467518728127" lon="10.75400408081103"><ele>56.75</ele><time>2026-04-15T13:29:57Z</time></trkpt><trkpt lat="43.34460597151644" lon="10.75382861987539"><ele>57.0</ele><time>2026-04-15T13:29:58Z</time></trkpt><trkpt lat="43.3445267391315" lon="10.75365297372244"><ele>57.0</ele><time>2026-04-15T13:29:59Z</time></trkpt><trkpt lat="43.34443753353586" lon="10.753490644203604"><ele>57.0</ele><time>2026-04-15T13:30:00Z</time></trkpt><trkpt lat="43.344334169833566" lon="10.75333537039173"><ele>57.0</ele><time>2026-04-15T13:30:01Z</time></trkpt><trkpt lat="43.34422115107083" lon="10.75318319767843"><ele>57.0</ele><time>2026-04-15T13:30:02Z</time></trkpt><trkpt lat="43.344109152252386" lon="10.753026186953527"><ele>57.0</ele><time>2026-04-15T13:30:03Z</time></trkpt><trkpt lat="43.34399915508428" lon="10.752867724758836"><ele>57.0</ele><time>2026-04-15T13:30:04Z</time></trkpt><trkpt lat="43.34389070990324" lon="10.752706114095982"><ele>56.66666666666667</ele><time>2026-04-15T13:30:05Z</time></trkpt><trkpt lat="43.34378142133529" lon="10.752541996912566"><ele>56.333333333333336</ele><time>2026-04-15T13:30:06Z</time></trkpt><trkpt lat="43.34366754684483" lon="10.752377788525981"><ele>56.0</ele><time>2026-04-15T13:30:07Z</time></trkpt><trkpt lat="43.34355223263618" lon="10.752212538032467"><ele>56.0</ele><time>2026-04-15T13:30:08Z</time></trkpt><trkpt lat="43.34343830167108" lon="10.752052271385981"><ele>56.0</ele><time>2026-04-15T13:30:09Z</time></trkpt><trkpt lat="43.34332586460177" lon="10.751895007515456"><ele>56.0</ele><time>2026-04-15T13:30:10Z</time></trkpt><trkpt lat="43.34320907701149" lon="10.751726131370654"><ele>56.333333333333336</ele><time>2026-04-15T13:30:11Z</time></trkpt><trkpt lat="43.34309403344791" lon="10.751558497476948"><ele>56.66666666666667</ele><time>2026-04-15T13:30:12Z</time></trkpt><trkpt lat="43.342973864277305" lon="10.751380741675074"><ele>57.0</ele><time>2026-04-15T13:30:13Z</time></trkpt><trkpt lat="43.34285330076268" lon="10.751206249994476"><ele>56.66666666666667</ele><time>2026-04-15T13:30:14Z</time></trkpt><trkpt lat="43.34272873867356" lon="10.751027018994574"><ele>56.333333333333336</ele><time>2026-04-15T13:30:15Z</time></trkpt><trkpt lat="43.342602746696556" lon="10.750844433844042"><ele>56.0</ele><time>2026-04-15T13:30:16Z</time></trkpt><trkpt lat="43.34247766046348" lon="10.750660981464852"><ele>56.0</ele><time>2026-04-15T13:30:17Z</time></trkpt><trkpt lat="43.34234887771544" lon="10.750468377179956"><ele>56.0</ele><time>2026-04-15T13:30:18Z</time></trkpt><trkpt lat="43.34222248130222" lon="10.750280438652773"><ele>56.0</ele><time>2026-04-15T13:30:19Z</time></trkpt><trkpt lat="43.34209109699436" lon="10.750090513349702"><ele>55.66666666666667</ele><time>2026-04-15T13:30:20Z</time></trkpt><trkpt lat="43.341957929484686" lon="10.749899655850282"><ele>55.33333333333333</ele><time>2026-04-15T13:30:21Z</time></trkpt><trkpt lat="43.34182929258973" lon="10.749716640128195"><ele>55.0</ele><time>2026-04-15T13:30:22Z</time></trkpt><trkpt lat="43.34170333843047" lon="10.749536191584916"><ele>54.666666666666664</ele><time>2026-04-15T13:30:23Z</time></trkpt><trkpt lat="43.34157669345025" lon="10.74935990245607"><ele>54.33333333333333</ele><time>2026-04-15T13:30:24Z</time></trkpt><trkpt lat="43.34144700758712" lon="10.749194781343927"><ele>54.0</ele><time>2026-04-15T13:30:25Z</time></trkpt><trkpt lat="43.341306818127116" lon="10.749051825318281"><ele>54.0</ele><time>2026-04-15T13:30:26Z</time></trkpt><trkpt lat="43.3411496252688" lon="10.748916405635343"><ele>54.0</ele><time>2026-04-15T13:30:27Z</time></trkpt><trkpt lat="43.340985551407314" lon="10.748797782487616"><ele>54.0</ele><time>2026-04-15T13:30:28Z</time></trkpt><trkpt lat="43.34081216338993" lon="10.748666437791139"><ele>54.33333333333333</ele><time>2026-04-15T13:30:29Z</time></trkpt><trkpt lat="43.3406327674378" lon="10.7485293581615"><ele>54.666666666666664</ele><time>2026-04-15T13:30:30Z</time></trkpt><trkpt lat="43.34044207806964" lon="10.748400713468891"><ele>55.0</ele><time>2026-04-15T13:30:31Z</time></trkpt><trkpt lat="43.34023526189956" lon="10.748289574004566"><ele>55.0</ele><time>2026-04-15T13:30:32Z</time></trkpt><trkpt lat="43.34000398621136" lon="10.7481801383121"><ele>55.0</ele><time>2026-04-15T13:30:33Z</time></trkpt><trkpt lat="43.33975761441871" lon="10.748075336159678"><ele>55.0</ele><time>2026-04-15T13:30:34Z</time></trkpt><trkpt lat="43.33953288689465" lon="10.747980766630345"><ele>55.0</ele><time>2026-04-15T13:30:35Z</time></trkpt><trkpt lat="43.3393247192634" lon="10.747898616807163"><ele>55.0</ele><time>2026-04-15T13:30:36Z</time></trkpt><trkpt lat="43.33913397419225" lon="10.747824433392509"><ele>55.0</ele><time>2026-04-15T13:30:37Z</time></trkpt><trkpt lat="43.338957582849254" lon="10.747774288723805"><ele>55.0</ele><time>2026-04-15T13:30:38Z</time></trkpt><trkpt lat="43.33878972348538" lon="10.74775827840583"><ele>54.0</ele><time>2026-04-15T13:30:39Z</time></trkpt><trkpt lat="43.33861688919254" lon="10.74777574283681"><ele>53.0</ele><time>2026-04-15T13:30:40Z</time></trkpt><trkpt lat="43.33843651756468" lon="10.747789631137227"><ele>52.0</ele><time>2026-04-15T13:30:41Z</time></trkpt><trkpt lat="43.338250669724154" lon="10.747805070428974"><ele>52.0</ele><time>2026-04-15T13:30:42Z</time></trkpt><trkpt lat="43.33806455589834" lon="10.74781924747847"><ele>52.0</ele><time>2026-04-15T13:30:43Z</time></trkpt><trkpt lat="43.337883248148216" lon="10.747824508406545"><ele>52.0</ele><time>2026-04-15T13:30:44Z</time></trkpt><trkpt lat="43.33770730477812" lon="10.747811747995419"><ele>52.33333333333333</ele><time>2026-04-15T13:30:45Z</time></trkpt><trkpt lat="43.337539430125226" lon="10.747778022842441"><ele>52.66666666666667</ele><time>2026-04-15T13:30:46Z</time></trkpt><trkpt lat="43.337377375319925" lon="10.747720215797507"><ele>53.0</ele><time>2026-04-15T13:30:47Z</time></trkpt><trkpt lat="43.33723438604022" lon="10.747623374264078"><ele>54.0</ele><time>2026-04-15T13:30:48Z</time></trkpt><trkpt lat="43.337103589563704" lon="10.747498868669755"><ele>55.0</ele><time>2026-04-15T13:30:49Z</time></trkpt><trkpt lat="43.33698312294078" lon="10.747345458654575"><ele>56.0</ele><time>2026-04-15T13:30:50Z</time></trkpt><trkpt lat="43.336865392384325" lon="10.747188617798214"><ele>56.0</ele><time>2026-04-15T13:30:51Z</time></trkpt><trkpt lat="43.33674594731789" lon="10.747034413243949"><ele>56.0</ele><time>2026-04-15T13:30:52Z</time></trkpt><trkpt lat="43.336620949387395" lon="10.746876469622663"><ele>56.0</ele><time>2026-04-15T13:30:53Z</time></trkpt><trkpt lat="43.33649350271104" lon="10.746717056330887"><ele>55.333333333333336</ele><time>2026-04-15T13:30:54Z</time></trkpt><trkpt lat="43.33638172388755" lon="10.746561822826026"><ele>54.66666666666667</ele><time>2026-04-15T13:30:55Z</time></trkpt><trkpt lat="43.33628889308173" lon="10.746382920428417"><ele>54.0</ele><time>2026-04-15T13:30:56Z</time></trkpt><trkpt lat="43.3362170717518" lon="10.746191202459372"><ele>54.33333333333333</ele><time>2026-04-15T13:30:57Z</time></trkpt><trkpt lat="43.3361668529908" lon="10.745992200972669"><ele>54.666666666666664</ele><time>2026-04-15T13:30:58Z</time></trkpt><trkpt lat="43.336121166624295" lon="10.745792404856866"><ele>55.0</ele><time>2026-04-15T13:30:59Z</time></trkpt><trkpt lat="43.33606642544456" lon="10.745592973813736"><ele>55.0</ele><time>2026-04-15T13:31:00Z</time></trkpt><trkpt lat="43.336008542449036" lon="10.745393449371582"><ele>55.0</ele><time>2026-04-15T13:31:01Z</time></trkpt><trkpt lat="43.33594792660109" lon="10.745192532088454"><ele>55.0</ele><time>2026-04-15T13:31:02Z</time></trkpt><trkpt lat="43.335892805939324" lon="10.745007287873529"><ele>55.75</ele><time>2026-04-15T13:31:03Z</time></trkpt><trkpt lat="43.33584108077505" lon="10.744831820714927"><ele>56.5</ele><time>2026-04-15T13:31:04Z</time></trkpt><trkpt lat="43.33579496355966" lon="10.744669755324894"><ele>57.25</ele><time>2026-04-15T13:31:05Z</time></trkpt><trkpt lat="43.33574719517455" lon="10.744510659111116"><ele>58.0</ele><time>2026-04-15T13:31:06Z</time></trkpt><trkpt lat="43.335703307941095" lon="10.744348946047612"><ele>57.0</ele><time>2026-04-15T13:31:07Z</time></trkpt><trkpt lat="43.33565403371162" lon="10.744177978384773"><ele>56.0</ele><time>2026-04-15T13:31:08Z</time></trkpt><trkpt lat="43.33560657258455" lon="10.744001999614813"><ele>55.0</ele><time>2026-04-15T13:31:09Z</time></trkpt><trkpt lat="43.33555671246416" lon="10.743828484281465"><ele>54.0</ele><time>2026-04-15T13:31:10Z</time></trkpt><trkpt lat="43.335502093186975" lon="10.743647204035723"><ele>54.0</ele><time>2026-04-15T13:31:11Z</time></trkpt><trkpt lat="43.335452499873995" lon="10.743475995417183"><ele>54.0</ele><time>2026-04-15T13:31:12Z</time></trkpt><trkpt lat="43.33541622908626" lon="10.743309392046472"><ele>54.0</ele><time>2026-04-15T13:31:13Z</time></trkpt><trkpt lat="43.3353943966582" lon="10.743133160372189"><ele>54.0</ele><time>2026-04-15T13:31:14Z</time></trkpt><trkpt lat="43.3353997330932" lon="10.742957596040412"><ele>54.0</ele><time>2026-04-15T13:31:15Z</time></trkpt><trkpt lat="43.33542538585949" lon="10.74278155152623"><ele>54.0</ele><time>2026-04-15T13:31:16Z</time></trkpt><trkpt lat="43.33546192253768" lon="10.742607743433467"><ele>54.0</ele><time>2026-04-15T13:31:17Z</time></trkpt><trkpt lat="43.33550405002516" lon="10.742433946472842"><ele>54.0</ele><time>2026-04-15T13:31:18Z</time></trkpt><trkpt lat="43.335543214134255" lon="10.742267361042158"><ele>55.75</ele><time>2026-04-15T13:31:19Z</time></trkpt><trkpt lat="43.335575423855396" lon="10.742113303170493"><ele>57.5</ele><time>2026-04-15T13:31:20Z</time></trkpt><trkpt lat="43.33560658624398" lon="10.741957788009211"><ele>59.25</ele><time>2026-04-15T13:31:21Z</time></trkpt><trkpt lat="43.335640850041585" lon="10.741801005683438"><ele>61.0</ele><time>2026-04-15T13:31:22Z</time></trkpt><trkpt lat="43.33567498760772" lon="10.741647708025424"><ele>61.0</ele><time>2026-04-15T13:31:23Z</time></trkpt><trkpt lat="43.33570599057788" lon="10.741500992200013"><ele>61.0</ele><time>2026-04-15T13:31:24Z</time></trkpt><trkpt lat="43.33573660655127" lon="10.741349951314245"><ele>61.0</ele><time>2026-04-15T13:31:25Z</time></trkpt><trkpt lat="43.33576760932627" lon="10.741191526126503"><ele>61.0</ele><time>2026-04-15T13:31:26Z</time></trkpt><trkpt lat="43.33580034270276" lon="10.741021809901765"><ele>59.5</ele><time>2026-04-15T13:31:27Z</time></trkpt><trkpt lat="43.33583688449606" lon="10.740838288600328"><ele>58.0</ele><time>2026-04-15T13:31:28Z</time></trkpt><trkpt lat="43.335874142739215" lon="10.740643502767815"><ele>56.5</ele><time>2026-04-15T13:31:29Z</time></trkpt><trkpt lat="43.335916325810516" lon="10.74043432361941"><ele>55.0</ele><time>2026-04-15T13:31:30Z</time></trkpt><trkpt lat="43.33596286664141" lon="10.740210291873662"><ele>54.33333333333333</ele><time>2026-04-15T13:31:31Z</time></trkpt><trkpt lat="43.33601253876722" lon="10.739974427504118"><ele>53.66666666666667</ele><time>2026-04-15T13:31:32Z</time></trkpt><trkpt lat="43.33606114461648" lon="10.739719732889961"><ele>53.0</ele><time>2026-04-15T13:31:33Z</time></trkpt><trkpt lat="43.336115173716145" lon="10.73942900403852"><ele>52.0</ele><time>2026-04-15T13:31:34Z</time></trkpt><trkpt lat="43.3361850950371" lon="10.739120069650365"><ele>51.0</ele><time>2026-04-15T13:31:35Z</time></trkpt><trkpt lat="43.33626257116654" lon="10.738816115080798"><ele>49.0</ele><time>2026-04-15T13:31:36Z</time></trkpt><trkpt lat="43.336335831577316" lon="10.738506610480751"><ele>47.0</ele><time>2026-04-15T13:31:37Z</time></trkpt><trkpt lat="43.336390153402775" lon="10.738218919344297"><ele>51.666666666666664</ele><time>2026-04-15T13:31:38Z</time></trkpt><trkpt lat="43.33642610795333" lon="10.737941996372138"><ele>56.33333333333333</ele><time>2026-04-15T13:31:39Z</time></trkpt><trkpt lat="43.33644241585428" lon="10.73767082590859"><ele>61.0</ele><time>2026-04-15T13:31:40Z</time></trkpt><trkpt lat="43.336446337203505" lon="10.737387458937881"><ele>61.0</ele><time>2026-04-15T13:31:41Z</time></trkpt><trkpt lat="43.336437092801404" lon="10.737088873312947"><ele>61.0</ele><time>2026-04-15T13:31:42Z</time></trkpt><trkpt lat="43.33642824906435" lon="10.736795802301408"><ele>61.0</ele><time>2026-04-15T13:31:43Z</time></trkpt><trkpt lat="43.3364214523704" lon="10.736531423176924"><ele>61.33333333333333</ele><time>2026-04-15T13:31:44Z</time></trkpt><trkpt lat="43.33641450336214" lon="10.736281218566921"><ele>61.66666666666667</ele><time>2026-04-15T13:31:45Z</time></trkpt><trkpt lat="43.33640178994983" lon="10.736036564723918"><ele>62.0</ele><time>2026-04-15T13:31:46Z</time></trkpt><trkpt lat="43.3363822178128" lon="10.735800647314614"><ele>57.333333333333336</ele><time>2026-04-15T13:31:47Z</time></trkpt><trkpt lat="43.336339200742906" lon="10.735590502662614"><ele>52.66666666666667</ele><time>2026-04-15T13:31:48Z</time></trkpt><trkpt lat="43.336280363799226" lon="10.735411740121156"><ele>48.0</ele><time>2026-04-15T13:31:49Z</time></trkpt><trkpt lat="43.336209291443836" lon="10.735231420280323"><ele>49.66666666666667</ele><time>2026-04-15T13:31:50Z</time></trkpt><trkpt lat="43.33612076883629" lon="10.735050455744345"><ele>51.333333333333336</ele><time>2026-04-15T13:31:51Z</time></trkpt><trkpt lat="43.33602787702302" lon="10.734859969091776"><ele>53.0</ele><time>2026-04-15T13:31:52Z</time></trkpt><trkpt lat="43.33593310225632" lon="10.734657507092487"><ele>53.0</ele><time>2026-04-15T13:31:53Z</time></trkpt><trkpt lat="43.33583671095888" lon="10.734449316683968"><ele>53.0</ele><time>2026-04-15T13:31:54Z</time></trkpt><trkpt lat="43.33573075969366" lon="10.734228378353784"><ele>53.0</ele><time>2026-04-15T13:31:55Z</time></trkpt><trkpt lat="43.33561590480222" lon="10.733998486057759"><ele>52.0</ele><time>2026-04-15T13:31:56Z</time></trkpt><trkpt lat="43.33549903587494" lon="10.733764065982681"><ele>51.0</ele><time>2026-04-15T13:31:57Z</time></trkpt><trkpt lat="43.335391874982555" lon="10.733532619486075"><ele>50.0</ele><time>2026-04-15T13:31:58Z</time></trkpt><trkpt lat="43.33529823165437" lon="10.73329794399826"><ele>50.0</ele><time>2026-04-15T13:31:59Z</time></trkpt><trkpt lat="43.335219956247" lon="10.733070457617202"><ele>50.0</ele><time>2026-04-15T13:32:00Z</time></trkpt><trkpt lat="43.33514654993533" lon="10.73284683531116"><ele>50.0</ele><time>2026-04-15T13:32:01Z</time></trkpt><trkpt lat="43.33508324053213" lon="10.732638246270316"><ele>51.25</ele><time>2026-04-15T13:32:02Z</time></trkpt><trkpt lat="43.3350351880466" lon="10.73244380141055"><ele>52.5</ele><time>2026-04-15T13:32:03Z</time></trkpt><trkpt lat="43.335018216309216" lon="10.73225425310528"><ele>53.75</ele><time>2026-04-15T13:32:04Z</time></trkpt><trkpt lat="43.335045305106355" lon="10.732064078420946"><ele>55.0</ele><time>2026-04-15T13:32:05Z</time></trkpt><trkpt lat="43.33504970908212" lon="10.731861648936837"><ele>55.33333333333333</ele><time>2026-04-15T13:32:06Z</time></trkpt><trkpt lat="43.33507256210091" lon="10.731649862542804"><ele>55.66666666666667</ele><time>2026-04-15T13:32:07Z</time></trkpt><trkpt lat="43.33509373662335" lon="10.731421635652657"><ele>56.0</ele><time>2026-04-15T13:32:08Z</time></trkpt><trkpt lat="43.33511034486245" lon="10.731185501481933"><ele>55.66666666666667</ele><time>2026-04-15T13:32:09Z</time></trkpt><trkpt lat="43.33513023543629" lon="10.730936349976076"><ele>55.33333333333333</ele><time>2026-04-15T13:32:10Z</time></trkpt><trkpt lat="43.335152269142874" lon="10.73068803712083"><ele>55.0</ele><time>2026-04-15T13:32:11Z</time></trkpt><trkpt lat="43.33517596795983" lon="10.730441464181723"><ele>55.0</ele><time>2026-04-15T13:32:12Z</time></trkpt><trkpt lat="43.33519686014899" lon="10.730182836996928"><ele>55.0</ele><time>2026-04-15T13:32:13Z</time></trkpt><trkpt lat="43.33521254586457" lon="10.72991439454198"><ele>55.0</ele><time>2026-04-15T13:32:14Z</time></trkpt><trkpt lat="43.33520814456786" lon="10.729639039882947"><ele>55.33333333333333</ele><time>2026-04-15T13:32:15Z</time></trkpt><trkpt lat="43.335184978812585" lon="10.729359608752093"><ele>55.66666666666667</ele><time>2026-04-15T13:32:16Z</time></trkpt><trkpt lat="43.33514814523391" lon="10.729086943299968"><ele>56.0</ele><time>2026-04-15T13:32:17Z</time></trkpt><trkpt lat="43.33510986869385" lon="10.72884124763182"><ele>56.0</ele><time>2026-04-15T13:32:18Z</time></trkpt><trkpt lat="43.335075541756986" lon="10.728603119131014"><ele>56.0</ele><time>2026-04-15T13:32:19Z</time></trkpt><trkpt lat="43.33504430740844" lon="10.728356491441044"><ele>56.0</ele><time>2026-04-15T13:32:20Z</time></trkpt><trkpt lat="43.33501303857379" lon="10.728108002759544"><ele>56.333333333333336</ele><time>2026-04-15T13:32:21Z</time></trkpt><trkpt lat="43.33497855659759" lon="10.7278556628575"><ele>56.66666666666667</ele><time>2026-04-15T13:32:22Z</time></trkpt><trkpt lat="43.33494630757576" lon="10.72759857816591"><ele>57.0</ele><time>2026-04-15T13:32:23Z</time></trkpt><trkpt lat="43.33491112911148" lon="10.727335591180799"><ele>57.33333333333333</ele><time>2026-04-15T13:32:24Z</time></trkpt><trkpt lat="43.33487449662696" lon="10.72706762501806"><ele>57.666666666666664</ele><time>2026-04-15T13:32:25Z</time></trkpt><trkpt lat="43.334837854360536" lon="10.726789356947972"><ele>58.0</ele><time>2026-04-15T13:32:26Z</time></trkpt><trkpt lat="43.33480004978067" lon="10.726511705684379"><ele>58.666666666666664</ele><time>2026-04-15T13:32:27Z</time></trkpt><trkpt lat="43.33475822551255" lon="10.726219083390786"><ele>59.33333333333333</ele><time>2026-04-15T13:32:28Z</time></trkpt><trkpt lat="43.33471828057107" lon="10.725927075258205"><ele>60.0</ele><time>2026-04-15T13:32:29Z</time></trkpt><trkpt lat="43.33468372848693" lon="10.725655489714727"><ele>57.66666666666667</ele><time>2026-04-15T13:32:30Z</time></trkpt><trkpt lat="43.334650683077044" lon="10.72539830391738"><ele>55.333333333333336</ele><time>2026-04-15T13:32:31Z</time></trkpt><trkpt lat="43.33460649294369" lon="10.725171990638916"><ele>53.0</ele><time>2026-04-15T13:32:32Z</time></trkpt><trkpt lat="43.33453997437898" lon="10.724953098643148"><ele>53.0</ele><time>2026-04-15T13:32:33Z</time></trkpt><trkpt lat="43.33443393567534" lon="10.724767690055113"><ele>53.0</ele><time>2026-04-15T13:32:34Z</time></trkpt><trkpt lat="43.33432064550584" lon="10.724584406044327"><ele>53.0</ele><time>2026-04-15T13:32:35Z</time></trkpt><trkpt lat="43.334205466526846" lon="10.72439566470689"><ele>54.66666666666667</ele><time>2026-04-15T13:32:36Z</time></trkpt><trkpt lat="43.33409372207731" lon="10.7242065112293"><ele>56.33333333333333</ele><time>2026-04-15T13:32:37Z</time></trkpt><trkpt lat="43.333991827349195" lon="10.72400120191218"><ele>58.0</ele><time>2026-04-15T13:32:38Z</time></trkpt><trkpt lat="43.33391150470519" lon="10.723774729828758"><ele>55.33333333333333</ele><time>2026-04-15T13:32:39Z</time></trkpt><trkpt lat="43.333855614573416" lon="10.723529460730424"><ele>52.66666666666667</ele><time>2026-04-15T13:32:40Z</time></trkpt><trkpt lat="43.33380827049587" lon="10.723269794194678"><ele>50.0</ele><time>2026-04-15T13:32:41Z</time></trkpt><trkpt lat="43.33375555269256" lon="10.72301053283278"><ele>50.0</ele><time>2026-04-15T13:32:42Z</time></trkpt><trkpt lat="43.33370314063049" lon="10.722749569343193"><ele>50.0</ele><time>2026-04-15T13:32:43Z</time></trkpt><trkpt lat="43.33364936667399" lon="10.722494772846312"><ele>50.0</ele><time>2026-04-15T13:32:44Z</time></trkpt><trkpt lat="43.33358610674517" lon="10.722227988744223"><ele>50.0</ele><time>2026-04-15T13:32:45Z</time></trkpt><trkpt lat="43.33352652246429" lon="10.721965906224902"><ele>50.0</ele><time>2026-04-15T13:32:46Z</time></trkpt><trkpt lat="43.33346162524044" lon="10.721687545599217"><ele>50.0</ele><time>2026-04-15T13:32:47Z</time></trkpt><trkpt lat="43.33339549318596" lon="10.721403164508065"><ele>50.0</ele><time>2026-04-15T13:32:48Z</time></trkpt><trkpt lat="43.33332785515409" lon="10.721103209679963"><ele>50.0</ele><time>2026-04-15T13:32:49Z</time></trkpt><trkpt lat="43.33325533802896" lon="10.720779560447193"><ele>49.5</ele><time>2026-04-15T13:32:50Z</time></trkpt><trkpt lat="43.33317873611624" lon="10.720440343722023"><ele>49.0</ele><time>2026-04-15T13:32:51Z</time></trkpt><trkpt lat="43.33310597463707" lon="10.720112158454958"><ele>48.33333333333333</ele><time>2026-04-15T13:32:52Z</time></trkpt><trkpt lat="43.333043676308755" lon="10.719814297930965"><ele>47.666666666666664</ele><time>2026-04-15T13:32:53Z</time></trkpt><trkpt lat="43.332985023693034" lon="10.719535742197358"><ele>47.0</ele><time>2026-04-15T13:32:54Z</time></trkpt><trkpt lat="43.33292865269263" lon="10.719266185040395"><ele>47.0</ele><time>2026-04-15T13:32:55Z</time></trkpt><trkpt lat="43.33287775016853" lon="10.719002553377019"><ele>47.0</ele><time>2026-04-15T13:32:56Z</time></trkpt><trkpt lat="43.33284330549803" lon="10.71876697676718"><ele>47.0</ele><time>2026-04-15T13:32:57Z</time></trkpt><trkpt lat="43.33282245263238" lon="10.718541077407934"><ele>48.666666666666664</ele><time>2026-04-15T13:32:58Z</time></trkpt><trkpt lat="43.33281041334936" lon="10.718320571133104"><ele>50.33333333333333</ele><time>2026-04-15T13:32:59Z</time></trkpt><trkpt lat="43.33280256654073" lon="10.718093939931105"><ele>52.0</ele><time>2026-04-15T13:33:00Z</time></trkpt><trkpt lat="43.33279316207108" lon="10.717870341240026"><ele>52.33333333333333</ele><time>2026-04-15T13:33:01Z</time></trkpt><trkpt lat="43.33278059771884" lon="10.71763287959044"><ele>52.66666666666667</ele><time>2026-04-15T13:33:02Z</time></trkpt><trkpt lat="43.332765451726175" lon="10.717391075766656"><ele>53.0</ele><time>2026-04-15T13:33:03Z</time></trkpt><trkpt lat="43.332750760838564" lon="10.717143259343665"><ele>54.0</ele><time>2026-04-15T13:33:04Z</time></trkpt><trkpt lat="43.332733471580255" lon="10.716888145297185"><ele>55.0</ele><time>2026-04-15T13:33:05Z</time></trkpt><trkpt lat="43.3327126855787" lon="10.716625258971469"><ele>56.0</ele><time>2026-04-15T13:33:06Z</time></trkpt><trkpt lat="43.33268898274546" lon="10.716345993851267"><ele>55.0</ele><time>2026-04-15T13:33:07Z</time></trkpt><trkpt lat="43.332664896283354" lon="10.716060873554774"><ele>54.0</ele><time>2026-04-15T13:33:08Z</time></trkpt><trkpt lat="43.33264271245623" lon="10.715776328099826"><ele>53.0</ele><time>2026-04-15T13:33:09Z</time></trkpt><trkpt lat="43.332621823984" lon="10.7154732013692"><ele>49.5</ele><time>2026-04-15T13:33:10Z</time></trkpt><trkpt lat="43.33260043513005" lon="10.715161084723688"><ele>46.0</ele><time>2026-04-15T13:33:11Z</time></trkpt><trkpt lat="43.332578229358795" lon="10.714837089999815"><ele>46.0</ele><time>2026-04-15T13:33:12Z</time></trkpt><trkpt lat="43.33255502709112" lon="10.714521470725854"><ele>46.0</ele><time>2026-04-15T13:33:13Z</time></trkpt><trkpt lat="43.332533104154926" lon="10.71422521012225"><ele>46.0</ele><time>2026-04-15T13:33:14Z</time></trkpt><trkpt lat="43.332510009137074" lon="10.713948532671981"><ele>45.66666666666667</ele><time>2026-04-15T13:33:15Z</time></trkpt><trkpt lat="43.33248545621795" lon="10.71368295741829"><ele>45.333333333333336</ele><time>2026-04-15T13:33:16Z</time></trkpt><trkpt lat="43.33244526181779" lon="10.713422384505513"><ele>45.0</ele><time>2026-04-15T13:33:17Z</time></trkpt><trkpt lat="43.332383284764155" lon="10.713174371401921"><ele>46.0</ele><time>2026-04-15T13:33:18Z</time></trkpt><trkpt lat="43.33229908451514" lon="10.71292628498987"><ele>47.0</ele><time>2026-04-15T13:33:19Z</time></trkpt><trkpt lat="43.33219608177426" lon="10.712691808852163"><ele>48.0</ele><time>2026-04-15T13:33:20Z</time></trkpt><trkpt lat="43.332080169635766" lon="10.712474664587315"><ele>48.0</ele><time>2026-04-15T13:33:21Z</time></trkpt><trkpt lat="43.3319523445207" lon="10.712262501506808"><ele>48.0</ele><time>2026-04-15T13:33:22Z</time></trkpt><trkpt lat="43.33182133844762" lon="10.712052530486945"><ele>48.0</ele><time>2026-04-15T13:33:23Z</time></trkpt><trkpt lat="43.33169293430886" lon="10.711843882707687"><ele>47.666666666666664</ele><time>2026-04-15T13:33:24Z</time></trkpt><trkpt lat="43.33156172349826" lon="10.711630903237799"><ele>47.33333333333333</ele><time>2026-04-15T13:33:25Z</time></trkpt><trkpt lat="43.3314281534603" lon="10.711415123291271"><ele>47.0</ele><time>2026-04-15T13:33:26Z</time></trkpt><trkpt lat="43.331296073796004" lon="10.711199144278392"><ele>47.666666666666664</ele><time>2026-04-15T13:33:27Z</time></trkpt><trkpt lat="43.331163100315145" lon="10.71097994122033"><ele>48.33333333333333</ele><time>2026-04-15T13:33:28Z</time></trkpt><trkpt lat="43.33102713337737" lon="10.710759368920309"><ele>49.0</ele><time>2026-04-15T13:33:29Z</time></trkpt><trkpt lat="43.330887157528686" lon="10.710535940635395"><ele>49.0</ele><time>2026-04-15T13:33:30Z</time></trkpt><trkpt lat="43.33074958747698" lon="10.71030625395464"><ele>49.0</ele><time>2026-04-15T13:33:31Z</time></trkpt><trkpt lat="43.330620571926644" lon="10.710064405106216"><ele>49.0</ele><time>2026-04-15T13:33:32Z</time></trkpt><trkpt lat="43.3305077920875" lon="10.709809002920927"><ele>48.33333333333333</ele><time>2026-04-15T13:33:33Z</time></trkpt><trkpt lat="43.3304130060195" lon="10.709540052213994"><ele>47.666666666666664</ele><time>2026-04-15T13:33:34Z</time></trkpt><trkpt lat="43.33034440822487" lon="10.709264521042623"><ele>47.0</ele><time>2026-04-15T13:33:35Z</time></trkpt><trkpt lat="43.330283467616304" lon="10.708989086330035"><ele>47.0</ele><time>2026-04-15T13:33:36Z</time></trkpt><trkpt lat="43.33022006877353" lon="10.708714292537573"><ele>47.0</ele><time>2026-04-15T13:33:37Z</time></trkpt><trkpt lat="43.33015531131984" lon="10.708446347079398"><ele>47.0</ele><time>2026-04-15T13:33:38Z</time></trkpt><trkpt lat="43.33009051845921" lon="10.708166020037945"><ele>47.666666666666664</ele><time>2026-04-15T13:33:39Z</time></trkpt><trkpt lat="43.3300259580607" lon="10.70788944985674"><ele>48.33333333333333</ele><time>2026-04-15T13:33:40Z</time></trkpt><trkpt lat="43.32996420719421" lon="10.70760900860375"><ele>49.0</ele><time>2026-04-15T13:33:41Z</time></trkpt><trkpt lat="43.32990955025227" lon="10.707328454507884"><ele>50.0</ele><time>2026-04-15T13:33:42Z</time></trkpt><trkpt lat="43.32986344128545" lon="10.707033931204247"><ele>51.0</ele><time>2026-04-15T13:33:43Z</time></trkpt><trkpt lat="43.329837422976304" lon="10.706743993941512"><ele>52.0</ele><time>2026-04-15T13:33:44Z</time></trkpt><trkpt lat="43.32983308591135" lon="10.706457010279788"><ele>53.0</ele><time>2026-04-15T13:33:45Z</time></trkpt><trkpt lat="43.329840366874755" lon="10.706168335495349"><ele>54.0</ele><time>2026-04-15T13:33:46Z</time></trkpt><trkpt lat="43.32984571250611" lon="10.705883521181256"><ele>55.0</ele><time>2026-04-15T13:33:47Z</time></trkpt><trkpt lat="43.32984805971329" lon="10.705593132555256"><ele>55.0</ele><time>2026-04-15T13:33:48Z</time></trkpt><trkpt lat="43.32985118850189" lon="10.705306899153733"><ele>55.0</ele><time>2026-04-15T13:33:49Z</time></trkpt><trkpt lat="43.32985266072653" lon="10.705019520343042"><ele>55.0</ele><time>2026-04-15T13:33:50Z</time></trkpt><trkpt lat="43.3298469459903" lon="10.704733753101962"><ele>53.666666666666664</ele><time>2026-04-15T13:33:51Z</time></trkpt><trkpt lat="43.32983227419459" lon="10.704447046861931"><ele>52.33333333333333</ele><time>2026-04-15T13:33:52Z</time></trkpt><trkpt lat="43.329803187647684" lon="10.704166253162926"><ele>51.0</ele><time>2026-04-15T13:33:53Z</time></trkpt><trkpt lat="43.32975270398841" lon="10.703883481562784"><ele>49.0</ele><time>2026-04-15T13:33:54Z</time></trkpt><trkpt lat="43.32968898411821" lon="10.703610452572965"><ele>47.0</ele><time>2026-04-15T13:33:55Z</time></trkpt><trkpt lat="43.32961750332907" lon="10.703343215282565"><ele>45.0</ele><time>2026-04-15T13:33:56Z</time></trkpt><trkpt lat="43.329546131996615" lon="10.703077777848625"><ele>45.0</ele><time>2026-04-15T13:33:57Z</time></trkpt><trkpt lat="43.32948139905627" lon="10.702819319296818"><ele>45.0</ele><time>2026-04-15T13:33:58Z</time></trkpt><trkpt lat="43.32941902630409" lon="10.702562803343085"><ele>45.0</ele><time>2026-04-15T13:33:59Z</time></trkpt><trkpt lat="43.32936009326536" lon="10.702316536337229"><ele>45.333333333333336</ele><time>2026-04-15T13:34:00Z</time></trkpt><trkpt lat="43.329300499324106" lon="10.702081387488793"><ele>45.66666666666667</ele><time>2026-04-15T13:34:01Z</time></trkpt><trkpt lat="43.329242926291464" lon="10.701857794638263"><ele>46.0</ele><time>2026-04-15T13:34:02Z</time></trkpt><trkpt lat="43.329187095770735" lon="10.701628984478525"><ele>47.0</ele><time>2026-04-15T13:34:03Z</time></trkpt><trkpt lat="43.32916551540844" lon="10.701400918849869"><ele>48.0</ele><time>2026-04-15T13:34:04Z</time></trkpt><trkpt lat="43.32913935745959" lon="10.701171254402173"><ele>49.0</ele><time>2026-04-15T13:34:05Z</time></trkpt><trkpt lat="43.32912301627973" lon="10.700950309544568"><ele>50.0</ele><time>2026-04-15T13:34:06Z</time></trkpt><trkpt lat="43.32912055164722" lon="10.70072038276183"><ele>51.0</ele><time>2026-04-15T13:34:07Z</time></trkpt><trkpt lat="43.32912055164802" lon="10.700493990300231"><ele>52.0</ele><time>2026-04-15T13:34:08Z</time></trkpt><trkpt lat="43.32912115277888" lon="10.700270868676308"><ele>52.0</ele><time>2026-04-15T13:34:09Z</time></trkpt><trkpt lat="43.32914448589531" lon="10.700049608151653"><ele>52.0</ele><time>2026-04-15T13:34:10Z</time></trkpt><trkpt lat="43.32917971864765" lon="10.699816704212772"><ele>52.0</ele><time>2026-04-15T13:34:11Z</time></trkpt><trkpt lat="43.32922358268891" lon="10.69959185468807"><ele>50.0</ele><time>2026-04-15T13:34:12Z</time></trkpt><trkpt lat="43.329287973705796" lon="10.699359286511314"><ele>48.0</ele><time>2026-04-15T13:34:13Z</time></trkpt><trkpt lat="43.329360119352614" lon="10.699131413958618"><ele>46.0</ele><time>2026-04-15T13:34:14Z</time></trkpt><trkpt lat="43.32944004609333" lon="10.698899129378685"><ele>46.0</ele><time>2026-04-15T13:34:15Z</time></trkpt><trkpt lat="43.32952556099297" lon="10.698663890805301"><ele>46.0</ele><time>2026-04-15T13:34:16Z</time></trkpt><trkpt lat="43.32961487953207" lon="10.698424009552019"><ele>46.0</ele><time>2026-04-15T13:34:17Z</time></trkpt><trkpt lat="43.32970214662221" lon="10.698185967757462"><ele>46.333333333333336</ele><time>2026-04-15T13:34:18Z</time></trkpt><trkpt lat="43.32978888748241" lon="10.697943387484306"><ele>46.666666666666664</ele><time>2026-04-15T13:34:19Z</time></trkpt><trkpt lat="43.32987397217008" lon="10.697704562838227"><ele>47.0</ele><time>2026-04-15T13:34:20Z</time></trkpt><trkpt lat="43.329954513019366" lon="10.697459746239515"><ele>45.666666666666664</ele><time>2026-04-15T13:34:21Z</time></trkpt><trkpt lat="43.330023941432245" lon="10.697210976227405"><ele>44.333333333333336</ele><time>2026-04-15T13:34:22Z</time></trkpt><trkpt lat="43.33008289448379" lon="10.69695383729537"><ele>43.0</ele><time>2026-04-15T13:34:23Z</time></trkpt><trkpt lat="43.33013238367552" lon="10.696698365557006"><ele>43.0</ele><time>2026-04-15T13:34:24Z</time></trkpt><trkpt lat="43.33017328537943" lon="10.696440045064488"><ele>43.0</ele><time>2026-04-15T13:34:25Z</time></trkpt><trkpt lat="43.330210332667306" lon="10.69616801191411"><ele>43.0</ele><time>2026-04-15T13:34:26Z</time></trkpt><trkpt lat="43.33024238758745" lon="10.695895430884272"><ele>43.333333333333336</ele><time>2026-04-15T13:34:27Z</time></trkpt><trkpt lat="43.330272923718006" lon="10.695626618723086"><ele>43.666666666666664</ele><time>2026-04-15T13:34:28Z</time></trkpt><trkpt lat="43.330301170453275" lon="10.695345314040923"><ele>44.0</ele><time>2026-04-15T13:34:29Z</time></trkpt><trkpt lat="43.33032457803537" lon="10.695068184078357"><ele>44.0</ele><time>2026-04-15T13:34:30Z</time></trkpt><trkpt lat="43.33033369592006" lon="10.694784877861181"><ele>44.0</ele><time>2026-04-15T13:34:31Z</time></trkpt><trkpt lat="43.33032855497081" lon="10.694491280140916"><ele>44.0</ele><time>2026-04-15T13:34:32Z</time></trkpt><trkpt lat="43.33030894592722" lon="10.694209945999777"><ele>44.666666666666664</ele><time>2026-04-15T13:34:33Z</time></trkpt><trkpt lat="43.33027469729643" lon="10.693942156224812"><ele>45.333333333333336</ele><time>2026-04-15T13:34:34Z</time></trkpt><trkpt lat="43.330234897560935" lon="10.693679172523698"><ele>46.0</ele><time>2026-04-15T13:34:35Z</time></trkpt><trkpt lat="43.33019085033117" lon="10.693426703637291"><ele>46.0</ele><time>2026-04-15T13:34:36Z</time></trkpt><trkpt lat="43.330145179323935" lon="10.693175248298738"><ele>46.0</ele><time>2026-04-15T13:34:37Z</time></trkpt><trkpt lat="43.33009923307467" lon="10.69291838031433"><ele>46.0</ele><time>2026-04-15T13:34:38Z</time></trkpt><trkpt lat="43.33005069464699" lon="10.692661811312135"><ele>46.0</ele><time>2026-04-15T13:34:39Z</time></trkpt><trkpt lat="43.330000832135354" lon="10.692409098063484"><ele>46.0</ele><time>2026-04-15T13:34:40Z</time></trkpt><trkpt lat="43.329944024199236" lon="10.692146490740221"><ele>46.0</ele><time>2026-04-15T13:34:41Z</time></trkpt><trkpt lat="43.32988148617881" lon="10.691891896307661"><ele>44.66666666666667</ele><time>2026-04-15T13:34:42Z</time></trkpt><trkpt lat="43.32980838098783" lon="10.691624659379173"><ele>43.333333333333336</ele><time>2026-04-15T13:34:43Z</time></trkpt><trkpt lat="43.32972417182915" lon="10.691355239292731"><ele>42.0</ele><time>2026-04-15T13:34:44Z</time></trkpt><trkpt lat="43.3296351188693" lon="10.69109201715418"><ele>41.666666666666664</ele><time>2026-04-15T13:34:45Z</time></trkpt><trkpt lat="43.32953566312777" lon="10.690832936678493"><ele>41.33333333333333</ele><time>2026-04-15T13:34:46Z</time></trkpt><trkpt lat="43.329430135631874" lon="10.690580439670741"><ele>41.0</ele><time>2026-04-15T13:34:47Z</time></trkpt><trkpt lat="43.32932504257768" lon="10.690334440028003"><ele>41.33333333333333</ele><time>2026-04-15T13:34:48Z</time></trkpt><trkpt lat="43.3292270072696" lon="10.690092519285407"><ele>41.666666666666664</ele><time>2026-04-15T13:34:49Z</time></trkpt><trkpt lat="43.32913085512484" lon="10.68984855613884"><ele>42.0</ele><time>2026-04-15T13:34:50Z</time></trkpt><trkpt lat="43.32903637448695" lon="10.689603171547796"><ele>41.666666666666664</ele><time>2026-04-15T13:34:51Z</time></trkpt><trkpt lat="43.32894234784857" lon="10.689362467478972"><ele>41.33333333333333</ele><time>2026-04-15T13:34:52Z</time></trkpt><trkpt lat="43.32884610335515" lon="10.68911462777555"><ele>41.0</ele><time>2026-04-15T13:34:53Z</time></trkpt><trkpt lat="43.32875073802758" lon="10.688860482251911"><ele>41.0</ele><time>2026-04-15T13:34:54Z</time></trkpt><trkpt lat="43.3286622424269" lon="10.688605733035693"><ele>41.0</ele><time>2026-04-15T13:34:55Z</time></trkpt><trkpt lat="43.32858189643626" lon="10.688338907512021"><ele>41.0</ele><time>2026-04-15T13:34:56Z</time></trkpt><trkpt lat="43.32851222388707" lon="10.688061271745878"><ele>41.666666666666664</ele><time>2026-04-15T13:34:57Z</time></trkpt><trkpt lat="43.32845300580418" lon="10.687779499826439"><ele>42.333333333333336</ele><time>2026-04-15T13:34:58Z</time></trkpt><trkpt lat="43.32841212765077" lon="10.687502931066488"><ele>43.0</ele><time>2026-04-15T13:34:59Z</time></trkpt><trkpt lat="43.32838522210508" lon="10.687232009353803"><ele>43.333333333333336</ele><time>2026-04-15T13:35:00Z</time></trkpt><trkpt lat="43.328371440889974" lon="10.686965785701878"><ele>43.666666666666664</ele><time>2026-04-15T13:35:01Z</time></trkpt><trkpt lat="43.32837274002406" lon="10.686698811109732"><ele>44.0</ele><time>2026-04-15T13:35:02Z</time></trkpt><trkpt lat="43.32838161490957" lon="10.686428316656203"><ele>44.33333333333333</ele><time>2026-04-15T13:35:03Z</time></trkpt><trkpt lat="43.32840315887596" lon="10.686157426541248"><ele>44.666666666666664</ele><time>2026-04-15T13:35:04Z</time></trkpt><trkpt lat="43.328436047291206" lon="10.685881574982899"><ele>45.0</ele><time>2026-04-15T13:35:05Z</time></trkpt><trkpt lat="43.32848012345801" lon="10.685603049962689"><ele>45.0</ele><time>2026-04-15T13:35:06Z</time></trkpt><trkpt lat="43.32853709766384" lon="10.685324291969907"><ele>45.0</ele><time>2026-04-15T13:35:07Z</time></trkpt><trkpt lat="43.32860397253288" lon="10.68504835110325"><ele>45.0</ele><time>2026-04-15T13:35:08Z</time></trkpt><trkpt lat="43.32867791238691" lon="10.684773877855754"><ele>44.666666666666664</ele><time>2026-04-15T13:35:09Z</time></trkpt><trkpt lat="43.328751208865626" lon="10.684498301836138"><ele>44.33333333333333</ele><time>2026-04-15T13:35:10Z</time></trkpt><trkpt lat="43.32882801371016" lon="10.68421260094754"><ele>44.0</ele><time>2026-04-15T13:35:11Z</time></trkpt><trkpt lat="43.32890314735803" lon="10.683927167393032"><ele>44.0</ele><time>2026-04-15T13:35:12Z</time></trkpt><trkpt lat="43.32897499672028" lon="10.683644956938263"><ele>44.0</ele><time>2026-04-15T13:35:13Z</time></trkpt><trkpt lat="43.329043611279" lon="10.683359367558483"><ele>44.0</ele><time>2026-04-15T13:35:14Z</time></trkpt><trkpt lat="43.329111298787815" lon="10.683071765825089"><ele>43.33333333333333</ele><time>2026-04-15T13:35:15Z</time></trkpt><trkpt lat="43.32917309449337" lon="10.682780684968515"><ele>42.666666666666664</ele><time>2026-04-15T13:35:16Z</time></trkpt><trkpt lat="43.32923382460457" lon="10.682485444979815"><ele>42.0</ele><time>2026-04-15T13:35:17Z</time></trkpt><trkpt lat="43.32929090035535" lon="10.682194263425783"><ele>40.666666666666664</ele><time>2026-04-15T13:35:18Z</time></trkpt><trkpt lat="43.329345493926006" lon="10.681900862841438"><ele>39.33333333333333</ele><time>2026-04-15T13:35:19Z</time></trkpt><trkpt lat="43.32939634878152" lon="10.681605300770313"><ele>38.0</ele><time>2026-04-15T13:35:20Z</time></trkpt><trkpt lat="43.32944615082275" lon="10.681313082682042"><ele>38.0</ele><time>2026-04-15T13:35:21Z</time></trkpt><trkpt lat="43.32949673214997" lon="10.681021590042397"><ele>38.0</ele><time>2026-04-15T13:35:22Z</time></trkpt><trkpt lat="43.32954577595469" lon="10.680727935836993"><ele>38.0</ele><time>2026-04-15T13:35:23Z</time></trkpt><trkpt lat="43.32958689206089" lon="10.680437742877604"><ele>38.33333333333333</ele><time>2026-04-15T13:35:24Z</time></trkpt><trkpt lat="43.329624148007625" lon="10.680136570324738"><ele>38.666666666666664</ele><time>2026-04-15T13:35:25Z</time></trkpt><trkpt lat="43.32965601485224" lon="10.679836060122954"><ele>39.0</ele><time>2026-04-15T13:35:26Z</time></trkpt><trkpt lat="43.32968449391982" lon="10.679530650892957"><ele>38.666666666666664</ele><time>2026-04-15T13:35:27Z</time></trkpt><trkpt lat="43.32971253899333" lon="10.679222417774293"><ele>38.33333333333333</ele><time>2026-04-15T13:35:28Z</time></trkpt><trkpt lat="43.32973692353743" lon="10.67891895007915"><ele>38.0</ele><time>2026-04-15T13:35:29Z</time></trkpt><trkpt lat="43.32976299373649" lon="10.678607485863438"><ele>43.5</ele><time>2026-04-15T13:35:30Z</time></trkpt><trkpt lat="43.32978726479601" lon="10.678293598042417"><ele>49.0</ele><time>2026-04-15T13:35:31Z</time></trkpt><trkpt lat="43.32980817152605" lon="10.677983459401336"><ele>45.0</ele><time>2026-04-15T13:35:32Z</time></trkpt><trkpt lat="43.32982518637605" lon="10.67766850965045"><ele>41.0</ele><time>2026-04-15T13:35:33Z</time></trkpt><trkpt lat="43.32983744659813" lon="10.677360374288902"><ele>41.0</ele><time>2026-04-15T13:35:34Z</time></trkpt><trkpt lat="43.32984456656014" lon="10.677066913010766"><ele>41.0</ele><time>2026-04-15T13:35:35Z</time></trkpt><trkpt lat="43.329847769510344" lon="10.676780615086557"><ele>41.0</ele><time>2026-04-15T13:35:36Z</time></trkpt><trkpt lat="43.32984771351376" lon="10.676503443130484"><ele>40.0</ele><time>2026-04-15T13:35:37Z</time></trkpt><trkpt lat="43.329844719114924" lon="10.676234978894339"><ele>39.0</ele><time>2026-04-15T13:35:38Z</time></trkpt><trkpt lat="43.32984001386384" lon="10.67597235107842"><ele>38.0</ele><time>2026-04-15T13:35:39Z</time></trkpt><trkpt lat="43.32983369644682" lon="10.675719098824816"><ele>38.0</ele><time>2026-04-15T13:35:40Z</time></trkpt><trkpt lat="43.32982704024181" lon="10.67546927051426"><ele>38.0</ele><time>2026-04-15T13:35:41Z</time></trkpt><trkpt lat="43.32981721835429" lon="10.675227150200094"><ele>38.0</ele><time>2026-04-15T13:35:42Z</time></trkpt><trkpt lat="43.32980683778967" lon="10.674993904878646"><ele>38.0</ele><time>2026-04-15T13:35:43Z</time></trkpt><trkpt lat="43.32979563619977" lon="10.674759949471149"><ele>38.0</ele><time>2026-04-15T13:35:44Z</time></trkpt><trkpt lat="43.32978156388906" lon="10.67453080215231"><ele>38.0</ele><time>2026-04-15T13:35:45Z</time></trkpt><trkpt lat="43.32976714799479" lon="10.674317159837223"><ele>38.0</ele><time>2026-04-15T13:35:46Z</time></trkpt><trkpt lat="43.32975188190013" lon="10.674099479181962"><ele>38.0</ele><time>2026-04-15T13:35:47Z</time></trkpt><trkpt lat="43.329735248073334" lon="10.673885857060359"><ele>38.0</ele><time>2026-04-15T13:35:48Z</time></trkpt><trkpt lat="43.329716761793925" lon="10.673674793012497"><ele>37.666666666666664</ele><time>2026-04-15T13:35:49Z</time></trkpt><trkpt lat="43.3296955311895" lon="10.673468631571437"><ele>37.333333333333336</ele><time>2026-04-15T13:35:50Z</time></trkpt><trkpt lat="43.329674132449775" lon="10.673257751501202"><ele>37.0</ele><time>2026-04-15T13:35:51Z</time></trkpt><trkpt lat="43.32965448708443" lon="10.673057186571498"><ele>37.0</ele><time>2026-04-15T13:35:52Z</time></trkpt><trkpt lat="43.329631280262724" lon="10.672854737359751"><ele>37.0</ele><time>2026-04-15T13:35:53Z</time></trkpt><trkpt lat="43.32960510309187" lon="10.672647675271023"><ele>37.0</ele><time>2026-04-15T13:35:54Z</time></trkpt><trkpt lat="43.329578229279655" lon="10.672452074241244"><ele>37.0</ele><time>2026-04-15T13:35:55Z</time></trkpt><trkpt lat="43.3295520192114" lon="10.672259530644936"><ele>37.25</ele><time>2026-04-15T13:35:56Z</time></trkpt><trkpt lat="43.32952642645194" lon="10.672075222010971"><ele>37.5</ele><time>2026-04-15T13:35:57Z</time></trkpt><trkpt lat="43.32949965840634" lon="10.671886712319125"><ele>37.75</ele><time>2026-04-15T13:35:58Z</time></trkpt><trkpt lat="43.329474338739516" lon="10.671717230190714"><ele>38.0</ele><time>2026-04-15T13:35:59Z</time></trkpt><trkpt lat="43.329447523286255" lon="10.67155757683247"><ele>38.0</ele><time>2026-04-15T13:36:00Z</time></trkpt><trkpt lat="43.3294215885559" lon="10.671409039485876"><ele>38.0</ele><time>2026-04-15T13:36:01Z</time></trkpt><trkpt lat="43.329400016232384" lon="10.671269319017458"><ele>38.0</ele><time>2026-04-15T13:36:02Z</time></trkpt><trkpt lat="43.32937814672453" lon="10.671124186404972"><ele>38.0</ele><time>2026-04-15T13:36:03Z</time></trkpt><trkpt lat="43.3293598500174" lon="10.670980382070121"><ele>38.0</ele><time>2026-04-15T13:36:04Z</time></trkpt><trkpt lat="43.329342639198295" lon="10.670838604341652"><ele>37.8</ele><time>2026-04-15T13:36:05Z</time></trkpt><trkpt lat="43.329329242440856" lon="10.670709138899777"><ele>37.599999999999994</ele><time>2026-04-15T13:36:06Z</time></trkpt><trkpt lat="43.329325303073276" lon="10.670578746979096"><ele>37.400000000000006</ele><time>2026-04-15T13:36:07Z</time></trkpt><trkpt lat="43.32932927671918" lon="10.670441488942066"><ele>37.2</ele><time>2026-04-15T13:36:08Z</time></trkpt><trkpt lat="43.32931989854291" lon="10.670290016058713"><ele>37.0</ele><time>2026-04-15T13:36:09Z</time></trkpt><trkpt lat="43.32922860542506" lon="10.669992237173714"><ele>36.5</ele><time>2026-04-15T13:36:11Z</time></trkpt><trkpt lat="43.32918340114031" lon="10.669825738840723"><ele>36.0</ele><time>2026-04-15T13:36:12Z</time></trkpt><trkpt lat="43.3291509442654" lon="10.669646876095655"><ele>35.5</ele><time>2026-04-15T13:36:13Z</time></trkpt><trkpt lat="43.32912142648117" lon="10.669459595236752"><ele>35.0</ele><time>2026-04-15T13:36:14Z</time></trkpt><trkpt lat="43.32909425142998" lon="10.66927447213838"><ele>34.75</ele><time>2026-04-15T13:36:15Z</time></trkpt><trkpt lat="43.3290680148999" lon="10.66910024183371"><ele>34.5</ele><time>2026-04-15T13:36:16Z</time></trkpt><trkpt lat="43.32904253400884" lon="10.668926334405851"><ele>34.25</ele><time>2026-04-15T13:36:17Z</time></trkpt><trkpt lat="43.32901734713251" lon="10.66875849728375"><ele>34.0</ele><time>2026-04-15T13:36:18Z</time></trkpt><trkpt lat="43.328992737517474" lon="10.668604125703563"><ele>34.4</ele><time>2026-04-15T13:36:19Z</time></trkpt><trkpt lat="43.32897073987854" lon="10.66845930561672"><ele>34.8</ele><time>2026-04-15T13:36:20Z</time></trkpt><trkpt lat="43.32894957472281" lon="10.66831360401834"><ele>35.2</ele><time>2026-04-15T13:36:21Z</time></trkpt><trkpt lat="43.32892795446408" lon="10.668163054254002"><ele>35.6</ele><time>2026-04-15T13:36:22Z</time></trkpt><trkpt lat="43.32890420201195" lon="10.668003040929092"><ele>36.0</ele><time>2026-04-15T13:36:23Z</time></trkpt><trkpt lat="43.32887679864037" lon="10.66782853730942"><ele>36.25</ele><time>2026-04-15T13:36:24Z</time></trkpt><trkpt lat="43.328849193348816" lon="10.667651771125316"><ele>36.5</ele><time>2026-04-15T13:36:25Z</time></trkpt><trkpt lat="43.32882200858023" lon="10.667463142633942"><ele>36.75</ele><time>2026-04-15T13:36:26Z</time></trkpt><trkpt lat="43.32879304380947" lon="10.667264492880529"><ele>37.0</ele><time>2026-04-15T13:36:27Z</time></trkpt><trkpt lat="43.32876395001059" lon="10.66706966210842"><ele>37.0</ele><time>2026-04-15T13:36:28Z</time></trkpt><trkpt lat="43.32873088766991" lon="10.66686567989729"><ele>37.0</ele><time>2026-04-15T13:36:29Z</time></trkpt><trkpt lat="43.32869485174494" lon="10.666647364505117"><ele>37.0</ele><time>2026-04-15T13:36:30Z</time></trkpt><trkpt lat="43.328661036118206" lon="10.666429740076781"><ele>37.0</ele><time>2026-04-15T13:36:31Z</time></trkpt><trkpt lat="43.32862924747338" lon="10.666214019228347"><ele>37.0</ele><time>2026-04-15T13:36:32Z</time></trkpt><trkpt lat="43.32859898972808" lon="10.66599643143625"><ele>37.0</ele><time>2026-04-15T13:36:33Z</time></trkpt><trkpt lat="43.32857719576848" lon="10.665772591988809"><ele>37.333333333333336</ele><time>2026-04-15T13:36:34Z</time></trkpt><trkpt lat="43.3285644198293" lon="10.66554817128453"><ele>37.666666666666664</ele><time>2026-04-15T13:36:35Z</time></trkpt><trkpt lat="43.328552130145894" lon="10.665319423278582"><ele>38.0</ele><time>2026-04-15T13:36:36Z</time></trkpt><trkpt lat="43.32853646490968" lon="10.66508936417795"><ele>38.0</ele><time>2026-04-15T13:36:37Z</time></trkpt><trkpt lat="43.32851743109736" lon="10.664845308567015"><ele>38.0</ele><time>2026-04-15T13:36:38Z</time></trkpt><trkpt lat="43.32849959079905" lon="10.66459394130477"><ele>38.0</ele><time>2026-04-15T13:36:39Z</time></trkpt><trkpt lat="43.328482816943946" lon="10.664339427085485"><ele>37.0</ele><time>2026-04-15T13:36:40Z</time></trkpt><trkpt lat="43.32847571834503" lon="10.664084703093767"><ele>36.0</ele><time>2026-04-15T13:36:41Z</time></trkpt><trkpt lat="43.328492695909716" lon="10.663843713856275"><ele>35.0</ele><time>2026-04-15T13:36:42Z</time></trkpt><trkpt lat="43.32854077990473" lon="10.663604518300836"><ele>35.0</ele><time>2026-04-15T13:36:43Z</time></trkpt><trkpt lat="43.328606113901046" lon="10.663388942300864"><ele>35.0</ele><time>2026-04-15T13:36:44Z</time></trkpt><trkpt lat="43.32868138447662" lon="10.66320160640795"><ele>35.0</ele><time>2026-04-15T13:36:45Z</time></trkpt><trkpt lat="43.32876981020884" lon="10.66301955936478"><ele>35.0</ele><time>2026-04-15T13:36:46Z</time></trkpt><trkpt lat="43.32886659428863" lon="10.662859550014588"><ele>35.0</ele><time>2026-04-15T13:36:47Z</time></trkpt><trkpt lat="43.328977139423735" lon="10.66272729510662"><ele>35.0</ele><time>2026-04-15T13:36:48Z</time></trkpt><trkpt lat="43.32910436069678" lon="10.662609490811027"><ele>35.0</ele><time>2026-04-15T13:36:49Z</time></trkpt><trkpt lat="43.32924371576598" lon="10.662506539022182"><ele>35.0</ele><time>2026-04-15T13:36:50Z</time></trkpt><trkpt lat="43.32938371247804" lon="10.662421716080956"><ele>35.0</ele><time>2026-04-15T13:36:51Z</time></trkpt><trkpt lat="43.329525063351156" lon="10.662348688459291"><ele>35.0</ele><time>2026-04-15T13:36:52Z</time></trkpt><trkpt lat="43.32967022725867" lon="10.662287678470195"><ele>35.0</ele><time>2026-04-15T13:36:53Z</time></trkpt><trkpt lat="43.329817487617184" lon="10.662227015077235"><ele>35.0</ele><time>2026-04-15T13:36:54Z</time></trkpt><trkpt lat="43.329976526648394" lon="10.662156609882723"><ele>35.33333333333333</ele><time>2026-04-15T13:36:55Z</time></trkpt><trkpt lat="43.330145074813025" lon="10.66207708619918"><ele>35.666666666666664</ele><time>2026-04-15T13:36:56Z</time></trkpt><trkpt lat="43.330320840026076" lon="10.661991293961162"><ele>36.0</ele><time>2026-04-15T13:36:57Z</time></trkpt><trkpt lat="43.3305029425644" lon="10.661899044077412"><ele>37.333333333333336</ele><time>2026-04-15T13:36:58Z</time></trkpt><trkpt lat="43.33068625753203" lon="10.661798752863584"><ele>38.66666666666667</ele><time>2026-04-15T13:36:59Z</time></trkpt><trkpt lat="43.33086983904852" lon="10.661687109432938"><ele>40.0</ele><time>2026-04-15T13:37:00Z</time></trkpt><trkpt lat="43.33103715791765" lon="10.66156763096114"><ele>40.0</ele><time>2026-04-15T13:37:01Z</time></trkpt><trkpt lat="43.33118867532528" lon="10.661437046261833"><ele>40.0</ele><time>2026-04-15T13:37:02Z</time></trkpt><trkpt lat="43.3313394590201" lon="10.661298662272022"><ele>40.0</ele><time>2026-04-15T13:37:03Z</time></trkpt><trkpt lat="43.33148534591608" lon="10.661152525322393"><ele>38.66666666666667</ele><time>2026-04-15T13:37:04Z</time></trkpt><trkpt lat="43.33163347618687" lon="10.660994442086585"><ele>37.333333333333336</ele><time>2026-04-15T13:37:05Z</time></trkpt><trkpt lat="43.331785814324654" lon="10.660821150518315"><ele>36.0</ele><time>2026-04-15T13:37:06Z</time></trkpt><trkpt lat="43.33193893358991" lon="10.660641353799743"><ele>36.0</ele><time>2026-04-15T13:37:07Z</time></trkpt><trkpt lat="43.33209442780626" lon="10.660439985263121"><ele>36.0</ele><time>2026-04-15T13:37:08Z</time></trkpt><trkpt lat="43.33224412335575" lon="10.660220068608556"><ele>36.0</ele><time>2026-04-15T13:37:09Z</time></trkpt><trkpt lat="43.332382152217406" lon="10.659990270225537"><ele>35.666666666666664</ele><time>2026-04-15T13:37:10Z</time></trkpt><trkpt lat="43.33250599443997" lon="10.659770069883663"><ele>35.33333333333333</ele><time>2026-04-15T13:37:11Z</time></trkpt><trkpt lat="43.33262193973739" lon="10.65955893721759"><ele>35.0</ele><time>2026-04-15T13:37:12Z</time></trkpt><trkpt lat="43.33273264421461" lon="10.659359668098126"><ele>35.0</ele><time>2026-04-15T13:37:13Z</time></trkpt><trkpt lat="43.332841350285214" lon="10.659159254021025"><ele>35.0</ele><time>2026-04-15T13:37:14Z</time></trkpt><trkpt lat="43.33295260253136" lon="10.658948470492415"><ele>35.0</ele><time>2026-04-15T13:37:15Z</time></trkpt><trkpt lat="43.33306078011132" lon="10.658742330766865"><ele>34.0</ele><time>2026-04-15T13:37:16Z</time></trkpt><trkpt lat="43.33318184066908" lon="10.6585238902627"><ele>33.0</ele><time>2026-04-15T13:37:17Z</time></trkpt><trkpt lat="43.333300229310574" lon="10.658311820840474"><ele>32.0</ele><time>2026-04-15T13:37:18Z</time></trkpt><trkpt lat="43.333423070425106" lon="10.6580911666926"><ele>32.0</ele><time>2026-04-15T13:37:19Z</time></trkpt><trkpt lat="43.333546302667315" lon="10.657859506397546"><ele>32.0</ele><time>2026-04-15T13:37:20Z</time></trkpt><trkpt lat="43.33367193169273" lon="10.657613964773194"><ele>32.0</ele><time>2026-04-15T13:37:21Z</time></trkpt><trkpt lat="43.33380172375009" lon="10.657362201261432"><ele>32.5</ele><time>2026-04-15T13:37:22Z</time></trkpt><trkpt lat="43.33394348053426" lon="10.657105682196864"><ele>33.0</ele><time>2026-04-15T13:37:23Z</time></trkpt><trkpt lat="43.33409553590772" lon="10.656827247938542"><ele>33.0</ele><time>2026-04-15T13:37:24Z</time></trkpt><trkpt lat="43.33427354513475" lon="10.656523683074381"><ele>33.0</ele><time>2026-04-15T13:37:25Z</time></trkpt><trkpt lat="43.33445643842763" lon="10.656187011364931"><ele>32.0</ele><time>2026-04-15T13:37:26Z</time></trkpt><trkpt lat="43.334643394040086" lon="10.655842861746121"><ele>31.0</ele><time>2026-04-15T13:37:27Z</time></trkpt><trkpt lat="43.33482697933531" lon="10.655505039246"><ele>32.0</ele><time>2026-04-15T13:37:28Z</time></trkpt><trkpt lat="43.33500590699792" lon="10.655175810918708"><ele>33.0</ele><time>2026-04-15T13:37:29Z</time></trkpt><trkpt lat="43.335185549600716" lon="10.654845630509456"><ele>33.0</ele><time>2026-04-15T13:37:30Z</time></trkpt><trkpt lat="43.33535889454037" lon="10.654534797672081"><ele>33.0</ele><time>2026-04-15T13:37:31Z</time></trkpt><trkpt lat="43.335677235528465" lon="10.653969525311423"><ele>33.0</ele><time>2026-04-15T13:37:33Z</time></trkpt><trkpt lat="43.335828676940366" lon="10.653717441467528"><ele>33.0</ele><time>2026-04-15T13:37:34Z</time></trkpt><trkpt lat="43.33596144507" lon="10.653492582106237"><ele>33.0</ele><time>2026-04-15T13:37:35Z</time></trkpt><trkpt lat="43.336078011616316" lon="10.653298886469639"><ele>33.0</ele><time>2026-04-15T13:37:36Z</time></trkpt><trkpt lat="43.336181630303344" lon="10.653140223347172"><ele>33.0</ele><time>2026-04-15T13:37:37Z</time></trkpt><trkpt lat="43.33628177850179" lon="10.653020661717386"><ele>33.0</ele><time>2026-04-15T13:37:38Z</time></trkpt><trkpt lat="43.33638994637657" lon="10.652959069469228"><ele>33.0</ele><time>2026-04-15T13:37:39Z</time></trkpt><trkpt lat="43.336503513763425" lon="10.652941919869372"><ele>33.0</ele><time>2026-04-15T13:37:40Z</time></trkpt><trkpt lat="43.33658912826357" lon="10.652882181312684"><ele>33.0</ele><time>2026-04-15T13:37:41Z</time></trkpt><trkpt lat="43.3366372045479" lon="10.65273744599246"><ele>33.0</ele><time>2026-04-15T13:37:42Z</time></trkpt><trkpt lat="43.336657854163185" lon="10.652540827773418"><ele>33.0</ele><time>2026-04-15T13:37:43Z</time></trkpt><trkpt lat="43.336697241350286" lon="10.652326031386771"><ele>33.0</ele><time>2026-04-15T13:37:44Z</time></trkpt><trkpt lat="43.33682643335994" lon="10.652144945339566"><ele>33.0</ele><time>2026-04-15T13:37:45Z</time></trkpt><trkpt lat="43.33696999347357" lon="10.651909828294412"><ele>33.0</ele><time>2026-04-15T13:37:46Z</time></trkpt><trkpt lat="43.33714661425346" lon="10.651683948801887"><ele>32.5</ele><time>2026-04-15T13:37:47Z</time></trkpt><trkpt lat="43.33732686318672" lon="10.65143373891825"><ele>32.0</ele><time>2026-04-15T13:37:48Z</time></trkpt><trkpt lat="43.33751812135992" lon="10.65115522370817"><ele>31.5</ele><time>2026-04-15T13:37:49Z</time></trkpt><trkpt lat="43.337710017191405" lon="10.650872793189695"><ele>31.0</ele><time>2026-04-15T13:37:50Z</time></trkpt><trkpt lat="43.33790713493787" lon="10.650582588785165"><ele>31.5</ele><time>2026-04-15T13:37:51Z</time></trkpt><trkpt lat="43.338102415953415" lon="10.65028956038568"><ele>32.0</ele><time>2026-04-15T13:37:52Z</time></trkpt><trkpt lat="43.33827925439879" lon="10.649990269409054"><ele>32.0</ele><time>2026-04-15T13:37:53Z</time></trkpt><trkpt lat="43.33843756615173" lon="10.64968116072442"><ele>32.0</ele><time>2026-04-15T13:37:54Z</time></trkpt><trkpt lat="43.33857781885634" lon="10.649356712465066"><ele>32.0</ele><time>2026-04-15T13:37:55Z</time></trkpt><trkpt lat="43.33870101950604" lon="10.649026339207898"><ele>32.0</ele><time>2026-04-15T13:37:56Z</time></trkpt><trkpt lat="43.338818329432556" lon="10.648680836589389"><ele>32.0</ele><time>2026-04-15T13:37:57Z</time></trkpt><trkpt lat="43.33892102006793" lon="10.648331698070036"><ele>32.0</ele><time>2026-04-15T13:37:58Z</time></trkpt><trkpt lat="43.33901742467787" lon="10.647973384286038"><ele>32.0</ele><time>2026-04-15T13:37:59Z</time></trkpt><trkpt lat="43.339107548043685" lon="10.64761380774366"><ele>32.0</ele><time>2026-04-15T13:38:00Z</time></trkpt><trkpt lat="43.339219344202995" lon="10.64726382411196"><ele>32.0</ele><time>2026-04-15T13:38:01Z</time></trkpt><trkpt lat="43.33928194761716" lon="10.646878158810276"><ele>32.0</ele><time>2026-04-15T13:38:02Z</time></trkpt><trkpt lat="43.33936720559672" lon="10.646520888579888"><ele>32.0</ele><time>2026-04-15T13:38:03Z</time></trkpt><trkpt lat="43.3394502238582" lon="10.646170599941167"><ele>32.0</ele><time>2026-04-15T13:38:04Z</time></trkpt><trkpt lat="43.339535738125754" lon="10.645812855580939"><ele>31.5</ele><time>2026-04-15T13:38:05Z</time></trkpt><trkpt lat="43.33962148552243" lon="10.645454359603523"><ele>31.0</ele><time>2026-04-15T13:38:06Z</time></trkpt><trkpt lat="43.33970745306848" lon="10.645096649236649"><ele>31.0</ele><time>2026-04-15T13:38:07Z</time></trkpt><trkpt lat="43.33979629462754" lon="10.644733630274924"><ele>31.0</ele><time>2026-04-15T13:38:08Z</time></trkpt><trkpt lat="43.3398866179332" lon="10.644367013807704"><ele>31.5</ele><time>2026-04-15T13:38:09Z</time></trkpt><trkpt lat="43.33998535253964" lon="10.644002176874066"><ele>32.0</ele><time>2026-04-15T13:38:10Z</time></trkpt><trkpt lat="43.340108242584435" lon="10.643647886599085"><ele>31.5</ele><time>2026-04-15T13:38:11Z</time></trkpt><trkpt lat="43.34025659673193" lon="10.64331576837339"><ele>31.0</ele><time>2026-04-15T13:38:12Z</time></trkpt><trkpt lat="43.34044323708241" lon="10.64302137370221"><ele>30.5</ele><time>2026-04-15T13:38:13Z</time></trkpt><trkpt lat="43.34064984338156" lon="10.642747973622791"><ele>30.0</ele><time>2026-04-15T13:38:14Z</time></trkpt><trkpt lat="43.34087191884945" lon="10.64248607322818"><ele>30.0</ele><time>2026-04-15T13:38:15Z</time></trkpt><trkpt lat="43.34109754861931" lon="10.642226787553332"><ele>30.0</ele><time>2026-04-15T13:38:16Z</time></trkpt><trkpt lat="43.3413304319678" lon="10.641950241480902"><ele>32.0</ele><time>2026-04-15T13:38:17Z</time></trkpt><trkpt lat="43.34157130491622" lon="10.641658668198618"><ele>34.0</ele><time>2026-04-15T13:38:18Z</time></trkpt><trkpt lat="43.34180773381653" lon="10.641375500529023"><ele>33.0</ele><time>2026-04-15T13:38:19Z</time></trkpt><trkpt lat="43.34202881490635" lon="10.641111708087898"><ele>32.0</ele><time>2026-04-15T13:38:20Z</time></trkpt><trkpt lat="43.34223129493393" lon="10.640869721237813"><ele>35.5</ele><time>2026-04-15T13:38:21Z</time></trkpt><trkpt lat="43.3424281256212" lon="10.640632721800618"><ele>39.0</ele><time>2026-04-15T13:38:22Z</time></trkpt><trkpt lat="43.342624715500314" lon="10.640391515466865"><ele>36.0</ele><time>2026-04-15T13:38:23Z</time></trkpt><trkpt lat="43.342824504066755" lon="10.640139551188309"><ele>33.0</ele><time>2026-04-15T13:38:24Z</time></trkpt><trkpt lat="43.34302132410276" lon="10.639879589990523"><ele>33.0</ele><time>2026-04-15T13:38:25Z</time></trkpt><trkpt lat="43.34321053964789" lon="10.639610327659158"><ele>33.0</ele><time>2026-04-15T13:38:26Z</time></trkpt><trkpt lat="43.34339231727452" lon="10.639333474339862"><ele>33.0</ele><time>2026-04-15T13:38:27Z</time></trkpt><trkpt lat="43.343558203362186" lon="10.639060273832895"><ele>33.0</ele><time>2026-04-15T13:38:28Z</time></trkpt><trkpt lat="43.343703446666936" lon="10.638794748264777"><ele>31.0</ele><time>2026-04-15T13:38:29Z</time></trkpt><trkpt lat="43.343836051088005" lon="10.638523752982335"><ele>29.0</ele><time>2026-04-15T13:38:30Z</time></trkpt><trkpt lat="43.343947589743216" lon="10.63826229190388"><ele>30.333333333333332</ele><time>2026-04-15T13:38:31Z</time></trkpt><trkpt lat="43.34405594400525" lon="10.637997654548007"><ele>31.666666666666664</ele><time>2026-04-15T13:38:32Z</time></trkpt><trkpt lat="43.34416698936342" lon="10.637736198105884"><ele>33.0</ele><time>2026-04-15T13:38:33Z</time></trkpt><trkpt lat="43.34428416045316" lon="10.637478124685986"><ele>33.0</ele><time>2026-04-15T13:38:34Z</time></trkpt><trkpt lat="43.34439834408701" lon="10.637229095764269"><ele>33.0</ele><time>2026-04-15T13:38:35Z</time></trkpt><trkpt lat="43.34451354798254" lon="10.63698309225794"><ele>33.0</ele><time>2026-04-15T13:38:36Z</time></trkpt><trkpt lat="43.34463305016186" lon="10.636738487559755"><ele>34.0</ele><time>2026-04-15T13:38:37Z</time></trkpt><trkpt lat="43.34475771510124" lon="10.636500483788083"><ele>35.0</ele><time>2026-04-15T13:38:38Z</time></trkpt><trkpt lat="43.34488691348475" lon="10.636268695182578"><ele>36.0</ele><time>2026-04-15T13:38:39Z</time></trkpt><trkpt lat="43.34501849881584" lon="10.636036504050017"><ele>36.0</ele><time>2026-04-15T13:38:40Z</time></trkpt><trkpt lat="43.34514940145125" lon="10.63580657914482"><ele>36.0</ele><time>2026-04-15T13:38:41Z</time></trkpt><trkpt lat="43.345278902088644" lon="10.6355775430844"><ele>36.0</ele><time>2026-04-15T13:38:42Z</time></trkpt><trkpt lat="43.3454147193748" lon="10.635338877700182"><ele>37.333333333333336</ele><time>2026-04-15T13:38:43Z</time></trkpt><trkpt lat="43.34554968550722" lon="10.635104082504968"><ele>38.66666666666667</ele><time>2026-04-15T13:38:44Z</time></trkpt><trkpt lat="43.34567876866258" lon="10.634880987994915"><ele>40.0</ele><time>2026-04-15T13:38:45Z</time></trkpt><trkpt lat="43.345804740201665" lon="10.634668369961657"><ele>36.66666666666667</ele><time>2026-04-15T13:38:46Z</time></trkpt><trkpt lat="43.34592797439909" lon="10.634465486600403"><ele>33.333333333333336</ele><time>2026-04-15T13:38:47Z</time></trkpt><trkpt lat="43.34605283240525" lon="10.634264476504082"><ele>30.0</ele><time>2026-04-15T13:38:48Z</time></trkpt><trkpt lat="43.34617565803618" lon="10.634067941643941"><ele>30.0</ele><time>2026-04-15T13:38:49Z</time></trkpt><trkpt lat="43.34629939261709" lon="10.633872123414184"><ele>30.0</ele><time>2026-04-15T13:38:50Z</time></trkpt><trkpt lat="43.34641740659694" lon="10.633682147035563"><ele>30.0</ele><time>2026-04-15T13:38:51Z</time></trkpt><trkpt lat="43.34653147274678" lon="10.633492864408082"><ele>31.0</ele><time>2026-04-15T13:38:52Z</time></trkpt><trkpt lat="43.34664300268773" lon="10.633302214917062"><ele>32.0</ele><time>2026-04-15T13:38:53Z</time></trkpt><trkpt lat="43.346761021333656" lon="10.633106368066509"><ele>33.0</ele><time>2026-04-15T13:38:54Z</time></trkpt><trkpt lat="43.34687517667675" lon="10.63291916414949"><ele>33.666666666666664</ele><time>2026-04-15T13:38:55Z</time></trkpt><trkpt lat="43.34699440692741" lon="10.632729352074893"><ele>34.33333333333333</ele><time>2026-04-15T13:38:56Z</time></trkpt><trkpt lat="43.34711711762346" lon="10.632541889661129"><ele>35.0</ele><time>2026-04-15T13:38:57Z</time></trkpt><trkpt lat="43.34723414771012" lon="10.632364921575501"><ele>35.0</ele><time>2026-04-15T13:38:58Z</time></trkpt><trkpt lat="43.347347621039596" lon="10.63218865089607"><ele>35.0</ele><time>2026-04-15T13:38:59Z</time></trkpt><trkpt lat="43.34745797481019" lon="10.632011612624792"><ele>35.0</ele><time>2026-04-15T13:39:00Z</time></trkpt><trkpt lat="43.34757167481236" lon="10.631822397882962"><ele>34.0</ele><time>2026-04-15T13:39:01Z</time></trkpt><trkpt lat="43.347686798406016" lon="10.63163203867867"><ele>33.0</ele><time>2026-04-15T13:39:02Z</time></trkpt><trkpt lat="43.3478079695481" lon="10.631436657193062"><ele>32.0</ele><time>2026-04-15T13:39:03Z</time></trkpt><trkpt lat="43.347927821022175" lon="10.631242486642138"><ele>31.0</ele><time>2026-04-15T13:39:04Z</time></trkpt><trkpt lat="43.34804788629167" lon="10.631042898060487"><ele>30.0</ele><time>2026-04-15T13:39:05Z</time></trkpt><trkpt lat="43.34816424103257" lon="10.630844065066302"><ele>29.0</ele><time>2026-04-15T13:39:06Z</time></trkpt><trkpt lat="43.34827696875392" lon="10.63064851797238"><ele>29.0</ele><time>2026-04-15T13:39:07Z</time></trkpt><trkpt lat="43.34839358985253" lon="10.63044724281993"><ele>29.0</ele><time>2026-04-15T13:39:08Z</time></trkpt><trkpt lat="43.34850528574916" lon="10.63024806203175"><ele>29.0</ele><time>2026-04-15T13:39:09Z</time></trkpt><trkpt lat="43.348616170970054" lon="10.630046731265168"><ele>29.333333333333332</ele><time>2026-04-15T13:39:10Z</time></trkpt><trkpt lat="43.3487249284664" lon="10.629845925623394"><ele>29.666666666666664</ele><time>2026-04-15T13:39:11Z</time></trkpt><trkpt lat="43.34883505099123" lon="10.62964200996481"><ele>30.0</ele><time>2026-04-15T13:39:12Z</time></trkpt><trkpt lat="43.34893882258937" lon="10.629445017747402"><ele>31.0</ele><time>2026-04-15T13:39:13Z</time></trkpt><trkpt lat="43.34904708009382" lon="10.62924073660096"><ele>32.0</ele><time>2026-04-15T13:39:14Z</time></trkpt><trkpt lat="43.349152352914516" lon="10.629039872594722"><ele>33.0</ele><time>2026-04-15T13:39:15Z</time></trkpt><trkpt lat="43.349255187163074" lon="10.628837908366723"><ele>33.333333333333336</ele><time>2026-04-15T13:39:16Z</time></trkpt><trkpt lat="43.349355356657085" lon="10.628632706787437"><ele>33.66666666666667</ele><time>2026-04-15T13:39:17Z</time></trkpt><trkpt lat="43.34945353999623" lon="10.628425387239865"><ele>34.0</ele><time>2026-04-15T13:39:18Z</time></trkpt><trkpt lat="43.3495483620396" lon="10.628221927766985"><ele>34.0</ele><time>2026-04-15T13:39:19Z</time></trkpt><trkpt lat="43.34964307173836" lon="10.628018830184622"><ele>34.0</ele><time>2026-04-15T13:39:20Z</time></trkpt><trkpt lat="43.34973883283114" lon="10.62781176167219"><ele>34.0</ele><time>2026-04-15T13:39:21Z</time></trkpt><trkpt lat="43.34983367888751" lon="10.627612294336139"><ele>34.25</ele><time>2026-04-15T13:39:22Z</time></trkpt><trkpt lat="43.349922385572576" lon="10.627433368150385"><ele>34.5</ele><time>2026-04-15T13:39:23Z</time></trkpt><trkpt lat="43.350002175773284" lon="10.627263070592585"><ele>34.75</ele><time>2026-04-15T13:39:24Z</time></trkpt><trkpt lat="43.35007457620757" lon="10.62709953976818"><ele>35.0</ele><time>2026-04-15T13:39:25Z</time></trkpt><trkpt lat="43.35014349654883" lon="10.626943976231235"><ele>35.0</ele><time>2026-04-15T13:39:26Z</time></trkpt><trkpt lat="43.35020716859764" lon="10.626803961497572"><ele>35.0</ele><time>2026-04-15T13:39:27Z</time></trkpt><trkpt lat="43.35026714631154" lon="10.626671874872287"><ele>35.0</ele><time>2026-04-15T13:39:28Z</time></trkpt><trkpt lat="43.35033143739518" lon="10.626550770623625"><ele>35.0</ele><time>2026-04-15T13:39:29Z</time></trkpt><trkpt lat="43.35040790383272" lon="10.62646403405817"><ele>35.0</ele><time>2026-04-15T13:39:30Z</time></trkpt><trkpt lat="43.35049227374909" lon="10.626411068760447"><ele>35.33333333333333</ele><time>2026-04-15T13:39:31Z</time></trkpt><trkpt lat="43.35057579147883" lon="10.626380306086613"><ele>35.666666666666664</ele><time>2026-04-15T13:39:32Z</time></trkpt><trkpt lat="43.35064346263447" lon="10.626323604721106"><ele>36.0</ele><time>2026-04-15T13:39:33Z</time></trkpt><trkpt lat="43.35068121355176" lon="10.62623044899218"><ele>36.333333333333336</ele><time>2026-04-15T13:39:34Z</time></trkpt><trkpt lat="43.35067830252604" lon="10.626129049938314"><ele>36.66666666666667</ele><time>2026-04-15T13:39:35Z</time></trkpt><trkpt lat="43.350642029162124" lon="10.626047904314142"><ele>37.0</ele><time>2026-04-15T13:39:36Z</time></trkpt><trkpt lat="43.350591835961104" lon="10.625994549809949"><ele>37.6</ele><time>2026-04-15T13:39:37Z</time></trkpt><trkpt lat="43.35052146828857" lon="10.625960459737211"><ele>38.2</ele><time>2026-04-15T13:39:38Z</time></trkpt><trkpt lat="43.35043196418249" lon="10.625959826302767"><ele>38.8</ele><time>2026-04-15T13:39:39Z</time></trkpt><trkpt lat="43.350345664704086" lon="10.62596967446314"><ele>39.4</ele><time>2026-04-15T13:39:40Z</time></trkpt><trkpt lat="43.35026315539161" lon="10.626016445677138"><ele>40.0</ele><time>2026-04-15T13:39:41Z</time></trkpt><trkpt lat="43.350154305755495" lon="10.625940579373449"><ele>40.0</ele><time>2026-04-15T13:39:42Z</time></trkpt><trkpt lat="43.350054117144204" lon="10.625885934208899"><ele>40.0</ele><time>2026-04-15T13:39:43Z</time></trkpt><trkpt lat="43.34995362616207" lon="10.625820152650252"><ele>40.0</ele><time>2026-04-15T13:39:44Z</time></trkpt><trkpt lat="43.34984688745499" lon="10.625744624620912"><ele>40.0</ele><time>2026-04-15T13:39:45Z</time></trkpt><trkpt lat="43.34973210351448" lon="10.625661295530273"><ele>39.25</ele><time>2026-04-15T13:39:46Z</time></trkpt><trkpt lat="43.34961180671862" lon="10.625571038096918"><ele>38.5</ele><time>2026-04-15T13:39:47Z</time></trkpt><trkpt lat="43.34948566950232" lon="10.625473213316793"><ele>37.75</ele><time>2026-04-15T13:39:48Z</time></trkpt><trkpt lat="43.349355830748785" lon="10.625363622173264"><ele>37.0</ele><time>2026-04-15T13:39:49Z</time></trkpt><trkpt lat="43.34922648215699" lon="10.625246678748033"><ele>37.0</ele><time>2026-04-15T13:39:50Z</time></trkpt><trkpt lat="43.34909722607434" lon="10.625116472213389"><ele>37.0</ele><time>2026-04-15T13:39:51Z</time></trkpt><trkpt lat="43.34896202680548" lon="10.624974956744326"><ele>37.0</ele><time>2026-04-15T13:39:52Z</time></trkpt><trkpt lat="43.34882385695393" lon="10.624822200464411"><ele>35.66666666666667</ele><time>2026-04-15T13:39:53Z</time></trkpt><trkpt lat="43.34868735125123" lon="10.624657002174095"><ele>34.333333333333336</ele><time>2026-04-15T13:39:54Z</time></trkpt><trkpt lat="43.34855412378644" lon="10.624489095182126"><ele>33.0</ele><time>2026-04-15T13:39:55Z</time></trkpt><trkpt lat="43.34842184645442" lon="10.624320484825036"><ele>33.0</ele><time>2026-04-15T13:39:56Z</time></trkpt><trkpt lat="43.348282357651364" lon="10.624144915852106"><ele>33.0</ele><time>2026-04-15T13:39:57Z</time></trkpt><trkpt lat="43.34813970598697" lon="10.623966676472062"><ele>33.0</ele><time>2026-04-15T13:39:58Z</time></trkpt><trkpt lat="43.348000903237974" lon="10.623794968200922"><ele>33.0</ele><time>2026-04-15T13:39:59Z</time></trkpt><trkpt lat="43.3478685473371" lon="10.623629505900038"><ele>33.0</ele><time>2026-04-15T13:40:00Z</time></trkpt><trkpt lat="43.34774082744207" lon="10.623470114096735"><ele>33.0</ele><time>2026-04-15T13:40:01Z</time></trkpt><trkpt lat="43.34761923033961" lon="10.623317540514568"><ele>33.0</ele><time>2026-04-15T13:40:02Z</time></trkpt><trkpt lat="43.34749123750408" lon="10.623160388545552"><ele>33.0</ele><time>2026-04-15T13:40:03Z</time></trkpt><trkpt lat="43.34736478205442" lon="10.623004840659451"><ele>33.0</ele><time>2026-04-15T13:40:04Z</time></trkpt><trkpt lat="43.3472364954822" lon="10.622845545645857"><ele>32.0</ele><time>2026-04-15T13:40:05Z</time></trkpt><trkpt lat="43.34710794251011" lon="10.622683885156995"><ele>31.0</ele><time>2026-04-15T13:40:06Z</time></trkpt><trkpt lat="43.34697882144326" lon="10.62251846238201"><ele>30.0</ele><time>2026-04-15T13:40:07Z</time></trkpt><trkpt lat="43.34684709137715" lon="10.622349647736492"><ele>30.0</ele><time>2026-04-15T13:40:08Z</time></trkpt><trkpt lat="43.34671545511453" lon="10.62217875608608"><ele>30.0</ele><time>2026-04-15T13:40:09Z</time></trkpt><trkpt lat="43.3465826536126" lon="10.621999852163421"><ele>30.0</ele><time>2026-04-15T13:40:10Z</time></trkpt><trkpt lat="43.346447847233044" lon="10.621811088569032"><ele>29.333333333333336</ele><time>2026-04-15T13:40:11Z</time></trkpt><trkpt lat="43.346313918409024" lon="10.62161361055963"><ele>28.666666666666668</ele><time>2026-04-15T13:40:12Z</time></trkpt><trkpt lat="43.346188874205616" lon="10.621400051833385"><ele>28.0</ele><time>2026-04-15T13:40:13Z</time></trkpt><trkpt lat="43.34607582029286" lon="10.621163273330746"><ele>28.666666666666668</ele><time>2026-04-15T13:40:14Z</time></trkpt><trkpt lat="43.34598903248819" lon="10.620899241596614"><ele>29.333333333333336</ele><time>2026-04-15T13:40:15Z</time></trkpt><trkpt lat="43.345917820936556" lon="10.620616348215133"><ele>30.0</ele><time>2026-04-15T13:40:16Z</time></trkpt><trkpt lat="43.3458616900146" lon="10.620325728201953"><ele>30.0</ele><time>2026-04-15T13:40:17Z</time></trkpt><trkpt lat="43.34581535450682" lon="10.620025707495731"><ele>30.0</ele><time>2026-04-15T13:40:18Z</time></trkpt><trkpt lat="43.345786812270894" lon="10.619738370818045"><ele>30.0</ele><time>2026-04-15T13:40:19Z</time></trkpt><trkpt lat="43.34576323708687" lon="10.619466656729001"><ele>30.666666666666664</ele><time>2026-04-15T13:40:20Z</time></trkpt><trkpt lat="43.3457412518042" lon="10.619205244245157"><ele>31.333333333333332</ele><time>2026-04-15T13:40:21Z</time></trkpt><trkpt lat="43.34571559886249" lon="10.618959202584106"><ele>32.0</ele><time>2026-04-15T13:40:22Z</time></trkpt><trkpt lat="43.34569037632941" lon="10.618712708686129"><ele>33.33333333333333</ele><time>2026-04-15T13:40:23Z</time></trkpt><trkpt lat="43.34566414554895" lon="10.618467377673431"><ele>34.666666666666664</ele><time>2026-04-15T13:40:24Z</time></trkpt><trkpt lat="43.34564250052279" lon="10.61821730342542"><ele>36.0</ele><time>2026-04-15T13:40:25Z</time></trkpt><trkpt lat="43.34562893414527" lon="10.617960260495474"><ele>36.666666666666664</ele><time>2026-04-15T13:40:26Z</time></trkpt><trkpt lat="43.345632452706326" lon="10.617704795971207"><ele>37.33333333333333</ele><time>2026-04-15T13:40:27Z</time></trkpt><trkpt lat="43.34566018734868" lon="10.617447533224412"><ele>38.0</ele><time>2026-04-15T13:40:28Z</time></trkpt><trkpt lat="43.3457079087794" lon="10.61718628636911"><ele>36.0</ele><time>2026-04-15T13:40:29Z</time></trkpt><trkpt lat="43.345771394184226" lon="10.616931194754116"><ele>34.0</ele><time>2026-04-15T13:40:30Z</time></trkpt><trkpt lat="43.34584244129552" lon="10.616677701237496"><ele>32.0</ele><time>2026-04-15T13:40:31Z</time></trkpt><trkpt lat="43.345917139975406" lon="10.61642278576259"><ele>32.0</ele><time>2026-04-15T13:40:32Z</time></trkpt><trkpt lat="43.345988971961944" lon="10.61618032025731"><ele>32.0</ele><time>2026-04-15T13:40:33Z</time></trkpt><trkpt lat="43.346059484184885" lon="10.61594240944553"><ele>32.0</ele><time>2026-04-15T13:40:34Z</time></trkpt><trkpt lat="43.34612895382153" lon="10.615708116534167"><ele>29.666666666666664</ele><time>2026-04-15T13:40:35Z</time></trkpt><trkpt lat="43.34619609609672" lon="10.615484412060612"><ele>27.333333333333336</ele><time>2026-04-15T13:40:36Z</time></trkpt><trkpt lat="43.34625862168278" lon="10.615264140048833"><ele>25.0</ele><time>2026-04-15T13:40:37Z</time></trkpt><trkpt lat="43.34631988818929" lon="10.615047009042193"><ele>27.666666666666668</ele><time>2026-04-15T13:40:38Z</time></trkpt><trkpt lat="43.34638381614065" lon="10.614828308917424"><ele>30.333333333333336</ele><time>2026-04-15T13:40:39Z</time></trkpt><trkpt lat="43.346448874809255" lon="10.614608392054622"><ele>33.0</ele><time>2026-04-15T13:40:40Z</time></trkpt><trkpt lat="43.34651717119771" lon="10.614386878715614"><ele>33.0</ele><time>2026-04-15T13:40:41Z</time></trkpt><trkpt lat="43.34658308363076" lon="10.614161798296683"><ele>33.0</ele><time>2026-04-15T13:40:42Z</time></trkpt><trkpt lat="43.34664949082091" lon="10.613931251607747"><ele>33.0</ele><time>2026-04-15T13:40:43Z</time></trkpt><trkpt lat="43.346715747478065" lon="10.613699853846104"><ele>31.666666666666664</ele><time>2026-04-15T13:40:44Z</time></trkpt><trkpt lat="43.34678483420939" lon="10.613463404322689"><ele>30.333333333333332</ele><time>2026-04-15T13:40:45Z</time></trkpt><trkpt lat="43.34685214622765" lon="10.613225248187069"><ele>29.0</ele><time>2026-04-15T13:40:46Z</time></trkpt><trkpt lat="43.34691775629845" lon="10.612983837328889"><ele>28.333333333333332</ele><time>2026-04-15T13:40:47Z</time></trkpt><trkpt lat="43.34698169824339" lon="10.61275141123978"><ele>27.666666666666664</ele><time>2026-04-15T13:40:48Z</time></trkpt><trkpt lat="43.347046456032864" lon="10.61251087654488"><ele>27.0</ele><time>2026-04-15T13:40:49Z</time></trkpt><trkpt lat="43.34710993064227" lon="10.612273882126743"><ele>27.0</ele><time>2026-04-15T13:40:50Z</time></trkpt><trkpt lat="43.347171619708874" lon="10.612027774080978"><ele>27.0</ele><time>2026-04-15T13:40:51Z</time></trkpt><trkpt lat="43.347231415617955" lon="10.61177408216105"><ele>27.0</ele><time>2026-04-15T13:40:52Z</time></trkpt><trkpt lat="43.347281259395956" lon="10.611515274405178"><ele>29.0</ele><time>2026-04-15T13:40:53Z</time></trkpt><trkpt lat="43.34731803709345" lon="10.611253740689694"><ele>31.0</ele><time>2026-04-15T13:40:54Z</time></trkpt><trkpt lat="43.34735233888997" lon="10.61098498214477"><ele>33.0</ele><time>2026-04-15T13:40:55Z</time></trkpt><trkpt lat="43.34736914704245" lon="10.610720834181674"><ele>33.0</ele><time>2026-04-15T13:40:56Z</time></trkpt><trkpt lat="43.347376159818005" lon="10.610458934853023"><ele>33.0</ele><time>2026-04-15T13:40:57Z</time></trkpt><trkpt lat="43.34737171614714" lon="10.610191150166989"><ele>33.0</ele><time>2026-04-15T13:40:58Z</time></trkpt><trkpt lat="43.34735940019588" lon="10.609935773234369"><ele>32.666666666666664</ele><time>2026-04-15T13:40:59Z</time></trkpt><trkpt lat="43.347339184691606" lon="10.609681112602262"><ele>32.33333333333333</ele><time>2026-04-15T13:41:00Z</time></trkpt><trkpt lat="43.34731683252719" lon="10.609432633930252"><ele>32.0</ele><time>2026-04-15T13:41:01Z</time></trkpt><trkpt lat="43.34729758141248" lon="10.60917728725219"><ele>32.0</ele><time>2026-04-15T13:41:02Z</time></trkpt><trkpt lat="43.34727875204978" lon="10.608924537485889"><ele>32.0</ele><time>2026-04-15T13:41:03Z</time></trkpt><trkpt lat="43.347260882494076" lon="10.608672940879817"><ele>32.0</ele><time>2026-04-15T13:41:04Z</time></trkpt><trkpt lat="43.347242278045975" lon="10.608425947837603"><ele>33.666666666666664</ele><time>2026-04-15T13:41:05Z</time></trkpt><trkpt lat="43.34722301226731" lon="10.608175079860032"><ele>35.333333333333336</ele><time>2026-04-15T13:41:06Z</time></trkpt><trkpt lat="43.34720283012503" lon="10.607922017282688"><ele>37.0</ele><time>2026-04-15T13:41:07Z</time></trkpt><trkpt lat="43.34718020613387" lon="10.607671783262429"><ele>32.333333333333336</ele><time>2026-04-15T13:41:08Z</time></trkpt><trkpt lat="43.34715211806607" lon="10.607430124459787"><ele>27.666666666666668</ele><time>2026-04-15T13:41:09Z</time></trkpt><trkpt lat="43.347118418293945" lon="10.607202036908047"><ele>23.0</ele><time>2026-04-15T13:41:10Z</time></trkpt><trkpt lat="43.347079002632626" lon="10.606977532499082"><ele>23.0</ele><time>2026-04-15T13:41:11Z</time></trkpt><trkpt lat="43.34703216793744" lon="10.606754582950723"><ele>23.0</ele><time>2026-04-15T13:41:12Z</time></trkpt><trkpt lat="43.34697478803542" lon="10.606538128542507"><ele>23.0</ele><time>2026-04-15T13:41:13Z</time></trkpt><trkpt lat="43.346907775562045" lon="10.606318925244812"><ele>24.333333333333336</ele><time>2026-04-15T13:41:14Z</time></trkpt><trkpt lat="43.346840996568595" lon="10.60610338010667"><ele>25.666666666666668</ele><time>2026-04-15T13:41:15Z</time></trkpt><trkpt lat="43.346774792853495" lon="10.60588318944632"><ele>27.0</ele><time>2026-04-15T13:41:16Z</time></trkpt><trkpt lat="43.346708742447724" lon="10.60566466801694"><ele>27.0</ele><time>2026-04-15T13:41:17Z</time></trkpt><trkpt lat="43.34664055203435" lon="10.605443582744295"><ele>27.0</ele><time>2026-04-15T13:41:18Z</time></trkpt><trkpt lat="43.34657109007486" lon="10.605229543552296"><ele>27.0</ele><time>2026-04-15T13:41:19Z</time></trkpt><trkpt lat="43.3465006731018" lon="10.605003491530098"><ele>28.333333333333336</ele><time>2026-04-15T13:41:20Z</time></trkpt><trkpt lat="43.346430463191275" lon="10.604776281975665"><ele>29.666666666666668</ele><time>2026-04-15T13:41:21Z</time></trkpt><trkpt lat="43.3463616225526" lon="10.604553548742285"><ele>31.0</ele><time>2026-04-15T13:41:22Z</time></trkpt><trkpt lat="43.346291626509434" lon="10.60432286819111"><ele>28.666666666666668</ele><time>2026-04-15T13:41:23Z</time></trkpt><trkpt lat="43.34622302710819" lon="10.604093095506261"><ele>26.333333333333336</ele><time>2026-04-15T13:41:24Z</time></trkpt><trkpt lat="43.34615553584037" lon="10.603864774207832"><ele>24.0</ele><time>2026-04-15T13:41:25Z</time></trkpt><trkpt lat="43.34608634916685" lon="10.603635889458081"><ele>24.0</ele><time>2026-04-15T13:41:26Z</time></trkpt><trkpt lat="43.34601459902053" lon="10.60341478772611"><ele>24.0</ele><time>2026-04-15T13:41:27Z</time></trkpt><trkpt lat="43.34594033979082" lon="10.603192030552124"><ele>24.0</ele><time>2026-04-15T13:41:28Z</time></trkpt><trkpt lat="43.34586416557754" lon="10.602964337206545"><ele>25.666666666666664</ele><time>2026-04-15T13:41:29Z</time></trkpt><trkpt lat="43.34578573259704" lon="10.602733264338381"><ele>27.333333333333332</ele><time>2026-04-15T13:41:30Z</time></trkpt><trkpt lat="43.34570414415365" lon="10.602500368531247"><ele>29.0</ele><time>2026-04-15T13:41:31Z</time></trkpt><trkpt lat="43.345615541126705" lon="10.60226604769078"><ele>27.333333333333332</ele><time>2026-04-15T13:41:32Z</time></trkpt><trkpt lat="43.34551357262446" lon="10.602040793135489"><ele>25.666666666666664</ele><time>2026-04-15T13:41:33Z</time></trkpt><trkpt lat="43.345395658000776" lon="10.601822499254116"><ele>24.0</ele><time>2026-04-15T13:41:34Z</time></trkpt><trkpt lat="43.3452641617836" lon="10.60161083419177"><ele>24.0</ele><time>2026-04-15T13:41:35Z</time></trkpt><trkpt lat="43.345117906828754" lon="10.601412051791522"><ele>24.0</ele><time>2026-04-15T13:41:36Z</time></trkpt><trkpt lat="43.34496319498887" lon="10.601239703272608"><ele>24.0</ele><time>2026-04-15T13:41:37Z</time></trkpt><trkpt lat="43.34480104322033" lon="10.601081446720185"><ele>23.333333333333332</ele><time>2026-04-15T13:41:38Z</time></trkpt><trkpt lat="43.34462815383061" lon="10.600941215586474"><ele>22.666666666666664</ele><time>2026-04-15T13:41:39Z</time></trkpt><trkpt lat="43.34445123640914" lon="10.600805161660427"><ele>22.0</ele><time>2026-04-15T13:41:40Z</time></trkpt><trkpt lat="43.344270087735296" lon="10.600673120050349"><ele>22.0</ele><time>2026-04-15T13:41:41Z</time></trkpt><trkpt lat="43.34408886198346" lon="10.600539788624992"><ele>22.0</ele><time>2026-04-15T13:41:42Z</time></trkpt><trkpt lat="43.34391224218781" lon="10.60040786580816"><ele>22.0</ele><time>2026-04-15T13:41:43Z</time></trkpt><trkpt lat="43.343739041122625" lon="10.600275601489917"><ele>23.666666666666664</ele><time>2026-04-15T13:41:44Z</time></trkpt><trkpt lat="43.343568188013" lon="10.600144834039048"><ele>25.333333333333332</ele><time>2026-04-15T13:41:45Z</time></trkpt><trkpt lat="43.34340714131072" lon="10.600023346282166"><ele>27.0</ele><time>2026-04-15T13:41:46Z</time></trkpt><trkpt lat="43.34324774430221" lon="10.599906776184524"><ele>27.0</ele><time>2026-04-15T13:41:47Z</time></trkpt><trkpt lat="43.34308283145576" lon="10.599783953519204"><ele>27.0</ele><time>2026-04-15T13:41:48Z</time></trkpt><trkpt lat="43.34292788742817" lon="10.599649482100883"><ele>27.0</ele><time>2026-04-15T13:41:49Z</time></trkpt><trkpt lat="43.34278696245111" lon="10.599500460827015"><ele>27.666666666666664</ele><time>2026-04-15T13:41:50Z</time></trkpt><trkpt lat="43.342652298566456" lon="10.599345537464371"><ele>28.333333333333332</ele><time>2026-04-15T13:41:51Z</time></trkpt><trkpt lat="43.34252348876765" lon="10.599180006524856"><ele>29.0</ele><time>2026-04-15T13:41:52Z</time></trkpt><trkpt lat="43.34240121426029" lon="10.59900602106643"><ele>29.0</ele><time>2026-04-15T13:41:53Z</time></trkpt><trkpt lat="43.342283650242365" lon="10.598814961773678"><ele>29.0</ele><time>2026-04-15T13:41:54Z</time></trkpt><trkpt lat="43.34217434455302" lon="10.598607981078464"><ele>29.0</ele><time>2026-04-15T13:41:55Z</time></trkpt><trkpt lat="43.34207497086267" lon="10.598387910395502"><ele>29.333333333333332</ele><time>2026-04-15T13:41:56Z</time></trkpt><trkpt lat="43.34198718734592" lon="10.598167786415143"><ele>29.666666666666664</ele><time>2026-04-15T13:41:57Z</time></trkpt><trkpt lat="43.341905924517654" lon="10.59794071762879"><ele>30.0</ele><time>2026-04-15T13:41:58Z</time></trkpt><trkpt lat="43.34183051644034" lon="10.597719500462846"><ele>30.0</ele><time>2026-04-15T13:41:59Z</time></trkpt><trkpt lat="43.34175192898029" lon="10.597497987809385"><ele>30.0</ele><time>2026-04-15T13:42:00Z</time></trkpt><trkpt lat="43.34167158624832" lon="10.59727446829897"><ele>30.0</ele><time>2026-04-15T13:42:01Z</time></trkpt><trkpt lat="43.34159346252053" lon="10.597053561611714"><ele>32.666666666666664</ele><time>2026-04-15T13:42:02Z</time></trkpt><trkpt lat="43.34151566271827" lon="10.596827683601443"><ele>35.33333333333333</ele><time>2026-04-15T13:42:03Z</time></trkpt><trkpt lat="43.341441018546746" lon="10.59661236977154"><ele>38.0</ele><time>2026-04-15T13:42:04Z</time></trkpt><trkpt lat="43.341363185468644" lon="10.59639307108892"><ele>33.666666666666664</ele><time>2026-04-15T13:42:05Z</time></trkpt><trkpt lat="43.34128569085215" lon="10.59616742043269"><ele>29.333333333333336</ele><time>2026-04-15T13:42:06Z</time></trkpt><trkpt lat="43.34120716720462" lon="10.595940019305194"><ele>25.0</ele><time>2026-04-15T13:42:07Z</time></trkpt><trkpt lat="43.34112641123013" lon="10.595705562830856"><ele>25.0</ele><time>2026-04-15T13:42:08Z</time></trkpt><trkpt lat="43.34104401411897" lon="10.59546824832671"><ele>25.0</ele><time>2026-04-15T13:42:09Z</time></trkpt><trkpt lat="43.34095778918868" lon="10.59522290952404"><ele>25.0</ele><time>2026-04-15T13:42:10Z</time></trkpt><trkpt lat="43.3408681445658" lon="10.59496829888004"><ele>27.0</ele><time>2026-04-15T13:42:11Z</time></trkpt><trkpt lat="43.34077767360977" lon="10.594710820491608"><ele>29.0</ele><time>2026-04-15T13:42:12Z</time></trkpt><trkpt lat="43.34068425079213" lon="10.594445019291388"><ele>31.0</ele><time>2026-04-15T13:42:13Z</time></trkpt><trkpt lat="43.340596777883" lon="10.594173008104551"><ele>28.0</ele><time>2026-04-15T13:42:14Z</time></trkpt><trkpt lat="43.340514116997994" lon="10.593899390906067"><ele>25.0</ele><time>2026-04-15T13:42:15Z</time></trkpt><trkpt lat="43.34043825603825" lon="10.593616994795399"><ele>22.0</ele><time>2026-04-15T13:42:16Z</time></trkpt><trkpt lat="43.34037217664741" lon="10.59333234945976"><ele>22.0</ele><time>2026-04-15T13:42:17Z</time></trkpt><trkpt lat="43.340317966578525" lon="10.593043349851262"><ele>22.0</ele><time>2026-04-15T13:42:18Z</time></trkpt><trkpt lat="43.34027411342048" lon="10.592762331875095"><ele>22.0</ele><time>2026-04-15T13:42:19Z</time></trkpt><trkpt lat="43.340245475857344" lon="10.59249251291335"><ele>22.333333333333332</ele><time>2026-04-15T13:42:20Z</time></trkpt><trkpt lat="43.34023040652104" lon="10.592233239754865"><ele>22.666666666666668</ele><time>2026-04-15T13:42:21Z</time></trkpt><trkpt lat="43.34022590970113" lon="10.591984425588373"><ele>23.0</ele><time>2026-04-15T13:42:22Z</time></trkpt><trkpt lat="43.340230399747064" lon="10.59174309760897"><ele>23.0</ele><time>2026-04-15T13:42:23Z</time></trkpt><trkpt lat="43.34024025190358" lon="10.591496798289969"><ele>23.0</ele><time>2026-04-15T13:42:24Z</time></trkpt><trkpt lat="43.340258549292926" lon="10.591251224286957"><ele>23.0</ele><time>2026-04-15T13:42:25Z</time></trkpt><trkpt lat="43.340284835054796" lon="10.591005878327007"><ele>22.0</ele><time>2026-04-15T13:42:26Z</time></trkpt><trkpt lat="43.34031835958789" lon="10.590758985491641"><ele>21.0</ele><time>2026-04-15T13:42:27Z</time></trkpt><trkpt lat="43.34035635080461" lon="10.590512652768561"><ele>20.0</ele><time>2026-04-15T13:42:28Z</time></trkpt><trkpt lat="43.34040118513453" lon="10.590262197792638"><ele>19.666666666666668</ele><time>2026-04-15T13:42:29Z</time></trkpt><trkpt lat="43.340449197648255" lon="10.590012814084902"><ele>19.333333333333332</ele><time>2026-04-15T13:42:30Z</time></trkpt><trkpt lat="43.34049740734923" lon="10.589756678766937"><ele>19.0</ele><time>2026-04-15T13:42:31Z</time></trkpt><trkpt lat="43.34054442395013" lon="10.58950386318451"><ele>21.0</ele><time>2026-04-15T13:42:32Z</time></trkpt><trkpt lat="43.34059129995224" lon="10.589239389007245"><ele>23.0</ele><time>2026-04-15T13:42:33Z</time></trkpt><trkpt lat="43.34063769589365" lon="10.588974991608943"><ele>25.0</ele><time>2026-04-15T13:42:34Z</time></trkpt><trkpt lat="43.34068533144556" lon="10.588710287180968"><ele>24.333333333333336</ele><time>2026-04-15T13:42:35Z</time></trkpt><trkpt lat="43.340737496050004" lon="10.58843917133421"><ele>23.666666666666668</ele><time>2026-04-15T13:42:36Z</time></trkpt><trkpt lat="43.340787979718655" lon="10.588172165169167"><ele>23.0</ele><time>2026-04-15T13:42:37Z</time></trkpt><trkpt lat="43.34083846821279" lon="10.587900640038452"><ele>23.0</ele><time>2026-04-15T13:42:38Z</time></trkpt><trkpt lat="43.340887232438995" lon="10.587646065274317"><ele>23.0</ele><time>2026-04-15T13:42:39Z</time></trkpt><trkpt lat="43.340937100478385" lon="10.587393710838914"><ele>23.0</ele><time>2026-04-15T13:42:40Z</time></trkpt><trkpt lat="43.340989710664545" lon="10.587149166113596"><ele>22.666666666666668</ele><time>2026-04-15T13:42:41Z</time></trkpt><trkpt lat="43.34105401513318" lon="10.586908896157084"><ele>22.333333333333332</ele><time>2026-04-15T13:42:42Z</time></trkpt><trkpt lat="43.34113336950577" lon="10.586683405053847"><ele>22.0</ele><time>2026-04-15T13:42:43Z</time></trkpt><trkpt lat="43.341223955083414" lon="10.586466885013628"><ele>22.0</ele><time>2026-04-15T13:42:44Z</time></trkpt><trkpt lat="43.3413219356787" lon="10.5862584103155"><ele>22.0</ele><time>2026-04-15T13:42:45Z</time></trkpt><trkpt lat="43.34141876393471" lon="10.58605802652153"><ele>22.0</ele><time>2026-04-15T13:42:46Z</time></trkpt><trkpt lat="43.341520002545465" lon="10.58586705359766"><ele>22.0</ele><time>2026-04-15T13:42:47Z</time></trkpt><trkpt lat="43.341628781476004" lon="10.585681749100765"><ele>22.0</ele><time>2026-04-15T13:42:48Z</time></trkpt><trkpt lat="43.34173480135327" lon="10.585508834203464"><ele>22.0</ele><time>2026-04-15T13:42:49Z</time></trkpt><trkpt lat="43.341844554210866" lon="10.585338202385943"><ele>22.0</ele><time>2026-04-15T13:42:50Z</time></trkpt><trkpt lat="43.34195382604506" lon="10.585172260220086"><ele>22.0</ele><time>2026-04-15T13:42:51Z</time></trkpt><trkpt lat="43.34206049350583" lon="10.585008377049618"><ele>22.0</ele><time>2026-04-15T13:42:52Z</time></trkpt><trkpt lat="43.34216574324849" lon="10.584843830674671"><ele>22.333333333333332</ele><time>2026-04-15T13:42:53Z</time></trkpt><trkpt lat="43.34227240149508" lon="10.584679211256221"><ele>22.666666666666668</ele><time>2026-04-15T13:42:54Z</time></trkpt><trkpt lat="43.342384292141226" lon="10.584509212082349"><ele>23.0</ele><time>2026-04-15T13:42:55Z</time></trkpt><trkpt lat="43.34249234676297" lon="10.584344929482112"><ele>23.0</ele><time>2026-04-15T13:42:56Z</time></trkpt><trkpt lat="43.34260122570531" lon="10.584178816620033"><ele>23.0</ele><time>2026-04-15T13:42:57Z</time></trkpt><trkpt lat="43.34270242280042" lon="10.584014695214615"><ele>23.0</ele><time>2026-04-15T13:42:58Z</time></trkpt><trkpt lat="43.342795147288335" lon="10.58385608744449"><ele>23.0</ele><time>2026-04-15T13:42:59Z</time></trkpt><trkpt lat="43.34287549131264" lon="10.583701414537481"><ele>23.0</ele><time>2026-04-15T13:43:00Z</time></trkpt><trkpt lat="43.34295244634021" lon="10.583541794576716"><ele>23.0</ele><time>2026-04-15T13:43:01Z</time></trkpt><trkpt lat="43.34302383647547" lon="10.583378739868605"><ele>23.0</ele><time>2026-04-15T13:43:02Z</time></trkpt><trkpt lat="43.34308338009547" lon="10.583223796265152"><ele>23.166666666666668</ele><time>2026-04-15T13:43:03Z</time></trkpt><trkpt lat="43.343129205212826" lon="10.5830769886327"><ele>23.333333333333336</ele><time>2026-04-15T13:43:04Z</time></trkpt><trkpt lat="43.343160989349066" lon="10.582959032206396"><ele>23.5</ele><time>2026-04-15T13:43:05Z</time></trkpt><trkpt lat="43.343190090240306" lon="10.582857749371557"><ele>23.666666666666668</ele><time>2026-04-15T13:43:06Z</time></trkpt><trkpt lat="43.34323145713397" lon="10.582776863726489"><ele>23.833333333333332</ele><time>2026-04-15T13:43:07Z</time></trkpt><trkpt lat="43.34328951103876" lon="10.582719575640846"><ele>24.0</ele><time>2026-04-15T13:43:08Z</time></trkpt><trkpt lat="43.343354166384756" lon="10.582670554476993"><ele>24.166666666666668</ele><time>2026-04-15T13:43:09Z</time></trkpt><trkpt lat="43.343401971113465" lon="10.582594603691904"><ele>24.333333333333336</ele><time>2026-04-15T13:43:10Z</time></trkpt><trkpt lat="43.34342441835746" lon="10.582488204804767"><ele>24.5</ele><time>2026-04-15T13:43:11Z</time></trkpt><trkpt lat="43.34341608162553" lon="10.582378100970972"><ele>24.666666666666668</ele><time>2026-04-15T13:43:12Z</time></trkpt><trkpt lat="43.343382577038554" lon="10.582269160941456"><ele>24.833333333333336</ele><time>2026-04-15T13:43:13Z</time></trkpt><trkpt lat="43.34333741700916" lon="10.582166201644352"><ele>25.0</ele><time>2026-04-15T13:43:14Z</time></trkpt><trkpt lat="43.3433022968278" lon="10.582051940319385"><ele>25.8</ele><time>2026-04-15T13:43:15Z</time></trkpt><trkpt lat="43.34328414307203" lon="10.581930293412741"><ele>26.6</ele><time>2026-04-15T13:43:16Z</time></trkpt><trkpt lat="43.34326761787727" lon="10.581794197795377"><ele>27.4</ele><time>2026-04-15T13:43:17Z</time></trkpt><trkpt lat="43.343244205659246" lon="10.58165880832368"><ele>28.2</ele><time>2026-04-15T13:43:18Z</time></trkpt><trkpt lat="43.34321542550958" lon="10.581528894430582"><ele>29.0</ele><time>2026-04-15T13:43:19Z</time></trkpt><trkpt lat="43.34318422885436" lon="10.581403365521478"><ele>29.0</ele><time>2026-04-15T13:43:20Z</time></trkpt><trkpt lat="43.34314836649823" lon="10.5812775689875"><ele>29.0</ele><time>2026-04-15T13:43:21Z</time></trkpt><trkpt lat="43.343106231710614" lon="10.581146500038843"><ele>29.0</ele><time>2026-04-15T13:43:22Z</time></trkpt><trkpt lat="43.34305937547991" lon="10.581007245253437"><ele>29.0</ele><time>2026-04-15T13:43:23Z</time></trkpt><trkpt lat="43.34300729685036" lon="10.580860087788833"><ele>29.0</ele><time>2026-04-15T13:43:24Z</time></trkpt><trkpt lat="43.34295121075454" lon="10.580705476592463"><ele>29.0</ele><time>2026-04-15T13:43:25Z</time></trkpt><trkpt lat="43.34289049239012" lon="10.580542489109577"><ele>29.0</ele><time>2026-04-15T13:43:26Z</time></trkpt><trkpt lat="43.34282339122537" lon="10.580368560199998"><ele>29.0</ele><time>2026-04-15T13:43:27Z</time></trkpt><trkpt lat="43.34275393758488" lon="10.580181420840185"><ele>29.0</ele><time>2026-04-15T13:43:28Z</time></trkpt><trkpt lat="43.34268577055653" lon="10.579988734267763"><ele>28.75</ele><time>2026-04-15T13:43:29Z</time></trkpt><trkpt lat="43.34262957843318" lon="10.579806566204478"><ele>28.5</ele><time>2026-04-15T13:43:30Z</time></trkpt><trkpt lat="43.34258629263398" lon="10.579635024568296"><ele>28.25</ele><time>2026-04-15T13:43:31Z</time></trkpt><trkpt lat="43.34256108344342" lon="10.579483524134266"><ele>28.0</ele><time>2026-04-15T13:43:32Z</time></trkpt><trkpt lat="43.34255394141467" lon="10.579340317581122"><ele>27.333333333333336</ele><time>2026-04-15T13:43:33Z</time></trkpt><trkpt lat="43.34257224488043" lon="10.579199652669901"><ele>26.666666666666668</ele><time>2026-04-15T13:43:34Z</time></trkpt><trkpt lat="43.34260987514746" lon="10.579075179198925"><ele>26.0</ele><time>2026-04-15T13:43:35Z</time></trkpt><trkpt lat="43.342629426876734" lon="10.57897694479051"><ele>25.333333333333336</ele><time>2026-04-15T13:43:36Z</time></trkpt><trkpt lat="43.34260569090058" lon="10.578895123757304"><ele>24.666666666666668</ele><time>2026-04-15T13:43:37Z</time></trkpt><trkpt lat="43.342555571904114" lon="10.578830177794517"><ele>24.0</ele><time>2026-04-15T13:43:38Z</time></trkpt><trkpt lat="43.34249284282965" lon="10.578781646175385"><ele>24.0</ele><time>2026-04-15T13:43:39Z</time></trkpt><trkpt lat="43.342414665045624" lon="10.578776159446054"><ele>24.0</ele><time>2026-04-15T13:43:40Z</time></trkpt><trkpt lat="43.34234116917676" lon="10.578804445431446"><ele>24.0</ele><time>2026-04-15T13:43:41Z</time></trkpt><trkpt lat="43.3422749612908" lon="10.57883576961966"><ele>24.0</ele><time>2026-04-15T13:43:42Z</time></trkpt><trkpt lat="43.342224919914315" lon="10.578893021224793"><ele>24.0</ele><time>2026-04-15T13:43:43Z</time></trkpt><trkpt lat="43.34213194608893" lon="10.57879614388485"><ele>24.0</ele><time>2026-04-15T13:43:44Z</time></trkpt><trkpt lat="43.342070470926444" lon="10.578715409168918"><ele>23.2</ele><time>2026-04-15T13:43:45Z</time></trkpt><trkpt lat="43.342026754413645" lon="10.578600315611485"><ele>22.4</ele><time>2026-04-15T13:43:46Z</time></trkpt><trkpt lat="43.341984644959645" lon="10.578472604777685"><ele>21.6</ele><time>2026-04-15T13:43:47Z</time></trkpt><trkpt lat="43.34193694662815" lon="10.57833653281145"><ele>20.8</ele><time>2026-04-15T13:43:48Z</time></trkpt><trkpt lat="43.3418826293186" lon="10.578196125704082"><ele>20.0</ele><time>2026-04-15T13:43:49Z</time></trkpt><trkpt lat="43.34181668519354" lon="10.578041018635625"><ele>20.0</ele><time>2026-04-15T13:43:50Z</time></trkpt><trkpt lat="43.341745261054" lon="10.577878020116652"><ele>20.0</ele><time>2026-04-15T13:43:51Z</time></trkpt><trkpt lat="43.34166869881671" lon="10.577698066575316"><ele>20.0</ele><time>2026-04-15T13:43:52Z</time></trkpt><trkpt lat="43.341504588240355" lon="10.577296797051032"><ele>19.333333333333336</ele><time>2026-04-15T13:43:54Z</time></trkpt><trkpt lat="43.34141389301701" lon="10.577076200536522"><ele>18.666666666666668</ele><time>2026-04-15T13:43:55Z</time></trkpt><trkpt lat="43.34131479394896" lon="10.57684056086026"><ele>18.0</ele><time>2026-04-15T13:43:56Z</time></trkpt><trkpt lat="43.341206184205795" lon="10.57658975672132"><ele>17.5</ele><time>2026-04-15T13:43:57Z</time></trkpt><trkpt lat="43.34109255088154" lon="10.576325462171017"><ele>17.0</ele><time>2026-04-15T13:43:58Z</time></trkpt><trkpt lat="43.34097735604124" lon="10.576051840349592"><ele>16.5</ele><time>2026-04-15T13:43:59Z</time></trkpt><trkpt lat="43.340857562435154" lon="10.575765774913954"><ele>16.0</ele><time>2026-04-15T13:44:00Z</time></trkpt><trkpt lat="43.34074533529451" lon="10.575497343577805"><ele>15.333333333333332</ele><time>2026-04-15T13:44:01Z</time></trkpt><trkpt lat="43.340640340928665" lon="10.575251724246284"><ele>14.666666666666668</ele><time>2026-04-15T13:44:02Z</time></trkpt><trkpt lat="43.34053760129384" lon="10.575014223007267"><ele>14.0</ele><time>2026-04-15T13:44:03Z</time></trkpt><trkpt lat="43.34043234959516" lon="10.574768937531609"><ele>14.0</ele><time>2026-04-15T13:44:04Z</time></trkpt><trkpt lat="43.34032696116231" lon="10.574524671044358"><ele>14.0</ele><time>2026-04-15T13:44:05Z</time></trkpt><trkpt lat="43.34022048246856" lon="10.57428171953314"><ele>14.0</ele><time>2026-04-15T13:44:06Z</time></trkpt><trkpt lat="43.340117193520534" lon="10.574035587898308"><ele>13.0</ele><time>2026-04-15T13:44:07Z</time></trkpt><trkpt lat="43.34001272921795" lon="10.573782126399937"><ele>12.0</ele><time>2026-04-15T13:44:08Z</time></trkpt><trkpt lat="43.339906706180635" lon="10.57352465244785"><ele>11.0</ele><time>2026-04-15T13:44:09Z</time></trkpt><trkpt lat="43.339794446410465" lon="10.573257415091646"><ele>11.0</ele><time>2026-04-15T13:44:10Z</time></trkpt><trkpt lat="43.339676914115216" lon="10.572978774009854"><ele>11.0</ele><time>2026-04-15T13:44:11Z</time></trkpt><trkpt lat="43.33955538242356" lon="10.5726969416607"><ele>12.0</ele><time>2026-04-15T13:44:12Z</time></trkpt><trkpt lat="43.33943594969812" lon="10.572418307599609"><ele>13.0</ele><time>2026-04-15T13:44:13Z</time></trkpt><trkpt lat="43.33931056618198" lon="10.572125846898269"><ele>14.0</ele><time>2026-04-15T13:44:14Z</time></trkpt><trkpt lat="43.339184900839506" lon="10.571833034508364"><ele>15.0</ele><time>2026-04-15T13:44:15Z</time></trkpt><trkpt lat="43.339065646169885" lon="10.571546857569482"><ele>15.0</ele><time>2026-04-15T13:44:16Z</time></trkpt><trkpt lat="43.3389445277399" lon="10.571264142931598"><ele>15.0</ele><time>2026-04-15T13:44:17Z</time></trkpt><trkpt lat="43.33883186871858" lon="10.57099977027235"><ele>15.0</ele><time>2026-04-15T13:44:18Z</time></trkpt><trkpt lat="43.33872092079486" lon="10.570757028128781"><ele>15.0</ele><time>2026-04-15T13:44:19Z</time></trkpt><trkpt lat="43.33859831433934" lon="10.570514838558644"><ele>15.0</ele><time>2026-04-15T13:44:20Z</time></trkpt><trkpt lat="43.3384640411699" lon="10.570273778487973"><ele>15.0</ele><time>2026-04-15T13:44:21Z</time></trkpt><trkpt lat="43.338323146238636" lon="10.5700359247229"><ele>15.0</ele><time>2026-04-15T13:44:22Z</time></trkpt><trkpt lat="43.33818085395564" lon="10.569795800147505"><ele>15.0</ele><time>2026-04-15T13:44:23Z</time></trkpt><trkpt lat="43.33803776251235" lon="10.569546585160593"><ele>15.5</ele><time>2026-04-15T13:44:24Z</time></trkpt><trkpt lat="43.33789717808581" lon="10.569295474664031"><ele>16.0</ele><time>2026-04-15T13:44:25Z</time></trkpt><trkpt lat="43.337753142918956" lon="10.569040314657336"><ele>16.0</ele><time>2026-04-15T13:44:26Z</time></trkpt><trkpt lat="43.337613491584484" lon="10.568793169135011"><ele>16.0</ele><time>2026-04-15T13:44:27Z</time></trkpt><trkpt lat="43.337477095482306" lon="10.568551147013709"><ele>16.333333333333332</ele><time>2026-04-15T13:44:28Z</time></trkpt><trkpt lat="43.33734232011357" lon="10.568306054760608"><ele>16.666666666666668</ele><time>2026-04-15T13:44:29Z</time></trkpt><trkpt lat="43.337211507589366" lon="10.568062996626447"><ele>17.0</ele><time>2026-04-15T13:44:30Z</time></trkpt><trkpt lat="43.337085495306326" lon="10.567822623711514"><ele>16.333333333333336</ele><time>2026-04-15T13:44:31Z</time></trkpt><trkpt lat="43.336965737725194" lon="10.567596261709975"><ele>15.666666666666668</ele><time>2026-04-15T13:44:32Z</time></trkpt><trkpt lat="43.33684647880253" lon="10.56737875624705"><ele>15.0</ele><time>2026-04-15T13:44:33Z</time></trkpt><trkpt lat="43.33672177861474" lon="10.567160904262169"><ele>15.0</ele><time>2026-04-15T13:44:34Z</time></trkpt><trkpt lat="43.33660100577129" lon="10.566958070622551"><ele>15.0</ele><time>2026-04-15T13:44:35Z</time></trkpt><trkpt lat="43.33647078397235" lon="10.566747383970505"><ele>15.0</ele><time>2026-04-15T13:44:36Z</time></trkpt><trkpt lat="43.3363406349686" lon="10.56654663793059"><ele>14.666666666666668</ele><time>2026-04-15T13:44:37Z</time></trkpt><trkpt lat="43.33620850554844" lon="10.566339728017047"><ele>14.333333333333334</ele><time>2026-04-15T13:44:38Z</time></trkpt><trkpt lat="43.33607886524251" lon="10.566134135191858"><ele>14.0</ele><time>2026-04-15T13:44:39Z</time></trkpt><trkpt lat="43.33594866261741" lon="10.565928706747535"><ele>14.0</ele><time>2026-04-15T13:44:40Z</time></trkpt><trkpt lat="43.33582413636005" lon="10.565734834296217"><ele>14.0</ele><time>2026-04-15T13:44:41Z</time></trkpt><trkpt lat="43.33569613854853" lon="10.56553241478242"><ele>14.0</ele><time>2026-04-15T13:44:42Z</time></trkpt><trkpt lat="43.33557022746425" lon="10.565334030938976"><ele>13.666666666666668</ele><time>2026-04-15T13:44:43Z</time></trkpt><trkpt lat="43.33543910575046" lon="10.565125739834683"><ele>13.333333333333332</ele><time>2026-04-15T13:44:44Z</time></trkpt><trkpt lat="43.33530911944142" lon="10.564919795549907"><ele>13.0</ele><time>2026-04-15T13:44:45Z</time></trkpt><trkpt lat="43.335177302872864" lon="10.564711385849705"><ele>13.0</ele><time>2026-04-15T13:44:46Z</time></trkpt><trkpt lat="43.33504147514896" lon="10.56449443188651"><ele>13.0</ele><time>2026-04-15T13:44:47Z</time></trkpt><trkpt lat="43.334906636797776" lon="10.564282596579046"><ele>13.0</ele><time>2026-04-15T13:44:48Z</time></trkpt><trkpt lat="43.33477462101363" lon="10.564076154199933"><ele>13.0</ele><time>2026-04-15T13:44:49Z</time></trkpt><trkpt lat="43.334651730705076" lon="10.563886341397367"><ele>13.0</ele><time>2026-04-15T13:44:50Z</time></trkpt><trkpt lat="43.33453439854164" lon="10.563704590222658"><ele>13.0</ele><time>2026-04-15T13:44:51Z</time></trkpt><trkpt lat="43.33442106957092" lon="10.56353404620154"><ele>13.5</ele><time>2026-04-15T13:44:52Z</time></trkpt><trkpt lat="43.33431356578838" lon="10.563378568375148"><ele>14.0</ele><time>2026-04-15T13:44:53Z</time></trkpt><trkpt lat="43.334207145654375" lon="10.563234393308527"><ele>14.5</ele><time>2026-04-15T13:44:54Z</time></trkpt><trkpt lat="43.33410235804475" lon="10.563100376195969"><ele>15.0</ele><time>2026-04-15T13:44:55Z</time></trkpt><trkpt lat="43.334004293954024" lon="10.562980463397322"><ele>15.0</ele><time>2026-04-15T13:44:56Z</time></trkpt><trkpt lat="43.333931760306776" lon="10.562882050554595"><ele>15.0</ele><time>2026-04-15T13:44:57Z</time></trkpt><trkpt lat="43.33383410921679" lon="10.562754216529978"><ele>15.0</ele><time>2026-04-15T13:44:58Z</time></trkpt><trkpt lat="43.33377256878669" lon="10.562639021510016"><ele>15.0</ele><time>2026-04-15T13:44:59Z</time></trkpt><trkpt lat="43.33373812620634" lon="10.562507524266984"><ele>15.0</ele><time>2026-04-15T13:45:00Z</time></trkpt><trkpt lat="43.33371327932928" lon="10.562371889985183"><ele>15.2</ele><time>2026-04-15T13:45:01Z</time></trkpt><trkpt lat="43.33366164135561" lon="10.562262964599626"><ele>15.4</ele><time>2026-04-15T13:45:02Z</time></trkpt><trkpt lat="43.33357813656564" lon="10.562187484838137"><ele>15.600000000000001</ele><time>2026-04-15T13:45:03Z</time></trkpt><trkpt lat="43.333488126695805" lon="10.562127269141037"><ele>15.8</ele><time>2026-04-15T13:45:04Z</time></trkpt><trkpt lat="43.33341058968179" lon="10.56203523227181"><ele>16.0</ele><time>2026-04-15T13:45:05Z</time></trkpt><trkpt lat="43.333358132993155" lon="10.561912656064418"><ele>16.2</ele><time>2026-04-15T13:45:06Z</time></trkpt><trkpt lat="43.333313561514494" lon="10.561776600798641"><ele>16.400000000000002</ele><time>2026-04-15T13:45:07Z</time></trkpt><trkpt lat="43.33325541663197" lon="10.561648112325905"><ele>16.6</ele><time>2026-04-15T13:45:08Z</time></trkpt><trkpt lat="43.33319132851796" lon="10.561526404427775"><ele>16.8</ele><time>2026-04-15T13:45:09Z</time></trkpt><trkpt lat="43.333125957797044" lon="10.561409865194186"><ele>17.0</ele><time>2026-04-15T13:45:10Z</time></trkpt><trkpt lat="43.333058994615854" lon="10.561302238332528"><ele>17.0</ele><time>2026-04-15T13:45:11Z</time></trkpt><trkpt lat="43.332990413026394" lon="10.561195659733206"><ele>15.0</ele><time>2026-04-15T13:45:12Z</time></trkpt><trkpt lat="43.33293575167687" lon="10.56109746477892"><ele>15.0</ele><time>2026-04-15T13:45:13Z</time></trkpt><trkpt lat="43.33289769057026" lon="10.561015733245851"><ele>15.0</ele><time>2026-04-15T13:45:14Z</time></trkpt><trkpt lat="43.332869199788504" lon="10.56091705223487"><ele>15.0</ele><time>2026-04-15T13:45:16Z</time></trkpt></trkseg></trk></gpx>